# Wetter Temperatur Luftdruck Luftfeuchtigkeit Sichtweite Windgeschwindigkeit Windrichtung Zeit
1 Clouds 22 1019 43 10000 5.1 190 19:55 02.04.2020
2 Clouds 22 1019 43 10000 5.1 190 19:37 02.04.2020
3 Clouds 21 1019 43 10000 5.1 190 19:18 02.04.2020
4 Clouds 21 1019 49 10000 4.6 220 18:41 02.04.2020
5 Clouds 21 1019 49 10000 4.6 220 18:21 02.04.2020
6 Clouds 20 1019 55 10000 4.1 220 17:57 02.04.2020
7 Clouds 20 1019 55 10000 4.1 220 17:39 02.04.2020
8 Clouds 20 1019 55 10000 4.1 220 17:20 02.04.2020
9 Clouds 19 1019 59 10000 4.6 200 16:56 02.04.2020
10 Clouds 19 1019 59 10000 4.6 200 16:37 02.04.2020
11 Clouds 19 1019 59 10000 4.6 200 16:19 02.04.2020
12 Clouds 18 1019 63 10000 4.6 200 15:45 02.04.2020
13 Clouds 17 1019 63 10000 4.6 200 15:22 02.04.2020
14 Clouds 16 1019 72 10000 3.6 200 14:59 02.04.2020
15 Clouds 16 1019 72 10000 3.6 200 14:40 02.04.2020
16 Clouds 16 1019 72 10000 3.6 200 14:20 02.04.2020
17 Clouds 16 1018 77 10000 4.1 200 13:58 02.04.2020
18 Clouds 15 1018 77 10000 4.1 200 13:39 02.04.2020
19 Clouds 15 1018 77 10000 4.1 200 13:20 02.04.2020
20 Clouds 14 1017 82 10000 3.6 220 12:56 02.04.2020
21 Clouds 14 1017 82 10000 3.6 220 12:37 02.04.2020
22 Clouds 14 1017 82 10000 3.6 220 12:19 02.04.2020
23 Clouds 13 1017 82 10000 6.2 180 11:56 02.04.2020
24 Clouds 13 1017 82 10000 6.2 180 11:37 02.04.2020
25 Clouds 13 1017 82 10000 6.2 180 11:37 02.04.2020
26 Clouds 14 1017 82 10000 6.2 180 11:18 02.04.2020
27 Clouds 14 1016 82 10000 3.6 210 10:54 02.04.2020
28 Clouds 14 1016 82 10000 3.6 210 10:36 02.04.2020
29 Clouds 14 1016 82 10000 3.6 210 10:36 02.04.2020
30 Clouds 14 1016 82 10000 3.6 210 10:18 02.04.2020
31 Clouds 15 1015 77 10000 4.6 200 09:42 02.04.2020
32 Clouds 15 1015 77 10000 4.6 200 09:24 02.04.2020
33 Clouds 15 1015 82 10000 5.1 210 08:58 02.04.2020
34 Clouds 15 1015 82 10000 5.1 210 08:39 02.04.2020
35 Clouds 15 1015 82 10000 5.1 210 08:19 02.04.2020
36 Clouds 16 1015 82 10000 7.2 180 07:42 02.04.2020
37 Clouds 16 1015 87 10000 7.2 220 07:19 02.04.2020
38 Clouds 17 1014 82 10000 6.7 200 06:46 02.04.2020
39 Clouds 17 1014 82 10000 6.7 200 06:20 02.04.2020
40 Clouds 18 1013 82 10000 3.6 200 05:42 02.04.2020
41 Clouds 21 1013 83 10000 2.6 230 02:59 02.04.2020
42 Rain 22 1012 88 10000 3.1 200 01:31 02.04.2020
43 Clouds 23 1011 78 10000 1 0 00:42 02.04.2020
44 Clouds 23 1011 78 10000 1 0 00:24 02.04.2020
45 Rain 23 1011 83 10000 0.5 170 23:41 01.04.2020
46 Rain 23 1011 83 10000 0.5 170 23:20 01.04.2020
47 Clouds 24 1011 83 10000 2.6 100 22:58 01.04.2020
48 Clouds 24 1011 83 10000 2.6 100 22:58 01.04.2020
49 Clouds 24 1011 83 10000 2.6 100 22:39 01.04.2020
50 Clouds 24 1011 83 10000 2.6 100 22:21 01.04.2020
51 Clouds 25 1011 83 10000 1.5 100 21:42 01.04.2020
52 Clouds 25 1011 83 10000 1.5 100 21:22 01.04.2020
53 Clouds 25 1011 78 10000 2.1 20 20:58 01.04.2020
54 Clouds 25 1011 78 10000 2.1 20 20:58 01.04.2020
55 Clouds 25 1011 78 10000 2.1 20 20:40 01.04.2020
56 Clouds 25 1011 78 10000 2.1 20 20:21 01.04.2020
57 Clouds 24 1012 83 10000 3.1 40 20:00 01.04.2020
58 Clouds 24 1012 83 10000 3.1 40 19:41 01.04.2020
59 Clouds 24 1012 83 10000 3.1 40 19:20 01.04.2020
60 Clouds 23 1013 83 10000 5.1 60 18:44 01.04.2020
61 Clouds 23 1013 83 10000 5.1 60 18:26 01.04.2020
62 Clouds 22 1014 88 10000 3.1 100 17:58 01.04.2020
63 Clouds 22 1014 88 10000 3.1 100 17:38 01.04.2020
64 Clouds 21 1014 88 10000 3.1 100 17:19 01.04.2020
65 Clouds 21 1014 94 10000 2.6 160 16:58 01.04.2020
66 Clouds 21 1014 94 10000 2.6 160 16:58 01.04.2020
67 Clouds 20 1014 94 10000 2.6 160 16:39 01.04.2020
68 Rain 20 1014 94 10000 2.6 160 16:21 01.04.2020
69 Rain 20 1015 94 4000 2.1 180 15:57 01.04.2020
70 Rain 20 1015 94 4000 2.1 180 15:57 01.04.2020
71 Rain 20 1013 88 5000 5.1 330 15:38 01.04.2020
72 Rain 20 1013 88 5000 5.1 330 15:18 01.04.2020
73 Clouds 20 1013 88 10000 4.1 330 14:55 01.04.2020
74 Clouds 20 1013 88 10000 4.1 330 14:55 01.04.2020
75 Clouds 21 1013 88 10000 4.1 330 14:36 01.04.2020
76 Clouds 21 1013 88 10000 4.1 330 14:18 01.04.2020
77 Clouds 20 1013 88 10000 5.1 340 13:55 01.04.2020
78 Clouds 20 1013 88 10000 5.1 340 13:36 01.04.2020
79 Clouds 20 1013 88 10000 5.1 340 13:18 01.04.2020
80 Clouds 20 1013 88 10000 5.7 360 12:42 01.04.2020
81 Clouds 20 1013 88 10000 5.7 360 12:23 01.04.2020
82 Clouds 20 1012 83 10000 6.2 360 11:59 01.04.2020
83 Clouds 20 1012 83 10000 6.2 360 11:59 01.04.2020
84 Clouds 20 1012 83 10000 6.2 360 11:39 01.04.2020
85 Clouds 20 1012 83 10000 6.2 360 11:20 01.04.2020
86 Clouds 20 1013 83 10000 5.1 10 10:41 01.04.2020
87 Clouds 20 1013 83 10000 5.1 10 10:22 01.04.2020
88 Clouds 20 1013 83 10000 5.1 30 09:59 01.04.2020
89 Clouds 21 1013 83 10000 5.1 30 09:40 01.04.2020
90 Clouds 20 1013 83 10000 5.1 30 09:21 01.04.2020
91 Clouds 21 1015 78 10000 4.6 40 08:56 01.04.2020
92 Clouds 20 1014 77 10000 4.1 40 08:37 01.04.2020
93 Clouds 21 1014 77 10000 4.1 40 08:18 01.04.2020
94 Clouds 21 1015 73 10000 5.7 40 07:41 01.04.2020
95 Clouds 21 1015 73 10000 5.7 40 07:19 01.04.2020
96 Clouds 21 1016 73 10000 6.7 40 06:43 01.04.2020
97 Clouds 22 1016 73 10000 6.7 40 06:21 01.04.2020
98 Clouds 22 1016 78 10000 6.2 70 05:41 01.04.2020
99 Clouds 22 1016 78 10000 7.2 90 04:29 01.04.2020
100 Clouds 22 1016 83 10000 9.8 100 03:20 01.04.2020
101 Clouds 22 1016 83 10000 8.7 110 02:37 01.04.2020
102 Clouds 22 1016 83 10000 7.7 110 01:53 01.04.2020
103 Clouds 22 1016 83 10000 7.7 110 01:25 01.04.2020
104 Clouds 22 1016 83 10000 8.2 110 00:47 01.04.2020
105 Clouds 22 1016 83 10000 8.2 110 00:22 01.04.2020
106 Clouds 22 1016 83 10000 8.7 110 23:57 31.03.2020
107 Clouds 22 1016 83 10000 8.7 110 23:57 31.03.2020
108 Clouds 22 1016 83 10000 8.7 110 23:38 31.03.2020
109 Clouds 22 1016 83 10000 8.7 110 23:19 31.03.2020
110 Clouds 23 1016 73 10000 8.7 120 22:41 31.03.2020
111 Clouds 23 1016 73 10000 8.7 120 22:21 31.03.2020
112 Clouds 23 1017 73 10000 8.2 100 21:58 31.03.2020
113 Clouds 23 1017 73 10000 8.2 100 21:40 31.03.2020
114 Clouds 23 1017 73 10000 8.2 100 21:21 31.03.2020
115 Clouds 23 1017 69 10000 7.7 100 20:57 31.03.2020
116 Clouds 23 1017 69 10000 7.7 100 20:57 31.03.2020
117 Clouds 23 1017 69 10000 7.7 100 20:37 31.03.2020
118 Clouds 23 1017 69 10000 7.7 100 20:19 31.03.2020
119 Clouds 23 1018 69 10000 6.2 100 19:55 31.03.2020
120 Clouds 23 1018 69 10000 6.2 100 19:37 31.03.2020
121 Clouds 23 1019 73 10000 7.2 100 19:18 31.03.2020
122 Clouds 23 1019 73 10000 7.2 100 18:43 31.03.2020
123 Clouds 22 1019 73 10000 6.7 100 18:20 31.03.2020
124 Clouds 22 1019 73 10000 6.7 100 17:56 31.03.2020
125 Clouds 22 1019 73 10000 6.7 100 17:56 31.03.2020
126 Clouds 22 1019 73 10000 6.7 100 17:38 31.03.2020
127 Clouds 22 1019 73 10000 6.7 100 17:38 31.03.2020
128 Clouds 22 1019 73 10000 6.7 100 17:20 31.03.2020
129 Drizzle 21 1019 73 9000 8.7 100 16:42 31.03.2020
130 Drizzle 21 1019 73 9000 8.7 100 16:20 31.03.2020
131 Rain 21 1019 83 8000 11.3 110 15:59 31.03.2020
132 Rain 21 1019 83 8000 11.3 110 15:41 31.03.2020
133 Rain 21 1019 83 8000 11.3 110 15:23 31.03.2020
134 Rain 20 1019 88 4000 8.2 130 15:00 31.03.2020
135 Rain 20 1019 88 4000 8.2 130 15:00 31.03.2020
136 Rain 20 1019 88 2000 12.3 100 14:41 31.03.2020
137 Rain 20 1019 88 2000 12.3 100 14:22 31.03.2020
138 Rain 19 1019 88 8000 7.7 100 13:55 31.03.2020
139 Rain 19 1019 88 2500 8.7 100 13:37 31.03.2020
140 Rain 19 1019 88 2500 8.7 100 13:18 31.03.2020
141 Rain 19 1018 93 9000 7.2 130 12:44 31.03.2020
142 Clouds 20 1017 83 10000 7.2 100 12:20 31.03.2020
143 Clouds 20 1017 83 10000 7.2 100 12:20 31.03.2020
144 Clouds 21 1017 83 10000 7.2 100 11:55 31.03.2020
145 Clouds 21 1017 83 10000 7.2 100 11:36 31.03.2020
146 Clouds 21 1017 83 10000 7.2 100 11:36 31.03.2020
147 Clouds 21 1017 83 10000 7.2 100 11:18 31.03.2020
148 Clouds 22 1017 83 10000 7.2 100 10:55 31.03.2020
149 Clouds 22 1017 83 10000 7.2 100 10:37 31.03.2020
150 Clouds 22 1017 83 10000 7.2 100 10:37 31.03.2020
151 Clouds 22 1017 83 10000 7.2 100 10:18 31.03.2020
152 Clouds 23 1016 83 10000 7.7 100 09:43 31.03.2020
153 Clouds 23 1016 83 10000 7.7 100 09:24 31.03.2020
154 Clouds 23 1017 83 10000 7.2 100 08:57 31.03.2020
155 Clouds 23 1017 83 10000 7.2 100 08:39 31.03.2020
156 Clouds 22 1017 83 10000 7.2 100 08:19 31.03.2020
157 Clouds 22 1017 78 10000 7.7 100 07:56 31.03.2020
158 Clouds 22 1017 78 10000 7.7 100 07:38 31.03.2020
159 Clouds 22 1017 78 10000 7.7 100 07:19 31.03.2020
160 Clouds 22 1017 83 10000 7.7 100 06:47 31.03.2020
161 Clouds 22 1017 83 10000 7.7 100 06:22 31.03.2020
162 Clouds 23 1017 78 10000 7.2 100 05:39 31.03.2020
163 Clouds 23 1017 78 10000 7.7 110 03:34 31.03.2020
164 Clouds 23 1017 83 10000 7.2 120 02:18 31.03.2020
165 Clouds 23 1016 83 10000 7.2 110 01:45 31.03.2020
166 Clouds 24 1015 78 10000 6.7 110 00:47 31.03.2020
167 Clouds 24 1015 78 10000 6.7 110 00:25 31.03.2020
168 Clouds 25 1015 78 10000 6.7 110 23:42 30.03.2020
169 Clouds 25 1015 78 10000 6.7 110 23:42 30.03.2020
170 Clouds 25 1015 78 10000 6.7 110 23:21 30.03.2020
171 Clouds 26 1015 78 10000 6.2 110 22:59 30.03.2020
172 Clouds 26 1015 78 10000 6.2 110 22:41 30.03.2020
173 Clouds 26 1015 78 10000 6.2 110 22:22 30.03.2020
174 Clouds 27 1016 74 10000 5.1 110 21:58 30.03.2020
175 Clouds 27 1016 74 10000 5.1 110 21:39 30.03.2020
176 Clouds 27 1016 74 10000 5.1 110 21:21 30.03.2020
177 Clouds 27 1016 74 10000 4.1 110 20:59 30.03.2020
178 Clouds 27 1016 74 10000 4.1 110 20:39 30.03.2020
179 Clouds 27 1016 74 10000 4.1 110 20:21 30.03.2020
180 Clouds 27 1016 78 10000 5.1 110 19:57 30.03.2020
181 Clouds 27 1016 78 10000 5.1 110 19:39 30.03.2020
182 Clouds 27 1016 78 10000 5.1 110 19:20 30.03.2020
183 Clouds 27 1017 78 10000 5.1 110 18:44 30.03.2020
184 Clouds 27 1017 78 10000 5.1 110 18:26 30.03.2020
185 Clouds 27 1017 78 10000 5.1 110 17:58 30.03.2020
186 Clouds 27 1017 78 10000 5.1 110 17:58 30.03.2020
187 Clouds 27 1017 78 10000 5.1 110 17:40 30.03.2020
188 Clouds 26 1017 78 10000 5.1 110 17:22 30.03.2020
189 Clouds 26 1018 83 9000 5.1 110 16:59 30.03.2020
190 Clouds 26 1018 83 9000 5.1 110 16:40 30.03.2020
191 Clouds 25 1018 83 9000 5.1 110 16:21 30.03.2020
192 Clouds 25 1018 88 9000 4.1 120 15:56 30.03.2020
193 Clouds 25 1018 88 9000 4.1 120 15:56 30.03.2020
194 Clouds 25 1018 88 9000 4.1 120 15:38 30.03.2020
195 Clouds 24 1018 88 9000 4.1 120 15:20 30.03.2020
196 Clouds 24 1018 88 8000 3.6 150 14:56 30.03.2020
197 Clouds 23 1018 88 8000 3.6 150 14:37 30.03.2020
198 Clouds 23 1018 88 8000 3.6 150 14:18 30.03.2020
199 Clouds 23 1017 88 6000 3.6 160 13:55 30.03.2020
200 Clouds 23 1017 88 6000 3.6 160 13:37 30.03.2020
201 Clouds 22 1017 88 6000 3.6 160 13:19 30.03.2020
202 Clouds 22 1017 88 6000 2.6 160 12:44 30.03.2020
203 Clouds 22 1017 88 6000 2.6 160 12:21 30.03.2020
204 Clouds 22 1017 88 6000 2.6 160 12:21 30.03.2020
205 Clouds 22 1017 94 8000 4.6 120 11:57 30.03.2020
206 Clouds 22 1017 94 8000 4.6 120 11:39 30.03.2020
207 Clouds 22 1017 94 8000 4.6 120 11:21 30.03.2020
208 Clouds 22 1016 94 10000 3.6 110 10:41 30.03.2020
209 Clouds 22 1016 94 10000 3.6 110 10:23 30.03.2020
210 Clouds 22 1016 94 10000 1.5 90 09:59 30.03.2020
211 Clouds 22 1016 94 10000 1.5 90 09:59 30.03.2020
212 Clouds 22 1016 94 10000 1.5 90 09:40 30.03.2020
213 Clouds 22 1017 88 10000 3.1 100 09:19 30.03.2020
214 Clouds 22 1017 88 10000 3.1 100 08:47 30.03.2020
215 Clear 22 1017 94 10000 3.1 120 08:28 30.03.2020
216 Clear 22 1017 94 10000 3.1 120 07:55 30.03.2020
217 Clear 22 1017 94 10000 3.1 120 07:37 30.03.2020
218 Clear 22 1017 88 10000 2.6 110 06:59 30.03.2020
219 Clear 23 1017 88 10000 2.6 110 06:34 30.03.2020
220 Clear 23 1017 83 10000 3.1 110 05:59 30.03.2020
221 Clear 23 1017 83 10000 3.1 110 05:34 30.03.2020
222 Clear 24 1017 83 10000 3.1 120 04:26 30.03.2020
223 Clear 24 1016 83 10000 1 0 03:44 30.03.2020
224 Clouds 24 1016 88 10000 2.6 120 02:42 30.03.2020
225 Clouds 25 1015 83 10000 1.5 90 01:48 30.03.2020
226 Clouds 25 1015 78 10000 1.5 70 00:55 30.03.2020
227 Clouds 26 1015 78 10000 1.5 70 00:24 30.03.2020
228 Clouds 27 1015 78 10000 2.1 50 23:43 29.03.2020
229 Clouds 27 1015 78 10000 2.1 50 23:24 29.03.2020
230 Clouds 28 1014 78 10000 2.6 50 22:59 29.03.2020
231 Clouds 28 1014 78 10000 2.6 50 22:39 29.03.2020
232 Clouds 29 1014 61 10000 2.6 50 22:19 29.03.2020
233 Clouds 29 1014 69 10000 2.6 50 21:57 29.03.2020
234 Clouds 28 1014 78 10000 2.6 40 21:36 29.03.2020
235 Clouds 29 1014 78 10000 2.6 40 21:18 29.03.2020
236 Clouds 29 1014 83 10000 2.6 360 20:55 29.03.2020
237 Clouds 29 1014 83 10000 2.6 360 20:36 29.03.2020
238 Clouds 29 1014 83 10000 2.6 360 20:18 29.03.2020
239 Clouds 29 1015 78 10000 3.1 60 19:42 29.03.2020
240 Clouds 29 1015 78 10000 3.1 60 19:42 29.03.2020
241 Clouds 29 1015 48 10000 4.1 180 19:24 29.03.2020
242 Clouds 29 1015 48 10000 4.1 180 18:58 29.03.2020
243 Clouds 29 1015 48 10000 4.1 180 18:40 29.03.2020
244 Clouds 29 1015 48 10000 4.1 180 18:20 29.03.2020
245 Clouds 29 1015 48 10000 4.1 180 18:20 29.03.2020
246 Clouds 28 1015 58 10000 2.1 270 17:58 29.03.2020
247 Clouds 28 1015 58 10000 2.1 270 17:40 29.03.2020
248 Clouds 28 1015 58 10000 2.1 270 17:20 29.03.2020
249 Clear 27 1016 61 10000 2.1 260 16:58 29.03.2020
250 Clear 27 1016 61 10000 2.1 260 16:39 29.03.2020
251 Clear 27 1016 61 10000 2.1 260 16:20 29.03.2020
252 Clear 26 1015 69 10000 2.1 330 15:43 29.03.2020
253 Clear 25 1015 69 10000 2.1 330 15:25 29.03.2020
254 Clear 23 1015 78 10000 2.1 310 14:59 29.03.2020
255 Clear 24 1015 78 10000 2.1 310 14:40 29.03.2020
256 Clear 23 1015 78 10000 2.1 310 14:21 29.03.2020
257 Clear 21 1015 83 9000 2.1 310 13:59 29.03.2020
258 Clear 22 1015 83 9000 2.1 310 13:41 29.03.2020
259 Clear 21 1015 83 9000 2.1 310 13:21 29.03.2020
260 Clear 21 1014 88 10000 2.1 320 12:57 29.03.2020
261 Clear 20 1014 88 10000 2.1 320 12:38 29.03.2020
262 Clear 20 1014 88 10000 2.1 320 12:19 29.03.2020
263 Clear 20 1013 83 10000 3.1 340 11:55 29.03.2020
264 Clear 20 1013 83 10000 3.1 340 11:37 29.03.2020
265 Clear 20 1013 83 10000 3.1 340 11:19 29.03.2020
266 Clear 20 1013 83 10000 3.1 340 10:38 29.03.2020
267 Clear 20 1013 83 10000 3.1 340 10:19 29.03.2020
268 Clear 21 1013 83 10000 3.1 340 09:42 29.03.2020
269 Clear 21 1013 83 10000 3.1 340 09:23 29.03.2020
270 Clear 21 1013 83 10000 4.1 340 08:57 29.03.2020
271 Clear 21 1013 83 10000 4.1 340 08:39 29.03.2020
272 Clear 22 1013 78 10000 5.1 360 08:20 29.03.2020
273 Clear 22 1013 78 10000 5.1 360 07:44 29.03.2020
274 Clear 22 1013 78 10000 5.1 360 07:21 29.03.2020
275 Clear 23 1013 78 10000 3.6 360 05:58 29.03.2020
276 Clear 23 1012 83 10000 2.1 340 04:55 29.03.2020
277 Clear 24 1012 83 10000 1 90 03:33 29.03.2020
278 Rain 23 1012 83 10000 5.1 80 01:52 29.03.2020
279 Clouds 24 1012 83 10000 5.1 80 01:24 29.03.2020
280 Clouds 24 1011 83 10000 4.1 90 00:58 29.03.2020
281 Clouds 24 1011 83 10000 4.1 90 00:33 29.03.2020
282 Clouds 25 1011 83 10000 2.6 70 23:57 28.03.2020
283 Clouds 25 1011 83 10000 2.6 70 23:39 28.03.2020
284 Clouds 25 1011 83 10000 2.6 70 23:19 28.03.2020
285 Clouds 26 1010 78 10000 3.6 70 22:41 28.03.2020
286 Clouds 27 1010 78 10000 3.6 70 22:22 28.03.2020
287 Clouds 27 1010 78 10000 3.6 70 22:22 28.03.2020
288 Clouds 27 1010 83 10000 2.1 60 21:56 28.03.2020
289 Clouds 27 1010 83 10000 2.1 60 21:37 28.03.2020
290 Clouds 27 1010 83 10000 2.1 60 21:18 28.03.2020
291 Clouds 28 1011 78 10000 3.1 60 20:42 28.03.2020
292 Clouds 28 1011 78 10000 3.1 60 20:24 28.03.2020
293 Clouds 28 1011 78 10000 3.6 90 19:58 28.03.2020
294 Clouds 28 1011 78 10000 3.6 90 19:58 28.03.2020
295 Clouds 28 1011 78 10000 3.6 90 19:39 28.03.2020
296 Clouds 28 1011 65 10000 3.6 50 19:21 28.03.2020
297 Clouds 28 1012 78 10000 2.6 60 18:58 28.03.2020
298 Clouds 28 1012 78 10000 2.6 60 18:39 28.03.2020
299 Clouds 28 1012 78 10000 2.6 60 18:19 28.03.2020
300 Clouds 28 1012 78 10000 3.1 40 17:39 28.03.2020
301 Clouds 26 1013 83 10000 2.6 40 17:20 28.03.2020
302 Clouds 26 1013 83 10000 2.6 40 16:55 28.03.2020
303 Clouds 26 1013 83 10000 2.6 40 16:37 28.03.2020
304 Clouds 26 1013 83 10000 2.6 40 16:18 28.03.2020
305 Clouds 26 1013 78 10000 1.5 40 15:39 28.03.2020
306 Clouds 25 1013 78 10000 1.5 40 15:19 28.03.2020
307 Clouds 24 1013 78 10000 1.5 10 14:55 28.03.2020
308 Clouds 24 1013 78 10000 1.5 10 14:37 28.03.2020
309 Clouds 24 1013 78 10000 1.5 10 14:18 28.03.2020
310 Clouds 23 1013 83 10000 3.6 340 13:38 28.03.2020
311 Clouds 22 1013 83 10000 3.6 340 13:20 28.03.2020
312 Clouds 22 1013 83 10000 2.6 50 12:39 28.03.2020
313 Clouds 22 1013 83 10000 2.6 50 12:21 28.03.2020
314 Clouds 21 1012 83 10000 3.1 70 11:42 28.03.2020
315 Clouds 21 1012 83 10000 3.1 70 11:23 28.03.2020
316 Clouds 21 1011 83 10000 2.6 50 10:56 28.03.2020
317 Clouds 21 1011 83 10000 2.6 50 10:38 28.03.2020
318 Clouds 21 1011 83 10000 2.6 50 10:18 28.03.2020
319 Clouds 22 1011 83 10000 4.1 330 09:41 28.03.2020
320 Clouds 22 1011 83 10000 4.1 330 09:23 28.03.2020
321 Clouds 22 1012 83 10000 4.1 350 08:46 28.03.2020
322 Rain 22 1012 83 10000 4.1 350 08:27 28.03.2020
323 Rain 22 1012 78 10000 3.6 40 07:59 28.03.2020
324 Rain 22 1012 78 10000 3.6 40 07:41 28.03.2020
325 Rain 23 1013 78 10000 4.1 50 06:55 28.03.2020
326 Rain 23 1013 78 10000 4.1 50 06:32 28.03.2020
327 Rain 22 1012 88 10000 1.97 3 05:39 28.03.2020
328 Clouds 22 1012 88 10000 2.04 99 05:19 28.03.2020
329 Clouds 22 1012 83 10000 2.1 130 04:39 28.03.2020
330 Clouds 24 1012 83 10000 2.1 160 02:55 28.03.2020
331 Rain 24 1012 83 10000 3.1 130 01:48 28.03.2020
332 Rain 24 1012 83 10000 3.1 130 01:24 28.03.2020
333 Rain 24 1012 83 10000 3.1 130 00:52 28.03.2020
334 Rain 25 1012 83 10000 3.1 130 00:28 28.03.2020
335 Rain 25 1011 83 10000 4.1 110 23:44 27.03.2020
336 Rain 26 1011 83 10000 4.1 110 23:26 27.03.2020
337 Rain 26 1011 78 10000 4.6 100 22:57 27.03.2020
338 Rain 27 1011 78 10000 4.6 100 22:39 27.03.2020
339 Rain 27 1011 78 10000 4.6 100 22:20 27.03.2020
340 Rain 28 1011 74 10000 4.6 100 21:58 27.03.2020
341 Rain 28 1011 74 10000 4.6 100 21:40 27.03.2020
342 Rain 28 1011 74 10000 4.6 100 21:22 27.03.2020
343 Rain 28 1011 74 10000 4.6 100 21:22 27.03.2020
344 Clouds 28 1012 74 10000 4.1 110 20:56 27.03.2020
345 Clouds 28 1012 74 10000 4.1 110 20:37 27.03.2020
346 Clouds 28 1012 74 10000 4.1 110 20:19 27.03.2020
347 Clouds 28 1013 74 10000 5.1 110 19:43 27.03.2020
348 Clouds 28 1013 74 10000 5.1 110 19:23 27.03.2020
349 Rain 28 1013 69 10000 3.1 90 18:57 27.03.2020
350 Rain 28 1013 69 10000 3.1 90 18:38 27.03.2020
351 Rain 28 1013 69 10000 3.1 90 18:19 27.03.2020
352 Rain 28 1014 69 10000 3.6 80 17:40 27.03.2020
353 Rain 27 1014 69 10000 3.6 80 17:20 27.03.2020
354 -273 0 0 0 0 0 16:54 27.03.2020
355 Rain 27 1014 69 10000 3.6 60 16:36 27.03.2020
356 Rain 27 1014 69 10000 3.6 60 16:36 27.03.2020
357 Rain 27 1014 69 10000 3.6 60 16:18 27.03.2020
358 Rain 26 1014 73 10000 2.6 50 15:41 27.03.2020
359 Rain 25 1014 73 10000 2.6 50 15:23 27.03.2020
360 Rain 25 1014 73 10000 3.1 40 14:46 27.03.2020
361 Rain 25 1014 73 10000 3.1 40 14:25 27.03.2020
362 Rain 25 1014 73 10000 3.1 40 14:25 27.03.2020
363 Rain 24 1014 78 10000 3.1 20 13:56 27.03.2020
364 Rain 24 1014 78 10000 3.1 20 13:37 27.03.2020
365 Rain 24 1014 78 10000 3.1 20 13:18 27.03.2020
366 Rain 24 1014 78 10000 3.1 30 12:49 27.03.2020
367 Rain 24 1014 78 10000 3.1 30 12:21 27.03.2020
368 Rain 23 1014 78 10000 4.1 20 11:59 27.03.2020
369 Rain 23 1014 78 10000 4.1 20 11:59 27.03.2020
370 Rain 23 1014 78 10000 4.1 20 11:59 27.03.2020
371 Rain 23 1014 78 10000 4.1 20 11:59 27.03.2020
372 Rain 23 1014 78 10000 4.1 20 11:59 27.03.2020
373 Rain 23 1014 78 10000 4.1 20 11:40 27.03.2020
374 Rain 22 1014 73 10000 4.6 50 11:22 27.03.2020
375 Rain 23 1014 73 10000 4.6 50 10:54 27.03.2020
376 Rain 23 1014 73 10000 4.6 50 10:36 27.03.2020
377 Rain 23 1014 73 10000 4.6 50 10:36 27.03.2020
378 Rain 23 1014 73 10000 4.6 50 10:18 27.03.2020
379 Rain 23 1014 78 10000 5.1 60 09:54 27.03.2020
380 Rain 23 1014 78 10000 5.1 60 09:36 27.03.2020
381 Rain 23 1014 78 10000 5.1 60 09:18 27.03.2020
382 Rain 23 1014 78 10000 4.6 60 08:54 27.03.2020
383 Rain 23 1014 78 10000 4.6 60 08:36 27.03.2020
384 Clouds 23 1014 78 10000 4.6 60 08:18 27.03.2020
385 Clouds 23 1014 73 10000 4.1 70 07:41 27.03.2020
386 Clouds 23 1014 73 10000 4.1 70 07:21 27.03.2020
387 Clouds 24 1015 73 10000 4.1 50 06:41 27.03.2020
388 Clouds 24 1014 78 10000 3.6 60 05:57 27.03.2020
389 Clouds 24 1014 83 10000 5.1 120 03:34 27.03.2020
390 Rain 23 1014 83 10000 6.2 130 01:56 27.03.2020
391 Rain 23 1014 83 10000 6.2 130 01:19 27.03.2020
392 Clouds 23 1014 88 10000 6.7 130 00:42 27.03.2020
393 Clouds 23 1014 88 10000 6.7 130 00:19 27.03.2020
394 Rain 24 1014 83 10000 7.7 130 23:37 26.03.2020
395 Clouds 24 1015 83 10000 6.7 110 23:18 26.03.2020
396 Clouds 24 1015 83 10000 6.7 110 22:56 26.03.2020
397 Clouds 24 1015 83 10000 6.7 110 22:36 26.03.2020
398 Clouds 25 1015 83 10000 6.7 110 22:18 26.03.2020
399 Clouds 26 1014 73 10000 6.2 110 21:40 26.03.2020
400 Clouds 26 1014 73 10000 6.2 110 21:21 26.03.2020
401 Clouds 25 1015 78 10000 5.7 110 20:59 26.03.2020
402 Clouds 25 1015 78 10000 5.7 110 20:39 26.03.2020
403 Clouds 25 1015 78 10000 5.7 110 20:21 26.03.2020
404 Clouds 25 1015 78 10000 5.7 110 20:21 26.03.2020
405 Clouds 26 1015 78 10000 6.2 110 19:58 26.03.2020
406 Clouds 26 1015 78 10000 6.2 110 19:39 26.03.2020
407 Clouds 26 1015 78 10000 6.2 110 19:20 26.03.2020
408 -273 0 0 0 0 0 19:20 26.03.2020
409 -273 0 0 0 0 0 19:20 26.03.2020
410 Clouds 26 1016 78 10000 6.7 110 18:58 26.03.2020
411 Clouds 26 1016 78 10000 6.7 110 18:58 26.03.2020
412 Clouds 25 1016 78 10000 6.7 110 18:39 26.03.2020
413 Clouds 25 1017 78 10000 6.2 110 18:21 26.03.2020
414 Clouds 25 1017 78 10000 6.2 110 17:43 26.03.2020
415 Clouds 25 1017 78 10000 6.2 110 17:19 26.03.2020
416 Clouds 25 1017 78 10000 6.2 100 16:46 26.03.2020
417 Clouds 25 1017 78 10000 6.2 100 16:28 26.03.2020
418 Clouds 24 1017 83 9000 5.1 140 15:59 26.03.2020
419 Clouds 24 1017 83 9000 5.1 140 15:41 26.03.2020
420 Clouds 24 1017 83 9000 5.1 140 15:22 26.03.2020
421 Clouds 24 1033 84 0 1.34 117 14:58 26.03.2020
422 Clouds 23 1033 84 0 1.79 131 14:39 26.03.2020
423 Clouds 22 1017 88 9000 4.1 140 14:19 26.03.2020
424 Clouds 22 1017 88 9000 4.1 140 13:43 26.03.2020
425 Clouds 22 1017 88 9000 4.1 140 13:23 26.03.2020
426 Clouds 21 1017 88 9000 3.1 140 12:57 26.03.2020
427 Clouds 21 1017 88 9000 3.1 140 12:38 26.03.2020
428 Clouds 21 1017 88 9000 3.1 150 12:19 26.03.2020
429 Clouds 21 1017 88 9000 3.1 150 11:45 26.03.2020
430 Clouds 21 1017 88 9000 3.1 150 11:21 26.03.2020
431 Clouds 21 1016 88 10000 5.1 130 10:56 26.03.2020
432 Clouds 21 1016 88 10000 5.1 130 10:37 26.03.2020
433 Clouds 21 1016 88 10000 5.1 130 10:18 26.03.2020
434 Clouds 21 1016 88 10000 5.1 130 10:18 26.03.2020
435 Clouds 21 1016 88 10000 3.1 140 09:42 26.03.2020
436 Clouds 21 1016 88 10000 3.1 140 09:19 26.03.2020
437 Clouds 21 1016 88 10000 3.1 140 09:19 26.03.2020
438 Clouds 21 1016 88 10000 4.1 140 08:46 26.03.2020
439 Clouds 21 1016 88 10000 4.1 140 08:27 26.03.2020
440 Clouds 21 1017 88 10000 3.6 130 07:58 26.03.2020
441 Clouds 21 1017 88 10000 3.6 130 07:40 26.03.2020
442 Clouds 21 1017 88 10000 3.6 130 07:20 26.03.2020
443 Clouds 21 1017 88 10000 4.1 130 06:38 26.03.2020
444 Clouds 21 1017 73 10000 5.1 140 05:51 26.03.2020
445 Clouds 22 1017 73 10000 4.6 130 03:48 26.03.2020
446 Clouds 22 1017 73 10000 4.6 130 03:26 26.03.2020
447 Clouds 22 1018 78 10000 5.1 140 02:52 26.03.2020
448 Clouds 22 1017 83 10000 7.2 130 01:19 26.03.2020
449 Clouds 23 1016 78 10000 3.6 150 00:33 26.03.2020
450 Clouds 23 1016 83 10000 4.6 160 23:44 25.03.2020
451 Clouds 23 1016 83 10000 4.6 160 23:26 25.03.2020
452 Clouds 23 1015 78 10000 2.1 130 22:55 25.03.2020
453 Clouds 23 1015 78 10000 2.1 130 22:37 25.03.2020
454 Clouds 24 1015 78 10000 2.1 130 22:18 25.03.2020
455 Clouds 25 1015 73 10000 5.1 130 21:43 25.03.2020
456 Clouds 25 1015 73 10000 5.1 130 21:24 25.03.2020
457 Clouds 25 1015 78 10000 4.6 100 20:59 25.03.2020
458 Clouds 25 1015 78 10000 4.6 100 20:39 25.03.2020
459 Clouds 25 1015 78 10000 4.6 100 20:19 25.03.2020
460 Clouds 25 1015 78 10000 4.6 110 19:55 25.03.2020
461 Clouds 24 1015 78 10000 4.6 110 19:37 25.03.2020
462 Clouds 24 1015 83 10000 4.1 130 19:18 25.03.2020
463 Clouds 24 1015 83 10000 4.1 130 18:43 25.03.2020
464 Clouds 24 1015 83 10000 4.1 130 18:43 25.03.2020
465 Clouds 24 1015 83 10000 4.1 130 18:25 25.03.2020
466 Clouds 24 1015 78 10000 4.1 130 17:58 25.03.2020
467 Clouds 24 1015 78 10000 4.1 130 17:40 25.03.2020
468 Clouds 24 1015 78 10000 4.1 130 17:21 25.03.2020
469 Clouds 23 1016 83 10000 2.1 180 16:56 25.03.2020
470 Clouds 23 1016 83 10000 2.1 180 16:38 25.03.2020
471 Clouds 23 1016 83 10000 2.1 180 16:20 25.03.2020
472 Clouds 22 1016 83 10000 3.1 170 15:42 25.03.2020
473 Clouds 22 1016 83 10000 3.1 170 15:20 25.03.2020
474 Clouds 22 1016 83 10000 3.6 180 14:56 25.03.2020
475 Clouds 22 1016 83 10000 3.6 180 14:37 25.03.2020
476 Clouds 22 1016 83 10000 3.6 180 14:19 25.03.2020
477 Clouds 22 1016 88 10000 4.1 160 13:44 25.03.2020
478 Clouds 22 1016 88 10000 4.1 160 13:22 25.03.2020
479 Clouds 22 1015 88 10000 4.6 170 12:38 25.03.2020
480 Clouds 22 1015 88 10000 4.6 170 12:20 25.03.2020
481 Rain 23 1014 69 7000 3.1 230 11:57 25.03.2020
482 Rain 23 1014 69 7000 3.1 230 11:39 25.03.2020
483 Rain 24 1014 69 7000 3.1 230 11:20 25.03.2020
484 Clouds 24 1012 69 10000 3.6 360 10:57 25.03.2020
485 Clouds 24 1012 69 10000 3.6 360 10:39 25.03.2020
486 Clouds 25 1012 69 10000 3.6 360 10:18 25.03.2020
487 Clouds 25 1011 69 10000 4.6 350 09:43 25.03.2020
488 Clouds 26 1011 69 10000 4.6 350 09:25 25.03.2020
489 Clouds 26 1010 61 10000 5.1 350 08:57 25.03.2020
490 Clouds 26 1010 61 10000 5.1 350 08:39 25.03.2020
491 Clouds 26 1010 61 10000 5.1 350 08:19 25.03.2020
492 Clouds 26 1010 61 10000 5.1 350 08:19 25.03.2020
493 Clouds 26 1011 65 10000 4.1 350 07:41 25.03.2020
494 Clouds 26 1011 65 10000 4.1 350 07:22 25.03.2020
495 Clouds 26 1011 78 10000 1 0 06:50 25.03.2020
496 Clouds 26 1011 78 10000 1 0 06:28 25.03.2020
497 Clouds 26 1011 78 10000 1 0 06:28 25.03.2020
498 Clouds 26 1012 74 10000 2.6 350 05:56 25.03.2020
499 Clouds 26 1012 74 10000 2.6 350 05:30 25.03.2020
500 Clouds 26 1012 78 10000 1.5 350 04:39 25.03.2020
501 Clouds 27 1012 78 10000 1 0 03:36 25.03.2020
502 Clouds 27 1013 78 10000 2.1 80 02:40 25.03.2020
503 Clouds 26 1012 78 10000 2.6 120 01:21 25.03.2020
504 Clouds 26 1012 78 10000 3.6 110 00:48 25.03.2020
505 Clouds 26 1012 78 10000 3.6 110 00:23 25.03.2020
506 Clouds 26 1012 78 10000 4.1 120 23:45 24.03.2020
507 Clouds 27 1012 78 10000 4.1 120 23:26 24.03.2020
508 Clouds 28 1012 78 10000 4.6 100 22:56 24.03.2020
509 Clouds 28 1012 78 10000 4.6 100 22:37 24.03.2020
510 Clouds 28 1012 78 10000 4.6 100 22:19 24.03.2020
511 Clouds 28 1012 69 10000 4.6 110 21:55 24.03.2020
512 Clouds 28 1012 69 10000 4.6 110 21:55 24.03.2020
513 Clouds 29 1012 69 10000 4.6 110 21:37 24.03.2020
514 Clouds 30 1012 69 10000 4.6 110 21:18 24.03.2020
515 Clouds 30 1012 69 10000 4.6 110 21:18 24.03.2020
516 Clouds 29 1012 61 10000 3.6 110 20:43 24.03.2020
517 Clear 29 1012 61 10000 3.6 110 20:24 24.03.2020
518 Clear 30 1012 61 10000 3.6 90 19:57 24.03.2020
519 Clear 30 1012 61 10000 3.6 90 19:39 24.03.2020
520 Clear 29 1012 61 10000 3.6 90 19:18 24.03.2020
521 Clear 28 1013 65 10000 3.6 70 18:55 24.03.2020
522 Clear 28 1013 65 10000 3.6 70 18:55 24.03.2020
523 Clear 29 1013 65 10000 3.6 70 18:36 24.03.2020
524 Clear 28 1014 65 10000 3.1 50 18:18 24.03.2020
525 Clear 29 1014 65 10000 3.1 50 17:42 24.03.2020
526 Clear 28 1014 65 10000 3.1 50 17:22 24.03.2020
527 Clear 29 1015 65 10000 4.1 20 16:58 24.03.2020
528 Clear 29 1015 58 10000 5.1 10 16:39 24.03.2020
529 -273 0 0 0 0 0 16:20 24.03.2020
530 -273 0 0 0 0 0 16:20 24.03.2020
531 Clear 28 1015 69 10000 3.1 10 15:55 24.03.2020
532 Clear 28 1015 57 10000 4.1 360 15:37 24.03.2020
533 Clear 27 1015 57 10000 4.1 360 15:19 24.03.2020
534 Clear 26 1016 73 10000 2.6 20 14:42 24.03.2020
535 Clear 24 1016 73 10000 2.6 20 14:18 24.03.2020
536 Clear 24 1015 78 10000 3.6 40 13:42 24.03.2020
537 Clear 24 1015 78 10000 3.6 40 13:23 24.03.2020
538 Clear 24 1015 78 10000 3.6 40 13:23 24.03.2020
539 Clear 24 1015 78 10000 3.6 40 13:23 24.03.2020
540 Clear 24 1015 78 10000 3.6 40 12:47 24.03.2020
541 Clear 23 1015 78 10000 3.6 40 12:28 24.03.2020
542 Clear 23 1015 78 10000 2.6 40 11:59 24.03.2020
543 Clear 22 1015 78 10000 2.6 40 11:39 24.03.2020
544 Clear 19 1015 78 10000 2.6 40 11:19 24.03.2020
545 Clear 19 1014 78 10000 2.6 20 10:42 24.03.2020
546 Clear 20 1014 78 10000 2.6 20 10:19 24.03.2020
547 Clear 20 1014 78 10000 3.1 50 09:57 24.03.2020
548 Clear 20 1014 78 10000 3.1 50 09:39 24.03.2020
549 Clear 20 1014 78 10000 3.1 50 09:20 24.03.2020
550 Clear 20 1014 78 10000 2.6 40 08:38 24.03.2020
551 Clear 21 1014 78 10000 2.6 40 08:20 24.03.2020
552 Clear 21 1015 73 10000 3.1 50 07:47 24.03.2020
553 Clear 20 1015 73 10000 3.1 50 07:23 24.03.2020
554 -273 0 0 0 0 0 06:50 24.03.2020
555 Clear 21 1015 78 10000 4.6 70 06:24 24.03.2020
556 Clear 21 1015 69 10000 3.6 50 04:57 24.03.2020
557 Clear 21 1015 69 10000 4.1 50 03:46 24.03.2020
558 Clear 23 1015 61 10000 5.1 60 02:45 24.03.2020
559 Clear 23 1015 65 10000 5.7 70 01:38 24.03.2020
560 Clear 24 1014 78 10000 4.6 90 00:42 24.03.2020
561 Clear 24 1014 78 10000 4.6 90 00:22 24.03.2020
562 Clear 25 1015 69 10000 5.1 100 23:39 23.03.2020
563 Clear 26 1015 69 10000 5.1 100 23:21 23.03.2020
564 Clear 28 1015 54 10000 4.6 110 22:45 23.03.2020
565 Clear 28 1015 54 10000 4.6 110 22:24 23.03.2020
566 Clear 29 1015 57 10000 4.6 100 21:58 23.03.2020
567 Clear 29 1015 57 10000 4.6 100 21:40 23.03.2020
568 Clear 30 1015 39 10000 3.6 20 21:20 23.03.2020
569 Clear 29 1015 54 10000 2.1 80 20:56 23.03.2020
570 Clear 30 1015 54 10000 2.1 80 20:38 23.03.2020
571 Clear 30 1015 35 10000 4.6 20 20:19 23.03.2020
572 Clear 30 1016 51 10000 3.1 350 19:44 23.03.2020
573 Clear 30 1016 35 10000 5.1 20 19:24 23.03.2020
574 Smoke 30 1016 35 10000 3.1 90 18:56 23.03.2020
575 Clear 29 1017 57 10000 3.1 340 18:38 23.03.2020
576 Clear 29 1017 57 10000 3.1 340 18:20 23.03.2020
577 Clear 29 1018 45 10000 6.2 20 17:42 23.03.2020
578 Smoke 29 1018 35 3000 5.1 30 17:21 23.03.2020
579 Smoke 28 1018 35 3000 5.1 30 16:56 23.03.2020
580 Clear 28 1018 51 10000 5.7 20 16:38 23.03.2020
581 Clear 28 1018 51 10000 5.7 20 16:19 23.03.2020
582 Clear 27 1019 57 10000 4.6 360 15:41 23.03.2020
583 Clear 26 1019 57 10000 4.6 360 15:19 23.03.2020
584 Clear 25 1019 60 10000 4.6 10 14:38 23.03.2020
585 Clear 24 1019 60 10000 4.6 10 14:20 23.03.2020
586 Clear 24 1019 60 10000 4.6 10 14:20 23.03.2020
587 Clear 23 1019 60 10000 6.2 360 13:58 23.03.2020
588 Clear 23 1019 60 10000 6.2 360 13:40 23.03.2020
589 Clear 23 1019 60 10000 6.2 360 13:40 23.03.2020
590 Clear 23 1019 60 10000 6.2 360 13:20 23.03.2020
591 Clear 21 1019 60 10000 5.7 10 12:44 23.03.2020
592 Clear 21 1019 60 10000 5.7 10 12:25 23.03.2020
593 Clear 20 1018 68 10000 7.2 40 11:58 23.03.2020
594 Clear 20 1018 60 10000 5.1 20 11:38 23.03.2020
595 Clear 19 1018 60 10000 5.1 20 11:19 23.03.2020
596 Clear 19 1018 56 10000 5.1 360 10:56 23.03.2020
597 Clear 19 1018 56 10000 5.1 360 10:37 23.03.2020
598 Clear 19 1018 56 10000 5.1 360 10:19 23.03.2020
599 Clear 19 1017 56 10000 6.2 360 09:43 23.03.2020
600 Clear 19 1017 56 10000 6.2 360 09:21 23.03.2020
601 Clear 20 1017 57 10000 5.7 20 08:40 23.03.2020
602 Clear 20 1017 57 10000 5.7 20 08:20 23.03.2020
603 Clear 20 1017 57 10000 5.7 20 08:20 23.03.2020
604 Clear 20 1017 69 10000 3.1 360 07:58 23.03.2020
605 Clear 20 1017 69 10000 3.1 360 07:37 23.03.2020
606 Clear 20 1017 69 10000 3.1 360 07:18 23.03.2020
607 Clear 19 1017 68 10000 2.6 20 06:48 23.03.2020
608 Clear 21 1017 61 10000 4.6 20 05:45 23.03.2020
609 Clear 22 1017 61 10000 3.1 40 04:41 23.03.2020
610 Clear 22 1017 83 10000 4.1 80 03:23 23.03.2020
611 Clouds 23 1017 73 10000 3.6 110 01:50 23.03.2020
612 Clear 23 1016 69 10000 4.6 100 00:50 23.03.2020
613 Clear 24 1016 69 10000 4.6 100 00:29 23.03.2020
614 Clear 25 1016 65 10000 5.1 100 23:44 22.03.2020
615 Clear 25 1016 65 10000 5.1 100 23:24 22.03.2020
616 Clouds 27 1015 61 10000 3.1 90 22:42 22.03.2020
617 Clouds 27 1015 61 10000 3.1 90 22:22 22.03.2020
618 Clouds 28 1016 54 10000 2.6 70 21:54 22.03.2020
619 Clouds 28 1016 54 10000 2.6 70 21:36 22.03.2020
620 Clouds 28 1016 54 10000 2.6 70 21:18 22.03.2020
621 Clouds 29 1016 51 10000 2.6 70 20:42 22.03.2020
622 Clouds 28 1016 51 10000 2.6 70 20:24 22.03.2020
623 Clouds 29 1016 44 10000 2.6 70 19:56 22.03.2020
624 Clouds 28 1016 44 10000 2.6 70 19:38 22.03.2020
625 Clouds 29 1016 44 10000 2.6 70 19:19 22.03.2020
626 Clouds 28 1017 54 10000 3.1 60 18:57 22.03.2020
627 Clouds 29 1017 54 10000 3.1 60 18:39 22.03.2020
628 Clouds 29 1018 65 10000 3.1 40 18:20 22.03.2020
629 Clouds 29 1017 42 10000 3.1 320 17:57 22.03.2020
630 Clouds 28 1018 65 10000 3.1 40 17:38 22.03.2020
631 Clouds 28 1018 65 10000 3.1 40 17:20 22.03.2020
632 Clouds 29 1018 39 10000 3.6 360 16:57 22.03.2020
633 Clouds 29 1018 39 10000 3.6 360 16:57 22.03.2020
634 Clouds 29 1018 39 10000 3.6 360 16:39 22.03.2020
635 Clouds 28 1018 39 10000 3.6 360 16:20 22.03.2020
636 Clouds 27 1018 61 10000 2.1 360 15:40 22.03.2020
637 Clouds 26 1018 61 10000 2.1 360 15:19 22.03.2020
638 Clouds 25 1018 64 10000 2.1 350 14:46 22.03.2020
639 Clouds 25 1018 64 10000 2.1 350 14:46 22.03.2020
640 Clouds 24 1018 64 10000 2.1 350 14:18 22.03.2020
641 Clouds 23 1017 68 10000 2.6 320 13:42 22.03.2020
642 Clear 22 1017 68 10000 2.6 320 13:20 22.03.2020
643 Clear 20 1016 77 10000 2.67 351 12:47 22.03.2020
644 Clear 19 1016 77 10000 2.67 351 12:23 22.03.2020
645 Clear 18 1016 77 10000 1 0 11:59 22.03.2020
646 Clear 17 1016 77 10000 1 0 11:41 22.03.2020
647 Clear 16 1015 68 10000 2.1 310 11:23 22.03.2020
648 Clear 16 1015 68 10000 2.1 310 10:57 22.03.2020
649 Clear 16 1015 68 10000 2.1 310 10:39 22.03.2020
650 Clear 16 1015 68 10000 2.1 310 10:21 22.03.2020
651 Clear 16 1014 77 10000 1 0 09:43 22.03.2020
652 Clear 17 1014 77 10000 1 0 09:23 22.03.2020
653 Clear 17 1014 73 10000 2.1 310 08:44 22.03.2020
654 Clear 18 1014 73 10000 2.1 310 08:25 22.03.2020
655 Clear 18 1014 73 10000 2.6 360 07:53 22.03.2020
656 Clear 17 1015 82 10000 1.5 360 07:28 22.03.2020
657 Clear 17 1014 88 10000 3.4 351 06:40 22.03.2020
658 Clear 19 1014 83 10000 1 270 05:35 22.03.2020
659 Clear 21 1014 73 10000 2.1 10 03:46 22.03.2020
660 Clear 22 1013 69 10000 1 320 01:28 22.03.2020
661 Clear 23 1012 61 10000 2.1 350 00:48 22.03.2020
662 Clear 23 1012 61 10000 2.1 350 00:28 22.03.2020
663 Clear 24 1012 65 10000 3.1 360 23:43 21.03.2020
664 Clear 25 1012 65 10000 3.1 360 23:19 21.03.2020
665 Clear 26 1012 57 10000 2.6 40 22:55 21.03.2020
666 Clear 27 1012 57 10000 2.6 40 22:37 21.03.2020
667 Clear 27 1012 57 10000 2.6 40 22:18 21.03.2020
668 Clear 29 1011 45 10000 4.1 360 21:42 21.03.2020
669 Clear 29 1011 45 10000 4.1 360 21:23 21.03.2020
670 Clouds 29 1011 57 10000 2.6 30 20:56 21.03.2020
671 Clouds 29 1011 57 10000 2.6 30 20:38 21.03.2020
672 Clouds 28 1011 57 10000 2.6 30 20:19 21.03.2020
673 Clear 29 1012 57 10000 3.6 20 19:43 21.03.2020
674 Clear 28 1012 57 10000 3.6 20 19:25 21.03.2020
675 Clear 28 1012 57 10000 3.6 20 19:25 21.03.2020
676 Clear 28 1012 57 10000 2.6 20 18:55 21.03.2020
677 Clear 28 1012 57 10000 2.6 20 18:37 21.03.2020
678 Clear 29 1012 57 10000 2.6 20 18:19 21.03.2020
679 Clear 28 1013 61 10000 4.6 360 17:55 21.03.2020
680 Clear 28 1013 61 10000 4.6 360 17:37 21.03.2020
681 Clear 27 1013 61 10000 4.6 360 17:18 21.03.2020
682 Clear 27 1013 61 10000 4.6 360 16:40 21.03.2020
683 Clear 27 1013 61 10000 4.6 360 16:19 21.03.2020
684 Clear 27 1013 64 10000 3.6 340 15:55 21.03.2020
685 Clear 26 1013 64 10000 3.6 340 15:36 21.03.2020
686 Clear 26 1013 64 10000 3.6 340 15:18 21.03.2020
687 Clear 25 1013 57 10000 3.6 340 14:54 21.03.2020
688 Clear 24 1013 57 10000 3.6 340 14:36 21.03.2020
689 Clear 23 1013 57 10000 3.6 340 14:18 21.03.2020
690 Clear 21 1013 60 10000 2.6 320 13:54 21.03.2020
691 Clear 22 1013 60 10000 2.6 320 13:36 21.03.2020
692 Clear 20 1012 64 10000 1.5 320 13:18 21.03.2020
693 Clear 20 1012 64 10000 1.5 320 12:39 21.03.2020
694 Clear 19 1012 64 10000 1.5 320 12:19 21.03.2020
695 Clear 18 1011 72 10000 2.6 340 11:56 21.03.2020
696 Clear 17 1011 72 10000 2.6 340 11:38 21.03.2020
697 Clear 17 1011 68 10000 3.6 320 11:19 21.03.2020
698 Clear 18 1011 68 10000 3.6 320 10:57 21.03.2020
699 Clear 18 1011 68 10000 3.6 320 10:38 21.03.2020
700 Clear 18 1011 68 10000 3.6 320 10:19 21.03.2020
701 Clear 19 1011 68 10000 1.5 310 09:55 21.03.2020
702 Clear 18 1011 68 10000 1.5 310 09:37 21.03.2020
703 Clear 19 1011 68 10000 1.5 310 09:18 21.03.2020
704 Clear 19 1011 72 10000 3.6 310 08:43 21.03.2020
705 Clear 19 1011 72 10000 3.6 310 08:24 21.03.2020
706 Clear 19 1011 77 10000 1.5 320 07:43 21.03.2020
707 Clear 19 1011 77 10000 1.5 320 07:23 21.03.2020
708 Clear 18 1011 82 10000 2.42 314 06:47 21.03.2020
709 Clear 18 1011 82 10000 2.42 314 06:27 21.03.2020
710 Clear 19 1011 77 10000 2.42 314 05:46 21.03.2020
711 Clear 20 1011 82 10000 1.68 205 04:46 21.03.2020
712 Clear 21 1011 83 10000 1.68 205 02:48 21.03.2020
713 Clear 21 1011 83 10000 1.68 205 02:30 21.03.2020
714 Clear 21 1011 83 10000 0.88 163 01:32 21.03.2020
715 Clear 22 1010 78 10000 1.5 70 00:48 21.03.2020
716 Clear 23 1010 78 10000 1.5 70 00:25 21.03.2020
717 Clear 24 1010 73 10000 1 40 23:49 20.03.2020
718 Clear 25 1010 73 10000 1 40 23:26 20.03.2020
719 Clear 26 1010 65 10000 2.6 40 22:56 20.03.2020
720 Clear 27 1010 65 10000 2.6 40 22:37 20.03.2020
721 Clear 27 1010 65 10000 2.6 40 22:19 20.03.2020
722 Clouds 28 1010 69 10000 3.1 50 21:54 20.03.2020
723 Clouds 28 1010 69 10000 3.1 50 21:36 20.03.2020
724 Clouds 29 1010 69 10000 3.1 50 21:18 20.03.2020
725 Clouds 29 1010 51 10000 3.6 360 20:41 20.03.2020
726 Clouds 28 1010 51 10000 3.6 360 20:21 20.03.2020
727 Clouds 29 1011 57 10000 3.1 360 19:58 20.03.2020
728 Clouds 29 1011 57 10000 3.1 360 19:40 20.03.2020
729 Clouds 28 1011 57 10000 3.1 360 19:18 20.03.2020
730 Clouds 28 1011 57 10000 4.1 360 18:39 20.03.2020
731 Clouds 28 1011 57 10000 4.1 360 18:20 20.03.2020
732 Clouds 27 1012 57 10000 4.6 360 17:57 20.03.2020
733 Clouds 28 1012 57 10000 4.6 360 17:39 20.03.2020
734 Clear 27 1012 44 10000 4.1 300 17:19 20.03.2020
735 Clear 27 1012 44 10000 4.1 300 16:43 20.03.2020
736 Clear 26 1012 44 10000 4.1 300 16:21 20.03.2020
737 Clear 25 1013 50 10000 4.1 290 15:58 20.03.2020
738 Clear 25 1013 50 10000 4.1 290 15:39 20.03.2020
739 Clear 25 1013 50 10000 4.1 290 15:20 20.03.2020
740 Clear 23 1013 56 10000 3.1 290 14:42 20.03.2020
741 Clear 22 1013 56 10000 3.1 290 14:21 20.03.2020
742 Clear 21 1013 64 10000 4.1 290 13:51 20.03.2020
743 Clear 20 1013 64 10000 4.1 290 13:26 20.03.2020
744 Clear 19 1013 68 10000 3.1 310 12:59 20.03.2020
745 Clear 18 1013 68 10000 3.1 310 12:38 20.03.2020
746 Clear 17 1012 88 10000 4.6 330 12:20 20.03.2020
747 Clear 16 1013 77 10000 1 0 11:41 20.03.2020
748 Clear 15 1013 77 10000 3.5 283 11:21 20.03.2020
749 Clear 15 1013 77 10000 3.5 283 10:58 20.03.2020
750 Clear 15 1013 77 10000 3.5 283 10:40 20.03.2020
751 Clear 15 1013 77 10000 3.5 283 10:18 20.03.2020
752 Clear 15 1012 77 10000 1 290 09:46 20.03.2020
753 Clear 15 1012 77 10000 1 290 09:21 20.03.2020
754 Clear 15 1012 77 10000 1 300 08:58 20.03.2020
755 Clear 15 1012 77 10000 1 300 08:39 20.03.2020
756 Clear 16 1012 77 10000 1 300 08:19 20.03.2020
757 Mist 15 1013 93 2000 1 0 07:43 20.03.2020
758 Clear 16 1012 82 10000 1.5 270 07:25 20.03.2020
759 Clear 16 1013 82 10000 1 0 06:43 20.03.2020
760 Clear 16 1013 82 10000 1 0 06:22 20.03.2020
761 Clear 17 1013 68 10000 1 260 04:48 20.03.2020
762 Clear 18 1013 64 10000 1.84 228 02:54 20.03.2020
763 Clear 19 1012 60 10000 1 240 01:50 20.03.2020
764 Clear 20 1012 56 10000 1 0 00:45 20.03.2020
765 Clear 21 1012 56 10000 1 0 00:24 20.03.2020
766 Clear 22 1011 56 10000 2.6 220 23:42 19.03.2020
767 Clear 22 1011 56 10000 2.6 220 23:23 19.03.2020
768 Clear 23 1011 50 10000 2.6 210 22:54 19.03.2020
769 Clear 24 1011 50 10000 2.6 210 22:36 19.03.2020
770 Clear 24 1011 50 10000 2.6 210 22:18 19.03.2020
771 Clouds 24 1011 50 10000 4.6 200 21:39 19.03.2020
772 Clouds 24 1011 50 10000 4.6 200 21:20 19.03.2020
773 Clouds 24 1011 53 10000 3.6 180 20:54 19.03.2020
774 Clouds 24 1011 53 10000 3.6 180 20:36 19.03.2020
775 Clouds 24 1011 53 10000 3.6 180 20:36 19.03.2020
776 Clouds 24 1011 53 10000 3.6 180 20:18 19.03.2020
777 Clouds 24 1011 53 10000 3.1 220 19:39 19.03.2020
778 Clouds 24 1011 53 10000 3.1 220 19:21 19.03.2020
779 Clouds 23 1012 53 10000 3.1 200 18:59 19.03.2020
780 Clouds 23 1012 53 10000 3.1 200 18:41 19.03.2020
781 Clouds 23 1012 53 10000 3.1 200 18:22 19.03.2020
782 Clouds 23 1012 56 10000 4.1 200 17:55 19.03.2020
783 Clouds 23 1012 56 10000 4.1 200 17:37 19.03.2020
784 Clouds 22 1012 60 10000 5.7 200 17:18 19.03.2020
785 Clouds 22 1012 60 10000 5.7 200 16:42 19.03.2020
786 Clouds 22 1012 60 10000 5.7 200 16:21 19.03.2020
787 Clouds 21 1012 64 10000 3.6 220 15:43 19.03.2020
788 Clouds 21 1012 64 10000 3.6 220 15:23 19.03.2020
789 Clouds 19 1011 72 10000 4.1 240 14:43 19.03.2020
790 Clouds 19 1011 72 10000 4.1 240 14:23 19.03.2020
791 Clouds 18 1011 77 10000 3.1 230 13:57 19.03.2020
792 Clouds 17 1011 77 10000 3.1 230 13:37 19.03.2020
793 Clouds 17 1011 77 10000 3.1 230 13:18 19.03.2020
794 Clouds 17 1011 82 10000 5.7 230 12:41 19.03.2020
795 Clouds 16 1010 88 10000 3.1 250 12:22 19.03.2020
796 Clouds 16 1010 88 10000 3.1 250 11:57 19.03.2020
797 Clouds 16 1010 88 10000 3.1 250 11:57 19.03.2020
798 Clouds 16 1011 87 10000 5.7 230 11:38 19.03.2020
799 Clouds 16 1010 100 8000 3.1 260 11:20 19.03.2020
800 Clear 15 1010 93 10000 2.6 260 10:41 19.03.2020
801 Clear 16 1010 93 10000 2.6 260 10:21 19.03.2020
802 Clouds 16 1009 100 7000 3.1 260 09:58 19.03.2020
803 Clouds 16 1009 100 7000 3.1 260 09:38 19.03.2020
804 Clear 17 1009 82 10000 2.6 230 09:19 19.03.2020
805 Clouds 16 1010 100 10000 1.5 240 08:45 19.03.2020
806 Clear 17 1010 93 10000 3.1 250 08:21 19.03.2020
807 Mist 17 1009 100 5000 3.1 280 07:46 19.03.2020
808 Mist 17 1009 100 3000 2.1 270 07:28 19.03.2020
809 Fog 17 1010 100 100 2.6 290 06:48 19.03.2020
810 Fog 18 1011 93 6000 4.59 237 05:49 19.03.2020
811 Fog 18 1010 100 300 1 270 04:58 19.03.2020
812 Clear 18 1011 88 10000 1 0 04:40 19.03.2020
813 Mist 19 1011 100 5000 3.44 218 02:50 19.03.2020
814 Rain 20 1011 88 10000 0.5 230 01:21 19.03.2020
815 Clouds 21 1010 88 10000 1 0 00:28 19.03.2020
816 Clouds 21 1010 83 10000 1.5 30 23:51 18.03.2020
817 Clouds 22 1010 83 10000 1.5 30 23:30 18.03.2020
818 Clouds 22 1010 83 10000 1.5 30 23:30 18.03.2020
819 Clouds 23 1009 88 10000 2.6 210 22:56 18.03.2020
820 Clouds 23 1010 83 10000 3.1 90 22:38 18.03.2020
821 Clouds 23 1010 83 10000 3.1 90 22:20 18.03.2020
822 Clouds 24 1010 78 10000 3.6 110 21:42 18.03.2020
823 Clouds 24 1010 78 10000 3.6 110 21:21 18.03.2020
824 Clouds 24 1010 83 10000 4.1 80 20:59 18.03.2020
825 Clouds 24 1010 83 10000 4.1 80 20:40 18.03.2020
826 Clouds 24 1010 83 10000 4.1 80 20:40 18.03.2020
827 Clouds 24 1010 83 10000 4.1 80 20:20 18.03.2020
828 Clouds 25 1011 78 10000 3.6 140 19:56 18.03.2020
829 Clouds 24 1011 78 10000 3.6 140 19:38 18.03.2020
830 Clouds 24 1011 78 10000 3.6 140 19:19 18.03.2020
831 Clouds 24 1011 78 10000 3.6 140 19:19 18.03.2020
832 Clouds 23 1011 83 10000 5.1 140 18:41 18.03.2020
833 Clouds 23 1010 83 10000 5.7 150 18:20 18.03.2020
834 Clouds 23 1010 83 10000 5.7 150 17:58 18.03.2020
835 Clouds 23 1011 73 10000 2.1 170 17:39 18.03.2020
836 Drizzle 22 1012 83 7000 2.1 190 17:21 18.03.2020
837 Drizzle 22 1012 83 7000 2.1 190 16:55 18.03.2020
838 Drizzle 22 1012 83 7000 2.1 190 16:37 18.03.2020
839 Drizzle 22 1012 83 7000 2.1 190 16:19 18.03.2020
840 Clouds 21 1013 83 10000 2.6 180 15:45 18.03.2020
841 Clouds 21 1013 83 10000 2.6 180 15:20 18.03.2020
842 Clouds 21 1012 88 10000 3.6 170 14:45 18.03.2020
843 Clouds 20 1012 88 10000 3.6 170 14:22 18.03.2020
844 Clouds 20 1012 93 10000 5.1 160 13:58 18.03.2020
845 Drizzle 20 1012 93 8000 3.1 160 13:36 18.03.2020
846 Drizzle 19 1012 93 8000 3.1 160 13:18 18.03.2020
847 Drizzle 19 1012 93 8000 4.1 160 12:41 18.03.2020
848 Rain 19 1012 93 2500 5.1 140 12:19 18.03.2020
849 Drizzle 19 1011 93 2000 3.6 170 11:40 18.03.2020
850 Drizzle 19 1011 93 9000 2.6 160 11:21 18.03.2020
851 Drizzle 19 1011 93 9000 2.6 160 10:58 18.03.2020
852 Drizzle 19 1011 93 9000 2.6 160 10:39 18.03.2020
853 Drizzle 19 1011 93 9000 2.6 160 10:20 18.03.2020
854 Drizzle 19 1011 93 2000 2.6 190 09:44 18.03.2020
855 Drizzle 19 1011 93 2000 2.6 190 09:26 18.03.2020
856 Drizzle 18 1011 93 4000 1.5 200 08:57 18.03.2020
857 Drizzle 18 1011 93 4000 1.5 200 08:39 18.03.2020
858 Drizzle 18 1011 93 4000 1.5 200 08:39 18.03.2020
859 Drizzle 18 1011 93 4000 1.5 200 08:20 18.03.2020
860 Drizzle 18 1012 93 4000 1.5 200 07:46 18.03.2020
861 Drizzle 18 1012 93 4000 1.5 200 07:28 18.03.2020
862 Drizzle 18 1012 88 2000 5.1 110 06:44 18.03.2020
863 Drizzle 19 1012 83 3500 6.2 110 06:22 18.03.2020
864 Rain 19 1013 100 5000 1.5 230 05:35 18.03.2020
865 Clouds 20 1011 77 10000 7.7 90 04:25 18.03.2020
866 Clouds 20 1012 83 10000 8.2 110 02:44 18.03.2020
867 Rain 18 1014 88 10000 1.5 190 01:48 18.03.2020
868 Rain 18 1014 88 10000 1.5 190 01:26 18.03.2020
869 Drizzle 17 1013 88 9000 5.1 180 00:24 18.03.2020
870 Drizzle 17 1013 88 9000 5.1 180 23:48 17.03.2020
871 Drizzle 17 1013 88 9000 5.1 180 23:27 17.03.2020
872 Drizzle 17 1013 93 9000 5.1 170 22:55 17.03.2020
873 Rain 17 1013 93 5000 6.7 160 22:37 17.03.2020
874 Rain 18 1013 93 5000 6.7 160 22:18 17.03.2020
875 Drizzle 19 1013 93 2500 6.7 160 21:39 17.03.2020
876 Drizzle 19 1013 93 2500 6.7 160 21:21 17.03.2020
877 Clouds 21 1012 88 10000 6.7 120 20:40 17.03.2020
878 Clouds 21 1012 88 10000 6.7 120 20:21 17.03.2020
879 Drizzle 22 1012 88 8000 6.2 120 19:58 17.03.2020
880 Drizzle 22 1012 88 8000 6.2 120 19:39 17.03.2020
881 Rain 22 1014 83 5000 2.1 80 19:18 17.03.2020
882 Rain 22 1014 83 5000 2.1 80 18:55 17.03.2020
883 Rain 22 1014 83 5000 2.1 80 18:37 17.03.2020
884 Rain 22 1014 83 5000 2.1 80 18:19 17.03.2020
885 Clouds 22 1013 83 10000 3.6 110 17:40 17.03.2020
886 Clouds 22 1013 83 10000 3.6 110 17:21 17.03.2020
887 Drizzle 21 1014 88 9000 2.1 50 16:45 17.03.2020
888 Drizzle 21 1014 88 9000 2.1 50 16:20 17.03.2020
889 Drizzle 21 1014 88 9000 2.1 30 15:58 17.03.2020
890 Drizzle 20 1014 88 9000 2.1 30 15:39 17.03.2020
891 Drizzle 20 1014 88 9000 2.1 30 15:18 17.03.2020
892 Rain 20 1015 88 3000 1.5 20 14:41 17.03.2020
893 Rain 20 1015 88 3000 1.5 20 14:41 17.03.2020
894 Rain 20 1015 88 3000 1.5 20 14:18 17.03.2020
895 Rain 19 1015 94 5000 1.5 0 13:43 17.03.2020
896 Clouds 19 1010 88 10000 1.5 360 13:24 17.03.2020
897 Thunderstorm 19 1015 88 9000 2.6 360 12:48 17.03.2020
898 Clouds 19 1014 77 10000 3.1 10 12:26 17.03.2020
899 Clouds 19 1014 77 10000 3.1 10 12:26 17.03.2020
900 Clear 18 1014 88 10000 4.1 60 11:59 17.03.2020
901 Clear 18 1014 77 10000 5.1 360 11:40 17.03.2020
902 Clear 18 1013 82 10000 3.1 30 11:22 17.03.2020
903 Clear 17 1013 82 10000 3.1 30 10:56 17.03.2020
904 Clear 17 1013 82 10000 3.1 30 10:37 17.03.2020
905 Clear 17 1013 82 10000 3.1 30 10:18 17.03.2020
906 Clear 17 1013 73 10000 4.1 50 09:45 17.03.2020
907 Clear 18 1013 73 10000 4.1 50 09:20 17.03.2020
908 Clear 17 1014 77 10000 3.6 60 08:58 17.03.2020
909 Clear 16 1014 93 10000 2.6 50 08:40 17.03.2020
910 Clear 16 1014 93 10000 2.6 50 08:18 17.03.2020
911 Clear 16 1014 93 10000 2.6 50 08:18 17.03.2020
912 Clear 17 1014 77 10000 4.1 60 07:49 17.03.2020
913 Clear 18 1014 77 10000 4.1 60 07:20 17.03.2020
914 Clear 17 1014 77 10000 4.6 70 06:45 17.03.2020
915 Clear 17 1014 77 10000 4.6 70 06:25 17.03.2020
916 Clear 17 1015 93 10000 2.6 70 05:20 17.03.2020
917 Clear 19 1015 77 10000 6.2 100 03:27 17.03.2020
918 Clear 20 1015 73 10000 5.7 100 01:50 17.03.2020
919 Clear 20 1015 73 10000 5.7 100 01:30 17.03.2020
920 Clear 20 1014 72 10000 4.6 110 00:51 17.03.2020
921 Clear 21 1014 72 10000 4.6 100 23:52 16.03.2020
922 Clear 21 1014 72 10000 4.6 100 23:34 16.03.2020
923 Clear 22 1014 64 10000 5.1 100 22:55 16.03.2020
924 Clear 22 1014 64 10000 5.1 100 22:36 16.03.2020
925 Clear 23 1014 64 10000 5.1 100 22:18 16.03.2020
926 Clear 23 1015 64 10000 4.6 100 21:41 16.03.2020
927 Clear 23 1015 64 10000 4.6 100 21:23 16.03.2020
928 Clear 23 1015 64 10000 4.1 100 20:58 16.03.2020
929 Clear 24 1015 64 10000 4.1 100 20:38 16.03.2020
930 Clear 23 1015 64 10000 4.1 100 20:20 16.03.2020
931 Clouds 23 1016 64 10000 4.1 110 19:43 16.03.2020
932 Clouds 23 1016 64 10000 4.1 110 19:23 16.03.2020
933 Clouds 23 1016 64 10000 5.1 90 18:57 16.03.2020
934 Clouds 23 1016 64 10000 5.1 90 18:37 16.03.2020
935 Clouds 23 1016 64 10000 5.1 90 18:18 16.03.2020
936 Clouds 23 1017 64 10000 4.6 90 17:43 16.03.2020
937 Clouds 23 1017 64 10000 4.6 90 17:24 16.03.2020
938 Clouds 22 1018 64 10000 4.6 80 16:47 16.03.2020
939 Clouds 22 1018 64 10000 4.6 80 16:29 16.03.2020
940 Clouds 22 1019 64 10000 3.6 70 15:57 16.03.2020
941 Clouds 21 1019 64 10000 3.6 70 15:39 16.03.2020
942 Clouds 21 1019 64 10000 3.6 70 15:19 16.03.2020
943 Clouds 21 1019 68 10000 3.6 60 14:43 16.03.2020
944 Clouds 21 1019 68 10000 3.6 60 14:19 16.03.2020
945 Clouds 20 1019 68 10000 4.1 60 13:42 16.03.2020
946 Clouds 19 1019 68 10000 4.1 60 13:24 16.03.2020
947 Clouds 18 1018 72 10000 4.6 60 12:46 16.03.2020
948 Clouds 17 1018 72 10000 4.6 60 12:27 16.03.2020
949 Clouds 16 1018 72 10000 4.1 60 11:59 16.03.2020
950 Clouds 16 1018 72 10000 4.1 60 11:41 16.03.2020
951 Clouds 14 1018 87 10000 4.91 62 11:18 16.03.2020
952 Clouds 14 1018 87 10000 4.91 62 10:42 16.03.2020
953 Clouds 14 1018 87 10000 4.91 62 10:24 16.03.2020
954 Clouds 14 1018 87 10000 4.91 62 09:45 16.03.2020
955 Clouds 14 1018 87 10000 4.91 62 09:27 16.03.2020
956 Clouds 15 1018 72 10000 3.6 70 08:56 16.03.2020
957 Clouds 15 1018 72 10000 3.6 70 08:25 16.03.2020
958 Clouds 16 1018 64 10000 4.1 90 07:50 16.03.2020
959 Clouds 15 1018 82 10000 2.6 50 07:27 16.03.2020
960 Clouds 16 1018 68 10000 5.7 100 06:54 16.03.2020
961 Clouds 16 1018 68 10000 5.7 100 06:25 16.03.2020
962 Clouds 17 1018 77 10000 3.6 130 05:42 16.03.2020
963 Clouds 19 1019 68 10000 5.7 110 02:44 16.03.2020
964 Clouds 19 1019 72 10000 5.1 100 01:20 16.03.2020
965 Clouds 20 1018 68 10000 4.6 100 00:39 16.03.2020
966 Clouds 20 1018 68 10000 4.6 100 00:39 16.03.2020
967 Clouds 20 1018 68 10000 3.6 80 23:47 15.03.2020
968 Clouds 21 1018 68 10000 3.6 80 23:20 15.03.2020
969 Clouds 22 1018 64 10000 3.6 70 22:43 15.03.2020
970 Clouds 23 1018 64 10000 3.6 70 22:23 15.03.2020
971 Clouds 23 1018 64 10000 4.1 70 21:58 15.03.2020
972 Clouds 23 1018 64 10000 4.1 70 21:38 15.03.2020
973 Clouds 23 1018 64 10000 4.1 70 21:18 15.03.2020
974 Clouds 23 1018 64 10000 4.6 70 20:42 15.03.2020
975 Clouds 23 1018 64 10000 4.6 70 20:20 15.03.2020
976 Clouds 23 1018 64 10000 4.1 100 19:58 15.03.2020
977 Clouds 24 1018 64 10000 4.1 100 19:39 15.03.2020
978 Clouds 24 1018 64 10000 4.1 100 19:19 15.03.2020
979 Clouds 23 1019 68 10000 3.1 80 18:55 15.03.2020
980 Clouds 23 1019 68 10000 3.1 80 18:37 15.03.2020
981 Clouds 23 1019 68 10000 3.1 80 18:19 15.03.2020
982 Clouds 22 1019 68 10000 1.5 160 17:41 15.03.2020
983 Clouds 22 1019 68 10000 1.5 160 17:21 15.03.2020
984 Clouds 22 1019 72 10000 2.6 150 16:58 15.03.2020
985 Clouds 22 1019 72 10000 2.6 150 16:58 15.03.2020
986 Clouds 21 1019 72 10000 2.6 150 16:38 15.03.2020
987 Clouds 21 1019 72 10000 2.6 150 16:19 15.03.2020
988 Clouds 20 1019 77 10000 2.1 170 15:45 15.03.2020
989 Clouds 19 1019 77 10000 2.1 170 15:27 15.03.2020
990 Clouds 18 1019 77 10000 2.1 170 14:57 15.03.2020
991 Clouds 18 1019 77 10000 2.1 170 14:38 15.03.2020
992 Clouds 18 1019 77 10000 2.1 170 14:18 15.03.2020
993 Clouds 18 1019 77 10000 2.1 170 14:18 15.03.2020
994 Clouds 18 1019 82 10000 3.1 170 13:54 15.03.2020
995 Clouds 17 1019 82 10000 3.1 170 13:36 15.03.2020
996 Rain 17 1019 82 10000 3.1 170 13:18 15.03.2020
997 Rain 17 1019 82 10000 3.1 170 13:18 15.03.2020
998 Rain 17 1019 82 10000 2.1 180 12:39 15.03.2020
999 Rain 17 1019 82 10000 2.1 180 12:21 15.03.2020
1000 Rain 17 1018 77 10000 2.1 170 11:43 15.03.2020
1001 Rain 17 1018 77 10000 2.1 170 11:24 15.03.2020
1002 Rain 17 1018 77 10000 3.6 160 10:57 15.03.2020
1003 Rain 17 1018 77 10000 3.6 160 10:39 15.03.2020
1004 Rain 17 1018 77 10000 3.6 160 10:20 15.03.2020
1005 Rain 17 1018 82 10000 3.6 170 09:42 15.03.2020
1006 Rain 17 1018 82 10000 3.6 170 09:23 15.03.2020
1007 Rain 17 1017 82 10000 3.6 140 08:58 15.03.2020
1008 Rain 17 1017 82 10000 3.6 140 08:39 15.03.2020
1009 Rain 18 1017 82 10000 3.6 140 08:18 15.03.2020
1010 Rain 18 1017 77 10000 3.1 150 07:44 15.03.2020
1011 Clouds 18 1018 77 10000 2.6 180 06:55 15.03.2020
1012 Clouds 18 1018 77 10000 2.6 180 06:34 15.03.2020
1013 Clouds 18 1018 72 10000 2.1 170 05:43 15.03.2020
1014 Rain 18 1017 82 9000 2.6 170 04:47 15.03.2020
1015 Rain 18 1017 82 9000 2.6 170 04:28 15.03.2020
1016 Rain 19 1018 82 7000 2.6 170 03:54 15.03.2020
1017 Rain 19 1017 82 5000 3.1 180 02:47 15.03.2020
1018 Clouds 20 1015 83 10000 2.6 160 01:40 15.03.2020
1019 Clouds 20 1015 88 10000 2.1 200 00:47 15.03.2020
1020 Clouds 20 1015 88 10000 2.1 200 00:27 15.03.2020
1021 Clouds 21 1014 88 10000 2.1 180 23:56 14.03.2020
1022 Clouds 20 1014 88 10000 2.1 180 23:37 14.03.2020
1023 Clouds 21 1013 88 9000 2.6 190 23:18 14.03.2020
1024 Clouds 21 1013 88 9000 2.6 190 22:44 14.03.2020
1025 Clouds 22 1013 88 9000 2.6 190 22:26 14.03.2020
1026 Rain 22 1012 94 9000 3.1 180 21:57 14.03.2020
1027 Rain 22 1012 94 9000 3.1 180 21:36 14.03.2020
1028 Rain 22 1012 94 9000 3.1 180 21:18 14.03.2020
1029 Clouds 22 1014 94 10000 4.6 210 20:58 14.03.2020
1030 Rain 22 1012 88 9000 1 0 20:40 14.03.2020
1031 Rain 22 1012 88 9000 1 0 20:19 14.03.2020
1032 Rain 22 1013 94 8000 4.1 190 19:43 14.03.2020
1033 Rain 22 1013 83 9000 4.1 20 19:25 14.03.2020
1034 Rain 21 1013 94 7000 6.2 50 18:42 14.03.2020
1035 Rain 21 1013 94 7000 6.2 50 18:24 14.03.2020
1036 Rain 21 1014 94 2000 4.6 40 17:58 14.03.2020
1037 Rain 21 1016 88 3000 4.1 40 17:38 14.03.2020
1038 Rain 21 1016 88 3000 4.1 40 17:20 14.03.2020
1039 Rain 21 1016 88 3000 4.1 40 17:20 14.03.2020
1040 Rain 20 1013 94 8000 6.2 80 16:41 14.03.2020
1041 Rain 20 1015 94 8000 9.8 110 16:23 14.03.2020
1042 Thunderstorm 20 1017 88 2500 5.1 100 15:56 14.03.2020
1043 Thunderstorm 20 1017 94 7000 5.1 130 15:26 14.03.2020
1044 Thunderstorm 20 1017 94 6000 5.7 130 14:55 14.03.2020
1045 Thunderstorm 20 1016 94 4000 5.1 140 14:36 14.03.2020
1046 Thunderstorm 20 1016 94 4000 5.1 140 14:18 14.03.2020
1047 Thunderstorm 21 1016 94 750 4.6 220 13:42 14.03.2020
1048 Thunderstorm 21 1016 94 750 4.6 220 13:23 14.03.2020
1049 Thunderstorm 22 1015 83 1500 5.7 190 12:47 14.03.2020
1050 Thunderstorm 22 1012 88 10000 4.6 150 12:27 14.03.2020
1051 Clouds 24 1011 83 10000 6.7 140 11:57 14.03.2020
1052 Rain 25 1010 74 5000 6.2 180 11:38 14.03.2020
1053 Clouds 26 1010 78 10000 2.6 200 11:20 14.03.2020
1054 Thunderstorm 25 1009 78 10000 2.1 90 10:44 14.03.2020
1055 Thunderstorm 25 1009 78 10000 2.1 90 10:25 14.03.2020
1056 Thunderstorm 25 1008 83 10000 1 0 09:47 14.03.2020
1057 Clouds 25 1008 88 10000 2.6 340 09:24 14.03.2020
1058 Clouds 25 1008 83 10000 3.1 350 08:54 14.03.2020
1059 Rain 26 1008 83 10000 3.1 350 08:35 14.03.2020
1060 Clouds 26 1008 88 10000 2.6 360 07:56 14.03.2020
1061 Clouds 26 1008 88 10000 2.6 360 07:38 14.03.2020
1062 Clouds 26 1008 88 10000 2.6 360 07:19 14.03.2020
1063 Clouds 26 1009 88 10000 2.6 320 06:40 14.03.2020
1064 Clouds 26 1009 88 10000 2.6 320 06:40 14.03.2020
1065 Clouds 26 1009 83 10000 2.1 320 05:43 14.03.2020
1066 Clouds 26 1010 78 10000 1.5 120 03:49 14.03.2020
1067 Clouds 26 1010 78 10000 1.5 120 03:24 14.03.2020
1068 Clouds 26 1010 83 10000 3.6 120 02:22 14.03.2020
1069 Clear 26 1010 83 10000 5.1 120 00:46 14.03.2020
1070 Clear 27 1010 83 10000 5.7 110 23:46 13.03.2020
1071 Clear 27 1010 83 10000 5.7 110 23:28 13.03.2020
1072 Clear 29 1010 83 10000 6.2 110 22:49 13.03.2020
1073 Clear 29 1010 83 10000 6.2 110 22:26 13.03.2020
1074 Clear 30 1011 78 10000 5.7 100 21:44 13.03.2020
1075 Clear 31 1011 78 10000 5.7 100 21:21 13.03.2020
1076 Clear 31 1011 78 10000 5.7 100 20:59 13.03.2020
1077 Clear 31 1011 78 10000 5.7 100 20:39 13.03.2020
1078 Clear 31 1011 78 10000 5.7 100 20:39 13.03.2020
1079 Clear 30 1011 78 10000 5.7 100 20:20 13.03.2020
1080 Clear 30 1012 78 10000 5.1 100 19:47 13.03.2020
1081 Clear 30 1012 78 10000 5.1 100 19:47 13.03.2020
1082 Clear 31 1011 66 10000 4.6 50 19:28 13.03.2020
1083 Clear 30 1013 74 10000 2.6 100 18:47 13.03.2020
1084 Clear 31 1013 74 10000 2.6 100 18:29 13.03.2020
1085 Clear 31 1013 66 10000 3.1 90 17:57 13.03.2020
1086 Clear 31 1013 66 10000 3.1 90 17:38 13.03.2020
1087 Clear 30 1014 74 10000 3.1 40 17:19 13.03.2020
1088 Clear 29 1014 74 10000 3.1 40 16:42 13.03.2020
1089 Clear 29 1014 74 10000 3.1 40 16:24 13.03.2020
1090 Clear 28 1014 78 10000 3.1 50 15:56 13.03.2020
1091 Clear 28 1014 78 10000 3.1 50 15:37 13.03.2020
1092 Clear 27 1014 78 10000 3.1 50 15:19 13.03.2020
1093 Clear 26 1014 78 10000 3.6 40 14:41 13.03.2020
1094 Clear 26 1014 78 10000 3.6 40 14:41 13.03.2020
1095 Clear 26 1014 74 10000 4.6 40 14:22 13.03.2020
1096 Clear 26 1014 74 10000 4.6 40 14:22 13.03.2020
1097 Clear 25 1014 83 10000 4.1 60 13:56 13.03.2020
1098 Clear 25 1014 83 10000 4.1 60 13:38 13.03.2020
1099 Clear 24 1014 83 10000 4.1 60 13:19 13.03.2020
1100 Clear 24 1014 83 10000 4.1 60 12:40 13.03.2020
1101 Clouds 23 1013 94 10000 3.1 60 12:22 13.03.2020
1102 Clouds 22 1013 94 10000 3.1 60 11:57 13.03.2020
1103 Clear 22 1013 83 10000 4.6 80 11:39 13.03.2020
1104 Clear 22 1013 83 10000 5.1 70 11:21 13.03.2020
1105 Clear 22 1013 83 10000 5.1 70 10:47 13.03.2020
1106 Clear 22 1013 83 10000 5.1 70 10:27 13.03.2020
1107 Clear 21 1013 83 10000 4.6 80 09:57 13.03.2020
1108 Clear 21 1013 83 10000 4.6 80 09:38 13.03.2020
1109 Clear 21 1013 83 10000 4.6 80 09:20 13.03.2020
1110 Clear 21 1012 83 10000 5.1 90 08:44 13.03.2020
1111 Clear 21 1012 83 10000 5.1 90 08:22 13.03.2020
1112 Clear 22 1013 83 10000 4.6 90 07:47 13.03.2020
1113 Clear 22 1013 83 10000 4.6 90 07:28 13.03.2020
1114 Clear 21 1013 83 10000 5.7 90 06:47 13.03.2020
1115 Clear 22 1013 83 10000 5.7 90 06:24 13.03.2020
1116 Clear 22 1013 78 10000 4.6 100 05:46 13.03.2020
1117 Clear 22 1013 78 10000 3.1 90 05:19 13.03.2020
1118 Clear 22 1013 78 10000 3.1 90 04:35 13.03.2020
1119 Clear 24 1013 78 10000 3.1 100 02:58 13.03.2020
1120 Clear 24 1012 78 10000 3.1 90 01:41 13.03.2020
1121 Clear 24 1012 78 10000 3.1 90 01:18 13.03.2020
1122 Clear 24 1012 73 10000 2.1 70 00:43 13.03.2020
1123 Clear 24 1012 73 10000 2.1 70 00:20 13.03.2020
1124 Clear 25 1012 78 10000 2.1 50 23:40 12.03.2020
1125 Clear 25 1012 78 10000 2.1 50 23:22 12.03.2020
1126 Clear 26 1011 73 10000 2.6 60 22:47 12.03.2020
1127 Clear 27 1011 73 10000 2.6 60 22:29 12.03.2020
1128 Clear 27 1012 73 10000 2.1 40 21:59 12.03.2020
1129 Clear 28 1012 73 10000 2.1 40 21:40 12.03.2020
1130 Clear 28 1012 73 10000 2.1 40 21:21 12.03.2020
1131 Clear 28 1012 73 10000 3.1 50 20:42 12.03.2020
1132 Clouds 28 1012 73 10000 3.1 50 20:20 12.03.2020
1133 Clouds 28 1012 73 10000 3.1 50 20:20 12.03.2020
1134 Clouds 29 1012 73 10000 2.6 30 19:56 12.03.2020
1135 Clouds 29 1012 73 10000 2.6 30 19:37 12.03.2020
1136 Clouds 28 1012 73 10000 2.6 30 19:18 12.03.2020
1137 Clouds 28 1013 69 8000 2.6 20 18:42 12.03.2020
1138 Clouds 27 1013 58 10000 1 0 18:22 12.03.2020
1139 Clouds 27 1013 58 10000 1 0 17:56 12.03.2020
1140 Clouds 26 1013 69 10000 3.1 30 17:37 12.03.2020
1141 Clouds 26 1013 69 10000 2.1 20 17:18 12.03.2020
1142 Clouds 25 1013 69 10000 2.1 20 16:41 12.03.2020
1143 Clouds 25 1013 69 10000 2.1 20 16:23 12.03.2020
1144 Clouds 25 1013 61 10000 1.5 200 15:49 12.03.2020
1145 Clouds 25 1013 61 10000 1.5 200 15:28 12.03.2020
1146 Clouds 23 1013 78 10000 1.5 190 14:58 12.03.2020
1147 Clouds 23 1013 78 10000 1.5 190 14:38 12.03.2020
1148 Clouds 21 1013 78 10000 1.5 190 14:18 12.03.2020
1149 Mist 21 1013 100 5000 2.6 280 13:40 12.03.2020
1150 Mist 20 1013 100 3000 2.1 200 13:21 12.03.2020
1151 Fog 20 1013 100 800 2.1 200 12:55 12.03.2020
1152 Clouds 19 1012 100 6000 2.1 210 12:37 12.03.2020
1153 Clouds 19 1012 100 6000 2.1 210 12:37 12.03.2020
1154 Clouds 19 1012 100 6000 2.1 210 12:37 12.03.2020
1155 Clouds 19 1012 100 6000 2.1 210 12:18 12.03.2020
1156 Clouds 19 1012 100 6000 2.1 210 12:18 12.03.2020
1157 Fog 19 1012 100 200 1 230 11:55 12.03.2020
1158 Mist 19 1011 94 2800 1 0 11:36 12.03.2020
1159 Fog 19 1011 100 50 1.5 260 11:18 12.03.2020
1160 Fog 19 1011 100 50 1.5 260 10:41 12.03.2020
1161 Clouds 19 1011 100 7000 1 0 10:23 12.03.2020
1162 Clouds 19 1010 94 6000 0.5 310 09:49 12.03.2020
1163 Clouds 19 1010 94 6000 0.5 310 09:29 12.03.2020
1164 Mist 19 1010 100 3500 0.5 250 08:55 12.03.2020
1165 Clouds 19 1010 100 10000 0.5 250 08:37 12.03.2020
1166 Clouds 19 1010 100 10000 0.5 250 08:18 12.03.2020
1167 Fog 19 1010 100 50 1.05 86 07:47 12.03.2020
1168 Clouds 19 1010 94 10000 1 230 07:21 12.03.2020
1169 Clouds 19 1010 88 10000 1 0 06:18 12.03.2020
1170 Mist 20 1010 100 1500 1 170 05:33 12.03.2020
1171 Clouds 21 1010 94 10000 2.1 220 02:54 12.03.2020
1172 Rain 21 1009 94 10000 5.1 20 01:43 12.03.2020
1173 Clouds 21 1009 94 10000 5.1 20 01:21 12.03.2020
1174 Clouds 21 1008 88 10000 5.7 60 00:41 12.03.2020
1175 Clouds 21 1009 94 10000 5.1 30 23:56 11.03.2020
1176 Rain 21 1011 94 8000 5.1 80 23:27 11.03.2020
1177 Rain 21 1010 94 4500 7.7 90 22:55 11.03.2020
1178 Thunderstorm 21 1012 94 3000 2.6 30 22:37 11.03.2020
1179 Thunderstorm 21 1012 94 3000 2.6 30 22:18 11.03.2020
1180 Thunderstorm 20 1010 100 5000 4.6 70 21:56 11.03.2020
1181 Thunderstorm 20 1012 94 500 4.6 150 21:36 11.03.2020
1182 Thunderstorm 20 1012 94 500 4.6 150 21:18 11.03.2020
1183 Thunderstorm 21 1012 94 2500 5.1 140 20:55 11.03.2020
1184 Thunderstorm 21 1011 94 4500 7.7 100 20:36 11.03.2020
1185 Thunderstorm 21 1011 94 4500 7.7 100 20:18 11.03.2020
1186 Thunderstorm 21 1013 94 2500 5.1 110 19:41 11.03.2020
1187 Rain 21 1013 94 2500 5.7 110 19:22 11.03.2020
1188 Thunderstorm 21 1014 94 2000 4.6 130 18:56 11.03.2020
1189 Thunderstorm 21 1014 100 450 3.6 70 18:36 11.03.2020
1190 Thunderstorm 21 1014 100 450 3.6 70 18:18 11.03.2020
1191 Rain 21 1014 94 3000 7.7 110 17:40 11.03.2020
1192 Rain 20 1014 94 3000 7.7 110 17:21 11.03.2020
1193 Thunderstorm 20 1014 94 3000 6.2 120 16:55 11.03.2020
1194 Thunderstorm 20 1015 94 1000 6.7 120 16:37 11.03.2020
1195 Thunderstorm 20 1015 94 1000 6.7 120 16:19 11.03.2020
1196 Thunderstorm 20 1005 100 4500 2.1 160 15:42 11.03.2020
1197 Thunderstorm 20 1005 100 4500 2.1 160 15:22 11.03.2020
1198 Thunderstorm 20 1015 88 2800 2.6 200 14:44 11.03.2020
1199 Thunderstorm 20 1014 88 9000 5.1 110 14:23 11.03.2020
1200 Thunderstorm 20 1013 88 8000 4.6 80 13:57 11.03.2020
1201 Thunderstorm 20 1013 88 8000 4.6 80 13:38 11.03.2020
1202 Thunderstorm 20 1015 83 9000 5.1 80 13:20 11.03.2020
1203 Thunderstorm 20 1013 83 10000 5.7 70 12:40 11.03.2020
1204 -273 0 0 0 0 0 12:21 11.03.2020
1205 Clouds 20 1013 83 10000 6.7 100 11:56 11.03.2020
1206 Clouds 20 1013 83 10000 6.7 100 11:37 11.03.2020
1207 Thunderstorm 21 1013 83 9000 6.7 110 11:19 11.03.2020
1208 Thunderstorm 20 1013 83 9000 6.7 110 10:43 11.03.2020
1209 Clouds 21 1013 83 10000 5.1 110 10:19 11.03.2020
1210 Thunderstorm 21 1013 94 5000 5.1 100 09:43 11.03.2020
1211 Clouds 21 1012 83 10000 6.2 50 09:25 11.03.2020
1212 Clouds 21 1012 83 10000 6.2 50 09:25 11.03.2020
1213 Clouds 21 1013 78 10000 6.2 50 08:58 11.03.2020
1214 Clouds 21 1013 78 10000 6.2 50 08:39 11.03.2020
1215 Clouds 21 1013 78 10000 6.2 50 08:18 11.03.2020
1216 Clouds 21 1014 78 10000 6.2 50 07:42 11.03.2020
1217 Clouds 22 1014 78 10000 6.2 50 07:19 11.03.2020
1218 Clouds 22 1014 83 10000 7.2 60 06:43 11.03.2020
1219 Clear 22 1014 73 10000 7.7 60 05:36 11.03.2020
1220 Clear 23 1015 78 10000 7.7 100 04:29 11.03.2020
1221 Clear 22 1016 78 10000 9.3 110 02:20 11.03.2020
1222 Clear 22 1015 78 10000 9.8 110 01:27 11.03.2020
1223 Clear 23 1015 78 10000 10.3 120 00:46 11.03.2020
1224 Clouds 23 1016 78 10000 9.3 120 23:58 10.03.2020
1225 Clouds 23 1016 78 10000 9.3 120 23:39 10.03.2020
1226 Clouds 23 1016 78 10000 9.3 120 23:20 10.03.2020
1227 Clear 24 1016 73 10000 9.3 110 22:39 10.03.2020
1228 Clear 24 1016 73 10000 9.3 110 22:20 10.03.2020
1229 Clear 24 1016 69 10000 9.8 110 21:57 10.03.2020
1230 Clear 25 1016 69 10000 9.8 110 21:38 10.03.2020
1231 Clear 25 1016 69 10000 9.8 110 21:38 10.03.2020
1232 Clear 24 1016 69 10000 9.8 110 21:20 10.03.2020
1233 Clear 25 1017 69 10000 9.8 110 20:58 10.03.2020
1234 Clear 25 1017 69 10000 9.8 110 20:40 10.03.2020
1235 Clouds 25 1017 69 10000 9.8 110 20:18 10.03.2020
1236 Clouds 25 1017 69 10000 9.8 110 20:18 10.03.2020
1237 Clouds 25 1018 61 10000 7.2 110 19:56 10.03.2020
1238 Clouds 25 1018 61 10000 7.2 110 19:36 10.03.2020
1239 Clouds 25 1018 61 10000 7.2 110 19:18 10.03.2020
1240 Clouds 25 1018 64 10000 8.2 120 18:43 10.03.2020
1241 Clouds 25 1018 64 10000 8.2 120 18:25 10.03.2020
1242 Clouds 25 1019 64 10000 7.7 110 17:56 10.03.2020
1243 Clouds 25 1019 64 10000 7.7 110 17:38 10.03.2020
1244 Clouds 24 1019 69 10000 7.7 110 17:20 10.03.2020
1245 Clouds 24 1019 69 10000 7.7 110 16:38 10.03.2020
1246 Clouds 24 1019 69 10000 7.7 110 16:38 10.03.2020
1247 Clouds 24 1019 69 10000 7.7 110 16:18 10.03.2020
1248 Clouds 24 1019 69 10000 5.7 100 15:44 10.03.2020
1249 Clouds 23 1019 69 10000 5.7 100 15:20 10.03.2020
1250 Rain 22 1019 88 5000 5.7 110 14:59 10.03.2020
1251 Rain 22 1019 88 5000 5.7 110 14:40 10.03.2020
1252 Clouds 22 1020 73 10000 6.2 110 14:19 10.03.2020
1253 Clouds 22 1020 73 10000 6.2 110 14:19 10.03.2020
1254 Rain 21 1019 77 9000 6.7 110 13:45 10.03.2020
1255 Rain 21 1019 77 9000 6.7 110 13:26 10.03.2020
1256 Clouds 20 1019 68 10000 6.2 90 12:57 10.03.2020
1257 Clouds 20 1019 68 10000 6.2 90 12:37 10.03.2020
1258 Clouds 20 1019 68 10000 6.2 90 12:37 10.03.2020
1259 Clouds 20 1019 68 10000 6.2 90 12:18 10.03.2020
1260 Clouds 20 1019 68 10000 6.2 110 11:42 10.03.2020
1261 Clouds 20 1019 68 10000 6.2 110 11:24 10.03.2020
1262 Clouds 19 1018 73 10000 7.7 100 10:58 10.03.2020
1263 Clouds 19 1018 73 10000 7.7 100 10:39 10.03.2020
1264 Clouds 19 1018 73 10000 7.7 100 10:19 10.03.2020
1265 Clouds 19 1018 73 10000 7.7 100 09:55 10.03.2020
1266 Clouds 19 1018 73 10000 7.7 100 09:36 10.03.2020
1267 Clouds 20 1018 73 10000 7.7 100 09:18 10.03.2020
1268 Clouds 20 1018 73 10000 7.7 110 08:42 10.03.2020
1269 Clouds 19 1018 73 10000 7.7 110 08:24 10.03.2020
1270 Clouds 19 1018 73 10000 8.7 100 07:42 10.03.2020
1271 Clouds 20 1018 73 10000 8.7 100 07:23 10.03.2020
1272 Clouds 20 1018 73 10000 8.2 110 06:38 10.03.2020
1273 Clouds 20 1018 77 10000 8.7 110 05:55 10.03.2020
1274 Clouds 20 1018 77 10000 8.7 110 05:35 10.03.2020
1275 Clouds 20 1018 77 10000 10.3 100 04:31 10.03.2020
1276 Rain 20 1020 73 6000 6.2 140 02:58 10.03.2020
1277 Rain 21 1019 73 7000 3.6 140 01:33 10.03.2020
1278 Rain 21 1018 73 8000 6.2 130 00:51 10.03.2020
1279 Rain 21 1018 73 8000 6.2 130 00:28 10.03.2020
1280 Thunderstorm 23 1018 60 5000 7.2 130 23:43 09.03.2020
1281 Thunderstorm 23 1018 60 5000 7.2 130 23:22 09.03.2020
1282 Thunderstorm 23 1018 60 5000 7.2 130 23:22 09.03.2020
1283 Thunderstorm 24 1018 60 8000 6.7 90 22:57 09.03.2020
1284 Rain 24 1016 69 10000 9.8 120 22:38 09.03.2020
1285 Rain 24 1016 69 10000 9.8 120 22:38 09.03.2020
1286 Rain 24 1016 69 10000 9.8 120 22:19 09.03.2020
1287 Rain 25 1016 69 10000 9.3 130 21:43 09.03.2020
1288 Rain 25 1016 69 10000 9.3 130 21:22 09.03.2020
1289 Rain 26 1016 69 10000 8.2 110 20:58 09.03.2020
1290 Rain 26 1016 69 10000 8.2 110 20:40 09.03.2020
1291 Rain 26 1016 69 10000 8.2 110 20:20 09.03.2020
1292 Clouds 26 1016 78 10000 7.7 100 19:45 09.03.2020
1293 Clouds 26 1016 78 10000 7.7 100 19:26 09.03.2020
1294 Clouds 27 1017 69 10000 7.2 100 18:59 09.03.2020
1295 Clouds 27 1017 69 10000 7.2 100 18:40 09.03.2020
1296 Clouds 27 1017 69 10000 7.2 100 18:20 09.03.2020
1297 Clouds 27 1016 69 10000 7.7 100 17:58 09.03.2020
1298 Clouds 27 1016 69 10000 7.7 100 17:38 09.03.2020
1299 Clouds 27 1016 69 10000 7.7 100 17:20 09.03.2020
1300 Clouds 26 1017 64 10000 7.2 120 16:59 09.03.2020
1301 Clouds 27 816 56 0 5.27 107 16:40 09.03.2020
1302 Clouds 26 1017 73 10000 8.7 140 16:22 09.03.2020
1303 Clouds 25 1017 73 10000 8.7 140 15:58 09.03.2020
1304 Clouds 25 1017 73 10000 8.7 140 15:39 09.03.2020
1305 -273 0 0 0 0 0 15:21 09.03.2020
1306 Clouds 24 1016 73 10000 7.7 140 14:55 09.03.2020
1307 Clouds 24 1016 73 10000 7.7 140 14:37 09.03.2020
1308 Clear 23 1016 73 10000 7.7 140 14:18 09.03.2020
1309 Clear 23 1016 69 10000 7.2 130 13:55 09.03.2020
1310 Clear 23 1016 69 10000 7.2 130 13:37 09.03.2020
1311 Clear 23 1016 69 10000 7.2 130 13:18 09.03.2020
1312 Clouds 22 1015 73 10000 4.1 160 13:18 09.03.2020
1313 Clouds 22 1015 73 10000 4.1 160 12:42 09.03.2020
1314 Clouds 21 1015 73 10000 4.1 160 12:22 09.03.2020
1315 Clouds 21 1015 73 10000 4.1 160 12:22 09.03.2020
1316 Clouds 21 1015 78 10000 3.6 140 11:42 09.03.2020
1317 Clouds 21 1015 78 10000 3.6 140 11:22 09.03.2020
1318 Clear 20 1014 83 10000 3.6 140 10:59 09.03.2020
1319 Clear 20 1014 83 10000 3.6 140 10:41 09.03.2020
1320 Clear 20 1014 83 10000 3.6 140 10:20 09.03.2020
1321 Clouds 21 1013 78 10000 3.1 160 09:59 09.03.2020
1322 Clouds 21 1013 78 10000 3.1 160 09:37 09.03.2020
1323 Clouds 22 1013 78 10000 3.1 160 09:19 09.03.2020
1324 Rain 22 1013 78 9000 4.1 130 08:43 09.03.2020
1325 Thunderstorm 23 1014 69 5000 2.6 170 08:25 09.03.2020
1326 Clouds 23 1012 73 10000 3.1 120 07:41 09.03.2020
1327 Clouds 24 1012 73 10000 3.1 120 07:21 09.03.2020
1328 Clouds 24 1012 69 10000 3.6 100 06:44 09.03.2020
1329 Clouds 24 1012 69 10000 3.6 100 06:25 09.03.2020
1330 Clouds 24 1012 61 10000 1 0 05:47 09.03.2020
1331 Clouds 24 1012 61 10000 1 0 05:22 09.03.2020
1332 Clouds 25 1012 54 10000 0.5 190 04:43 09.03.2020
1333 Clouds 25 1012 54 10000 0.5 190 04:21 09.03.2020
1334 Clouds 25 1011 51 10000 2.6 160 02:59 09.03.2020
1335 Clouds 26 1011 54 10000 2.6 180 01:26 09.03.2020
1336 Clouds 26 1011 54 10000 2.6 180 01:26 09.03.2020
1337 Clouds 26 1011 58 10000 1.5 190 00:38 09.03.2020
1338 Clouds 27 1011 58 10000 1.5 190 00:20 09.03.2020
1339 Clouds 27 1010 58 10000 1.5 170 23:47 08.03.2020
1340 Clouds 27 1010 58 10000 1.5 170 23:21 08.03.2020
1341 Rain 27 1009 58 9000 1.5 200 22:56 08.03.2020
1342 Rain 27 1009 58 9000 1.5 200 22:38 08.03.2020
1343 Rain 27 1009 58 9000 1.5 200 22:18 08.03.2020
1344 Rain 30 1010 43 9000 2.6 250 21:42 08.03.2020
1345 Rain 30 1010 43 9000 2.6 250 21:23 08.03.2020
1346 Clouds 30 1010 66 10000 1.5 20 20:59 08.03.2020
1347 Clouds 30 1010 66 10000 1.5 20 20:39 08.03.2020
1348 Clear 30 1010 66 10000 1.5 20 20:20 08.03.2020
1349 Clear 31 1010 45 10000 2.6 320 19:41 08.03.2020
1350 Clear 31 1010 45 10000 2.6 320 19:20 08.03.2020
1351 Clear 31 1010 48 10000 3.1 340 18:58 08.03.2020
1352 Clear 32 1010 48 10000 3.1 340 18:39 08.03.2020
1353 Clear 32 1010 48 10000 3.1 340 18:20 08.03.2020
1354 Clear 33 1013 38 0 1.34 333 17:41 08.03.2020
1355 Clear 31 1011 54 10000 3.1 330 17:22 08.03.2020
1356 Clear 31 1011 54 10000 3.1 330 16:59 08.03.2020
1357 Clear 31 1011 54 10000 3.1 330 16:41 08.03.2020
1358 Clear 31 1011 54 10000 3.1 330 16:22 08.03.2020
1359 Clear 30 1010 57 10000 4.1 360 15:55 08.03.2020
1360 Clear 30 1010 57 10000 4.1 360 15:37 08.03.2020
1361 Clear 29 1010 57 10000 4.1 360 15:18 08.03.2020
1362 Clear 27 1010 61 10000 3.6 340 14:38 08.03.2020
1363 Clear 27 1010 61 10000 3.6 340 14:38 08.03.2020
1364 Clouds 26 1010 61 10000 3.6 340 14:20 08.03.2020
1365 Clouds 26 1010 60 10000 3.6 320 13:42 08.03.2020
1366 Clear 25 1010 60 10000 3.6 320 13:21 08.03.2020
1367 Clear 24 1010 64 10000 2.6 320 12:57 08.03.2020
1368 Clear 23 1010 64 10000 2.6 320 12:37 08.03.2020
1369 Clear 23 1010 64 10000 2.6 320 12:18 08.03.2020
1370 Clear 23 1009 60 10000 4.1 340 11:41 08.03.2020
1371 Clear 23 1009 64 10000 4.1 340 11:21 08.03.2020
1372 Clear 23 1009 64 10000 4.1 340 10:57 08.03.2020
1373 Clear 23 1009 64 10000 4.1 340 10:39 08.03.2020
1374 Clear 23 1009 64 10000 4.1 340 10:20 08.03.2020
1375 Clear 23 1008 61 10000 4.6 360 09:38 08.03.2020
1376 Clear 24 1008 61 10000 4.6 360 09:20 08.03.2020
1377 Clear 24 1008 65 10000 3.6 340 08:43 08.03.2020
1378 Clouds 24 1008 65 10000 3.6 340 08:21 08.03.2020
1379 Clouds 24 1008 65 10000 4.1 330 07:46 08.03.2020
1380 Clouds 24 1008 65 10000 4.1 330 07:27 08.03.2020
1381 Clouds 25 1008 65 10000 4.1 340 06:43 08.03.2020
1382 Clouds 25 1008 65 10000 4.1 340 06:24 08.03.2020
1383 Clouds 25 816 46 0 4.02 1 05:43 08.03.2020
1384 Clouds 25 1008 78 10000 2.1 80 03:52 08.03.2020
1385 Clouds 26 1008 74 10000 3.1 90 02:40 08.03.2020
1386 Clouds 26 1008 78 10000 3.6 100 01:37 08.03.2020
1387 Clouds 26 1008 78 10000 3.6 100 01:18 08.03.2020
1388 Clouds 27 1008 78 10000 3.6 110 00:30 08.03.2020
1389 Clouds 28 1007 69 10000 3.6 80 23:49 07.03.2020
1390 Clouds 28 1007 69 10000 3.6 80 23:27 07.03.2020
1391 Clouds 30 1007 58 10000 3.6 70 22:58 07.03.2020
1392 Clouds 30 1007 58 10000 3.6 70 22:37 07.03.2020
1393 Clouds 31 1007 58 10000 3.6 70 22:19 07.03.2020
1394 Clouds 31 1008 51 10000 2.1 350 21:43 07.03.2020
1395 Clouds 31 1008 51 10000 2.1 350 21:43 07.03.2020
1396 Clouds 32 1008 51 10000 2.1 350 21:20 07.03.2020
1397 Clouds 31 1009 51 10000 2.1 10 20:41 07.03.2020
1398 Clouds 31 1009 51 10000 2.1 10 20:21 07.03.2020
1399 Clouds 31 1009 58 10000 2.6 350 19:41 07.03.2020
1400 Clouds 31 1009 58 10000 2.6 350 19:22 07.03.2020
1401 Clouds 31 1010 48 10000 4.6 360 18:58 07.03.2020
1402 Clouds 31 1010 48 10000 4.6 360 18:39 07.03.2020
1403 Clouds 31 1010 48 10000 4.6 360 18:20 07.03.2020
1404 Clouds 31 1010 48 10000 4.6 30 17:41 07.03.2020
1405 Clouds 30 1010 48 10000 4.6 30 17:19 07.03.2020
1406 Clouds 29 1011 61 10000 3.1 20 16:56 07.03.2020
1407 Clouds 29 1011 61 10000 3.1 20 16:38 07.03.2020
1408 Clouds 28 1012 69 10000 4.1 10 16:19 07.03.2020
1409 Clouds 27 1012 69 10000 4.1 10 15:41 07.03.2020
1410 Clouds 27 1012 69 10000 4.1 10 15:22 07.03.2020
1411 Clouds 26 1012 73 10000 3.1 10 14:59 07.03.2020
1412 Clouds 26 1012 73 10000 3.1 10 14:40 07.03.2020
1413 Clouds 26 1012 73 10000 3.1 10 14:22 07.03.2020
1414 Clouds 24 1012 73 10000 3.6 10 13:42 07.03.2020
1415 Clouds 23 1012 73 10000 3.6 10 13:21 07.03.2020
1416 Clouds 23 1012 73 10000 4.1 10 12:55 07.03.2020
1417 Clouds 22 1012 73 10000 4.1 10 12:37 07.03.2020
1418 Clouds 22 1012 73 10000 4.1 10 12:18 07.03.2020
1419 Clouds 21 1011 78 10000 3.1 10 11:41 07.03.2020
1420 Clouds 21 1011 78 10000 3.1 10 11:23 07.03.2020
1421 Clear 21 1011 73 10000 4.6 10 10:56 07.03.2020
1422 Clear 21 1011 73 10000 4.6 10 10:36 07.03.2020
1423 Clear 21 1011 73 10000 4.6 10 10:18 07.03.2020
1424 Clear 21 1011 73 10000 4.6 20 09:40 07.03.2020
1425 Clear 21 1011 73 10000 4.6 20 09:19 07.03.2020
1426 Clear 22 1011 73 10000 4.6 20 08:56 07.03.2020
1427 Clear 22 1011 73 10000 4.6 20 08:38 07.03.2020
1428 Clouds 22 1011 73 10000 4.6 20 08:19 07.03.2020
1429 Clear 22 1011 69 10000 5.1 30 07:44 07.03.2020
1430 Clear 22 1012 79 0 5.37 47 07:21 07.03.2020
1431 Clear 22 1013 80 0 0.89 135 06:38 07.03.2020
1432 Clear 23 1013 93 0 5.37 47 05:57 07.03.2020
1433 Clear 22 1013 99 0 5.37 47 05:35 07.03.2020
1434 Clear 24 1014 85 0 5.58 72 02:58 07.03.2020
1435 Clear 24 1014 85 0 0.45 90 02:39 07.03.2020
1436 Clouds 24 1013 83 10000 6.7 100 01:47 07.03.2020
1437 Clouds 25 1013 73 10000 5.7 100 00:42 07.03.2020
1438 Clouds 26 1013 73 10000 5.7 100 00:23 07.03.2020
1439 Clouds 26 1013 69 10000 5.1 100 23:56 06.03.2020
1440 Clouds 26 1013 69 10000 5.1 100 23:38 06.03.2020
1441 Clouds 27 1013 69 10000 5.1 100 23:19 06.03.2020
1442 Clouds 28 1013 65 10000 4.6 90 22:42 06.03.2020
1443 Clouds 28 1013 65 10000 4.6 90 22:18 06.03.2020
1444 Clouds 28 1013 61 10000 2.6 90 21:43 06.03.2020
1445 Clouds 28 1013 61 10000 2.6 90 21:19 06.03.2020
1446 Clouds 29 1014 57 10000 2.1 50 20:39 06.03.2020
1447 Clouds 29 1014 57 10000 2.1 50 20:21 06.03.2020
1448 Clouds 29 1015 61 10000 3.1 50 19:52 06.03.2020
1449 Clouds 28 1015 61 10000 3.1 50 19:33 06.03.2020
1450 Clouds 29 1016 65 10000 3.6 50 18:59 06.03.2020
1451 Clouds 29 1016 65 10000 3.6 50 18:40 06.03.2020
1452 Clouds 29 1016 65 10000 3.6 50 18:19 06.03.2020
1453 Clouds 29 1016 65 10000 3.6 50 18:19 06.03.2020
1454 Clouds 29 1016 65 10000 3.6 50 18:19 06.03.2020
1455 Clouds 29 1017 61 10000 2.6 30 17:43 06.03.2020
1456 Clouds 29 1017 61 10000 2.6 30 17:43 06.03.2020
1457 Clouds 29 1017 61 10000 2.6 360 17:25 06.03.2020
1458 Clouds 27 1017 73 10000 3.1 350 16:59 06.03.2020
1459 Clouds 27 1017 73 10000 3.1 350 16:41 06.03.2020
1460 Clouds 26 1017 73 10000 3.1 350 16:20 06.03.2020
1461 Clouds 26 1018 73 10000 3.6 350 15:45 06.03.2020
1462 Clouds 25 1018 73 10000 3.6 350 15:24 06.03.2020
1463 Clouds 25 1017 73 10000 3.6 350 14:55 06.03.2020
1464 Clouds 25 1017 73 10000 3.6 350 14:37 06.03.2020
1465 Clouds 24 1017 73 10000 3.6 350 14:18 06.03.2020
1466 Clouds 23 1017 73 10000 4.6 360 13:42 06.03.2020
1467 Clouds 23 1017 73 10000 4.6 360 13:21 06.03.2020
1468 Clouds 22 1017 73 10000 5.1 360 12:56 06.03.2020
1469 Clouds 22 1017 73 10000 5.1 360 12:37 06.03.2020
1470 Clouds 21 1017 73 10000 5.1 360 12:19 06.03.2020
1471 Clouds 21 1017 73 10000 3.6 10 11:56 06.03.2020
1472 Clouds 21 1017 73 10000 3.6 10 11:38 06.03.2020
1473 Clouds 21 1017 73 10000 3.6 10 11:19 06.03.2020
1474 Clouds 21 1017 73 10000 4.6 20 10:38 06.03.2020
1475 Clouds 21 1017 73 10000 4.6 20 10:20 06.03.2020
1476 Clouds 21 1017 77 10000 2.6 50 09:43 06.03.2020
1477 Clouds 21 1017 73 10000 4.1 20 09:24 06.03.2020
1478 Clouds 21 1016 69 10000 3.1 50 08:58 06.03.2020
1479 Clouds 21 1016 69 10000 3.1 50 08:58 06.03.2020
1480 Clouds 21 1016 69 10000 3.1 50 08:58 06.03.2020
1481 Clouds 21 1016 69 10000 3.1 50 08:40 06.03.2020
1482 Clouds 21 1016 69 10000 3.1 50 08:22 06.03.2020
1483 Clouds 21 1016 69 10000 4.1 90 07:47 06.03.2020
1484 Clouds 22 1016 69 10000 4.1 90 07:26 06.03.2020
1485 Clouds 21 1016 88 10000 1 50 06:51 06.03.2020
1486 Clouds 22 1016 69 10000 4.1 90 06:33 06.03.2020
1487 Clouds 23 1017 78 10000 3.1 90 05:41 06.03.2020
1488 Clear 23 1017 78 10000 3.1 90 05:20 06.03.2020
1489 Clear 23 1017 83 10000 5.1 110 04:44 06.03.2020
1490 Clear 25 1017 73 10000 7.2 110 01:45 06.03.2020
1491 Clear 25 1017 73 10000 7.2 110 01:26 06.03.2020
1492 Clear 25 1017 73 10000 6.2 110 00:59 06.03.2020
1493 Clear 26 1017 73 10000 6.2 110 00:31 06.03.2020
1494 Clear 26 1017 73 10000 6.2 110 00:31 06.03.2020
1495 Clear 27 1016 69 10000 5.7 110 23:44 05.03.2020
1496 Clear 27 1016 69 10000 5.7 110 23:25 05.03.2020
1497 Clear 28 1016 61 10000 6.7 110 22:56 05.03.2020
1498 Clear 29 1016 61 10000 6.7 110 22:37 05.03.2020
1499 Clear 30 1016 65 10000 5.7 110 22:18 05.03.2020
1500 Clear 30 1016 65 10000 5.7 110 21:55 05.03.2020
1501 Clear 30 1016 65 10000 5.7 110 21:37 05.03.2020
1502 Clear 30 1016 65 10000 5.7 110 21:19 05.03.2020
1503 Clear 30 1016 65 10000 5.1 110 20:42 05.03.2020
1504 Clear 30 1016 65 10000 5.1 110 20:21 05.03.2020
1505 Clear 31 1017 57 10000 4.1 90 19:59 05.03.2020
1506 Clear 30 1017 57 10000 4.1 90 19:40 05.03.2020
1507 Clear 30 1017 57 10000 4.1 90 19:21 05.03.2020
1508 Clear 30 1018 61 10000 4.1 80 18:58 05.03.2020
1509 Clear 30 1018 61 10000 4.1 80 18:37 05.03.2020
1510 Clear 30 1018 61 10000 4.1 80 18:19 05.03.2020
1511 Clear 30 1019 61 10000 3.6 70 17:57 05.03.2020
1512 Clear 30 1019 61 10000 3.6 70 17:57 05.03.2020
1513 Clear 30 1019 61 10000 3.6 70 17:39 05.03.2020
1514 Clear 29 1019 61 10000 3.6 70 17:20 05.03.2020
1515 Clear 29 1020 61 10000 3.6 50 16:41 05.03.2020
1516 Clear 29 1020 61 10000 3.6 50 16:23 05.03.2020
1517 Clear 28 1020 61 10000 3.6 30 15:57 05.03.2020
1518 Clear 28 1020 61 10000 3.6 30 15:37 05.03.2020
1519 Clear 27 1020 61 10000 3.6 30 15:19 05.03.2020
1520 Clear 26 1020 64 10000 3.6 10 14:41 05.03.2020
1521 Clear 25 1020 64 10000 3.6 10 14:22 05.03.2020
1522 Clear 25 1020 64 10000 3.6 20 13:58 05.03.2020
1523 Clear 24 1020 64 10000 3.6 20 13:39 05.03.2020
1524 Clear 24 1020 64 10000 3.6 20 13:20 05.03.2020
1525 Clear 23 1019 69 10000 4.1 10 12:43 05.03.2020
1526 Clear 23 1019 69 10000 4.1 10 12:21 05.03.2020
1527 Clear 21 1019 73 10000 4.1 10 11:58 05.03.2020
1528 Clear 21 1019 73 10000 4.1 10 11:39 05.03.2020
1529 Clear 21 1019 73 10000 4.1 10 11:20 05.03.2020
1530 Clear 21 1018 73 10000 3.1 20 10:58 05.03.2020
1531 Clear 21 1018 73 10000 3.1 20 10:40 05.03.2020
1532 Clear 21 1018 73 10000 3.1 20 10:21 05.03.2020
1533 Clear 21 1017 73 10000 3.6 10 09:59 05.03.2020
1534 Clear 22 1017 73 10000 3.6 10 09:40 05.03.2020
1535 Clear 22 1017 73 10000 3.6 10 09:40 05.03.2020
1536 Clear 22 1017 73 10000 3.6 10 09:19 05.03.2020
1537 Clear 22 1017 69 10000 2.6 20 08:42 05.03.2020
1538 Clear 22 1017 69 10000 2.6 20 08:22 05.03.2020
1539 Clear 22 1017 69 10000 3.1 50 07:44 05.03.2020
1540 Clear 22 1017 69 10000 4.6 80 07:21 05.03.2020
1541 Clear 22 1017 69 10000 4.6 80 06:45 05.03.2020
1542 Clear 22 1017 69 10000 4.6 80 06:45 05.03.2020
1543 Clear 23 1017 69 10000 4.6 80 06:20 05.03.2020
1544 Clear 24 1017 69 10000 4.6 90 05:36 05.03.2020
1545 Clear 24 1017 73 10000 6.7 100 04:24 05.03.2020
1546 Clear 25 1017 69 10000 8.2 110 03:58 05.03.2020
1547 Clear 25 1017 69 10000 8.7 100 02:32 05.03.2020
1548 Clear 26 1017 65 10000 7.7 110 01:26 05.03.2020
1549 Clear 26 1016 69 10000 7.2 100 00:49 05.03.2020
1550 Clear 27 1015 61 10000 6.2 100 23:57 04.03.2020
1551 Clear 27 1015 61 10000 6.2 100 23:57 04.03.2020
1552 Clear 28 1015 61 10000 6.2 100 23:39 04.03.2020
1553 Clear 29 1015 61 10000 6.2 100 23:21 04.03.2020
1554 Clear 30 1016 54 10000 6.2 100 22:56 04.03.2020
1555 Clear 31 1016 54 10000 6.2 100 22:36 04.03.2020
1556 Clear 30 1016 54 10000 6.2 100 22:18 04.03.2020
1557 Clear 31 1016 51 10000 5.1 110 21:42 04.03.2020
1558 Clear 31 1016 51 10000 5.1 110 21:22 04.03.2020
1559 Clear 32 1016 51 10000 3.1 60 20:59 04.03.2020
1560 Clear 31 1016 51 10000 3.1 60 20:40 04.03.2020
1561 Clear 32 1016 51 10000 3.1 60 20:21 04.03.2020
1562 Clear 32 1016 58 10000 2.6 40 19:43 04.03.2020
1563 Clear 32 1016 58 10000 2.6 40 19:24 04.03.2020
1564 Clouds 31 1017 65 10000 3.1 60 18:59 04.03.2020
1565 Clouds 31 1017 65 10000 3.1 60 18:41 04.03.2020
1566 Clouds 31 1017 65 10000 3.1 60 18:23 04.03.2020
1567 Clear 31 1017 69 10000 3.1 60 17:59 04.03.2020
1568 Clear 31 1017 69 10000 3.1 60 17:38 04.03.2020
1569 Clear 31 1017 69 10000 3.1 60 17:20 04.03.2020
1570 Clear 31 1017 69 10000 2.6 50 16:44 04.03.2020
1571 Clear 30 1017 69 10000 2.6 50 16:26 04.03.2020
1572 Clear 30 1016 74 10000 2.1 50 15:59 04.03.2020
1573 Clear 30 1016 74 10000 2.1 50 15:59 04.03.2020
1574 Clear 29 1016 74 10000 2.1 50 15:41 04.03.2020
1575 Clear 29 1016 74 10000 2.1 50 15:23 04.03.2020
1576 Clear 28 1017 69 10000 2.1 40 14:56 04.03.2020
1577 Clear 28 1017 69 10000 2.1 40 14:37 04.03.2020
1578 Clear 27 1017 69 10000 2.1 40 14:19 04.03.2020
1579 Clear 27 1017 73 10000 1.5 340 13:56 04.03.2020
1580 Clear 25 1017 73 10000 1.5 340 13:38 04.03.2020
1581 Clear 25 1017 73 10000 1.5 340 13:19 04.03.2020
1582 Clear 24 1017 78 10000 2.6 350 12:45 04.03.2020
1583 Clear 23 1017 78 10000 2.6 350 12:27 04.03.2020
1584 Clear 22 1016 73 10000 2.6 350 11:56 04.03.2020
1585 Clear 21 1016 73 10000 2.6 350 11:38 04.03.2020
1586 Clear 21 1016 73 10000 2.6 350 11:38 04.03.2020
1587 Clear 21 1016 73 10000 2.6 350 11:19 04.03.2020
1588 Clear 21 1016 69 10000 2.6 20 10:47 04.03.2020
1589 Clear 21 1016 69 10000 2.6 20 10:26 04.03.2020
1590 Clear 21 1015 64 10000 3.1 10 09:58 04.03.2020
1591 Clear 21 1015 64 10000 3.1 10 09:58 04.03.2020
1592 Clear 21 1015 64 10000 3.1 10 09:40 04.03.2020
1593 Clear 22 1015 64 10000 3.1 10 09:20 04.03.2020
1594 Clear 22 1015 69 10000 2.1 50 08:43 04.03.2020
1595 Clear 22 1015 69 10000 2.1 50 08:25 04.03.2020
1596 Clear 23 1015 78 10000 4.1 110 07:52 04.03.2020
1597 Clear 23 1015 78 10000 4.1 110 07:33 04.03.2020
1598 Clear 23 1015 78 10000 4.6 110 06:54 04.03.2020
1599 Clear 23 1015 78 10000 4.6 110 06:54 04.03.2020
1600 Clear 23 1015 78 10000 4.6 110 06:27 04.03.2020
1601 Clear 24 1016 65 10000 6.2 110 05:59 04.03.2020
1602 Clear 24 1016 65 10000 6.2 110 05:32 04.03.2020
1603 Clear 25 1016 69 10000 6.7 100 03:57 04.03.2020
1604 Clear 25 1016 69 10000 6.7 100 03:35 04.03.2020
1605 Clear 25 1015 69 10000 6.7 100 02:58 04.03.2020
1606 Clear 25 1015 69 10000 6.7 100 02:30 04.03.2020
1607 Clear 26 1015 69 10000 7.2 100 01:56 04.03.2020
1608 Clear 26 1015 69 10000 7.2 100 01:37 04.03.2020
1609 Clear 26 1014 69 10000 6.7 100 00:41 04.03.2020
1610 Clear 27 1014 69 10000 6.7 100 00:22 04.03.2020
1611 Clear 28 1014 69 10000 6.2 100 23:43 03.03.2020
1612 Clear 29 1014 69 10000 6.2 100 23:23 03.03.2020
1613 Clear 30 1014 61 10000 6.2 100 22:56 03.03.2020
1614 Clear 30 1014 61 10000 6.2 100 22:37 03.03.2020
1615 Clear 30 1014 61 10000 6.2 100 22:19 03.03.2020
1616 Clouds 31 1014 58 10000 5.1 110 21:43 03.03.2020
1617 Clouds 31 1014 58 10000 5.1 110 21:22 03.03.2020
1618 Clouds 32 1015 58 10000 3.1 70 20:58 03.03.2020
1619 Clouds 32 1015 58 10000 3.1 70 20:39 03.03.2020
1620 Clouds 32 1015 58 10000 3.1 70 20:18 03.03.2020
1621 Clear 32 1015 51 10000 2.6 70 19:56 03.03.2020
1622 Clear 31 1015 51 10000 2.6 70 19:37 03.03.2020
1623 Clear 31 1015 51 10000 2.6 70 19:18 03.03.2020
1624 Clear 31 1016 61 10000 3.6 70 18:56 03.03.2020
1625 Clear 31 1016 61 10000 3.6 70 18:38 03.03.2020
1626 Clear 31 1016 61 10000 3.6 70 18:18 03.03.2020
1627 Clear 31 1017 61 10000 3.1 70 17:41 03.03.2020
1628 Clear 31 1017 61 10000 3.1 70 17:41 03.03.2020
1629 Clear 30 1017 61 10000 3.1 70 17:22 03.03.2020
1630 Clear 31 1017 54 10000 3.1 360 16:59 03.03.2020
1631 Clear 31 1017 54 10000 3.1 360 16:38 03.03.2020
1632 Clear 30 1017 54 10000 3.1 360 16:20 03.03.2020
1633 Clear 30 1017 54 10000 3.1 360 16:20 03.03.2020
1634 Clear 29 1017 58 10000 2.1 20 15:58 03.03.2020
1635 Clear 29 1017 58 10000 2.1 20 15:58 03.03.2020
1636 Clear 29 1017 58 10000 2.1 20 15:40 03.03.2020
1637 Clear 28 1018 65 10000 3.1 20 15:20 03.03.2020
1638 Clear 27 1018 73 10000 4.1 20 14:43 03.03.2020
1639 Clear 26 1018 73 10000 4.1 20 14:20 03.03.2020
1640 Clear 25 1018 73 10000 3.1 20 13:58 03.03.2020
1641 Clear 25 1018 73 10000 3.1 20 13:40 03.03.2020
1642 Clear 25 1018 73 10000 3.1 20 13:21 03.03.2020
1643 Clear 24 1018 73 10000 4.1 20 12:48 03.03.2020
1644 Clear 23 1018 73 10000 4.1 20 12:27 03.03.2020
1645 Clear 23 1017 78 10000 4.1 20 11:58 03.03.2020
1646 Clear 22 1017 78 10000 4.1 20 11:38 03.03.2020
1647 Clear 22 1017 78 10000 4.1 20 11:19 03.03.2020
1648 Clear 22 1017 78 10000 5.1 20 10:56 03.03.2020
1649 Clear 22 1017 78 10000 5.1 20 10:56 03.03.2020
1650 Clear 22 1017 78 10000 5.1 20 10:56 03.03.2020
1651 Clear 22 1017 78 10000 5.1 20 10:37 03.03.2020
1652 Clear 22 1017 78 10000 5.1 20 10:19 03.03.2020
1653 Clear 22 1017 78 10000 4.6 10 09:44 03.03.2020
1654 Clear 22 1017 78 10000 4.6 10 09:22 03.03.2020
1655 Clear 22 1017 73 10000 5.7 10 08:57 03.03.2020
1656 Clear 22 1017 73 10000 5.7 10 08:39 03.03.2020
1657 Clear 23 1017 73 10000 5.7 10 08:20 03.03.2020
1658 Clear 23 1017 65 10000 4.6 40 07:43 03.03.2020
1659 Clear 23 1017 65 10000 4.6 40 07:20 03.03.2020
1660 Clear 23 1017 65 10000 3.1 70 06:43 03.03.2020
1661 Clear 23 1017 65 10000 3.1 70 06:23 03.03.2020
1662 Clear 24 1017 61 10000 3.1 70 05:47 03.03.2020
1663 Clear 24 1017 61 10000 3.1 70 05:18 03.03.2020
1664 Clear 25 1017 61 10000 3.1 70 04:24 03.03.2020
1665 Clear 27 1018 74 10000 5.7 110 01:40 03.03.2020
1666 Clear 28 1017 74 10000 6.2 100 00:48 03.03.2020
1667 Clear 28 1017 74 10000 6.2 100 00:26 03.03.2020
1668 Clear 29 1017 65 10000 4.6 100 23:52 02.03.2020
1669 Clear 30 1017 65 10000 4.6 100 23:24 02.03.2020
1670 Clear 31 1017 65 10000 5.7 100 22:58 02.03.2020
1671 Clear 31 1017 65 10000 5.7 100 22:39 02.03.2020
1672 Clear 31 1017 65 10000 5.7 100 22:20 02.03.2020
1673 Clear 32 1017 45 10000 2.6 50 21:59 02.03.2020
1674 Clear 32 1017 45 10000 2.6 50 21:39 02.03.2020
1675 Clear 33 1017 45 10000 2.6 50 21:21 02.03.2020
1676 Clear 33 1017 51 10000 2.1 50 20:58 02.03.2020
1677 Clear 33 1017 51 10000 2.1 50 20:38 02.03.2020
1678 Clear 33 1017 51 10000 2.1 50 20:20 02.03.2020
1679 Clear 33 1018 54 10000 2.6 50 19:55 02.03.2020
1680 Clear 33 1018 54 10000 2.6 50 19:36 02.03.2020
1681 Clear 33 1018 54 10000 2.6 50 19:18 02.03.2020
1682 Clouds 33 1019 46 10000 3.1 360 18:44 02.03.2020
1683 Clear 32 1020 58 10000 2.1 30 18:19 02.03.2020
1684 Clear 33 1019 51 10000 2.6 320 17:58 02.03.2020
1685 Clear 33 1019 51 10000 2.6 320 17:39 02.03.2020
1686 Clear 32 1019 51 10000 2.6 320 17:21 02.03.2020
1687 Clear 32 1020 48 10000 4.1 360 16:54 02.03.2020
1688 Clear 32 1020 48 10000 4.1 360 16:36 02.03.2020
1689 Clear 31 1020 48 10000 4.1 360 16:18 02.03.2020
1690 Clear 31 1020 48 10000 4.1 360 16:18 02.03.2020
1691 Clear 31 1020 48 10000 4.1 360 15:42 02.03.2020
1692 Clear 30 1021 61 10000 3.1 30 15:19 02.03.2020
1693 Clear 29 1021 54 10000 4.1 360 14:40 02.03.2020
1694 Clear 27 1021 54 10000 4.1 360 14:20 02.03.2020
1695 Clear 27 1020 65 10000 4.1 340 13:57 02.03.2020
1696 Clear 26 1020 65 10000 4.1 340 13:38 02.03.2020
1697 Clear 26 1020 65 10000 4.1 340 13:18 02.03.2020
1698 Clear 25 1020 69 10000 4.6 350 12:43 02.03.2020
1699 Clear 25 1020 69 10000 4.6 350 12:43 02.03.2020
1700 Clear 25 1020 69 10000 4.6 350 12:19 02.03.2020
1701 Clear 24 1020 69 10000 4.1 10 11:40 02.03.2020
1702 Clear 24 1020 69 10000 4.1 10 11:21 02.03.2020
1703 Clear 24 1019 69 10000 5.1 360 10:59 02.03.2020
1704 Clear 24 1019 69 10000 5.1 360 10:40 02.03.2020
1705 Clear 24 1019 69 10000 5.1 360 10:19 02.03.2020
1706 Clear 24 1018 65 10000 5.7 360 09:53 02.03.2020
1707 Clear 25 1018 65 10000 5.7 360 09:32 02.03.2020
1708 Clear 25 1018 65 10000 5.7 10 08:49 02.03.2020
1709 Clear 25 1018 65 10000 5.7 10 08:24 02.03.2020
1710 Clear 26 1018 65 10000 4.6 10 07:54 02.03.2020
1711 Clear 25 1018 65 10000 4.6 10 07:36 02.03.2020
1712 Clear 25 1018 61 10000 6.2 70 06:56 02.03.2020
1713 Clear 25 1018 61 10000 6.2 70 06:35 02.03.2020
1714 Clear 26 1018 69 10000 1 220 05:29 02.03.2020
1715 Clear 26 1019 65 10000 3.6 90 03:59 02.03.2020
1716 Clear 27 1019 61 10000 2.6 90 03:19 02.03.2020
1717 Clear 27 1019 61 10000 2.6 90 02:32 02.03.2020
1718 Clear 28 1018 69 10000 3.1 120 01:40 02.03.2020
1719 Clear 28 1018 69 10000 3.1 120 01:22 02.03.2020
1720 Clear 29 1017 65 10000 1.5 30 00:22 02.03.2020
1721 Clear 29 1017 62 10000 1.5 10 23:56 01.03.2020
1722 Clear 30 1017 62 10000 1.5 10 23:37 01.03.2020
1723 Clear 31 1017 62 10000 1.5 10 23:18 01.03.2020
1724 Clouds 32 1018 62 10000 2.6 30 22:36 01.03.2020
1725 Clouds 33 1018 62 10000 2.6 30 22:18 01.03.2020
1726 Clouds 33 1018 62 10000 2.6 50 21:42 01.03.2020
1727 Clouds 33 1018 62 10000 2.6 50 21:24 01.03.2020
1728 Clouds 34 1018 34 10000 2.6 340 20:58 01.03.2020
1729 Clouds 35 1018 34 10000 2.6 340 20:39 01.03.2020
1730 Clouds 34 1019 36 10000 3.1 320 20:21 01.03.2020
1731 Clouds 35 1019 36 10000 3.1 320 19:42 01.03.2020
1732 Clouds 34 1019 36 10000 3.1 320 19:22 01.03.2020
1733 Clear 34 1019 38 10000 4.1 290 18:58 01.03.2020
1734 Clear 34 1019 38 10000 4.1 290 18:39 01.03.2020
1735 Clear 33 1020 58 10000 3.1 20 18:19 01.03.2020
1736 Clear 33 1020 58 10000 3.1 20 17:56 01.03.2020
1737 Clear 33 1019 43 10000 1 0 17:37 01.03.2020
1738 Clear 33 1019 43 10000 1 0 17:19 01.03.2020
1739 Clear 33 1020 43 10000 1 0 16:54 01.03.2020
1740 Clear 32 1020 61 10000 2.6 20 16:36 01.03.2020
1741 Clear 33 1020 43 10000 1 0 16:18 01.03.2020
1742 Clear 33 1020 43 10000 1 0 16:18 01.03.2020
1743 Clear 32 1020 48 10000 1 50 15:55 01.03.2020
1744 Clear 31 1020 65 10000 2.1 20 15:36 01.03.2020
1745 Clear 30 1020 65 10000 2.1 20 15:18 01.03.2020
1746 Clear 30 1020 65 10000 2.1 20 14:55 01.03.2020
1747 Clear 29 1020 65 10000 2.1 20 14:36 01.03.2020
1748 Clear 29 1020 65 10000 2.1 20 14:36 01.03.2020
1749 Clear 28 1020 65 10000 2.1 20 14:18 01.03.2020
1750 Clear 27 1020 69 10000 2.6 340 13:43 01.03.2020
1751 Clear 26 1020 69 10000 2.6 340 13:21 01.03.2020
1752 Clear 26 1020 69 10000 3.1 360 12:57 01.03.2020
1753 Clear 25 1020 69 10000 3.1 360 12:38 01.03.2020
1754 Clear 24 1020 69 10000 3.1 360 12:20 01.03.2020
1755 Clear 22 1019 69 10000 2.6 340 11:40 01.03.2020
1756 Clear 22 1019 69 10000 2.6 340 11:40 01.03.2020
1757 Clear 22 1019 69 10000 2.6 340 11:20 01.03.2020
1758 Clear 22 1019 73 10000 2.6 20 10:56 01.03.2020
1759 Clear 22 1019 73 10000 2.6 20 10:37 01.03.2020
1760 Clear 22 1019 73 10000 2.6 20 10:37 01.03.2020
1761 Clear 22 1019 73 10000 2.6 20 10:37 01.03.2020
1762 Clear 22 1019 73 10000 2.6 20 10:18 01.03.2020
1763 Clear 23 1018 69 10000 4.1 350 09:45 01.03.2020
1764 Clear 23 1018 69 10000 4.1 350 09:26 01.03.2020
1765 -273 0 0 0 0 0 08:51 01.03.2020
1766 Clear 23 1018 69 10000 2.1 30 08:29 01.03.2020
1767 Clear 24 1018 65 10000 2.6 40 07:59 01.03.2020
1768 Clear 24 1018 65 10000 2.6 40 07:40 01.03.2020
1769 Clear 24 1018 65 10000 2.6 40 07:22 01.03.2020
1770 Clear 24 1018 65 10000 2.6 60 06:43 01.03.2020
1771 Clear 24 1018 65 10000 2.6 60 06:21 01.03.2020
1772 Clear 25 1018 78 10000 2.6 80 03:40 01.03.2020
1773 Clear 27 1018 78 10000 2.6 80 02:23 01.03.2020
1774 Clear 27 1017 74 10000 2.6 70 01:46 01.03.2020
1775 Clear 28 1017 74 10000 2.1 80 00:59 01.03.2020
1776 Clear 28 1017 74 10000 2.1 80 00:39 01.03.2020
1777 Clear 28 1017 74 10000 2.1 80 00:18 01.03.2020
1778 Clouds 30 1017 69 10000 1.5 10 23:41 29.02.2020
1779 Clouds 30 1017 69 10000 1.5 10 23:22 29.02.2020
1780 Clouds 32 1017 66 10000 2.6 30 22:39 29.02.2020
1781 Clouds 32 1017 66 10000 2.6 30 22:21 29.02.2020
1782 Clear 33 1017 38 10000 4.1 340 21:41 29.02.2020
1783 Clear 33 1017 38 10000 4.1 340 21:21 29.02.2020
1784 Clear 34 1017 36 10000 4.1 340 20:42 29.02.2020
1785 Clouds 34 1017 36 10000 4.1 340 20:21 29.02.2020
1786 Clouds 34 1018 38 10000 3.1 0 19:56 29.02.2020
1787 Clouds 34 1018 38 10000 3.1 0 19:37 29.02.2020
1788 Clouds 33 1018 38 10000 3.1 0 19:18 29.02.2020
1789 Clouds 33 1018 43 10000 2.6 0 18:42 29.02.2020
1790 Clouds 33 1018 43 10000 2.6 0 18:23 29.02.2020
1791 Clouds 32 1019 52 10000 2.1 0 17:56 29.02.2020
1792 Clouds 32 1019 52 10000 2.1 0 17:37 29.02.2020
1793 Clouds 32 1019 52 10000 2.1 0 17:19 29.02.2020
1794 Clouds 31 1020 51 10000 2.6 0 16:45 29.02.2020
1795 Clouds 30 1020 51 10000 2.6 0 16:20 29.02.2020
1796 Clouds 28 1020 73 10000 2.6 70 15:57 29.02.2020
1797 Clouds 28 1020 73 10000 2.6 70 15:37 29.02.2020
1798 Clouds 26 1020 73 10000 2.6 70 15:19 29.02.2020
1799 Clouds 26 1020 73 10000 2.6 360 14:40 29.02.2020
1800 Clouds 26 1020 73 10000 2.6 360 14:22 29.02.2020
1801 Clouds 24 1020 73 10000 3.6 50 13:46 29.02.2020
1802 Clouds 24 1020 73 10000 3.6 50 13:27 29.02.2020
1803 Clouds 24 1020 73 10000 3.6 70 12:57 29.02.2020
1804 Clouds 22 1020 73 10000 3.6 70 12:38 29.02.2020
1805 Clouds 22 1020 73 10000 3.6 70 12:20 29.02.2020
1806 Clouds 21 1019 78 10000 3.6 70 11:45 29.02.2020
1807 Clouds 20 1019 78 10000 3.6 70 11:26 29.02.2020
1808 Clear 20 1019 83 10000 4.6 90 10:51 29.02.2020
1809 Clear 20 1019 83 10000 4.6 90 10:31 29.02.2020
1810 Clear 20 1019 83 10000 4.6 90 10:31 29.02.2020
1811 Clouds 21 1018 83 10000 5.1 100 09:56 29.02.2020
1812 Clouds 21 1018 83 10000 5.1 100 09:56 29.02.2020
1813 Clouds 21 1018 83 10000 5.1 100 09:37 29.02.2020
1814 Clouds 21 1018 83 10000 5.1 100 09:18 29.02.2020
1815 Clear 21 1018 83 10000 5.7 100 08:40 29.02.2020
1816 Clear 21 1018 83 10000 5.7 100 08:20 29.02.2020
1817 Clear 21 1018 73 10000 4.1 90 07:51 29.02.2020
1818 Clear 21 1018 73 10000 4.1 90 07:22 29.02.2020
1819 Clear 21 1018 78 10000 6.2 110 06:54 29.02.2020
1820 Clear 21 1018 78 10000 6.2 110 06:29 29.02.2020
1821 Clear 22 1018 83 10000 5.7 110 05:50 29.02.2020
1822 Clear 22 1018 83 10000 5.7 110 05:31 29.02.2020
1823 Clouds 22 1018 78 10000 7.2 110 03:55 29.02.2020
1824 Clouds 22 1018 78 10000 7.2 110 03:24 29.02.2020
1825 Clouds 22 1017 83 10000 6.7 110 02:52 29.02.2020
1826 Clouds 23 1017 83 10000 7.2 120 01:58 29.02.2020
1827 Clouds 25 1016 83 10000 7.7 110 00:51 29.02.2020
1828 Clouds 25 1016 83 10000 7.7 110 00:27 29.02.2020
1829 Clear 27 1015 78 10000 9.3 110 23:41 28.02.2020
1830 Clear 28 1015 78 10000 9.3 110 23:22 28.02.2020
1831 Clear 30 1014 51 10000 2.1 20 22:42 28.02.2020
1832 Clear 31 1014 51 10000 2.1 20 22:22 28.02.2020
1833 Clear 30 1015 54 10000 2.6 20 21:42 28.02.2020
1834 Clear 31 1015 54 10000 2.6 20 21:22 28.02.2020
1835 Clear 31 1015 54 10000 2.6 20 21:22 28.02.2020
1836 Clear 32 1015 51 10000 3.1 40 20:57 28.02.2020
1837 Clear 31 1015 51 10000 3.1 40 20:38 28.02.2020
1838 Clear 32 1015 51 10000 3.1 40 20:20 28.02.2020
1839 Clear 32 1015 58 10000 3.1 40 19:56 28.02.2020
1840 Clear 31 1015 58 10000 3.1 40 19:38 28.02.2020
1841 Clear 31 1015 58 10000 3.1 40 19:19 28.02.2020
1842 Clear 31 1015 58 10000 3.1 40 19:19 28.02.2020
1843 Clear 32 1016 65 10000 4.1 40 18:46 28.02.2020
1844 Clear 31 1016 65 10000 4.1 40 18:24 28.02.2020
1845 Clear 31 1016 58 10000 4.1 20 17:42 28.02.2020
1846 Clear 30 1016 58 10000 4.1 20 17:24 28.02.2020
1847 Clear 30 1016 58 10000 4.1 20 17:23 28.02.2020
1848 Clear 30 1016 58 10000 3.1 20 16:57 28.02.2020
1849 Clear 30 1016 58 10000 3.1 20 16:38 28.02.2020
1850 Clear 30 1016 58 10000 3.1 20 16:38 28.02.2020
1851 Clear 29 1016 58 10000 3.1 20 16:19 28.02.2020
1852 Clear 29 1016 57 10000 3.1 10 15:55 28.02.2020
1853 Clear 29 1016 57 10000 3.1 10 15:37 28.02.2020
1854 Clear 28 1016 57 10000 3.1 10 15:18 28.02.2020
1855 Clear 27 1016 42 10000 2.1 260 14:42 28.02.2020
1856 Clear 26 1016 42 10000 2.1 260 14:19 28.02.2020
1857 Clear 25 1016 60 10000 2.1 10 13:58 28.02.2020
1858 Clear 24 1016 60 10000 2.1 10 13:40 28.02.2020
1859 Clear 24 1016 60 10000 2.1 10 13:19 28.02.2020
1860 Clear 22 1015 60 10000 1.5 330 12:43 28.02.2020
1861 Clear 21 1015 60 10000 1.5 330 12:25 28.02.2020
1862 Clear 19 1014 64 10000 2.1 320 11:55 28.02.2020
1863 Clear 19 1014 64 10000 2.1 320 11:37 28.02.2020
1864 Clear 18 1014 64 10000 2.1 320 11:18 28.02.2020
1865 Clear 17 1013 73 10000 1 250 10:43 28.02.2020
1866 Clear 17 1013 73 10000 1 250 10:23 28.02.2020
1867 Clear 18 1013 82 10000 2.71 334 09:47 28.02.2020
1868 Clear 17 1013 82 10000 2.71 334 09:21 28.02.2020
1869 Clear 18 1013 83 10000 2.1 320 08:57 28.02.2020
1870 Clear 18 1013 83 10000 2.1 320 08:57 28.02.2020
1871 Clear 18 1013 83 10000 2.1 320 08:37 28.02.2020
1872 Clouds 19 1013 83 10000 2.1 320 08:19 28.02.2020
1873 Clouds 19 1012 78 10000 2.6 320 07:40 28.02.2020
1874 Clouds 20 1012 78 10000 2.6 320 07:21 28.02.2020
1875 Clouds 20 1013 78 10000 3.1 340 06:45 28.02.2020
1876 Clouds 21 1013 78 10000 3.1 340 06:20 28.02.2020
1877 Clouds 22 1012 78 10000 3.6 360 04:45 28.02.2020
1878 Clouds 22 1012 78 10000 3.6 360 04:18 28.02.2020
1879 Clouds 23 1013 69 10000 1 320 02:46 28.02.2020
1880 Clouds 23 1013 69 10000 1 320 02:46 28.02.2020
1881 Clouds 23 1013 69 10000 1 320 02:25 28.02.2020
1882 Clear 25 1012 57 10000 2.1 340 00:46 28.02.2020
1883 Clear 25 1012 57 10000 2.1 340 00:25 28.02.2020
1884 Clear 26 1012 54 10000 2.1 360 23:41 27.02.2020
1885 Clear 26 1012 54 10000 2.1 360 23:41 27.02.2020
1886 Clear 27 1012 54 10000 2.1 360 23:19 27.02.2020
1887 Clear 29 1012 47 10000 2.6 20 22:41 27.02.2020
1888 Clear 29 1012 47 10000 2.6 20 22:23 27.02.2020
1889 Clear 29 1012 47 10000 2.6 50 21:56 27.02.2020
1890 Clear 29 1012 47 10000 2.6 50 21:37 27.02.2020
1891 Clear 29 1012 47 10000 2.6 50 21:18 27.02.2020
1892 Clear 29 1013 47 10000 3.1 50 20:54 27.02.2020
1893 Clear 29 1013 47 10000 3.1 50 20:36 27.02.2020
1894 Clear 29 1013 47 10000 3.1 50 20:18 27.02.2020
1895 Clear 29 1013 50 10000 3.6 20 19:42 27.02.2020
1896 Clear 29 1013 50 10000 3.6 20 19:42 27.02.2020
1897 Clear 29 1013 50 10000 3.6 20 19:23 27.02.2020
1898 Clear 29 1014 54 10000 4.1 20 18:58 27.02.2020
1899 Clear 29 1014 54 10000 4.1 20 18:39 27.02.2020
1900 Clear 29 1014 54 10000 4.1 20 18:20 27.02.2020
1901 Clear 28 1014 53 10000 3.6 360 17:56 27.02.2020
1902 Clear 28 1014 53 10000 3.6 360 17:38 27.02.2020
1903 Clear 27 1015 53 10000 4.1 360 17:19 27.02.2020
1904 Clear 27 1015 53 10000 4.1 360 16:54 27.02.2020
1905 Clear 27 1015 53 10000 4.1 360 16:36 27.02.2020
1906 Clear 26 1015 53 10000 4.1 360 16:18 27.02.2020
1907 Clear 25 1015 60 10000 3.6 360 15:39 27.02.2020
1908 Clear 25 1015 60 10000 3.6 360 15:20 27.02.2020
1909 Clear 24 1015 60 10000 3.6 360 14:59 27.02.2020
1910 Clear 24 1015 60 10000 3.6 360 14:39 27.02.2020
1911 Clear 23 1015 60 10000 3.6 360 14:20 27.02.2020
1912 Clear 21 1015 60 10000 4.1 320 13:43 27.02.2020
1913 Clear 20 1015 60 10000 4.1 320 13:22 27.02.2020
1914 Clear 19 1015 59 10000 3.6 320 12:57 27.02.2020
1915 Clear 19 1015 59 10000 3.6 320 12:39 27.02.2020
1916 Clear 18 1015 59 10000 3.6 320 12:19 27.02.2020
1917 Clear 18 1015 77 10000 3.1 340 11:45 27.02.2020
1918 Clear 17 1015 77 10000 3.1 340 11:22 27.02.2020
1919 Clear 16 1014 63 10000 4.6 320 10:46 27.02.2020
1920 Clear 17 1014 63 10000 4.6 320 10:25 27.02.2020
1921 Clear 17 1014 68 10000 4.6 320 09:59 27.02.2020
1922 Clear 17 1014 68 10000 4.6 320 09:40 27.02.2020
1923 Clear 17 1014 68 10000 4.6 320 09:21 27.02.2020
1924 Clear 17 1014 68 10000 3.6 320 08:42 27.02.2020
1925 Clear 17 1014 68 10000 3.6 320 08:22 27.02.2020
1926 Clear 18 1014 56 10000 3.6 340 07:46 27.02.2020
1927 Clear 18 1015 77 10000 1.5 340 07:25 27.02.2020
1928 Clear 19 1015 56 10000 3.6 350 06:48 27.02.2020
1929 Clear 19 1015 60 10000 2.6 360 05:58 27.02.2020
1930 Clear 20 1015 68 10000 2.6 30 04:21 27.02.2020
1931 Clear 21 1015 68 10000 3.6 100 02:33 27.02.2020
1932 Clear 22 1014 53 10000 3.6 80 00:46 27.02.2020
1933 Clear 22 1014 53 10000 3.6 80 00:26 27.02.2020
1934 Clear 23 1013 53 10000 3.1 60 23:40 26.02.2020
1935 Clear 25 1013 53 10000 3.1 60 23:19 26.02.2020
1936 Clouds 25 1013 56 10000 2.1 50 22:57 26.02.2020
1937 Clouds 25 1013 56 10000 2.1 50 22:39 26.02.2020
1938 Clouds 25 1013 56 10000 2.1 50 22:39 26.02.2020
1939 Clouds 25 1013 56 10000 3.1 50 22:20 26.02.2020
1940 Clouds 26 1013 56 10000 3.1 50 21:56 26.02.2020
1941 Clouds 25 1013 56 10000 3.1 50 21:36 26.02.2020
1942 Clouds 26 1013 53 10000 3.6 50 21:18 26.02.2020
1943 Clouds 26 1013 53 10000 3.6 50 20:54 26.02.2020
1944 Clouds 26 1013 53 10000 3.6 50 20:54 26.02.2020
1945 Clouds 26 1013 53 10000 3.6 50 20:36 26.02.2020
1946 Clouds 26 1013 53 10000 3.6 50 20:18 26.02.2020
1947 Clouds 26 1014 56 10000 2.6 50 19:44 26.02.2020
1948 Clear 26 1014 57 10000 4.1 60 19:20 26.02.2020
1949 Clouds 26 1014 56 10000 3.1 30 18:58 26.02.2020
1950 Clouds 26 1014 56 10000 3.1 30 18:39 26.02.2020
1951 -273 0 0 0 0 0 18:21 26.02.2020
1952 Clouds 25 1014 57 10000 3.6 50 17:42 26.02.2020
1953 Clouds 25 1014 57 10000 3.6 50 17:23 26.02.2020
1954 Clouds 24 1015 64 10000 2.1 80 16:57 26.02.2020
1955 Clouds 23 1015 64 10000 2.1 80 16:39 26.02.2020
1956 Clouds 23 1015 64 10000 2.1 80 16:39 26.02.2020
1957 Clouds 24 1015 64 10000 2.1 80 16:21 26.02.2020
1958 Clouds 24 1015 64 10000 3.6 70 15:47 26.02.2020
1959 Clouds 23 1015 64 10000 3.6 70 15:28 26.02.2020
1960 Clouds 23 1015 64 10000 3.1 80 14:57 26.02.2020
1961 Clouds 22 1015 64 10000 3.1 80 14:39 26.02.2020
1962 Clouds 21 1015 64 10000 3.1 80 14:21 26.02.2020
1963 Clouds 20 1015 68 10000 2.6 60 13:42 26.02.2020
1964 Clouds 20 1015 68 10000 2.6 60 13:42 26.02.2020
1965 Clouds 20 1015 68 10000 2.6 60 13:20 26.02.2020
1966 Clouds 17 1015 72 10000 2.6 60 12:39 26.02.2020
1967 Clouds 17 1015 72 10000 2.6 60 12:20 26.02.2020
1968 Clouds 15 1014 82 10000 2.1 340 11:57 26.02.2020
1969 Clouds 15 1014 82 10000 2.1 340 11:39 26.02.2020
1970 Clouds 15 1014 82 10000 2.1 340 11:21 26.02.2020
1971 Clear 15 1014 87 10000 2.1 50 10:42 26.02.2020
1972 Clear 15 1014 87 10000 2.1 50 10:23 26.02.2020
1973 Clear 16 1013 87 10000 2.6 350 09:57 26.02.2020
1974 Clear 16 1013 87 10000 2.6 350 09:39 26.02.2020
1975 Clear 16 1013 87 10000 2.6 350 09:19 26.02.2020
1976 Clear 17 1013 72 10000 4.1 50 08:39 26.02.2020
1977 Clear 17 1013 72 10000 4.1 50 08:39 26.02.2020
1978 Clouds 18 1013 72 10000 4.1 50 08:19 26.02.2020
1979 Clouds 18 1013 72 10000 4.6 50 07:50 26.02.2020
1980 Clouds 18 1013 72 10000 4.6 50 07:29 26.02.2020
1981 Clouds 18 1013 68 10000 5.1 60 06:57 26.02.2020
1982 Clouds 18 1013 68 10000 5.1 60 06:39 26.02.2020
1983 Clouds 19 1013 68 10000 5.1 60 06:18 26.02.2020
1984 Clouds 19 1013 64 10000 4.6 60 05:47 26.02.2020
1985 Clouds 19 1013 60 10000 5.7 80 04:49 26.02.2020
1986 Clouds 20 1012 64 10000 6.2 80 02:54 26.02.2020
1987 Clear 21 1011 68 10000 5.1 80 01:50 26.02.2020
1988 Clear 22 1010 60 10000 3.6 80 00:51 26.02.2020
1989 Clear 22 1010 60 10000 3.6 80 00:28 26.02.2020
1990 Clear 23 1010 53 10000 4.1 70 23:59 25.02.2020
1991 Clear 24 1010 53 10000 4.1 70 23:38 25.02.2020
1992 Clear 24 1010 53 10000 4.1 70 23:20 25.02.2020
1993 Clear 26 1010 53 10000 2.6 30 22:43 25.02.2020
1994 Clear 27 1010 53 10000 2.6 30 22:20 25.02.2020
1995 Clear 27 1010 50 10000 3.1 40 21:58 25.02.2020
1996 Clear 27 1010 50 10000 3.1 40 21:37 25.02.2020
1997 Clear 27 1010 50 10000 3.1 40 21:18 25.02.2020
1998 Clear 27 1010 47 10000 3.1 50 20:55 25.02.2020
1999 Clear 27 1010 47 10000 3.1 50 20:36 25.02.2020
2000 Clouds 27 1010 47 10000 3.1 50 20:18 25.02.2020
2001 Clouds 27 1011 53 10000 3.6 50 19:42 25.02.2020
2002 Clouds 26 1011 53 10000 3.6 50 19:20 25.02.2020
2003 Clouds 26 1011 46 10000 4.1 60 18:58 25.02.2020
2004 Clouds 26 1011 46 10000 4.1 60 18:38 25.02.2020
2005 Clouds 26 1011 46 10000 4.1 60 18:19 25.02.2020
2006 Clouds 26 1011 41 10000 3.6 70 17:39 25.02.2020
2007 Clouds 26 1011 41 10000 3.6 70 17:39 25.02.2020
2008 Clouds 26 1011 41 10000 3.6 70 17:20 25.02.2020
2009 Clouds 25 1011 43 10000 2.6 80 16:59 25.02.2020
2010 Clouds 24 1011 43 10000 2.6 80 16:41 25.02.2020
2011 Clouds 24 1011 43 10000 2.6 80 16:22 25.02.2020
2012 Clouds 23 1011 43 10000 1.5 160 15:59 25.02.2020
2013 Clouds 23 1011 46 10000 1 160 15:41 25.02.2020
2014 Clouds 22 1011 46 10000 1 160 15:19 25.02.2020
2015 Clouds 22 1010 46 10000 2.6 150 14:57 25.02.2020
2016 Clouds 21 1010 46 10000 2.6 150 14:37 25.02.2020
2017 Clouds 19 1010 46 10000 2.6 150 14:18 25.02.2020
2018 Clouds 19 1010 46 10000 2.6 150 14:18 25.02.2020
2019 Clouds 19 1010 49 10000 2.1 170 13:55 25.02.2020
2020 Clouds 19 1010 49 10000 2.1 170 13:37 25.02.2020
2021 Clouds 19 1010 49 10000 2.1 170 13:18 25.02.2020
2022 Clouds 18 1010 49 10000 2.1 160 12:41 25.02.2020
2023 Clouds 18 1010 49 10000 2.1 160 12:21 25.02.2020
2024 Clouds 17 1009 52 10000 2.1 160 11:57 25.02.2020
2025 -273 0 0 0 0 0 11:38 25.02.2020
2026 Clouds 17 1009 52 10000 2.1 160 11:19 25.02.2020
2027 Clouds 17 1009 52 10000 2.1 160 11:19 25.02.2020
2028 Clouds 17 1008 49 10000 2.6 190 10:59 25.02.2020
2029 Clouds 17 1008 49 10000 2.6 190 10:59 25.02.2020
2030 Clouds 17 1008 49 10000 2.6 190 10:40 25.02.2020
2031 Clouds 17 1008 49 10000 2.6 190 10:21 25.02.2020
2032 Clouds 17 1008 49 10000 2.6 190 10:21 25.02.2020
2033 Clouds 18 1008 45 10000 3.1 190 09:41 25.02.2020
2034 Clouds 18 1008 45 10000 3.1 190 09:20 25.02.2020
2035 Clouds 19 1007 40 10000 3.1 190 08:45 25.02.2020
2036 Clouds 19 1007 40 10000 3.1 190 08:26 25.02.2020
2037 Clouds 20 1007 41 10000 2.1 0 07:51 25.02.2020
2038 Clouds 20 1007 41 10000 2.1 0 07:51 25.02.2020
2039 Clouds 21 1007 68 10000 3.1 320 07:28 25.02.2020
2040 Clouds 21 1006 50 10000 2.6 200 06:59 25.02.2020
2041 Clouds 21 1006 50 10000 2.6 200 06:26 25.02.2020
2042 Clouds 22 1007 77 10000 2.6 290 05:24 25.02.2020
2043 Clouds 24 1006 50 10000 2.6 300 02:47 25.02.2020
2044 Clear 25 1005 57 10000 3.1 310 01:28 25.02.2020
2045 Clear 26 1004 50 10000 3.6 320 00:34 25.02.2020
2046 Clear 27 1004 47 10000 4.6 330 23:57 24.02.2020
2047 Clear 27 1004 47 10000 4.6 330 23:38 24.02.2020
2048 Clear 27 1004 47 10000 4.6 330 23:18 24.02.2020
2049 Clear 28 1004 48 10000 5.1 340 22:37 24.02.2020
2050 Clear 29 1004 51 10000 4.6 340 22:19 24.02.2020
2051 Clear 29 1004 51 10000 4.6 340 21:55 24.02.2020
2052 Clear 29 1004 51 10000 4.6 340 21:37 24.02.2020
2053 Clear 29 1004 51 10000 4.6 340 21:18 24.02.2020
2054 Clouds 29 1005 51 10000 6.2 350 20:55 24.02.2020
2055 Clouds 29 1005 51 10000 6.2 350 20:36 24.02.2020
2056 Clouds 29 1005 51 10000 6.2 350 20:18 24.02.2020
2057 Clouds 29 1006 54 10000 4.6 350 19:55 24.02.2020
2058 Clouds 29 1006 54 10000 4.6 350 19:55 24.02.2020
2059 Clouds 29 1006 54 10000 4.6 350 19:36 24.02.2020
2060 Clouds 29 1006 54 10000 4.6 350 19:18 24.02.2020
2061 Clear 29 1007 48 10000 5.1 300 18:41 24.02.2020
2062 Clear 29 1007 48 10000 5.1 300 18:22 24.02.2020
2063 Clouds 28 1008 51 10000 4.6 330 17:55 24.02.2020
2064 Clouds 28 1008 51 10000 4.6 330 17:36 24.02.2020
2065 Clouds 28 1008 51 10000 4.6 330 17:18 24.02.2020
2066 Clear 27 1009 54 10000 4.6 350 16:54 24.02.2020
2067 Clear 27 1009 54 10000 4.6 350 16:36 24.02.2020
2068 Clear 27 1009 54 10000 4.6 350 16:36 24.02.2020
2069 Clear 27 1009 54 10000 4.6 350 16:18 24.02.2020
2070 Clear 26 1009 57 10000 4.1 350 15:54 24.02.2020
2071 Clear 26 1009 57 10000 4.1 350 15:36 24.02.2020
2072 Clear 25 1009 69 10000 3.6 360 15:18 24.02.2020
2073 Clear 24 1010 68 10000 5.1 350 14:40 24.02.2020
2074 Clear 24 1010 68 10000 5.1 350 14:21 24.02.2020
2075 Clear 24 1010 68 10000 5.1 350 14:21 24.02.2020
2076 Clear 23 1010 73 10000 5.7 350 13:58 24.02.2020
2077 Clear 22 1010 73 10000 5.7 350 13:39 24.02.2020
2078 Clear 22 1010 73 10000 5.7 350 13:39 24.02.2020
2079 Clear 22 1010 73 10000 5.7 350 13:20 24.02.2020
2080 Clear 21 1010 73 10000 6.7 350 12:57 24.02.2020
2081 Clear 20 1010 73 10000 6.7 350 12:38 24.02.2020
2082 Clear 20 1010 73 10000 6.7 350 12:19 24.02.2020
2083 Clear 19 1010 77 10000 6.7 350 11:45 24.02.2020
2084 Clear 18 1010 77 10000 6.7 350 11:26 24.02.2020
2085 Clear 18 1010 73 10000 5.7 360 10:45 24.02.2020
2086 Clear 18 1010 73 10000 5.7 360 10:27 24.02.2020
2087 Clear 18 1010 64 10000 5.7 360 09:54 24.02.2020
2088 Clear 18 1010 64 10000 5.7 360 09:54 24.02.2020
2089 Clear 19 1010 64 10000 5.7 360 09:36 24.02.2020
2090 Clear 19 1010 64 10000 5.7 360 09:18 24.02.2020
2091 Clear 19 1010 64 10000 5.7 360 09:18 24.02.2020
2092 Clear 19 1010 60 10000 5.7 350 08:44 24.02.2020
2093 Clear 19 1010 60 10000 5.7 350 08:25 24.02.2020
2094 Clear 19 1010 60 10000 5.1 360 07:44 24.02.2020
2095 Clear 20 1010 60 10000 5.1 360 07:24 24.02.2020
2096 Clear 20 1011 60 10000 4.6 10 06:36 24.02.2020
2097 Clear 20 1011 60 10000 4.6 10 06:18 24.02.2020
2098 Clear 20 1012 60 10000 4.1 10 05:28 24.02.2020
2099 Clear 21 1013 73 10000 4.6 70 03:45 24.02.2020
2100 Clear 21 1013 73 10000 4.1 70 02:52 24.02.2020
2101 Clouds 22 1013 68 10000 3.1 70 01:42 24.02.2020
2102 Clear 22 1013 68 10000 3.1 70 00:52 24.02.2020
2103 Clear 23 1013 68 10000 3.1 70 00:23 24.02.2020
2104 Clear 24 1013 64 10000 4.1 70 23:59 23.02.2020
2105 Clear 24 1013 64 10000 4.1 70 23:40 23.02.2020
2106 Clear 24 1013 64 10000 4.1 70 23:18 23.02.2020
2107 Clear 25 1013 53 10000 3.1 360 22:54 23.02.2020
2108 Clear 26 1013 53 10000 3.1 360 22:36 23.02.2020
2109 Clear 26 1013 53 10000 3.1 360 22:18 23.02.2020
2110 Clear 26 1014 57 10000 2.6 50 21:43 23.02.2020
2111 Clear 26 1014 57 10000 2.6 50 21:19 23.02.2020
2112 Clouds 26 1015 57 10000 2.6 360 20:55 23.02.2020
2113 Clouds 26 1015 57 10000 2.6 360 20:55 23.02.2020
2114 Clouds 26 1015 57 10000 2.6 360 20:37 23.02.2020
2115 Clouds 26 1015 57 10000 2.6 360 20:18 23.02.2020
2116 Clouds 26 1016 53 10000 2.6 20 19:54 23.02.2020
2117 Clouds 26 1016 53 10000 2.6 20 19:36 23.02.2020
2118 Clouds 26 1016 53 10000 2.6 20 19:18 23.02.2020
2119 Clouds 26 1016 53 10000 2.6 20 19:18 23.02.2020
2120 Clouds 26 1017 56 10000 3.6 30 18:41 23.02.2020
2121 Clouds 25 1017 56 10000 3.6 30 18:21 23.02.2020
2122 Clouds 26 1018 56 10000 3.6 10 17:59 23.02.2020
2123 Clouds 26 1018 50 10000 3.1 320 17:41 23.02.2020
2124 Clouds 25 1018 50 10000 3.1 320 17:21 23.02.2020
2125 Clouds 25 1019 60 10000 3.6 350 16:56 23.02.2020
2126 Clouds 24 1019 60 10000 3.6 350 16:38 23.02.2020
2127 Clouds 24 1019 60 10000 3.6 350 16:19 23.02.2020
2128 Clouds 24 1019 64 10000 3.1 350 15:54 23.02.2020
2129 Clouds 23 1019 64 10000 3.1 350 15:36 23.02.2020
2130 Clouds 23 1019 64 10000 3.1 350 15:18 23.02.2020
2131 Clouds 22 1019 73 10000 3.1 350 14:55 23.02.2020
2132 Clouds 22 1019 73 10000 3.1 350 14:37 23.02.2020
2133 Clear 21 1019 73 10000 3.1 350 14:18 23.02.2020
2134 Clouds 20 1020 72 10000 3.6 360 13:42 23.02.2020
2135 Clouds 20 1020 72 10000 3.6 360 13:22 23.02.2020
2136 Clouds 20 1020 72 10000 3.6 360 13:22 23.02.2020
2137 Clouds 19 1020 72 10000 3.6 10 12:59 23.02.2020
2138 Clouds 18 1020 72 10000 3.6 10 12:38 23.02.2020
2139 Clouds 17 1020 72 10000 3.6 10 12:19 23.02.2020
2140 Clouds 15 1020 68 10000 2.6 40 11:38 23.02.2020
2141 Clouds 15 1020 68 10000 2.6 40 11:20 23.02.2020
2142 Mist 14 1019 87 4000 0.5 120 10:56 23.02.2020
2143 Clear 14 1019 77 10000 3.1 40 10:38 23.02.2020
2144 Clear 14 1019 77 10000 3.1 40 10:20 23.02.2020
2145 Clear 13 1020 87 10000 1.5 360 09:41 23.02.2020
2146 Clear 14 1019 72 10000 3.6 60 09:22 23.02.2020
2147 Clear 14 1020 93 10000 1 320 08:59 23.02.2020
2148 Clear 14 1020 77 10000 3.6 60 08:41 23.02.2020
2149 Clear 15 1020 77 10000 3.6 60 08:21 23.02.2020
2150 Clear 15 1020 77 10000 3.1 50 07:40 23.02.2020
2151 Clear 14 1020 87 10000 3.1 360 07:18 23.02.2020
2152 Clear 16 1021 72 10000 3.1 90 05:54 23.02.2020
2153 Clear 17 1021 68 10000 3.6 90 04:48 23.02.2020
2154 Clouds 17 1021 72 10000 3.6 80 03:50 23.02.2020
2155 Clear 18 1022 72 10000 3.1 90 02:38 23.02.2020
2156 Clear 18 1022 72 10000 3.1 90 02:38 23.02.2020
2157 Clear 19 1021 68 10000 4.6 100 01:26 23.02.2020
2158 Clear 19 1021 63 10000 4.1 100 00:49 23.02.2020
2159 Clear 19 1021 63 10000 4.1 100 00:28 23.02.2020
2160 Clear 20 1021 60 10000 3.6 80 23:59 22.02.2020
2161 Clear 20 1021 60 10000 3.6 80 23:40 22.02.2020
2162 Clear 21 1021 60 10000 3.6 80 23:19 22.02.2020
2163 Clear 22 1021 60 10000 3.6 60 22:41 22.02.2020
2164 Clear 22 1021 60 10000 3.6 60 22:19 22.02.2020
2165 Clear 23 1022 56 10000 3.6 60 21:43 22.02.2020
2166 Clear 23 1022 56 10000 3.6 60 21:24 22.02.2020
2167 Clear 23 1022 56 10000 3.6 40 20:47 22.02.2020
2168 Clear 23 1022 56 10000 3.6 40 20:25 22.02.2020
2169 Clear 23 1023 59 10000 3.6 30 19:59 22.02.2020
2170 Clear 22 1023 59 10000 3.6 30 19:41 22.02.2020
2171 Clear 23 1023 59 10000 3.6 30 19:41 22.02.2020
2172 Clear 22 1023 59 10000 3.6 30 19:21 22.02.2020
2173 Clear 22 1024 59 10000 3.6 60 18:41 22.02.2020
2174 Clear 22 1024 59 10000 3.6 60 18:22 22.02.2020
2175 Clear 22 1025 59 10000 3.6 60 17:58 22.02.2020
2176 Clear 21 1025 59 10000 3.6 60 17:39 22.02.2020
2177 Clear 20 1025 55 10000 3.6 70 17:21 22.02.2020
2178 Clear 20 1025 55 10000 3.6 70 16:57 22.02.2020
2179 Clear 20 1025 55 10000 3.6 70 16:39 22.02.2020
2180 Clear 20 1025 55 10000 3.6 70 16:20 22.02.2020
2181 Clear 20 1025 55 10000 3.6 70 16:20 22.02.2020
2182 Clear 19 1026 48 10000 2.6 160 15:43 22.02.2020
2183 Clear 19 1026 48 10000 2.6 160 15:25 22.02.2020
2184 Clear 17 1026 55 10000 3.6 160 14:45 22.02.2020
2185 Clear 17 1026 55 10000 3.6 160 14:24 22.02.2020
2186 Clear 16 1026 59 10000 2.6 180 13:59 22.02.2020
2187 Clear 16 1026 59 10000 2.6 180 13:40 22.02.2020
2188 Clear 16 1026 59 10000 2.6 180 13:18 22.02.2020
2189 Clear 14 1026 67 10000 2.6 160 12:44 22.02.2020
2190 Clear 13 1026 67 10000 2.6 160 12:24 22.02.2020
2191 Clear 12 1026 66 10000 2.1 190 11:48 22.02.2020
2192 Clear 11 1026 66 10000 2.1 190 11:29 22.02.2020
2193 Clear 11 1025 66 10000 3.1 170 10:58 22.02.2020
2194 Clear 10 1025 66 10000 3.1 170 10:40 22.02.2020
2195 Clear 11 1025 66 10000 3.1 170 10:19 22.02.2020
2196 Clear 11 1025 66 10000 3.1 170 10:19 22.02.2020
2197 Clear 11 1025 66 10000 4.1 160 09:57 22.02.2020
2198 Clear 11 1025 66 10000 4.1 160 09:57 22.02.2020
2199 Clear 11 1025 66 10000 4.1 160 09:38 22.02.2020
2200 Clear 11 1025 66 10000 4.1 160 09:20 22.02.2020
2201 Clear 11 1025 62 10000 3.6 160 08:46 22.02.2020
2202 Clear 11 1025 62 10000 3.6 160 08:27 22.02.2020
2203 Clear 12 1024 62 10000 4.1 140 07:45 22.02.2020
2204 Clear 12 1024 62 10000 4.1 140 07:19 22.02.2020
2205 Clear 13 1025 58 10000 5.1 140 06:47 22.02.2020
2206 Clear 13 1025 58 10000 5.1 140 06:26 22.02.2020
2207 Clear 15 1024 51 10000 5.7 150 04:30 22.02.2020
2208 Clear 17 1024 42 10000 3.1 160 02:46 22.02.2020
2209 Clear 17 1024 42 10000 3.1 160 02:21 22.02.2020
2210 Clear 18 1023 42 10000 4.6 170 01:41 22.02.2020
2211 Clear 18 1023 42 10000 4.6 170 01:22 22.02.2020
2212 Clear 19 1022 37 10000 3.1 180 00:40 22.02.2020
2213 Clear 19 1022 37 10000 3.1 180 00:20 22.02.2020
2214 Clear 20 1022 37 10000 4.6 170 23:42 21.02.2020
2215 Clear 21 1022 37 10000 4.6 170 23:21 21.02.2020
2216 Clouds 22 1022 33 10000 2.6 170 22:43 21.02.2020
2217 Clouds 22 1022 33 10000 2.6 170 22:25 21.02.2020
2218 Clouds 22 1022 35 10000 4.1 200 21:56 21.02.2020
2219 Clouds 22 1022 35 10000 4.1 200 21:37 21.02.2020
2220 Clouds 22 1022 35 10000 4.1 200 21:19 21.02.2020
2221 Clouds 22 1022 35 10000 4.1 180 20:46 21.02.2020
2222 Clouds 22 1022 35 10000 4.1 180 20:27 21.02.2020
2223 Clouds 22 1022 35 10000 4.1 180 20:27 21.02.2020
2224 Clouds 22 1022 35 10000 3.6 200 19:41 21.02.2020
2225 Clouds 21 1022 35 10000 3.6 200 19:23 21.02.2020
2226 Clouds 21 1023 40 10000 5.7 200 18:45 21.02.2020
2227 Clouds 21 1023 40 10000 5.7 200 18:24 21.02.2020
2228 Clouds 20 1024 45 10000 3.6 200 17:59 21.02.2020
2229 Clouds 20 1024 45 10000 3.6 200 17:39 21.02.2020
2230 Clouds 20 1024 45 10000 3.6 200 17:20 21.02.2020
2231 Clouds 19 1024 45 10000 4.1 200 16:56 21.02.2020
2232 Clouds 19 1024 45 10000 4.1 200 16:56 21.02.2020
2233 Clouds 19 1024 45 10000 4.1 200 16:38 21.02.2020
2234 Clouds 19 1024 45 10000 4.1 200 16:20 21.02.2020
2235 Clouds 19 1024 48 10000 4.1 200 15:44 21.02.2020
2236 Clouds 18 1024 48 10000 4.1 200 15:19 21.02.2020
2237 Clouds 18 1024 55 10000 4.6 210 14:54 21.02.2020
2238 Clouds 18 1024 55 10000 4.6 210 14:36 21.02.2020
2239 Clouds 18 1024 55 10000 4.6 210 14:18 21.02.2020
2240 Clear 17 1023 59 10000 3.1 200 13:41 21.02.2020
2241 Clear 16 1023 59 10000 3.1 200 13:21 21.02.2020
2242 Clear 15 1023 67 10000 2.6 210 12:46 21.02.2020
2243 Clear 14 1023 67 10000 2.6 210 12:27 21.02.2020
2244 Clear 13 1023 71 10000 2.1 200 11:58 21.02.2020
2245 Clear 13 1023 71 10000 2.1 200 11:38 21.02.2020
2246 Clear 13 1023 71 10000 2.1 200 11:20 21.02.2020
2247 Clear 12 1022 71 10000 3.1 200 10:42 21.02.2020
2248 Clear 12 1022 71 10000 3.1 200 10:22 21.02.2020
2249 Clear 12 1022 71 10000 4.1 210 09:58 21.02.2020
2250 Clear 12 1022 62 10000 2.6 200 09:39 21.02.2020
2251 Clear 12 1022 62 10000 2.6 200 09:20 21.02.2020
2252 Clear 13 1022 62 10000 2.6 200 08:55 21.02.2020
2253 Clear 13 1022 62 10000 2.6 200 08:36 21.02.2020
2254 Clear 13 1022 62 10000 2.6 200 08:18 21.02.2020
2255 Clear 13 1022 55 10000 1.5 200 07:41 21.02.2020
2256 Clear 13 1022 55 10000 1.5 200 07:20 21.02.2020
2257 Clear 14 1022 59 10000 2.6 190 06:55 21.02.2020
2258 Clear 14 1022 59 10000 2.6 190 06:31 21.02.2020
2259 Clear 14 1021 51 10000 3.1 170 05:55 21.02.2020
2260 Clear 16 1021 45 10000 2.6 180 04:39 21.02.2020
2261 Clear 16 1021 45 10000 2.6 180 04:20 21.02.2020
2262 Clear 17 1020 42 10000 3.6 170 03:44 21.02.2020
2263 Clear 17 1020 42 10000 4.6 160 02:58 21.02.2020
2264 Clear 18 1019 40 10000 3.1 180 01:28 21.02.2020
2265 Clouds 19 1018 35 10000 3.1 170 00:46 21.02.2020
2266 Clouds 19 1018 35 10000 3.1 170 00:24 21.02.2020
2267 Clouds 20 1018 33 10000 3.6 200 23:46 20.02.2020
2268 Clouds 21 1018 33 10000 3.6 200 23:27 20.02.2020
2269 Clouds 22 1017 33 10000 3.6 200 23:00 20.02.2020
2270 Clouds 22 1017 33 10000 3.6 200 22:39 20.02.2020
2271 Clouds 22 1017 33 10000 3.6 200 22:20 20.02.2020
2272 Clouds 22 1018 35 10000 3.1 200 21:57 20.02.2020
2273 Clouds 22 1018 35 10000 3.1 200 21:37 20.02.2020
2274 Clouds 22 1018 35 10000 3.1 200 21:37 20.02.2020
2275 Clouds 23 1018 35 10000 3.1 200 21:19 20.02.2020
2276 Clouds 23 1018 30 10000 3.6 200 20:55 20.02.2020
2277 Clouds 23 1018 30 10000 3.6 200 20:37 20.02.2020
2278 Clouds 23 1018 30 10000 3.6 200 20:19 20.02.2020
2279 Clouds 23 1019 33 10000 4.1 200 19:58 20.02.2020
2280 Clouds 22 1019 33 10000 4.1 200 19:39 20.02.2020
2281 Clouds 22 1019 33 10000 4.1 200 19:21 20.02.2020
2282 Clouds 22 1019 35 10000 4.6 200 18:39 20.02.2020
2283 Clouds 22 1019 35 10000 4.6 200 18:20 20.02.2020
2284 Clouds 22 1019 30 10000 4.1 200 17:55 20.02.2020
2285 Clouds 22 1019 30 10000 4.1 200 17:36 20.02.2020
2286 Clouds 21 1018 40 10000 9.8 220 17:18 20.02.2020
2287 Clouds 21 1018 40 10000 9.8 220 16:55 20.02.2020
2288 Clouds 21 1019 30 10000 5.1 200 16:37 20.02.2020
2289 Clouds 21 1019 30 10000 5.1 200 16:18 20.02.2020
2290 Clear 20 1019 28 10000 5.1 200 15:41 20.02.2020
2291 Clear 20 1019 28 10000 5.1 200 15:21 20.02.2020
2292 Clear 20 1019 34 10000 6.7 170 14:56 20.02.2020
2293 Clear 20 1019 30 10000 4.1 200 14:38 20.02.2020
2294 Clear 19 1019 30 10000 4.1 200 14:20 20.02.2020
2295 Clear 19 1018 37 10000 3.6 200 13:45 20.02.2020
2296 Clear 18 1018 37 10000 3.6 200 13:20 20.02.2020
2297 Clear 17 1018 51 10000 3.1 190 12:58 20.02.2020
2298 Clear 17 1018 51 10000 3.1 190 12:39 20.02.2020
2299 Clear 16 1018 51 10000 3.1 190 12:19 20.02.2020
2300 Clear 15 1017 63 10000 4.6 200 11:54 20.02.2020
2301 Clear 15 1017 63 10000 4.6 200 11:36 20.02.2020
2302 Clear 15 1017 63 10000 4.6 200 11:18 20.02.2020
2303 Clear 15 1017 51 10000 5.7 200 10:42 20.02.2020
2304 Clear 15 1017 51 10000 5.7 200 10:21 20.02.2020
2305 Clear 15 1017 51 10000 5.7 200 10:21 20.02.2020
2306 Clear 16 1015 55 10000 4.1 180 09:47 20.02.2020
2307 Clear 16 1015 55 10000 4.1 180 09:25 20.02.2020
2308 Clouds 17 1015 52 10000 6.7 170 08:59 20.02.2020
2309 Clouds 17 1015 52 10000 6.7 170 08:39 20.02.2020
2310 Clouds 18 1015 52 10000 6.7 170 08:21 20.02.2020
2311 Clouds 18 1014 52 10000 6.2 160 07:45 20.02.2020
2312 Clouds 18 1014 52 10000 6.2 160 07:26 20.02.2020
2313 Clear 19 1013 45 10000 6.2 160 06:55 20.02.2020
2314 Clear 19 1013 45 10000 6.2 160 06:27 20.02.2020
2315 Clear 19 1013 68 10000 8.7 160 05:46 20.02.2020
2316 Clear 19 1013 63 10000 7.7 160 04:55 20.02.2020
2317 Clear 21 1010 50 10000 1 0 04:23 20.02.2020
2318 Clear 23 1010 44 10000 1.5 240 03:30 20.02.2020
2319 Clear 23 1009 44 10000 1.5 290 02:26 20.02.2020
2320 Clear 24 1009 41 10000 1.5 240 01:18 20.02.2020
2321 Clear 25 1008 39 10000 1.5 240 00:33 20.02.2020
2322 Clear 26 1008 37 10000 2.6 270 23:52 19.02.2020
2323 Clear 26 1008 37 10000 2.6 270 23:23 19.02.2020
2324 Clear 26 1008 37 10000 2.6 270 23:23 19.02.2020
2325 Clear 27 1008 37 10000 3.1 290 22:54 19.02.2020
2326 Clear 28 1008 37 10000 3.1 290 22:36 19.02.2020
2327 Clear 28 1008 37 10000 3.1 290 22:18 19.02.2020
2328 Clear 28 1008 32 10000 3.6 270 21:41 19.02.2020
2329 Clear 28 1008 32 10000 3.6 270 21:19 19.02.2020
2330 Clear 28 1008 34 10000 4.6 330 20:58 19.02.2020
2331 Clear 28 1008 34 10000 4.6 330 20:58 19.02.2020
2332 Clear 28 1008 34 10000 4.6 330 20:40 19.02.2020
2333 Clear 28 1008 34 10000 4.6 330 20:20 19.02.2020
2334 Clear 28 1009 44 10000 6.7 350 19:59 19.02.2020
2335 Clear 28 1009 44 10000 6.7 350 19:39 19.02.2020
2336 Clear 28 1009 44 10000 6.7 350 19:21 19.02.2020
2337 Clear 28 1009 47 10000 5.7 340 18:59 19.02.2020
2338 Clear 27 1009 47 10000 5.7 340 18:40 19.02.2020
2339 Clear 27 1009 47 10000 5.7 340 18:22 19.02.2020
2340 Clear 27 1010 50 10000 6.2 340 17:59 19.02.2020
2341 Clear 27 1010 50 10000 6.2 340 17:41 19.02.2020
2342 Clear 27 1010 50 10000 6.2 340 17:19 19.02.2020
2343 Clouds 26 1011 57 10000 5.1 350 16:43 19.02.2020
2344 Clouds 26 1011 57 10000 5.1 350 16:19 19.02.2020
2345 Clouds 26 1011 60 10000 4.1 350 15:57 19.02.2020
2346 Clouds 26 1011 60 10000 4.1 350 15:38 19.02.2020
2347 Clouds 25 1012 60 10000 2.6 350 15:19 19.02.2020
2348 Clouds 25 1012 60 10000 2.6 350 14:41 19.02.2020
2349 Clouds 25 1012 60 10000 2.6 350 14:23 19.02.2020
2350 Clear 24 1011 64 10000 2.1 360 13:55 19.02.2020
2351 Clear 23 1011 64 10000 2.1 360 13:36 19.02.2020
2352 Clear 23 1011 64 10000 2.1 360 13:18 19.02.2020
2353 Clear 22 1011 57 10000 2.75 330 12:38 19.02.2020
2354 Clear 21 1011 57 10000 2.75 330 12:19 19.02.2020
2355 Clear 21 1011 57 10000 2.75 330 12:19 19.02.2020
2356 Clear 19 1011 68 9000 1 0 11:54 19.02.2020
2357 Clear 17 1011 68 9000 1 0 11:36 19.02.2020
2358 Clear 17 1011 68 9000 1 0 11:18 19.02.2020
2359 Fog 15 1011 93 10000 1.49 293 10:54 19.02.2020
2360 Fog 15 1011 93 10000 1.49 293 10:36 19.02.2020
2361 Fog 15 1011 93 10000 1.49 293 10:18 19.02.2020
2362 Clear 15 1011 88 10000 1 230 09:41 19.02.2020
2363 Clear 16 1011 88 10000 1 230 09:41 19.02.2020
2364 Clear 16 1011 88 10000 1 230 09:20 19.02.2020
2365 Clear 16 1011 88 10000 1 270 08:48 19.02.2020
2366 Clear 17 1011 68 10000 1.5 230 08:24 19.02.2020
2367 Clear 17 1011 68 10000 1.5 230 08:24 19.02.2020
2368 Clear 16 1011 82 10000 1 250 07:59 19.02.2020
2369 Clear 16 1011 82 10000 1 250 07:39 19.02.2020
2370 Clear 17 1011 82 10000 1 250 07:18 19.02.2020
2371 Clear 17 1011 68 10000 1 240 06:42 19.02.2020
2372 Clear 18 1011 77 10000 2.1 230 05:26 19.02.2020
2373 Clear 19 1011 64 10000 1 240 03:52 19.02.2020
2374 Clear 21 1011 60 10000 1.5 230 02:35 19.02.2020
2375 Clouds 21 1011 60 10000 2.1 220 01:38 19.02.2020
2376 Clear 21 1011 60 10000 2.1 220 01:20 19.02.2020
2377 Clear 23 1010 57 10000 2.1 230 00:39 19.02.2020
2378 Clouds 24 1010 50 10000 3.1 230 23:59 18.02.2020
2379 Clouds 24 1010 50 10000 3.1 230 23:39 18.02.2020
2380 Clouds 24 1010 50 10000 3.1 230 23:19 18.02.2020
2381 Clouds 24 1010 50 10000 3.1 230 23:19 18.02.2020
2382 Clouds 24 1010 50 10000 3.1 230 23:19 18.02.2020
2383 Clouds 24 1010 50 10000 3.1 230 23:19 18.02.2020
2384 Clouds 25 1010 47 10000 2.6 250 22:55 18.02.2020
2385 Clouds 25 1010 47 10000 2.6 250 22:36 18.02.2020
2386 Clouds 25 1010 47 10000 2.6 250 22:18 18.02.2020
2387 Clouds 25 1010 47 10000 2.6 240 21:38 18.02.2020
2388 Clouds 25 1010 47 10000 2.6 240 21:38 18.02.2020
2389 Clouds 25 1010 47 10000 2.6 240 21:38 18.02.2020
2390 Clouds 25 1010 47 10000 2.6 240 21:20 18.02.2020
2391 Clouds 25 1010 50 10000 3.6 260 20:59 18.02.2020
2392 Clouds 25 1010 50 10000 3.6 260 20:59 18.02.2020
2393 Clouds 25 1010 50 10000 3.6 260 20:40 18.02.2020
2394 Clouds 25 1010 50 10000 3.6 260 20:21 18.02.2020
2395 Clouds 24 1011 53 10000 3.6 0 19:57 18.02.2020
2396 Clouds 24 1011 53 10000 3.6 0 19:57 18.02.2020
2397 Clouds 24 1011 53 10000 3.6 0 19:39 18.02.2020
2398 Clouds 24 1011 53 10000 3.6 0 19:19 18.02.2020
2399 Clouds 24 1011 56 10000 4.1 220 18:42 18.02.2020
2400 Clouds 23 1011 56 10000 4.1 220 18:21 18.02.2020
2401 Clouds 23 1011 56 10000 4.1 220 18:21 18.02.2020
2402 Clouds 23 1010 56 10000 4.6 230 17:57 18.02.2020
2403 Clouds 22 1010 56 10000 4.6 230 17:39 18.02.2020
2404 Clouds 22 1010 56 10000 4.6 230 17:39 18.02.2020
2405 Clouds 22 1010 56 10000 4.6 230 17:19 18.02.2020
2406 Clouds 22 1010 60 10000 4.1 240 16:40 18.02.2020
2407 Clouds 21 1010 60 10000 4.1 240 16:21 18.02.2020
2408 Clouds 21 1009 64 10000 3.1 0 15:42 18.02.2020
2409 Clouds 21 1009 64 10000 3.1 0 15:21 18.02.2020
2410 Clear 21 1008 60 10000 3.6 220 14:59 18.02.2020
2411 Clear 21 1008 60 10000 3.6 220 14:41 18.02.2020
2412 Clouds 20 1008 60 10000 3.6 220 14:21 18.02.2020
2413 Clouds 19 1008 64 10000 3.1 210 13:59 18.02.2020
2414 Clouds 19 1008 64 10000 3.1 210 13:40 18.02.2020
2415 Clear 19 1008 64 10000 3.1 210 13:21 18.02.2020
2416 Clear 19 1007 68 10000 3.1 210 12:44 18.02.2020
2417 Clear 18 1007 68 10000 3.1 210 12:25 18.02.2020
2418 Clear 19 1007 72 10000 3.6 230 11:56 18.02.2020
2419 Clear 19 1007 72 10000 3.6 230 11:38 18.02.2020
2420 Clear 19 1007 72 10000 3.6 230 11:19 18.02.2020
2421 Clouds 18 1006 82 10000 4.1 230 10:44 18.02.2020
2422 Clouds 18 1006 82 10000 4.1 230 10:44 18.02.2020
2423 Clouds 19 1006 82 10000 4.1 230 10:22 18.02.2020
2424 Clouds 19 1004 83 10000 4.1 220 09:56 18.02.2020
2425 Clouds 20 1004 83 10000 4.1 220 09:38 18.02.2020
2426 Clouds 20 1004 83 10000 4.1 220 09:19 18.02.2020
2427 Clouds 20 1004 83 10000 4.1 220 09:19 18.02.2020
2428 Clouds 20 1004 88 10000 3.6 230 08:54 18.02.2020
2429 Clouds 20 1004 88 10000 4.6 220 08:36 18.02.2020
2430 Rain 21 1004 88 10000 3.1 240 08:18 18.02.2020
2431 Rain 21 1004 88 10000 3.1 240 07:42 18.02.2020
2432 Rain 21 1004 88 10000 3.1 240 07:23 18.02.2020
2433 Clouds 21 1003 88 10000 4.1 230 06:48 18.02.2020
2434 Clouds 21 1003 88 10000 4.1 230 06:27 18.02.2020
2435 Clouds 21 1004 88 10000 3.6 250 05:47 18.02.2020
2436 Drizzle 21 1005 94 10000 3.6 240 04:52 18.02.2020
2437 Clouds 21 1004 88 10000 4.6 350 03:38 18.02.2020
2438 Rain 22 1004 100 7000 5.1 240 02:54 18.02.2020
2439 Clouds 21 1001 88 10000 4.1 70 01:23 18.02.2020
2440 Clouds 21 1001 88 10000 4.6 90 00:22 18.02.2020
2441 Clouds 21 1001 88 10000 4.6 90 00:22 18.02.2020
2442 Clouds 21 1003 94 10000 3.1 210 23:57 17.02.2020
2443 Clouds 21 1003 94 10000 3.1 210 23:57 17.02.2020
2444 Thunderstorm 21 1003 100 8000 2.6 90 23:38 17.02.2020
2445 Thunderstorm 21 1003 100 8000 2.6 90 23:19 17.02.2020
2446 Thunderstorm 23 1002 88 2000 4.6 0 22:41 17.02.2020
2447 Thunderstorm 23 1002 88 2000 4.6 0 22:21 17.02.2020
2448 Thunderstorm 24 1003 88 3000 5.7 210 21:59 17.02.2020
2449 Clouds 26 1003 88 800 7.7 240 21:38 17.02.2020
2450 Thunderstorm 28 1001 62 7000 5.1 290 21:18 17.02.2020
2451 Thunderstorm 29 1001 62 7000 5.1 290 20:42 17.02.2020
2452 Thunderstorm 29 1001 62 7000 5.1 290 20:42 17.02.2020
2453 Clouds 29 1000 69 10000 4.1 350 20:21 17.02.2020
2454 Thunderstorm 29 1000 74 10000 1.5 10 19:59 17.02.2020
2455 Clouds 29 1001 66 10000 6.2 350 19:40 17.02.2020
2456 Clouds 29 1001 66 10000 6.2 350 19:40 17.02.2020
2457 Clouds 29 1001 66 10000 6.2 350 19:20 17.02.2020
2458 Clouds 29 1002 69 10000 6.7 360 18:38 17.02.2020
2459 Clouds 30 1002 69 10000 6.7 360 18:20 17.02.2020
2460 Clouds 29 1003 74 10000 5.7 20 17:58 17.02.2020
2461 Clouds 29 1003 74 10000 5.7 20 17:38 17.02.2020
2462 Clouds 29 1003 74 10000 5.7 20 17:38 17.02.2020
2463 Clouds 29 1003 74 10000 5.7 20 17:19 17.02.2020
2464 Clouds 29 1004 78 10000 5.1 30 16:55 17.02.2020
2465 Clouds 29 1004 78 10000 5.1 30 16:55 17.02.2020
2466 Clouds 28 1004 78 10000 5.1 30 16:37 17.02.2020
2467 Clouds 29 1004 78 10000 5.1 30 16:18 17.02.2020
2468 Clouds 28 1004 74 10000 4.1 40 15:44 17.02.2020
2469 Clouds 28 1004 74 10000 4.1 40 15:44 17.02.2020
2470 Clouds 28 1004 74 10000 4.1 40 15:26 17.02.2020
2471 Clouds 26 1005 78 10000 4.6 50 14:55 17.02.2020
2472 Clouds 26 1005 78 10000 4.6 50 14:37 17.02.2020
2473 Clouds 26 1005 78 10000 4.6 50 14:18 17.02.2020
2474 Rain 25 1005 69 10000 4.6 50 13:40 17.02.2020
2475 Rain 25 1005 69 10000 4.6 50 13:20 17.02.2020
2476 Rain 25 1005 78 8000 3.1 30 12:56 17.02.2020
2477 Clouds 24 1005 69 10000 4.6 40 12:38 17.02.2020
2478 Clouds 24 1005 69 10000 4.6 40 12:19 17.02.2020
2479 Clouds 24 1004 69 10000 2.6 30 11:45 17.02.2020
2480 Clouds 23 1004 69 10000 2.6 30 11:25 17.02.2020
2481 Clouds 23 1004 69 10000 2.6 50 10:57 17.02.2020
2482 Clouds 22 1004 69 10000 2.6 50 10:38 17.02.2020
2483 Clouds 23 1004 69 10000 2.6 50 10:20 17.02.2020
2484 Clouds 22 1004 94 10000 1.5 30 09:56 17.02.2020
2485 Clouds 22 1004 74 10000 2.1 50 09:37 17.02.2020
2486 Clouds 22 1004 74 10000 2.1 50 09:18 17.02.2020
2487 Clouds 22 1004 73 10000 3.1 50 08:41 17.02.2020
2488 Rain 23 1004 73 10000 1.5 50 08:23 17.02.2020
2489 Rain 23 1004 73 10000 1.5 50 07:57 17.02.2020
2490 Rain 23 1004 73 10000 1.5 50 07:27 17.02.2020
2491 Rain 23 1005 73 10000 2.1 20 06:56 17.02.2020
2492 Rain 23 1005 73 10000 2.1 20 06:36 17.02.2020
2493 Rain 23 1005 73 10000 2.1 20 06:18 17.02.2020
2494 Rain 23 1006 73 10000 4.1 340 05:38 17.02.2020
2495 Clouds 23 1005 78 10000 7.7 340 03:53 17.02.2020
2496 Thunderstorm 23 1008 88 9000 7.2 340 02:37 17.02.2020
2497 Thunderstorm 30 1006 79 10000 6.7 40 00:59 17.02.2020
2498 Clouds 30 1004 79 10000 4.6 100 00:25 17.02.2020
2499 Thunderstorm 30 1003 52 10000 2.1 40 23:56 16.02.2020
2500 Clouds 31 1003 74 10000 4.6 110 23:34 16.02.2020
2501 Clouds 32 1003 66 10000 4.1 70 22:59 16.02.2020
2502 Clouds 32 1003 66 10000 4.1 70 22:39 16.02.2020
2503 Clouds 32 1003 66 10000 4.1 70 22:21 16.02.2020
2504 Clouds 32 1003 66 10000 4.1 70 22:21 16.02.2020
2505 Clouds 32 1004 62 10000 2.6 90 21:59 16.02.2020
2506 Clouds 32 1004 62 10000 2.6 90 21:41 16.02.2020
2507 Clouds 33 1004 62 10000 2.6 90 21:23 16.02.2020
2508 Clouds 33 1004 62 10000 2.6 40 20:58 16.02.2020
2509 Clouds 33 1004 62 10000 2.6 40 20:40 16.02.2020
2510 Clouds 33 1004 62 10000 2.6 40 20:22 16.02.2020
2511 Clouds 32 1005 66 10000 2.6 50 19:58 16.02.2020
2512 Clouds 33 1005 66 10000 2.6 50 19:39 16.02.2020
2513 Clouds 33 1005 66 10000 2.6 50 19:19 16.02.2020
2514 Clouds 33 1006 70 10000 3.6 60 18:45 16.02.2020
2515 Clouds 32 1006 70 10000 3.6 60 18:26 16.02.2020
2516 Clouds 32 1006 74 10000 3.1 60 17:58 16.02.2020
2517 Clouds 32 1006 74 10000 3.1 60 17:40 16.02.2020
2518 Clouds 32 1006 74 10000 3.1 60 17:20 16.02.2020
2519 Clouds 32 1007 74 10000 3.1 50 16:56 16.02.2020
2520 Clouds 31 1007 74 10000 3.1 50 16:38 16.02.2020
2521 Clouds 32 1007 74 10000 3.1 50 16:19 16.02.2020
2522 Clouds 31 1008 74 10000 2.1 30 15:41 16.02.2020
2523 Clouds 31 1008 74 10000 2.1 30 15:41 16.02.2020
2524 Clouds 31 1008 74 10000 2.1 30 15:22 16.02.2020
2525 Clear 31 1008 74 10000 2.1 50 14:55 16.02.2020
2526 Clear 30 1008 74 10000 2.1 50 14:36 16.02.2020
2527 Clear 30 1008 74 10000 2.1 50 14:18 16.02.2020
2528 Clear 29 1008 78 10000 2.1 360 13:42 16.02.2020
2529 Clear 27 1008 78 10000 2.1 360 13:23 16.02.2020
2530 Clear 26 1008 78 10000 2.6 10 12:40 16.02.2020
2531 Clear 26 1008 78 10000 2.6 10 12:20 16.02.2020
2532 Clear 24 1007 78 10000 1.5 310 11:54 16.02.2020
2533 Clear 23 1007 78 10000 1.5 310 11:36 16.02.2020
2534 Clear 24 1007 78 10000 1.5 310 11:18 16.02.2020
2535 Clear 24 1006 78 10000 3.1 330 10:55 16.02.2020
2536 Clear 24 1006 78 10000 3.1 330 10:55 16.02.2020
2537 Clear 23 1006 78 10000 3.1 330 10:37 16.02.2020
2538 Clear 23 1006 78 10000 3.1 330 10:18 16.02.2020
2539 Clear 24 1006 73 10000 2.6 310 09:39 16.02.2020
2540 Clear 23 1006 73 10000 2.6 310 09:20 16.02.2020
2541 Clear 24 1006 73 10000 3.6 310 08:57 16.02.2020
2542 Clear 24 1006 73 10000 3.6 310 08:57 16.02.2020
2543 Clear 24 1006 73 10000 3.6 310 08:39 16.02.2020
2544 Clear 23 1006 73 10000 3.6 310 08:19 16.02.2020
2545 Clear 24 1006 73 10000 3.1 310 07:42 16.02.2020
2546 Clear 24 1008 69 10000 3.6 330 06:58 16.02.2020
2547 Clear 25 1008 69 10000 3.6 330 06:31 16.02.2020
2548 Clear 26 1007 78 10000 1 20 04:37 16.02.2020
2549 Clear 26 1007 74 10000 1 50 03:22 16.02.2020
2550 Clear 27 1006 69 10000 1.5 340 01:58 16.02.2020
2551 Clear 27 1006 69 10000 1.5 340 01:38 16.02.2020
2552 Clear 28 1006 69 10000 1.5 340 01:19 16.02.2020
2553 Clear 28 1006 69 10000 1.5 40 00:42 16.02.2020
2554 Clear 28 1006 69 10000 1.5 40 00:22 16.02.2020
2555 Clear 30 1006 62 10000 2.6 50 23:43 15.02.2020
2556 Clear 31 1006 62 10000 2.6 50 23:25 15.02.2020
2557 Clear 31 1006 62 10000 3.6 30 22:57 15.02.2020
2558 Clear 32 1006 62 10000 3.6 30 22:39 15.02.2020
2559 Clear 32 1006 62 10000 3.6 30 22:19 15.02.2020
2560 Clear 32 1006 58 10000 4.1 30 21:55 15.02.2020
2561 Clear 32 1006 58 10000 4.1 30 21:37 15.02.2020
2562 Clear 32 1006 58 10000 4.1 30 21:19 15.02.2020
2563 Clear 32 1007 58 10000 3.6 40 20:38 15.02.2020
2564 Clear 32 1007 58 10000 3.6 40 20:20 15.02.2020
2565 Clear 32 1008 58 10000 3.6 50 19:43 15.02.2020
2566 Clear 32 1008 58 10000 3.6 50 19:22 15.02.2020
2567 Clear 32 1008 58 10000 3.6 50 19:22 15.02.2020
2568 Clear 31 1008 61 10000 3.1 30 18:42 15.02.2020
2569 Clear 31 1009 61 10000 3.6 30 18:21 15.02.2020
2570 Clear 31 1009 61 10000 3.6 30 17:57 15.02.2020
2571 Clear 30 1009 61 10000 3.6 30 17:37 15.02.2020
2572 Clear 30 1009 61 10000 3.6 30 17:19 15.02.2020
2573 Clear 30 1009 65 10000 3.1 20 16:41 15.02.2020
2574 Clear 30 1009 65 10000 3.1 20 16:23 15.02.2020
2575 Clouds 29 1009 69 10000 2.6 360 15:56 15.02.2020
2576 Clouds 29 1009 69 10000 2.6 360 15:38 15.02.2020
2577 Clouds 29 1009 69 10000 2.6 360 15:20 15.02.2020
2578 Clouds 27 1009 78 10000 2.6 340 14:43 15.02.2020
2579 Clouds 27 1009 78 10000 2.6 340 14:19 15.02.2020
2580 Clear 26 1010 73 10000 2.1 330 13:43 15.02.2020
2581 Clear 25 1010 73 10000 2.1 330 13:25 15.02.2020
2582 Clear 24 1010 69 10000 1.5 340 12:59 15.02.2020
2583 Clouds 24 1010 73 10000 1.5 310 12:40 15.02.2020
2584 Clouds 23 1010 73 10000 1.5 310 12:22 15.02.2020
2585 Clouds 22 1009 78 10000 1.5 290 11:47 15.02.2020
2586 Clouds 22 1009 78 10000 1.5 290 11:47 15.02.2020
2587 Clouds 20 1009 78 10000 1.5 290 11:27 15.02.2020
2588 Mist 18 1009 87 4000 0.5 290 10:49 15.02.2020
2589 Clear 16 1009 93 10000 1.4 23 10:30 15.02.2020
2590 Clear 16 1009 88 10000 1.4 23 09:57 15.02.2020
2591 Clear 16 1009 88 10000 1.4 23 09:38 15.02.2020
2592 Clear 16 1009 88 10000 1.4 23 09:20 15.02.2020
2593 Clear 17 1009 82 10000 1.4 23 08:43 15.02.2020
2594 Clear 18 1009 64 10000 0.5 180 08:23 15.02.2020
2595 Clear 18 1009 53 10000 1 150 07:50 15.02.2020
2596 Clear 19 1009 53 10000 1 150 07:30 15.02.2020
2597 Clear 19 1009 47 10000 2.4 134 06:47 15.02.2020
2598 Clear 19 1009 47 10000 2.4 134 06:28 15.02.2020
2599 Clear 20 1010 47 10000 1 170 05:31 15.02.2020
2600 Clear 21 1010 44 10000 1 180 04:45 15.02.2020
2601 Clear 22 1009 44 10000 1 190 03:24 15.02.2020
2602 Clear 23 1009 39 10000 1 180 02:42 15.02.2020
2603 Clear 23 1009 39 10000 1 180 02:42 15.02.2020
2604 Clear 24 1009 39 10000 1 180 02:19 15.02.2020
2605 Clear 24 1008 41 10000 1.5 180 01:38 15.02.2020
2606 Clear 25 1008 42 10000 1 0 00:38 15.02.2020
2607 Clear 26 1008 42 10000 1 0 00:18 15.02.2020
2608 Clear 27 1007 42 10000 1.5 250 23:39 14.02.2020
2609 Clear 28 1007 42 10000 1.5 250 23:19 14.02.2020
2610 Clear 28 1007 45 10000 2.6 0 22:43 14.02.2020
2611 Clear 28 1007 45 10000 2.6 0 22:23 14.02.2020
2612 Clouds 29 1007 42 10000 3.1 200 21:51 14.02.2020
2613 Clouds 29 1007 42 10000 3.1 200 21:51 14.02.2020
2614 Clouds 29 1007 42 10000 3.1 200 21:33 14.02.2020
2615 Clear 29 1008 42 10000 2.6 0 20:58 14.02.2020
2616 Clear 29 1008 42 10000 2.6 0 20:39 14.02.2020
2617 Clear 29 1008 42 10000 2.6 0 20:19 14.02.2020
2618 Clear 29 1008 48 10000 3.1 180 19:42 14.02.2020
2619 Clear 29 1008 48 10000 3.1 180 19:24 14.02.2020
2620 Clear 28 1009 48 10000 2.1 240 18:59 14.02.2020
2621 Clear 27 1009 48 10000 2.1 240 18:40 14.02.2020
2622 Clear 28 1009 48 10000 2.1 240 18:21 14.02.2020
2623 Clear 27 1009 51 10000 2.6 0 17:56 14.02.2020
2624 Clear 27 1009 51 10000 2.6 0 17:38 14.02.2020
2625 Clear 27 1009 51 10000 2.6 0 17:18 14.02.2020
2626 Clouds 27 1010 51 10000 2.1 0 16:41 14.02.2020
2627 Clouds 27 1010 51 10000 2.1 0 16:23 14.02.2020
2628 Clear 26 1010 54 10000 2.1 0 15:56 14.02.2020
2629 Clear 26 1010 54 10000 2.1 0 15:38 14.02.2020
2630 Clear 27 1010 54 10000 2.1 0 15:38 14.02.2020
2631 Clear 26 1010 54 10000 2.1 0 15:20 14.02.2020
2632 Clear 25 1010 57 10000 2.6 230 14:59 14.02.2020
2633 Clear 25 1010 57 10000 2.6 230 14:40 14.02.2020
2634 Clouds 25 1010 57 10000 2.6 230 14:22 14.02.2020
2635 Clouds 24 1010 57 10000 2.6 230 14:22 14.02.2020
2636 Clouds 24 1010 57 10000 2.6 200 13:55 14.02.2020
2637 Clouds 24 1010 57 10000 2.6 200 13:37 14.02.2020
2638 Clouds 23 1009 61 10000 1 230 13:18 14.02.2020
2639 Clouds 23 1009 61 10000 1 230 12:56 14.02.2020
2640 Clouds 24 1009 61 10000 1 230 12:37 14.02.2020
2641 Clouds 23 1009 61 10000 1 230 12:18 14.02.2020
2642 Clouds 22 1008 73 10000 1 0 11:41 14.02.2020
2643 Rain 21 1008 73 10000 1 0 11:21 14.02.2020
2644 Rain 21 1007 73 10000 3.1 90 10:57 14.02.2020
2645 Rain 20 1007 73 10000 3.1 90 10:38 14.02.2020
2646 Rain 20 1007 73 10000 3.1 90 10:20 14.02.2020
2647 Rain 20 1007 77 10000 4.1 130 09:44 14.02.2020
2648 Rain 20 1007 77 10000 4.1 130 09:22 14.02.2020
2649 Rain 20 1008 68 10000 4.1 160 08:56 14.02.2020
2650 Rain 20 1008 68 10000 4.1 160 08:37 14.02.2020
2651 Rain 20 1008 68 10000 4.1 160 08:18 14.02.2020
2652 Clouds 20 1009 83 10000 5.1 180 07:44 14.02.2020
2653 Clouds 20 1009 83 10000 5.1 180 07:24 14.02.2020
2654 Rain 21 1010 100 3000 5.7 210 06:32 14.02.2020
2655 Clouds 24 1008 74 8000 1 0 05:59 14.02.2020
2656 Mist 25 1008 74 3000 1 0 05:25 14.02.2020
2657 Clouds 26 1008 78 10000 3.1 120 03:30 14.02.2020
2658 Clouds 26 1008 78 10000 5.1 110 02:32 14.02.2020
2659 Clouds 26 1008 78 10000 6.7 110 01:28 14.02.2020
2660 Clouds 27 1008 83 10000 7.2 110 00:43 14.02.2020
2661 Clouds 27 1008 83 10000 7.2 110 00:24 14.02.2020
2662 Clouds 28 1008 69 10000 6.7 110 23:46 13.02.2020
2663 Clouds 29 1008 69 10000 6.7 110 23:22 13.02.2020
2664 Clouds 30 1008 61 10000 4.6 120 22:44 13.02.2020
2665 Clouds 30 1008 61 10000 4.6 120 22:20 13.02.2020
2666 Clouds 31 1008 65 10000 5.1 80 21:59 13.02.2020
2667 Clouds 31 1008 65 10000 5.1 80 21:41 13.02.2020
2668 Clouds 31 1008 65 10000 5.1 80 21:22 13.02.2020
2669 Clouds 31 1009 61 10000 6.2 100 20:58 13.02.2020
2670 Clouds 31 1009 52 10000 4.6 50 20:39 13.02.2020
2671 Clouds 31 1009 52 10000 4.6 50 20:21 13.02.2020
2672 Clouds 31 1010 61 10000 5.7 110 19:56 13.02.2020
2673 Clouds 30 1010 61 10000 5.7 110 19:36 13.02.2020
2674 Clouds 30 1010 61 10000 5.7 110 19:18 13.02.2020
2675 Clouds 32 1011 45 10000 4.1 20 18:43 13.02.2020
2676 Clouds 32 1011 45 10000 4.1 20 18:24 13.02.2020
2677 Clouds 31 1011 51 10000 4.6 360 17:59 13.02.2020
2678 Clouds 31 1011 51 10000 4.6 360 17:40 13.02.2020
2679 Clouds 30 1011 51 10000 4.6 360 17:20 13.02.2020
2680 Clouds 29 1012 65 10000 3.1 30 16:58 13.02.2020
2681 Clouds 29 1012 65 10000 3.1 30 16:37 13.02.2020
2682 Clouds 29 1012 65 10000 3.1 30 16:19 13.02.2020
2683 Clouds 29 1012 65 10000 3.1 30 16:19 13.02.2020
2684 Clouds 28 1013 61 10000 5.1 20 15:56 13.02.2020
2685 Clouds 28 1013 61 10000 5.1 20 15:37 13.02.2020
2686 Clouds 27 1013 73 10000 3.6 20 15:18 13.02.2020
2687 Clouds 26 1013 73 10000 4.6 10 14:55 13.02.2020
2688 Clouds 26 1013 73 10000 4.6 10 14:55 13.02.2020
2689 Clouds 26 1013 73 10000 4.6 10 14:37 13.02.2020
2690 Clouds 26 1013 73 10000 4.6 10 14:37 13.02.2020
2691 Clouds 26 1013 73 10000 4.6 10 14:37 13.02.2020
2692 Clouds 26 1013 73 10000 4.6 10 14:19 13.02.2020
2693 Clouds 25 1014 78 10000 3.6 10 13:42 13.02.2020
2694 Clouds 24 1014 78 10000 3.6 10 13:18 13.02.2020
2695 Clouds 23 1013 78 10000 4.6 360 12:54 13.02.2020
2696 Clouds 23 1013 78 10000 4.6 360 12:36 13.02.2020
2697 Clouds 23 1013 78 10000 4.6 360 12:18 13.02.2020
2698 Clouds 22 1013 78 10000 4.6 20 11:43 13.02.2020
2699 Clouds 21 1013 78 10000 4.6 20 11:19 13.02.2020
2700 Clouds 21 1013 78 10000 4.6 30 10:46 13.02.2020
2701 Clouds 21 1013 78 10000 4.6 30 10:27 13.02.2020
2702 Clouds 21 1013 78 10000 5.1 40 09:51 13.02.2020
2703 Clouds 22 1013 78 10000 5.1 40 09:26 13.02.2020
2704 Clouds 22 1013 78 10000 5.1 40 09:26 13.02.2020
2705 Clouds 22 1012 73 10000 6.2 40 08:52 13.02.2020
2706 Clouds 22 1012 73 10000 6.2 40 08:21 13.02.2020
2707 Clouds 22 1013 69 10000 7.7 40 07:57 13.02.2020
2708 Clouds 22 1013 69 10000 7.7 40 07:38 13.02.2020
2709 Clouds 22 1013 69 10000 7.7 40 07:38 13.02.2020
2710 Clouds 22 1013 69 10000 7.7 40 07:20 13.02.2020
2711 Clouds 24 1012 64 10000 7.2 40 06:44 13.02.2020
2712 Clouds 24 1012 64 10000 7.2 40 06:18 13.02.2020
2713 Clouds 24 1013 60 10000 8.2 40 05:25 13.02.2020
2714 Clear 24 1013 61 10000 8.7 50 04:25 13.02.2020
2715 Clear 24 1012 78 10000 4.1 70 03:47 13.02.2020
2716 Clear 24 1012 78 10000 4.1 70 03:18 13.02.2020
2717 Clear 24 1012 83 10000 5.1 100 02:45 13.02.2020
2718 Clear 24 1012 83 10000 5.1 100 02:19 13.02.2020
2719 Clear 24 1012 78 10000 6.2 110 01:27 13.02.2020
2720 Clear 25 1012 73 10000 7.7 110 00:32 13.02.2020
2721 Clouds 25 1013 73 10000 8.7 110 23:58 12.02.2020
2722 Clouds 26 1012 65 10000 6.2 90 23:37 12.02.2020
2723 Clouds 26 1012 65 10000 6.2 90 23:18 12.02.2020
2724 Clouds 27 1013 69 10000 7.7 110 22:44 12.02.2020
2725 Clouds 27 1013 69 10000 7.7 110 22:24 12.02.2020
2726 Clouds 28 1014 61 10000 6.7 110 21:57 12.02.2020
2727 Clouds 28 1014 61 10000 6.7 110 21:39 12.02.2020
2728 Clouds 28 1014 61 10000 6.7 110 21:19 12.02.2020
2729 Clouds 28 1014 61 10000 6.7 110 20:55 12.02.2020
2730 Clouds 28 1014 61 10000 6.7 110 20:36 12.02.2020
2731 Clouds 28 1014 61 10000 6.7 110 20:18 12.02.2020
2732 Clouds 28 1015 57 10000 5.1 110 19:43 12.02.2020
2733 Clouds 28 1015 57 10000 5.1 110 19:22 12.02.2020
2734 Clouds 28 1016 57 10000 3.1 50 18:54 12.02.2020
2735 Clouds 28 1016 57 10000 3.1 50 18:36 12.02.2020
2736 Clouds 28 1016 57 10000 3.1 50 18:18 12.02.2020
2737 Clouds 27 1017 57 10000 3.1 50 17:40 12.02.2020
2738 Clouds 27 1017 57 10000 3.1 50 17:19 12.02.2020
2739 Clouds 27 1018 61 10000 3.1 20 16:57 12.02.2020
2740 Clouds 27 1018 61 10000 3.1 20 16:37 12.02.2020
2741 Clouds 26 1018 61 10000 3.1 20 16:18 12.02.2020
2742 Clouds 26 1018 69 10000 4.1 50 15:38 12.02.2020
2743 Clouds 25 1018 69 10000 4.1 50 15:19 12.02.2020
2744 Clouds 24 1018 69 10000 5.7 20 14:43 12.02.2020
2745 Clouds 25 1018 69 10000 5.7 20 14:43 12.02.2020
2746 Clear 24 1018 69 10000 4.6 50 14:21 12.02.2020
2747 Clouds 24 1019 73 10000 5.1 50 13:59 12.02.2020
2748 Clouds 23 1019 73 10000 5.1 50 13:40 12.02.2020
2749 Clouds 23 1019 73 10000 5.1 50 13:22 12.02.2020
2750 Clouds 22 1018 77 10000 6.2 50 12:58 12.02.2020
2751 Clouds 22 1018 77 10000 6.2 50 12:39 12.02.2020
2752 Clouds 22 1018 77 10000 6.2 50 12:19 12.02.2020
2753 Clear 21 1018 73 10000 6.2 50 11:59 12.02.2020
2754 Clear 21 1018 73 10000 6.2 50 11:40 12.02.2020
2755 Clear 19 1018 73 10000 6.2 50 11:21 12.02.2020
2756 Clear 19 1018 73 10000 6.2 50 11:21 12.02.2020
2757 Clear 19 1018 77 10000 6.2 50 10:58 12.02.2020
2758 Clear 19 1018 77 10000 6.2 50 10:39 12.02.2020
2759 Clear 19 1018 77 10000 6.2 50 10:20 12.02.2020
2760 Clear 19 1018 73 10000 6.2 40 09:42 12.02.2020
2761 Clear 19 1018 73 10000 6.2 40 09:42 12.02.2020
2762 Clear 19 1018 73 10000 6.2 40 09:24 12.02.2020
2763 Clear 19 1018 73 10000 6.2 40 08:58 12.02.2020
2764 Clear 20 1018 73 10000 6.2 40 08:38 12.02.2020
2765 Clear 20 1018 73 10000 6.2 40 08:20 12.02.2020
2766 Clear 20 1018 73 10000 6.2 40 08:20 12.02.2020
2767 Clear 21 1018 68 10000 6.7 40 07:47 12.02.2020
2768 Clear 21 1018 68 10000 6.7 40 07:47 12.02.2020
2769 Clear 21 1018 68 10000 6.7 40 07:24 12.02.2020
2770 Clear 21 1018 68 10000 7.7 50 06:59 12.02.2020
2771 Clear 21 1018 68 10000 7.7 50 06:26 12.02.2020
2772 Clear 21 1019 64 10000 10.3 50 05:47 12.02.2020
2773 Clear 21 1019 64 10000 10.3 50 05:21 12.02.2020
2774 Clear 21 1019 69 10000 6.7 90 04:41 12.02.2020
2775 Clear 22 1019 73 10000 9.3 100 03:57 12.02.2020
2776 Clear 22 1019 73 10000 9.3 100 03:28 12.02.2020
2777 Clear 22 1019 69 10000 8.7 100 02:41 12.02.2020
2778 Clear 22 1019 69 10000 8.7 100 02:21 12.02.2020
2779 Clear 22 1019 64 10000 7.7 110 01:27 12.02.2020
2780 Clear 23 1018 64 10000 6.7 100 00:39 12.02.2020
2781 Clear 23 1018 64 10000 6.7 100 00:21 12.02.2020
2782 Clear 24 1018 57 10000 7.2 100 23:45 11.02.2020
2783 Clear 24 1018 57 10000 7.2 100 23:27 11.02.2020
2784 Clear 25 1019 57 10000 6.7 100 22:56 11.02.2020
2785 Clear 26 1019 57 10000 6.7 100 22:38 11.02.2020
2786 Clear 26 1019 57 10000 6.7 100 22:19 11.02.2020
2787 Clouds 26 1019 41 10000 5.7 100 21:56 11.02.2020
2788 Clouds 26 1019 41 10000 5.7 100 21:37 11.02.2020
2789 Clouds 26 1019 41 10000 5.7 100 21:18 11.02.2020
2790 Clouds 26 1019 41 10000 5.7 100 21:18 11.02.2020
2791 Clouds 26 1020 50 10000 5.7 100 20:56 11.02.2020
2792 Clouds 26 1020 50 10000 5.7 100 20:38 11.02.2020
2793 Clouds 26 1020 50 10000 5.7 100 20:18 11.02.2020
2794 Clouds 26 1020 50 10000 5.7 100 20:18 11.02.2020
2795 Clouds 26 1020 57 10000 5.1 100 19:43 11.02.2020
2796 Clouds 26 1020 57 10000 5.1 100 19:43 11.02.2020
2797 Clouds 26 1020 57 10000 5.1 100 19:25 11.02.2020
2798 Clouds 26 1021 47 10000 3.6 70 18:57 11.02.2020
2799 Clouds 26 1021 47 10000 3.6 70 18:57 11.02.2020
2800 Clouds 26 1021 47 10000 3.6 70 18:39 11.02.2020
2801 Clouds 26 1021 47 10000 3.6 70 18:39 11.02.2020
2802 Clouds 26 1021 47 10000 3.6 70 18:39 11.02.2020
2803 Clouds 26 1021 47 10000 3.6 70 18:39 11.02.2020
2804 Clouds 26 1021 47 10000 3.6 70 18:39 11.02.2020
2805 Clouds 26 1021 47 10000 3.6 70 18:20 11.02.2020
2806 Clouds 25 1021 60 10000 3.1 60 17:55 11.02.2020
2807 Clouds 26 1021 60 10000 3.1 60 17:36 11.02.2020
2808 Clouds 25 1021 60 10000 3.1 60 17:18 11.02.2020
2809 Clouds 25 1022 60 10000 3.6 30 16:57 11.02.2020
2810 Clouds 25 1022 60 10000 3.6 30 16:37 11.02.2020
2811 Clouds 25 1022 60 10000 3.6 30 16:19 11.02.2020
2812 Clouds 25 1022 64 10000 3.1 40 15:45 11.02.2020
2813 Clouds 25 1022 64 10000 3.1 40 15:26 11.02.2020
2814 Clouds 24 1022 68 10000 4.1 40 14:57 11.02.2020
2815 Clouds 23 1022 68 10000 4.1 40 14:38 11.02.2020
2816 Clouds 23 1022 68 10000 4.1 40 14:18 11.02.2020
2817 Clouds 23 1022 68 10000 4.6 50 13:42 11.02.2020
2818 Clouds 22 1022 68 10000 4.6 50 13:21 11.02.2020
2819 Clouds 21 1022 73 10000 5.1 50 12:58 11.02.2020
2820 Clouds 22 1022 73 10000 5.1 50 12:40 11.02.2020
2821 Clouds 20 1022 73 10000 5.1 50 12:20 11.02.2020
2822 Clouds 20 1021 68 10000 5.1 50 11:55 11.02.2020
2823 Clouds 19 1021 68 10000 5.1 50 11:36 11.02.2020
2824 Clouds 17 1021 68 10000 5.1 50 11:18 11.02.2020
2825 Clouds 16 1021 77 10000 3.1 50 10:39 11.02.2020
2826 Clouds 16 1021 77 10000 3.1 50 10:20 11.02.2020
2827 Clouds 15 1021 77 10000 4.6 50 09:56 11.02.2020
2828 Clouds 16 1021 77 10000 4.6 50 09:38 11.02.2020
2829 Clouds 16 1021 64 10000 6.2 70 09:20 11.02.2020
2830 Clouds 17 1021 68 10000 5.7 70 08:46 11.02.2020
2831 Clouds 17 1021 68 10000 5.7 70 08:24 11.02.2020
2832 Clouds 17 1021 73 10000 6.7 70 07:48 11.02.2020
2833 Clouds 18 1021 73 10000 6.7 70 07:27 11.02.2020
2834 Clouds 17 1021 73 10000 6.7 70 06:45 11.02.2020
2835 Clouds 17 1021 73 10000 6.7 70 06:23 11.02.2020
2836 Clouds 18 1021 68 10000 5.7 110 05:58 11.02.2020
2837 Clouds 17 1021 77 10000 4.1 50 05:26 11.02.2020
2838 Clouds 18 1021 68 10000 5.7 110 04:52 11.02.2020
2839 Clouds 19 1021 64 10000 6.2 110 03:26 11.02.2020
2840 Clouds 20 1021 60 10000 5.7 110 02:33 11.02.2020
2841 Clouds 20 1021 60 10000 6.7 110 01:38 11.02.2020
2842 Clouds 21 1020 60 10000 5.7 100 00:42 11.02.2020
2843 Clouds 21 1020 60 10000 5.7 100 00:20 11.02.2020
2844 Clouds 22 1020 56 10000 5.1 70 23:39 10.02.2020
2845 Clouds 22 1020 64 10000 5.1 90 23:20 10.02.2020
2846 Clouds 23 1020 56 10000 6.7 100 22:42 10.02.2020
2847 Clouds 24 1020 56 10000 6.7 100 22:20 10.02.2020
2848 Clouds 24 1021 56 10000 5.1 100 21:54 10.02.2020
2849 Clouds 24 1021 56 10000 5.1 100 21:36 10.02.2020
2850 Clouds 24 1021 56 10000 5.1 100 21:18 10.02.2020
2851 Clouds 24 1021 56 10000 4.1 80 20:54 10.02.2020
2852 Clouds 24 1021 56 10000 4.1 80 20:36 10.02.2020
2853 Clear 24 1021 56 10000 4.1 80 20:18 10.02.2020
2854 Clear 24 1021 53 10000 4.6 80 19:54 10.02.2020
2855 Clear 25 1021 53 10000 4.6 80 19:36 10.02.2020
2856 Clear 24 1021 53 10000 4.6 80 19:18 10.02.2020
2857 Clear 25 1022 53 10000 4.1 70 18:41 10.02.2020
2858 Clear 24 1022 53 10000 4.1 70 18:21 10.02.2020
2859 Clouds 25 1022 56 10000 4.1 80 17:58 10.02.2020
2860 Clouds 25 1022 56 10000 4.1 80 17:38 10.02.2020
2861 Clouds 24 1023 56 10000 4.6 70 17:20 10.02.2020
2862 Clouds 24 1023 56 10000 4.6 70 16:59 10.02.2020
2863 Clouds 24 1023 56 10000 4.6 70 16:59 10.02.2020
2864 Clouds 23 1023 56 10000 4.6 70 16:40 10.02.2020
2865 Clouds 23 1023 49 10000 3.6 100 16:20 10.02.2020
2866 Clouds 23 1023 49 10000 3.6 100 15:56 10.02.2020
2867 Clouds 23 1023 49 10000 3.6 100 15:38 10.02.2020
2868 Clouds 23 1023 49 10000 3.6 100 15:20 10.02.2020
2869 Clouds 22 1023 52 10000 3.1 140 14:56 10.02.2020
2870 Clouds 21 1023 52 10000 3.1 140 14:37 10.02.2020
2871 Clouds 21 1023 52 10000 3.1 140 14:18 10.02.2020
2872 Clouds 19 1023 55 10000 2.6 160 13:42 10.02.2020
2873 Clouds 19 1023 55 10000 2.6 160 13:24 10.02.2020
2874 Clouds 19 1023 55 10000 2.6 160 13:24 10.02.2020
2875 Clouds 18 1022 59 10000 2.1 170 12:51 10.02.2020
2876 Clouds 17 1022 59 10000 2.1 170 12:27 10.02.2020
2877 Clouds 15 1022 63 10000 1.5 190 11:56 10.02.2020
2878 Clouds 16 1022 63 10000 1.5 190 11:38 10.02.2020
2879 Clouds 15 1022 63 10000 1.5 190 11:20 10.02.2020
2880 Clear 13 1022 67 10000 1.5 190 10:47 10.02.2020
2881 Clear 13 1022 67 10000 1.5 190 10:28 10.02.2020
2882 Clear 13 1022 72 10000 2.1 160 09:48 10.02.2020
2883 Clear 13 1022 72 10000 2.1 160 09:26 10.02.2020
2884 Clear 14 1022 63 10000 2.1 160 08:57 10.02.2020
2885 Clear 15 1022 63 10000 2.1 160 08:37 10.02.2020
2886 Clouds 14 1022 63 10000 2.1 160 08:19 10.02.2020
2887 Clouds 15 1022 59 10000 3.6 150 07:50 10.02.2020
2888 Clouds 15 1022 59 10000 3.6 150 07:27 10.02.2020
2889 Clouds 16 1022 59 10000 3.6 160 06:22 10.02.2020
2890 Clouds 17 1022 68 10000 4.1 140 04:42 10.02.2020
2891 Clouds 18 1022 68 10000 5.7 140 03:34 10.02.2020
2892 Clouds 18 1021 60 10000 6.2 130 02:54 10.02.2020
2893 Clouds 19 1020 46 10000 3.1 160 01:57 10.02.2020
2894 Clouds 20 1020 64 10000 7.2 100 00:51 10.02.2020
2895 Clouds 21 1020 64 10000 7.2 100 00:31 10.02.2020
2896 Clear 22 1019 56 10000 4.1 110 23:56 09.02.2020
2897 Clear 22 1019 56 10000 4.1 110 23:38 09.02.2020
2898 Clear 23 1019 56 10000 4.1 110 23:19 09.02.2020
2899 Clear 24 1019 36 10000 3.6 160 22:39 09.02.2020
2900 Clear 24 1019 36 10000 3.6 160 22:21 09.02.2020
2901 Clear 24 1019 38 10000 4.1 140 21:42 09.02.2020
2902 Clear 24 1019 38 10000 4.1 140 21:23 09.02.2020
2903 Clouds 25 1020 33 10000 4.1 150 20:48 09.02.2020
2904 Clouds 24 1020 33 10000 4.1 150 20:27 09.02.2020
2905 Clear 24 1020 36 10000 4.1 0 19:58 09.02.2020
2906 Clear 24 1020 36 10000 4.1 0 19:39 09.02.2020
2907 Clear 24 1020 36 10000 4.1 0 19:21 09.02.2020
2908 Clear 24 1021 49 10000 5.7 100 18:56 09.02.2020
2909 Clear 24 1021 49 10000 5.7 100 18:36 09.02.2020
2910 Clear 24 1021 49 10000 5.7 100 18:18 09.02.2020
2911 Clear 23 1021 46 10000 4.1 130 17:40 09.02.2020
2912 Clear 23 1021 46 10000 4.1 130 17:22 09.02.2020
2913 Clear 23 1021 46 10000 4.1 130 17:21 09.02.2020
2914 Clear 23 1021 53 10000 3.6 150 16:44 09.02.2020
2915 Clear 23 1021 53 10000 3.6 150 16:24 09.02.2020
2916 Clear 21 1021 60 10000 3.6 140 15:59 09.02.2020
2917 Clear 23 1021 60 10000 3.6 140 15:41 09.02.2020
2918 Clear 23 1021 60 10000 3.6 140 15:41 09.02.2020
2919 Clear 22 1021 60 10000 3.6 140 15:21 09.02.2020
2920 Clear 20 1021 63 10000 4.1 160 14:57 09.02.2020
2921 Clear 20 1021 63 10000 4.1 160 14:38 09.02.2020
2922 Clouds 19 1021 63 10000 4.1 160 14:20 09.02.2020
2923 Clouds 19 1021 68 10000 3.6 160 13:44 09.02.2020
2924 Clouds 19 1021 68 10000 3.6 160 13:26 09.02.2020
2925 Clouds 17 1020 72 10000 3.6 160 12:56 09.02.2020
2926 Clouds 17 1020 72 10000 3.6 160 12:37 09.02.2020
2927 Clouds 17 1020 72 10000 3.6 160 12:37 09.02.2020
2928 Clouds 17 1020 72 10000 3.6 160 12:18 09.02.2020
2929 Clouds 16 1019 72 10000 4.1 160 11:41 09.02.2020
2930 Clouds 16 1019 72 10000 4.1 160 11:20 09.02.2020
2931 Clouds 16 1019 72 10000 3.6 160 10:57 09.02.2020
2932 Clouds 16 1019 72 10000 3.6 160 10:38 09.02.2020
2933 Clouds 16 1019 72 10000 3.6 160 10:38 09.02.2020
2934 Clouds 16 1019 72 10000 3.6 160 10:19 09.02.2020
2935 Clouds 16 1018 72 10000 4.1 160 09:40 09.02.2020
2936 Clouds 16 1018 72 10000 4.1 160 09:20 09.02.2020
2937 Clouds 16 1018 77 10000 4.1 160 08:44 09.02.2020
2938 Clear 16 1018 77 10000 4.1 160 08:25 09.02.2020
2939 Clear 17 1018 72 10000 4.1 160 07:54 09.02.2020
2940 Clear 17 1018 72 10000 4.1 160 07:34 09.02.2020
2941 Clear 17 1017 77 10000 3.6 160 06:44 09.02.2020
2942 Clouds 18 1017 68 10000 4.6 140 05:56 09.02.2020
2943 Clouds 18 1017 68 10000 4.6 140 05:34 09.02.2020
2944 Clouds 19 1018 68 10000 6.2 140 04:51 09.02.2020
2945 Clouds 20 1017 68 10000 7.7 130 02:58 09.02.2020
2946 Clouds 21 1017 68 10000 7.7 130 02:38 09.02.2020
2947 Clouds 22 1016 64 10000 7.7 130 01:44 09.02.2020
2948 Clouds 22 1016 64 10000 7.7 130 01:19 09.02.2020
2949 Clouds 24 1015 60 10000 8.2 120 00:32 09.02.2020
2950 Clouds 25 1015 57 10000 8.2 120 23:55 08.02.2020
2951 Clouds 26 1015 57 10000 8.2 120 23:37 08.02.2020
2952 Clouds 26 1015 57 10000 8.2 120 23:18 08.02.2020
2953 Clouds 27 1014 69 10000 7.7 100 22:40 08.02.2020
2954 Clouds 27 1014 69 10000 7.7 100 22:21 08.02.2020
2955 Clouds 27 1014 69 10000 7.2 110 21:49 08.02.2020
2956 Clouds 27 1014 69 10000 7.2 110 21:31 08.02.2020
2957 Clear 28 1015 61 10000 6.2 110 20:59 08.02.2020
2958 Clear 28 1015 61 10000 6.2 110 20:40 08.02.2020
2959 Clear 28 1015 61 10000 6.2 110 20:20 08.02.2020
2960 Clear 27 1015 61 10000 6.7 110 19:59 08.02.2020
2961 Clear 27 1015 61 10000 6.7 110 19:40 08.02.2020
2962 Clear 27 1015 61 10000 6.7 110 19:20 08.02.2020
2963 Clear 27 1016 57 10000 4.1 160 18:57 08.02.2020
2964 Clear 26 1016 57 10000 4.1 160 18:39 08.02.2020
2965 Clear 27 1016 57 10000 4.1 160 18:19 08.02.2020
2966 Clouds 26 1016 61 10000 6.2 110 17:42 08.02.2020
2967 Clouds 26 1016 61 10000 6.2 110 17:20 08.02.2020
2968 Clouds 25 1016 57 10000 3.6 160 16:43 08.02.2020
2969 Clouds 25 1016 57 10000 3.6 160 16:24 08.02.2020
2970 Clouds 24 1016 64 10000 2.6 160 15:59 08.02.2020
2971 Clouds 24 1016 64 10000 2.6 160 15:40 08.02.2020
2972 Clouds 24 1016 64 10000 2.6 160 15:18 08.02.2020
2973 Clouds 23 1016 68 10000 3.1 160 14:45 08.02.2020
2974 Clouds 22 1016 68 10000 3.1 160 14:24 08.02.2020
2975 Clouds 21 1016 77 10000 4.1 160 13:59 08.02.2020
2976 Clouds 21 1016 77 10000 4.1 160 13:40 08.02.2020
2977 Clouds 21 1016 77 10000 4.1 160 13:22 08.02.2020
2978 Clouds 20 1015 83 10000 3.6 160 12:49 08.02.2020
2979 Clouds 20 1015 83 10000 3.6 160 12:23 08.02.2020
2980 Clouds 20 1015 83 10000 4.1 160 11:56 08.02.2020
2981 Clouds 20 1015 83 10000 4.1 160 11:38 08.02.2020
2982 Clouds 20 1015 83 10000 4.1 160 11:20 08.02.2020
2983 Clouds 20 1014 88 10000 3.6 180 10:42 08.02.2020
2984 Clouds 20 1014 88 10000 3.6 180 10:22 08.02.2020
2985 Clouds 20 1014 88 10000 3.6 180 10:22 08.02.2020
2986 Clouds 20 1014 88 10000 3.6 180 10:22 08.02.2020
2987 Clouds 20 1014 88 10000 3.6 180 10:22 08.02.2020
2988 Rain 21 1014 88 6000 4.1 160 09:53 08.02.2020
2989 Rain 21 1014 88 6000 4.1 160 09:28 08.02.2020
2990 Drizzle 21 1013 94 8000 3.6 140 08:55 08.02.2020
2991 Drizzle 22 1014 88 6000 4.6 150 08:37 08.02.2020
2992 Drizzle 22 1014 88 6000 4.6 150 08:19 08.02.2020
2993 Clouds 22 1013 88 10000 5.7 130 07:45 08.02.2020
2994 Clouds 22 1013 88 10000 5.7 130 07:45 08.02.2020
2995 Clouds 23 1013 88 10000 5.7 130 07:20 08.02.2020
2996 Rain 23 1014 88 5000 4.6 140 06:29 08.02.2020
2997 Clouds 23 1015 88 8000 5.7 130 05:48 08.02.2020
2998 Clouds 24 1015 88 8000 5.7 130 05:30 08.02.2020
2999 Clouds 24 1015 88 8000 5.7 130 05:30 08.02.2020
3000 Clouds 24 1014 88 8000 4.1 150 04:49 08.02.2020
3001 Mist 24 1014 100 5000 6.2 130 03:51 08.02.2020
3002 Mist 23 1014 100 3000 1.5 240 02:51 08.02.2020
3003 Clouds 24 1013 88 10000 2.1 180 01:41 08.02.2020
3004 Clouds 24 1013 88 10000 2.1 180 01:22 08.02.2020
3005 Clouds 24 1012 83 10000 4.6 110 00:39 08.02.2020
3006 Clouds 24 1012 83 10000 4.6 110 00:20 08.02.2020
3007 Rain 24 1012 88 8000 9.3 110 23:43 07.02.2020
3008 Rain 24 1012 88 8000 9.3 110 23:20 07.02.2020
3009 Thunderstorm 24 1013 88 5000 4.1 90 22:56 07.02.2020
3010 Thunderstorm 23 1014 94 3000 2.1 260 22:37 07.02.2020
3011 Thunderstorm 23 1014 94 3000 2.1 260 22:19 07.02.2020
3012 Thunderstorm 23 1015 83 3500 2.1 260 21:42 07.02.2020
3013 Thunderstorm 23 1015 83 3500 2.1 260 21:22 07.02.2020
3014 Thunderstorm 24 1013 83 10000 3.1 160 20:41 07.02.2020
3015 Thunderstorm 25 1013 83 10000 3.1 160 20:22 07.02.2020
3016 Rain 24 1013 83 10000 4.1 120 19:57 07.02.2020
3017 Rain 24 1014 83 6000 4.1 190 19:38 07.02.2020
3018 Rain 24 1014 83 6000 4.1 190 19:19 07.02.2020
3019 Thunderstorm 25 1014 74 10000 4.1 220 18:46 07.02.2020
3020 Thunderstorm 25 1015 94 700 11.3 200 18:26 07.02.2020
3021 Clouds 27 1013 83 5000 5.7 340 17:57 07.02.2020
3022 Clouds 28 1013 74 10000 11.3 110 17:39 07.02.2020
3023 Clouds 28 1013 74 10000 11.3 110 17:20 07.02.2020
3024 Clouds 29 1014 78 10000 11.3 120 16:52 07.02.2020
3025 Clouds 29 1014 78 10000 11.3 120 16:24 07.02.2020
3026 Clouds 30 1014 74 10000 10.8 110 15:55 07.02.2020
3027 Clouds 30 1014 70 10000 7.2 130 15:29 07.02.2020
3028 Clouds 30 1014 83 10000 5.7 180 14:58 07.02.2020
3029 Clouds 29 1014 83 10000 5.7 180 14:40 07.02.2020
3030 Clouds 29 1013 78 10000 7.2 130 14:21 07.02.2020
3031 Clear 29 1013 74 10000 4.6 130 13:57 07.02.2020
3032 Clear 29 1013 74 10000 4.6 130 13:38 07.02.2020
3033 Clear 29 1013 74 10000 4.6 130 13:38 07.02.2020
3034 Rain 28 1013 74 10000 4.6 130 13:20 07.02.2020
3035 Clouds 27 1013 74 10000 3.6 160 12:42 07.02.2020
3036 Clouds 27 1013 74 10000 3.6 160 12:23 07.02.2020
3037 Rain 26 1012 74 10000 2.1 210 11:45 07.02.2020
3038 Rain 26 1012 74 10000 2.1 210 11:24 07.02.2020
3039 Clouds 26 1011 78 10000 1 0 10:59 07.02.2020
3040 Clouds 26 1011 78 10000 1 0 10:39 07.02.2020
3041 Clouds 26 1011 78 10000 1 0 10:20 07.02.2020
3042 Rain 26 1011 78 10000 2.6 350 09:45 07.02.2020
3043 Rain 26 1011 78 10000 2.6 350 09:25 07.02.2020
3044 Rain 27 1011 74 10000 1.5 40 08:50 07.02.2020
3045 Rain 27 1011 74 10000 1.5 40 08:24 07.02.2020
3046 Rain 27 1011 74 10000 1.5 40 08:24 07.02.2020
3047 Rain 27 1011 79 10000 1 70 07:55 07.02.2020
3048 Rain 27 1011 79 10000 1 70 07:37 07.02.2020
3049 Rain 27 1011 79 10000 1 70 07:18 07.02.2020
3050 Rain 27 1011 83 10000 1.5 0 06:42 07.02.2020
3051 Rain 27 1011 83 10000 1.5 0 06:21 07.02.2020
3052 Rain 27 1011 83 10000 1 100 05:39 07.02.2020
3053 Thunderstorm 29 1012 78 10000 1 270 03:54 07.02.2020
3054 Clouds 29 1012 83 10000 5.1 100 02:23 07.02.2020
3055 Clouds 29 1012 83 10000 5.1 100 02:23 07.02.2020
3056 Rain 30 1011 79 10000 5.1 110 01:21 07.02.2020
3057 Clouds 31 1010 79 10000 5.7 100 00:28 07.02.2020
3058 Clouds 32 1009 74 10000 5.7 100 23:39 06.02.2020
3059 Clouds 32 1009 74 10000 5.7 100 23:39 06.02.2020
3060 Clouds 32 1009 74 10000 5.7 100 23:19 06.02.2020
3061 Clouds 33 1009 59 10000 2.6 80 22:48 06.02.2020
3062 Clouds 33 1009 59 10000 2.6 80 22:27 06.02.2020
3063 Clouds 35 1010 59 10000 3.1 80 21:59 06.02.2020
3064 Clouds 34 1010 59 10000 3.1 80 21:36 06.02.2020
3065 Clouds 35 1010 63 10000 2.6 70 21:18 06.02.2020
3066 Clouds 35 1010 63 10000 2.6 70 20:55 06.02.2020
3067 Clouds 34 1010 63 10000 2.6 70 20:36 06.02.2020
3068 Clouds 35 1010 63 10000 2.6 70 20:18 06.02.2020
3069 Clouds 34 1010 63 10000 2.6 20 19:56 06.02.2020
3070 Clouds 34 1010 63 10000 2.6 20 19:37 06.02.2020
3071 Clouds 34 1010 63 10000 2.6 20 19:18 06.02.2020
3072 Clouds 34 1011 62 10000 2.6 20 18:40 06.02.2020
3073 Clouds 34 1011 62 10000 2.6 20 18:40 06.02.2020
3074 Clouds 34 1011 62 10000 2.6 20 18:22 06.02.2020
3075 Clouds 34 1011 70 10000 2.6 20 17:57 06.02.2020
3076 Clouds 34 1011 70 10000 2.6 20 17:38 06.02.2020
3077 Clouds 34 1011 70 10000 2.6 20 17:19 06.02.2020
3078 Clouds 33 1011 70 10000 3.6 360 16:42 06.02.2020
3079 Clouds 33 1011 70 10000 3.6 360 16:23 06.02.2020
3080 Clouds 32 1011 74 10000 4.1 10 15:43 06.02.2020
3081 Clouds 32 1011 74 10000 4.1 10 15:22 06.02.2020
3082 Clouds 31 1011 74 10000 5.1 360 14:51 06.02.2020
3083 Clouds 30 1011 74 10000 5.1 360 14:29 06.02.2020
3084 Clouds 30 1011 74 10000 5.1 350 13:59 06.02.2020
3085 Clouds 29 1011 74 10000 5.1 350 13:41 06.02.2020
3086 Clouds 29 1011 74 10000 5.1 350 13:22 06.02.2020
3087 Clouds 28 1010 78 10000 6.7 360 12:44 06.02.2020
3088 Clouds 27 1010 78 10000 6.7 360 12:19 06.02.2020
3089 Clouds 27 1010 78 10000 6.7 360 12:19 06.02.2020
3090 Clouds 27 1010 78 10000 6.2 360 11:57 06.02.2020
3091 Clouds 27 1010 78 10000 6.2 360 11:39 06.02.2020
3092 Clouds 26 1010 78 10000 6.2 360 11:19 06.02.2020
3093 Clouds 26 1010 78 10000 6.7 360 10:56 06.02.2020
3094 Clouds 25 1010 78 10000 6.7 360 10:38 06.02.2020
3095 Clouds 26 1010 78 10000 6.7 360 10:19 06.02.2020
3096 Clouds 26 1010 78 10000 6.7 360 10:19 06.02.2020
3097 Clouds 26 1009 74 10000 3.6 20 09:56 06.02.2020
3098 Clouds 26 1009 74 10000 3.6 20 09:36 06.02.2020
3099 Clouds 26 1009 74 10000 3.6 20 09:18 06.02.2020
3100 Clouds 25 1009 78 10000 3.6 40 08:41 06.02.2020
3101 Clouds 25 1009 78 10000 3.6 40 08:21 06.02.2020
3102 Clouds 25 1009 78 10000 3.6 80 07:46 06.02.2020
3103 Clouds 25 1009 78 10000 3.6 80 07:25 06.02.2020
3104 Clouds 24 1009 74 10000 5.1 90 06:22 06.02.2020
3105 Clouds 24 1009 74 10000 5.1 90 06:22 06.02.2020
3106 Rain 24 1009 100 3000 5.1 90 05:54 06.02.2020
3107 Thunderstorm 24 1009 88 10000 5.1 100 04:22 06.02.2020
3108 Thunderstorm 26 1009 74 10000 4.6 280 03:20 06.02.2020
3109 Thunderstorm 27 1008 83 10000 3.6 150 02:28 06.02.2020
3110 Rain 27 1008 88 7000 6.7 120 01:26 06.02.2020
3111 Clouds 28 1007 78 10000 8.2 120 00:57 06.02.2020
3112 Clouds 28 1007 78 10000 8.2 120 00:25 06.02.2020
3113 Rain 28 1007 88 7000 8.7 120 23:44 05.02.2020
3114 Clouds 29 1007 70 10000 7.2 90 23:25 05.02.2020
3115 Clouds 30 1007 66 10000 6.7 130 22:57 05.02.2020
3116 Clouds 30 1007 66 10000 6.7 130 22:39 05.02.2020
3117 Clouds 30 1007 66 10000 6.7 130 22:20 05.02.2020
3118 Rain 31 1007 78 8000 7.7 100 21:41 05.02.2020
3119 Rain 31 1007 78 8000 7.7 100 21:23 05.02.2020
3120 Rain 31 1007 74 5000 6.7 100 20:57 05.02.2020
3121 Clouds 31 1008 70 10000 5.7 120 20:38 05.02.2020
3122 Clouds 31 1008 70 10000 5.7 120 20:19 05.02.2020
3123 Clouds 32 1008 62 10000 4.1 90 19:55 05.02.2020
3124 Clouds 32 1008 62 10000 4.1 90 19:37 05.02.2020
3125 Clouds 32 1008 62 10000 4.1 90 19:18 05.02.2020
3126 Clouds 31 1009 62 10000 4.6 100 18:43 05.02.2020
3127 Clouds 31 1009 62 10000 4.6 100 18:21 05.02.2020
3128 Clouds 31 1010 66 10000 4.1 110 17:58 05.02.2020
3129 Clouds 31 1010 66 10000 4.1 110 17:37 05.02.2020
3130 Clouds 31 1010 62 10000 3.1 80 17:18 05.02.2020
3131 Clouds 31 1010 62 10000 3.1 80 16:43 05.02.2020
3132 Clouds 31 1010 62 10000 3.1 80 16:25 05.02.2020
3133 Clouds 30 1010 65 10000 2.6 90 15:59 05.02.2020
3134 Clouds 29 1010 65 10000 2.6 90 15:40 05.02.2020
3135 Clouds 28 1010 65 10000 2.6 90 15:18 05.02.2020
3136 Clouds 27 1010 74 10000 3.1 20 14:43 05.02.2020
3137 Clouds 27 1010 74 10000 3.1 20 14:25 05.02.2020
3138 Thunderstorm 25 1011 83 1000 5.1 20 13:58 05.02.2020
3139 Rain 25 1010 78 3000 5.1 20 13:38 05.02.2020
3140 Rain 26 1010 78 3000 5.1 20 13:19 05.02.2020
3141 Clouds 27 1010 69 10000 5.1 10 12:43 05.02.2020
3142 Clouds 27 1010 69 10000 5.1 10 12:23 05.02.2020
3143 Clouds 26 1010 69 10000 2.1 330 11:54 05.02.2020
3144 Clouds 26 1010 69 10000 2.1 330 11:36 05.02.2020
3145 Clouds 25 1010 69 10000 2.1 330 11:18 05.02.2020
3146 Clouds 24 1009 69 10000 1 0 10:42 05.02.2020
3147 Clouds 24 1009 69 10000 1 0 10:23 05.02.2020
3148 Clouds 24 1009 69 10000 1 0 10:23 05.02.2020
3149 Clear 24 1009 69 10000 2.6 320 09:44 05.02.2020
3150 Clear 24 1009 69 10000 2.6 320 09:23 05.02.2020
3151 Clear 24 1009 74 10000 4.1 320 08:59 05.02.2020
3152 Clear 24 1009 74 10000 4.1 320 08:59 05.02.2020
3153 Clear 24 1009 74 10000 4.1 320 08:41 05.02.2020
3154 Clouds 26 1009 74 10000 4.1 320 08:22 05.02.2020
3155 Clouds 26 1009 74 10000 6.2 30 07:45 05.02.2020
3156 Clouds 27 1009 74 10000 6.2 30 07:26 05.02.2020
3157 Clouds 27 1009 74 10000 6.7 40 06:42 05.02.2020
3158 Clouds 28 1009 74 10000 6.7 40 06:22 05.02.2020
3159 Clouds 28 1010 66 10000 7.7 50 05:48 05.02.2020
3160 Clear 29 1010 66 10000 7.7 50 05:18 05.02.2020
3161 Clear 30 1010 66 10000 2.1 40 04:41 05.02.2020
3162 Clear 29 1010 66 10000 3.1 90 03:18 05.02.2020
3163 Clear 29 1009 70 10000 4.1 120 02:23 05.02.2020
3164 Clear 30 1008 74 10000 5.1 130 01:35 05.02.2020
3165 Clear 30 1007 79 10000 5.7 110 00:25 05.02.2020
3166 Clouds 32 1007 70 10000 6.2 110 23:42 04.02.2020
3167 Clouds 33 1007 55 10000 4.6 90 23:23 04.02.2020
3168 Clouds 33 1007 62 10000 6.7 100 22:58 04.02.2020
3169 Clouds 33 1007 62 10000 6.7 100 22:40 04.02.2020
3170 Clouds 34 1007 62 10000 6.7 100 22:20 04.02.2020
3171 Clouds 34 1008 59 10000 6.2 100 21:56 04.02.2020
3172 Clouds 34 1008 59 10000 6.2 100 21:38 04.02.2020
3173 Clouds 35 1008 55 10000 4.6 70 21:18 04.02.2020
3174 Clouds 35 1009 41 10000 6.7 360 21:18 04.02.2020
3175 Clouds 34 1009 62 10000 3.6 80 20:55 04.02.2020
3176 Clouds 35 1009 41 10000 6.7 360 20:37 04.02.2020
3177 Clouds 35 1009 41 10000 6.7 360 20:18 04.02.2020
3178 Clouds 35 1010 55 10000 2.6 70 19:43 04.02.2020
3179 Clouds 35 1010 55 10000 2.6 70 19:24 04.02.2020
3180 Clouds 34 1010 46 10000 5.1 20 18:59 04.02.2020
3181 Clouds 34 1010 62 10000 2.1 60 18:39 04.02.2020
3182 Clouds 34 1010 46 10000 5.1 20 18:21 04.02.2020
3183 Clear 33 1011 62 10000 2.6 10 17:54 04.02.2020
3184 Clouds 33 1011 55 10000 5.1 20 17:36 04.02.2020
3185 Clear 33 1011 58 10000 4.6 20 17:18 04.02.2020
3186 Clear 32 1011 58 10000 4.6 20 16:38 04.02.2020
3187 Clear 31 1011 66 10000 3.1 360 16:20 04.02.2020
3188 Clear 31 1012 69 10000 4.6 360 15:56 04.02.2020
3189 Clear 31 1012 69 10000 4.6 360 15:56 04.02.2020
3190 Clear 31 1012 69 10000 4.6 360 15:56 04.02.2020
3191 Clear 30 1012 69 10000 4.6 360 15:38 04.02.2020
3192 Clear 30 1012 69 10000 4.6 360 15:20 04.02.2020
3193 Clear 30 1012 69 10000 4.6 360 15:20 04.02.2020
3194 Clear 29 1012 65 10000 6.2 360 14:45 04.02.2020
3195 Clear 29 1012 65 10000 6.2 360 14:26 04.02.2020
3196 Clouds 28 1012 74 10000 4.6 10 13:59 04.02.2020
3197 Clouds 27 1012 74 10000 4.6 10 13:40 04.02.2020
3198 Clouds 27 1012 74 10000 4.6 10 13:22 04.02.2020
3199 Clouds 26 1013 78 10000 4.6 30 12:55 04.02.2020
3200 Clouds 25 1013 78 10000 4.6 30 12:36 04.02.2020
3201 Clouds 25 1013 78 10000 4.6 30 12:18 04.02.2020
3202 Clouds 24 1012 83 10000 4.6 40 11:54 04.02.2020
3203 Clouds 24 1012 83 10000 4.6 40 11:36 04.02.2020
3204 Clouds 24 1012 83 10000 4.6 40 11:18 04.02.2020
3205 Clouds 24 1012 78 10000 5.1 40 10:41 04.02.2020
3206 Clouds 24 1012 78 10000 5.1 40 10:22 04.02.2020
3207 Clouds 24 1012 83 10000 6.2 40 09:42 04.02.2020
3208 Clouds 24 1012 83 10000 6.2 40 09:23 04.02.2020
3209 Clear 24 1012 73 10000 7.7 50 08:58 04.02.2020
3210 Clear 24 1012 73 10000 7.7 50 08:39 04.02.2020
3211 Clear 25 1012 73 10000 7.7 50 08:21 04.02.2020
3212 Clear 25 1012 73 10000 7.7 40 07:46 04.02.2020
3213 Clear 25 1012 73 10000 7.7 40 07:22 04.02.2020
3214 Clear 26 1012 69 10000 8.7 50 06:44 04.02.2020
3215 Clear 26 1012 69 10000 8.7 50 06:44 04.02.2020
3216 Clear 26 1012 69 10000 8.7 50 06:18 04.02.2020
3217 Clear 27 1012 65 10000 8.7 50 05:28 04.02.2020
3218 Clear 29 1011 58 10000 6.7 50 03:52 04.02.2020
3219 Clear 29 1011 58 10000 6.7 50 03:32 04.02.2020
3220 Clear 28 1011 74 10000 6.2 70 02:55 04.02.2020
3221 Clear 29 1011 74 10000 6.2 70 02:31 04.02.2020
3222 Clear 29 1011 78 10000 6.7 80 01:53 04.02.2020
3223 Clear 29 1011 78 10000 6.7 80 01:35 04.02.2020
3224 Clear 29 1011 78 10000 6.7 80 01:35 04.02.2020
3225 Clear 30 1011 70 10000 6.2 90 00:44 04.02.2020
3226 Clear 30 1011 70 10000 6.2 90 00:21 04.02.2020
3227 Clear 31 1011 70 10000 7.7 100 23:39 03.02.2020
3228 Clear 32 1011 70 10000 7.7 100 23:19 03.02.2020
3229 Clear 33 1011 62 10000 5.7 100 22:39 03.02.2020
3230 Clear 33 1011 62 10000 5.7 100 22:20 03.02.2020
3231 Clear 33 1012 58 10000 5.7 110 21:54 03.02.2020
3232 Clear 34 1012 58 10000 5.7 110 21:36 03.02.2020
3233 Clear 34 1012 58 10000 5.7 110 21:18 03.02.2020
3234 Clear 34 1013 62 10000 7.2 110 20:41 03.02.2020
3235 Clear 34 1013 62 10000 7.2 110 20:19 03.02.2020
3236 Clear 34 1013 52 10000 2.6 20 19:56 03.02.2020
3237 Clear 34 1013 52 10000 2.6 20 19:38 03.02.2020
3238 Clear 34 1013 52 10000 2.6 20 19:19 03.02.2020
3239 Clear 34 1013 52 10000 2.6 20 19:19 03.02.2020
3240 Clear 34 1013 52 10000 2.6 20 19:19 03.02.2020
3241 Clear 34 1014 55 10000 2.6 50 18:43 03.02.2020
3242 Clear 34 1014 55 10000 2.6 50 18:24 03.02.2020
3243 Clear 34 1014 46 10000 4.1 20 17:58 03.02.2020
3244 Clear 34 1014 46 10000 4.1 20 17:39 03.02.2020
3245 Clear 34 1014 46 10000 4.1 20 17:20 03.02.2020
3246 Clear 33 1015 58 10000 3.1 20 16:40 03.02.2020
3247 Clear 32 1015 58 10000 3.1 20 16:22 03.02.2020
3248 Clear 31 1016 65 10000 3.1 20 15:59 03.02.2020
3249 Clear 31 1016 65 10000 3.1 20 15:39 03.02.2020
3250 Clear 31 1016 65 10000 3.1 20 15:20 03.02.2020
3251 Clear 30 1015 69 10000 3.1 360 14:58 03.02.2020
3252 Clear 30 1015 69 10000 3.1 360 14:39 03.02.2020
3253 Clear 30 1015 69 10000 3.1 360 14:21 03.02.2020
3254 Clear 29 1016 65 10000 5.1 360 13:43 03.02.2020
3255 Clear 28 1016 65 10000 5.1 360 13:21 03.02.2020
3256 Clear 27 1015 69 10000 5.1 360 12:58 03.02.2020
3257 Clear 27 1015 69 10000 5.1 360 12:39 03.02.2020
3258 Clear 26 1015 69 10000 5.1 360 12:21 03.02.2020
3259 Clear 26 1015 69 10000 4.6 360 11:55 03.02.2020
3260 Clear 25 1015 69 10000 4.6 360 11:36 03.02.2020
3261 Clear 24 1015 69 10000 4.6 360 11:18 03.02.2020
3262 Clear 24 1014 65 10000 6.2 360 10:40 03.02.2020
3263 Clear 23 1014 65 10000 6.2 360 10:21 03.02.2020
3264 Clear 24 1013 69 10000 4.1 20 09:44 03.02.2020
3265 Clear 24 1013 69 10000 4.1 20 09:21 03.02.2020
3266 Clear 24 1013 83 10000 2.1 50 08:42 03.02.2020
3267 Clear 24 1013 83 10000 2.1 50 08:23 03.02.2020
3268 Clear 25 1013 78 10000 2.6 110 07:59 03.02.2020
3269 Clear 25 1013 78 10000 2.6 110 07:40 03.02.2020
3270 Clear 25 1013 78 10000 3.1 90 07:21 03.02.2020
3271 Clear 25 1013 78 10000 3.1 90 06:47 03.02.2020
3272 Clear 26 1013 78 10000 3.1 90 06:27 03.02.2020
3273 Clear 25 1014 74 10000 3.1 120 05:36 03.02.2020
3274 Clear 27 1014 69 10000 4.6 110 04:56 03.02.2020
3275 Clear 27 1014 74 10000 4.6 100 02:58 03.02.2020
3276 Clear 28 1014 74 10000 4.6 100 02:33 03.02.2020
3277 Clear 29 1013 74 10000 3.6 80 01:25 03.02.2020
3278 Clear 30 1013 74 10000 2.6 80 00:45 03.02.2020
3279 Clear 30 1013 74 10000 2.6 80 00:21 03.02.2020
3280 Clear 32 1012 58 10000 2.1 80 23:37 02.02.2020
3281 Clear 32 1012 58 10000 2.1 80 23:19 02.02.2020
3282 Clear 33 1012 55 10000 3.6 70 22:55 02.02.2020
3283 Clear 33 1012 55 10000 3.6 70 22:36 02.02.2020
3284 Clear 33 1012 55 10000 3.6 70 22:36 02.02.2020
3285 Clear 33 1012 55 10000 3.6 70 22:36 02.02.2020
3286 Clear 33 1012 55 10000 3.6 70 22:18 02.02.2020
3287 Clear 34 1012 48 10000 2.1 30 21:41 02.02.2020
3288 Clear 34 1012 48 10000 2.1 30 21:22 02.02.2020
3289 Clear 34 1013 48 10000 3.6 50 20:58 02.02.2020
3290 Clear 33 1013 48 10000 3.6 50 20:39 02.02.2020
3291 Clouds 33 1013 48 10000 3.6 50 20:20 02.02.2020
3292 Clouds 34 1013 35 10000 2.1 40 19:59 02.02.2020
3293 Clouds 34 1013 35 10000 2.1 40 19:59 02.02.2020
3294 Clouds 34 1013 35 10000 2.1 40 19:41 02.02.2020
3295 Clouds 33 1013 35 10000 2.1 40 19:22 02.02.2020
3296 Clouds 33 1014 55 10000 2.1 40 18:57 02.02.2020
3297 Clouds 33 1014 55 10000 2.1 40 18:37 02.02.2020
3298 Clouds 33 1014 55 10000 2.1 40 18:19 02.02.2020
3299 Clouds 32 1014 58 10000 3.1 350 17:57 02.02.2020
3300 Clouds 33 1014 58 10000 3.6 20 17:37 02.02.2020
3301 Clear 32 1014 58 10000 3.1 350 17:18 02.02.2020
3302 Clear 32 1014 55 10000 3.6 360 16:57 02.02.2020
3303 Clear 32 1014 55 10000 3.6 360 16:38 02.02.2020
3304 Clear 31 1014 55 10000 3.6 360 16:18 02.02.2020
3305 Clear 31 1014 58 10000 3.6 20 15:55 02.02.2020
3306 Clear 31 1014 58 10000 3.6 20 15:36 02.02.2020
3307 Clear 30 1014 58 10000 3.6 20 15:18 02.02.2020
3308 Clear 29 1014 58 10000 2.1 20 14:43 02.02.2020
3309 Clear 29 1014 51 10000 2.6 50 14:19 02.02.2020
3310 Clear 29 1014 51 10000 2.6 50 14:19 02.02.2020
3311 Clear 28 1014 51 10000 2.6 50 13:58 02.02.2020
3312 Clear 28 1014 51 10000 2.6 50 13:39 02.02.2020
3313 Clear 27 1014 51 10000 2.6 50 13:20 02.02.2020
3314 Clouds 26 1014 51 10000 1 0 12:56 02.02.2020
3315 Clear 25 1014 51 10000 1 0 12:37 02.02.2020
3316 Clear 25 1014 51 10000 1 0 12:18 02.02.2020
3317 Clouds 24 1014 61 10000 1 0 11:41 02.02.2020
3318 Clear 22 1014 61 10000 1 0 11:19 02.02.2020
3319 Clear 22 1012 65 10000 2.1 300 10:57 02.02.2020
3320 Clear 22 1012 65 10000 2.1 300 10:57 02.02.2020
3321 Clear 21 1012 65 10000 2.1 300 10:38 02.02.2020
3322 Clear 21 1012 65 10000 2.1 300 10:20 02.02.2020
3323 Clear 21 1011 65 10000 2.6 340 09:56 02.02.2020
3324 Clear 21 1011 65 10000 2.6 340 09:38 02.02.2020
3325 Clear 21 1011 65 10000 2.6 340 09:38 02.02.2020
3326 Clear 21 1011 65 10000 2.6 340 09:20 02.02.2020
3327 Clear 22 1011 69 10000 2.6 350 08:44 02.02.2020
3328 Clear 22 1011 69 10000 2.6 350 08:24 02.02.2020
3329 Clear 21 1011 65 10000 2.6 350 07:47 02.02.2020
3330 Clear 22 1011 65 10000 2.6 350 07:28 02.02.2020
3331 Clear 22 1010 83 10000 1.5 40 06:44 02.02.2020
3332 Clear 23 1010 83 10000 1.5 40 06:26 02.02.2020
3333 Clear 23 1011 73 10000 1.5 60 05:47 02.02.2020
3334 Clear 23 1011 69 10000 3.1 80 04:48 02.02.2020
3335 Clear 24 1011 69 10000 2.1 100 03:26 02.02.2020
3336 Clear 25 1011 69 10000 2.6 130 02:33 02.02.2020
3337 Clear 25 1010 69 10000 3.6 100 01:54 02.02.2020
3338 Clear 25 1010 69 10000 3.6 100 01:54 02.02.2020
3339 Clear 26 1010 69 10000 3.6 100 01:23 02.02.2020
3340 Clear 27 1010 65 10000 2.6 110 00:44 02.02.2020
3341 Clear 27 1010 65 10000 2.6 110 00:22 02.02.2020
3342 Clear 28 1009 54 10000 3.6 80 23:47 01.02.2020
3343 Clear 29 1009 51 10000 2.6 10 23:22 01.02.2020
3344 Clear 30 1009 51 10000 2.6 40 22:51 01.02.2020
3345 Clear 30 1009 51 10000 2.6 40 22:20 01.02.2020
3346 Clear 30 1009 51 10000 2.6 40 22:20 01.02.2020
3347 Clear 31 1010 48 10000 3.6 40 21:59 01.02.2020
3348 Clear 31 1010 48 10000 3.6 40 21:39 01.02.2020
3349 Clear 31 1010 48 10000 3.6 40 21:18 01.02.2020
3350 Clear 31 1010 42 10000 2.6 60 20:41 01.02.2020
3351 Clear 31 1010 42 10000 2.6 60 20:20 01.02.2020
3352 Clear 31 1011 54 10000 3.6 50 19:57 01.02.2020
3353 Clear 31 1011 43 10000 5.7 50 19:39 01.02.2020
3354 Clear 31 1011 54 10000 3.6 50 19:19 01.02.2020
3355 Clear 31 1012 54 10000 4.1 50 18:57 01.02.2020
3356 Clear 31 1012 54 10000 4.1 50 18:39 01.02.2020
3357 Clear 31 1012 54 10000 4.1 50 18:21 01.02.2020
3358 Clear 31 1012 54 10000 4.1 50 18:21 01.02.2020
3359 Clear 30 1013 57 10000 4.1 40 17:56 01.02.2020
3360 Clear 30 1013 57 10000 4.1 40 17:38 01.02.2020
3361 Clear 29 1013 57 10000 4.1 40 17:19 01.02.2020
3362 Clear 29 1014 61 10000 4.1 30 16:42 01.02.2020
3363 Clear 28 1014 61 10000 4.1 30 16:24 01.02.2020
3364 Clear 28 1015 61 10000 3.1 20 15:58 01.02.2020
3365 Clear 28 1015 61 10000 3.1 20 15:38 01.02.2020
3366 Clear 28 1015 61 10000 3.1 20 15:18 01.02.2020
3367 Clear 26 1014 60 10000 3.1 360 14:40 01.02.2020
3368 Clear 26 1014 60 10000 3.1 360 14:21 01.02.2020
3369 Clear 25 1015 64 10000 3.1 320 13:45 01.02.2020
3370 Clear 25 1015 64 10000 3.1 320 13:24 01.02.2020
3371 Clear 23 1015 69 10000 2.1 320 12:57 01.02.2020
3372 Clear 22 1015 69 10000 2.1 320 12:39 01.02.2020
3373 Clear 22 1015 69 10000 2.1 320 12:21 01.02.2020
3374 Clear 19 1014 68 10000 2.6 340 11:42 01.02.2020
3375 Clear 18 1014 68 10000 2.6 340 11:23 01.02.2020
3376 Clear 17 1014 64 10000 1.5 290 10:58 01.02.2020
3377 Clear 17 1014 64 10000 1.5 290 10:39 01.02.2020
3378 Clear 17 1014 64 10000 1.5 290 10:21 01.02.2020
3379 Clear 17 1013 68 10000 1.5 280 09:58 01.02.2020
3380 Clear 15 1013 82 10000 3.34 359 09:40 01.02.2020
3381 Clear 15 1013 82 10000 3.34 359 09:20 01.02.2020
3382 Clear 16 1013 72 10000 1 230 08:48 01.02.2020
3383 Clear 18 1013 68 10000 1 360 07:51 01.02.2020
3384 Clear 18 1013 68 10000 1 360 07:27 01.02.2020
3385 Clear 19 1013 64 10000 4.1 50 06:56 01.02.2020
3386 Clear 19 1013 64 10000 4.1 50 06:56 01.02.2020
3387 Clear 19 1013 64 10000 4.1 50 06:56 01.02.2020
3388 Clear 20 1013 64 10000 4.1 50 06:33 01.02.2020
3389 Clear 21 1013 53 10000 4.1 40 05:52 01.02.2020
3390 Clear 21 1014 50 10000 5.1 50 03:56 01.02.2020
3391 Clear 22 1014 50 10000 5.1 50 03:21 01.02.2020
3392 Clear 23 1014 50 10000 4.1 60 02:46 01.02.2020
3393 Clear 23 1014 50 10000 4.1 60 02:27 01.02.2020
3394 Clear 23 1013 50 10000 4.1 70 01:54 01.02.2020
3395 Clear 23 1013 50 10000 4.1 70 01:31 01.02.2020
3396 Clear 25 1012 47 10000 4.1 70 00:30 01.02.2020
3397 Clear 26 1013 41 10000 3.6 70 23:43 31.01.2020
3398 Clear 26 1013 41 10000 3.6 70 23:21 31.01.2020
3399 Clear 27 1013 38 10000 3.1 60 22:59 31.01.2020
3400 Clear 27 1013 38 10000 3.1 60 22:41 31.01.2020
3401 Clear 27 1013 38 10000 3.1 60 22:22 31.01.2020
3402 Clear 28 1013 38 10000 3.6 50 21:57 31.01.2020
3403 Clear 28 1013 38 10000 3.6 50 21:39 31.01.2020
3404 Clear 28 1013 38 10000 3.6 50 21:19 31.01.2020
3405 Clear 28 1014 31 10000 3.6 50 20:56 31.01.2020
3406 Clear 28 1014 31 10000 3.6 50 20:37 31.01.2020
3407 Clear 28 1014 36 10000 4.1 20 20:19 31.01.2020
3408 Clear 28 1014 36 10000 4.1 20 19:55 31.01.2020
3409 Clear 28 1014 36 10000 4.1 20 19:37 31.01.2020
3410 Clear 28 1014 36 10000 4.1 20 19:18 31.01.2020
3411 Clear 28 1014 47 10000 3.6 20 18:40 31.01.2020
3412 Clear 27 1014 47 10000 3.6 20 18:22 31.01.2020
3413 Clear 27 1015 50 10000 4.1 20 17:47 31.01.2020
3414 Clear 27 1015 34 10000 3.1 340 17:28 31.01.2020
3415 Clear 26 1015 47 10000 3.1 20 16:59 31.01.2020
3416 Clear 26 1015 47 10000 3.1 20 16:39 31.01.2020
3417 Clear 26 1015 47 10000 3.1 20 16:39 31.01.2020
3418 Clear 26 1015 43 10000 2.6 20 16:19 31.01.2020
3419 Clear 25 1015 43 10000 2.6 20 15:59 31.01.2020
3420 Clear 25 1015 43 10000 2.6 20 15:59 31.01.2020
3421 Clear 25 1015 43 10000 2.6 20 15:40 31.01.2020
3422 Clear 25 1015 43 10000 2.6 20 15:20 31.01.2020
3423 Clear 24 1015 56 10000 3.6 360 14:45 31.01.2020
3424 Clear 24 1015 56 10000 3.6 360 14:25 31.01.2020
3425 Clear 23 1015 52 10000 2.6 340 13:57 31.01.2020
3426 Clear 22 1015 52 10000 2.6 340 13:38 31.01.2020
3427 Clear 21 1015 52 10000 2.6 340 13:20 31.01.2020
3428 Clear 20 1015 68 10000 3.1 320 12:45 31.01.2020
3429 Clear 18 1015 68 10000 3.1 320 12:24 31.01.2020
3430 Clear 17 1015 68 10000 1 280 11:55 31.01.2020
3431 Clear 17 1015 68 10000 1 280 11:37 31.01.2020
3432 Clear 16 1015 68 10000 1 280 11:19 31.01.2020
3433 Clear 15 1014 72 10000 2.84 331 10:43 31.01.2020
3434 Clear 15 1014 72 10000 3.22 333 10:22 31.01.2020
3435 Clear 15 1014 72 10000 2.84 331 10:22 31.01.2020
3436 Clear 15 1013 63 10000 2.1 290 09:58 31.01.2020
3437 Clear 14 1013 63 10000 2.1 290 09:39 31.01.2020
3438 Clear 14 1013 63 10000 2.1 290 09:39 31.01.2020
3439 Clear 15 1013 63 10000 2.1 290 09:19 31.01.2020
3440 Clear 14 1014 67 10000 1.5 300 08:52 31.01.2020
3441 Clear 14 1014 67 10000 1.5 300 08:27 31.01.2020
3442 Clear 15 1014 72 10000 1 0 07:53 31.01.2020
3443 Clear 15 1014 72 10000 1 0 07:25 31.01.2020
3444 Clear 15 1014 87 10000 1 0 06:49 31.01.2020
3445 Clear 16 1014 43 10000 3.6 40 06:19 31.01.2020
3446 Clear 17 1015 52 10000 3.1 50 05:48 31.01.2020
3447 Clear 18 1015 49 10000 3.1 50 04:56 31.01.2020
3448 Clear 20 1014 52 10000 4.1 60 02:58 31.01.2020
3449 Clear 21 1014 52 10000 4.1 90 01:38 31.01.2020
3450 Clear 21 1014 56 10000 4.6 70 00:46 31.01.2020
3451 Clear 22 1014 56 10000 4.6 70 00:26 31.01.2020
3452 Clear 22 1013 53 10000 5.1 100 23:57 30.01.2020
3453 Clear 23 1013 53 10000 5.1 100 23:24 30.01.2020
3454 Clouds 24 1014 49 10000 5.7 90 22:57 30.01.2020
3455 Clouds 24 1014 49 10000 5.7 90 22:36 30.01.2020
3456 Clouds 25 1014 49 10000 5.7 90 22:18 30.01.2020
3457 Clouds 25 1014 49 10000 5.7 90 21:55 30.01.2020
3458 Clouds 25 1014 49 10000 5.7 90 21:36 30.01.2020
3459 Clear 25 1014 47 10000 6.2 90 21:18 30.01.2020
3460 Clear 25 1014 47 10000 6.2 90 20:40 30.01.2020
3461 Clear 25 1014 47 10000 6.2 90 20:21 30.01.2020
3462 Clear 25 1014 47 10000 6.2 90 20:21 30.01.2020
3463 Clear 26 1015 27 10000 2.6 0 19:55 30.01.2020
3464 Clear 26 1015 27 10000 6.7 100 19:36 30.01.2020
3465 Clear 26 1015 27 10000 6.7 100 19:18 30.01.2020
3466 Clear 26 1015 27 10000 5.1 110 18:40 30.01.2020
3467 Clear 26 1015 27 10000 5.1 110 18:21 30.01.2020
3468 Clear 25 1015 22 10000 4.6 160 17:55 30.01.2020
3469 Clear 25 1015 22 10000 4.6 160 17:37 30.01.2020
3470 Clear 25 1015 22 10000 4.6 160 17:18 30.01.2020
3471 Clear 24 1016 28 10000 3.6 150 16:56 30.01.2020
3472 Clear 24 1016 28 10000 3.6 150 16:37 30.01.2020
3473 Clear 24 1016 28 10000 3.6 150 16:18 30.01.2020
3474 Clear 22 1016 37 10000 3.1 180 15:42 30.01.2020
3475 Clear 22 1016 37 10000 3.1 180 15:19 30.01.2020
3476 Clear 22 1016 37 10000 3.1 180 15:19 30.01.2020
3477 Clear 19 1016 55 10000 2.6 200 14:44 30.01.2020
3478 Clear 19 1016 55 10000 2.6 200 14:26 30.01.2020
3479 Clear 18 1016 63 10000 2.6 190 13:43 30.01.2020
3480 Clear 17 1016 63 10000 2.6 190 13:24 30.01.2020
3481 Clear 17 1016 63 10000 2.6 190 12:58 30.01.2020
3482 Clear 17 1016 63 10000 2.6 190 12:39 30.01.2020
3483 Clear 16 1016 63 10000 2.6 190 12:21 30.01.2020
3484 Clear 13 1015 67 10000 1.5 190 11:41 30.01.2020
3485 Clear 12 1015 67 10000 1.5 190 11:23 30.01.2020
3486 Clear 13 1014 67 10000 2.1 180 10:59 30.01.2020
3487 Clear 13 1014 67 10000 2.1 180 10:40 30.01.2020
3488 Clear 12 1014 67 10000 2.1 180 10:21 30.01.2020
3489 Clear 12 1013 63 10000 3.1 160 09:46 30.01.2020
3490 Clear 13 1013 63 10000 3.1 160 09:27 30.01.2020
3491 Clear 13 1013 62 10000 2.6 170 08:55 30.01.2020
3492 Clear 13 1013 62 10000 2.6 170 08:36 30.01.2020
3493 Clouds 14 1013 62 10000 2.6 170 08:18 30.01.2020
3494 Clouds 14 1014 59 10000 3.6 170 07:44 30.01.2020
3495 Clouds 14 1014 59 10000 3.6 170 07:19 30.01.2020
3496 Clouds 14 1014 55 10000 5.1 170 06:45 30.01.2020
3497 Clouds 15 1014 55 10000 5.1 170 06:26 30.01.2020
3498 Clouds 15 1014 55 10000 5.1 170 06:26 30.01.2020
3499 Clouds 15 1014 59 10000 5.1 160 05:39 30.01.2020
3500 Clouds 16 1014 59 10000 5.1 160 05:19 30.01.2020
3501 Clouds 17 1015 63 10000 6.2 150 03:48 30.01.2020
3502 Clouds 17 1015 63 10000 6.2 150 03:24 30.01.2020
3503 Clouds 17 1013 68 10000 7.2 140 01:35 30.01.2020
3504 Clouds 18 1012 72 10000 5.1 170 00:37 30.01.2020
3505 Clouds 19 1012 72 10000 5.1 170 00:18 30.01.2020
3506 Rain 19 1011 72 10000 5.1 150 23:43 29.01.2020
3507 Rain 19 1011 72 10000 5.1 150 23:20 29.01.2020
3508 Clouds 20 1010 77 10000 3.6 160 22:56 29.01.2020
3509 Clouds 20 1010 77 10000 3.6 160 22:56 29.01.2020
3510 Clouds 20 1010 77 10000 3.6 160 22:37 29.01.2020
3511 Clouds 20 1010 77 10000 3.6 160 22:18 29.01.2020
3512 Rain 20 1010 78 9000 4.1 170 21:56 29.01.2020
3513 Rain 21 1010 78 9000 4.1 170 21:37 29.01.2020
3514 Rain 21 1010 78 9000 4.1 170 21:37 29.01.2020
3515 Rain 21 1010 78 9000 4.1 170 21:18 29.01.2020
3516 Rain 22 1009 78 9000 8.2 150 20:54 29.01.2020
3517 Rain 22 1010 69 9000 4.1 170 20:36 29.01.2020
3518 Rain 22 1010 69 9000 4.1 170 20:18 29.01.2020
3519 Rain 23 1010 69 8000 3.6 170 19:54 29.01.2020
3520 Rain 23 1010 69 8000 3.6 170 19:36 29.01.2020
3521 Rain 23 1010 69 8000 3.6 170 19:18 29.01.2020
3522 Rain 24 1010 73 8000 5.1 160 18:38 29.01.2020
3523 Rain 24 1010 73 8000 5.1 160 18:19 29.01.2020
3524 Clouds 25 1009 61 10000 6.7 150 17:41 29.01.2020
3525 Clouds 26 1009 61 10000 6.7 150 17:23 29.01.2020
3526 Clouds 26 1010 61 10000 4.1 180 16:55 29.01.2020
3527 Clouds 26 1010 61 10000 4.1 180 16:37 29.01.2020
3528 Clouds 26 1010 61 10000 4.1 180 16:19 29.01.2020
3529 Clouds 27 1010 54 10000 4.6 190 15:39 29.01.2020
3530 Clouds 26 1010 54 10000 4.6 190 15:21 29.01.2020
3531 Clouds 26 1010 54 10000 4.6 190 15:21 29.01.2020
3532 Clouds 25 1009 61 9000 4.1 200 14:46 29.01.2020
3533 Clouds 25 1009 61 9000 4.1 200 14:24 29.01.2020
3534 Clouds 25 1009 61 7000 2.1 220 13:57 29.01.2020
3535 Clouds 25 1009 61 7000 2.1 220 13:57 29.01.2020
3536 Clouds 25 1009 65 10000 5.1 240 13:39 29.01.2020
3537 Clouds 24 1009 65 10000 5.1 240 13:21 29.01.2020
3538 Clouds 24 1007 65 10000 2.1 80 12:56 29.01.2020
3539 Clouds 24 1007 65 10000 2.1 80 12:38 29.01.2020
3540 Clouds 24 1007 65 10000 2.1 80 12:19 29.01.2020
3541 Clouds 23 1007 60 10000 1 0 11:47 29.01.2020
3542 Clouds 22 1007 60 10000 1 0 11:24 29.01.2020
3543 Clouds 22 1007 60 10000 1 0 10:54 29.01.2020
3544 Clouds 22 1023 68 0 1.87 223 10:36 29.01.2020
3545 Clouds 22 1023 68 0 1.87 223 10:36 29.01.2020
3546 Clouds 22 1008 60 10000 2.1 250 10:18 29.01.2020
3547 Clouds 22 1008 60 10000 2.1 250 09:40 29.01.2020
3548 Clouds 22 1008 60 10000 2.1 250 09:21 29.01.2020
3549 Rain 22 1008 64 8000 3.1 240 08:57 29.01.2020
3550 Rain 22 1008 64 8000 3.1 240 08:38 29.01.2020
3551 Rain 23 1008 64 8000 3.1 240 08:20 29.01.2020
3552 Clear 23 1007 65 10000 2.6 330 07:44 29.01.2020
3553 Clear 24 1007 65 10000 2.6 330 07:24 29.01.2020
3554 Clear 24 1006 65 10000 3.6 330 06:39 29.01.2020
3555 Clear 25 1006 65 10000 4.1 340 06:21 29.01.2020
3556 Clear 25 1006 65 10000 4.1 340 05:55 29.01.2020
3557 Clear 25 1006 65 10000 4.1 340 05:36 29.01.2020
3558 Clear 25 1005 61 10000 5.1 360 04:49 29.01.2020
3559 Clear 25 1005 61 10000 5.1 360 04:49 29.01.2020
3560 Clear 25 1005 61 10000 5.1 360 04:25 29.01.2020
3561 Clear 25 1006 41 0 4.53 20 02:41 29.01.2020
3562 Clear 26 1006 54 10000 3.1 340 01:44 29.01.2020
3563 Clear 27 1006 47 10000 3.1 340 00:41 29.01.2020
3564 Clear 27 1006 47 10000 3.1 340 00:23 29.01.2020
3565 Clear 28 1006 37 10000 4.1 340 23:41 28.01.2020
3566 Clear 28 1006 37 10000 4.1 340 23:21 28.01.2020
3567 Clear 29 1006 42 10000 4.1 340 22:57 28.01.2020
3568 Clear 29 1006 42 10000 4.1 340 22:39 28.01.2020
3569 Clear 30 1006 42 10000 4.1 340 22:20 28.01.2020
3570 Clear 29 1007 45 10000 4.1 350 21:41 28.01.2020
3571 Clear 30 1008 48 10000 4.1 360 21:20 28.01.2020
3572 Clear 30 1008 48 10000 4.1 360 20:46 28.01.2020
3573 Clear 30 1008 48 10000 4.1 360 20:27 28.01.2020
3574 Clear 30 1009 48 10000 3.6 350 19:58 28.01.2020
3575 Clear 30 1009 48 10000 3.6 350 19:38 28.01.2020
3576 Clear 29 1009 48 10000 3.6 350 19:19 28.01.2020
3577 Clear 29 1010 48 10000 4.1 360 18:54 28.01.2020
3578 Clear 29 1010 57 10000 3.6 30 18:36 28.01.2020
3579 Clear 29 1010 48 10000 4.1 360 18:18 28.01.2020
3580 Clear 28 1011 47 10000 4.6 310 17:54 28.01.2020
3581 Clear 27 1011 47 10000 4.6 310 17:36 28.01.2020
3582 Clear 27 1011 47 10000 4.6 310 17:18 28.01.2020
3583 Clear 27 1012 54 10000 3.6 330 16:41 28.01.2020
3584 Clear 26 1012 54 10000 3.6 330 16:22 28.01.2020
3585 Clear 25 1013 60 10000 4.6 360 15:55 28.01.2020
3586 Clear 25 1013 60 10000 4.6 360 15:37 28.01.2020
3587 Clear 25 1013 60 10000 4.6 360 15:18 28.01.2020
3588 Clear 24 1013 60 10000 4.6 20 14:43 28.01.2020
3589 Clear 22 1014 68 10000 4.1 360 14:19 28.01.2020
3590 Clear 21 1014 68 10000 4.1 360 13:42 28.01.2020
3591 Clear 21 1014 68 10000 4.1 360 13:24 28.01.2020
3592 Clear 20 1014 68 10000 4.6 10 12:44 28.01.2020
3593 Clear 19 1014 68 10000 4.6 10 12:24 28.01.2020
3594 Clear 18 1014 72 10000 4.1 40 11:58 28.01.2020
3595 Clear 18 1014 72 10000 4.1 40 11:39 28.01.2020
3596 Clear 17 1014 72 10000 4.1 40 11:20 28.01.2020
3597 Clear 16 1014 72 10000 4.1 50 10:42 28.01.2020
3598 Clear 17 1014 72 10000 4.1 50 10:24 28.01.2020
3599 Clear 16 1014 68 10000 5.1 50 09:58 28.01.2020
3600 Clear 16 1014 68 10000 5.1 50 09:38 28.01.2020
3601 Clear 17 1014 68 10000 5.1 50 09:19 28.01.2020
3602 Clear 17 1014 63 10000 6.2 50 08:43 28.01.2020
3603 Clear 17 1014 63 10000 6.2 50 08:22 28.01.2020
3604 Clear 18 1014 68 10000 5.7 50 07:40 28.01.2020
3605 Clear 18 1015 63 10000 6.2 50 06:58 28.01.2020
3606 Clear 18 1015 63 10000 6.2 50 06:40 28.01.2020
3607 Clear 18 1015 63 10000 6.2 50 06:22 28.01.2020
3608 Clouds 18 1015 60 10000 5.7 60 05:34 28.01.2020
3609 Clouds 19 1016 64 10000 6.2 60 04:40 28.01.2020
3610 Clouds 19 1016 56 10000 5.7 80 03:41 28.01.2020
3611 Clouds 20 1016 60 10000 5.7 90 02:40 28.01.2020
3612 Clouds 20 1016 60 10000 5.7 90 02:21 28.01.2020
3613 Clear 20 1016 52 10000 6.2 100 01:48 28.01.2020
3614 Clouds 21 1016 56 10000 6.7 100 00:51 28.01.2020
3615 Clouds 21 1016 56 10000 6.7 100 00:30 28.01.2020
3616 Clouds 22 1016 53 10000 6.7 100 23:53 27.01.2020
3617 Clouds 22 1016 53 10000 6.7 100 23:31 27.01.2020
3618 Clouds 22 1016 53 10000 6.7 100 23:31 27.01.2020
3619 Clouds 24 1016 53 10000 7.2 100 22:59 27.01.2020
3620 Clouds 24 1016 53 10000 7.2 100 22:41 27.01.2020
3621 Clouds 24 1016 53 10000 7.2 100 22:20 27.01.2020
3622 Clouds 24 1016 49 10000 6.7 100 21:57 27.01.2020
3623 Clouds 24 1016 49 10000 6.7 100 21:38 27.01.2020
3624 Clouds 25 1016 49 10000 6.7 100 21:18 27.01.2020
3625 Clouds 25 1016 50 10000 6.2 100 20:54 27.01.2020
3626 Clouds 25 1016 50 10000 6.2 100 20:36 27.01.2020
3627 Clear 25 1016 50 10000 6.2 100 20:18 27.01.2020
3628 Clear 25 1017 47 10000 6.2 100 19:41 27.01.2020
3629 Clear 25 1017 47 10000 6.2 100 19:23 27.01.2020
3630 Clear 25 1017 43 10000 6.2 100 18:56 27.01.2020
3631 Clear 25 1017 43 10000 6.2 100 18:38 27.01.2020
3632 Clear 25 1017 43 10000 6.2 100 18:19 27.01.2020
3633 Clear 25 1017 23 0 5.71 67 17:39 27.01.2020
3634 Clear 24 1017 46 10000 6.2 100 17:21 27.01.2020
3635 Clear 24 1017 46 10000 6.2 100 16:59 27.01.2020
3636 Clear 23 1017 46 10000 6.2 100 16:41 27.01.2020
3637 Clear 23 1017 46 10000 6.2 100 16:23 27.01.2020
3638 Clear 22 1017 46 10000 3.6 190 15:55 27.01.2020
3639 Clear 23 1017 46 10000 3.6 190 15:55 27.01.2020
3640 Clear 23 1017 46 10000 3.6 190 15:37 27.01.2020
3641 Clear 23 1017 46 10000 3.6 190 15:37 27.01.2020
3642 Clear 21 1017 46 10000 3.6 190 15:18 27.01.2020
3643 Clear 20 1017 49 10000 5.1 170 14:42 27.01.2020
3644 Clear 20 1017 49 10000 5.1 170 14:22 27.01.2020
3645 Clear 20 1017 49 10000 5.1 170 14:22 27.01.2020
3646 Clear 19 1017 55 10000 6.2 150 13:57 27.01.2020
3647 Clear 18 1017 55 10000 6.2 150 13:37 27.01.2020
3648 Clear 18 1017 55 10000 6.2 150 13:18 27.01.2020
3649 Clear 17 1016 59 10000 4.1 170 12:44 27.01.2020
3650 Clear 16 1016 59 10000 4.1 170 12:23 27.01.2020
3651 Clear 16 1015 59 10000 5.7 160 11:58 27.01.2020
3652 Clear 15 1015 59 10000 5.7 160 11:40 27.01.2020
3653 Clear 15 1015 59 10000 5.7 160 11:19 27.01.2020
3654 Clear 14 1015 59 10000 5.1 170 10:42 27.01.2020
3655 Clear 14 1015 59 10000 5.1 170 10:24 27.01.2020
3656 Clear 15 1014 59 10000 6.7 160 09:40 27.01.2020
3657 Clear 15 1014 59 10000 6.7 160 09:19 27.01.2020
3658 Clear 16 1013 55 10000 5.7 160 08:59 27.01.2020
3659 Clear 16 1013 55 10000 5.7 160 08:40 27.01.2020
3660 Clouds 16 1013 55 10000 5.7 160 08:19 27.01.2020
3661 Clouds 16 1013 63 10000 7.2 160 07:52 27.01.2020
3662 Clouds 17 1013 63 10000 7.2 160 07:33 27.01.2020
3663 Clouds 17 1013 72 10000 5.1 190 06:49 27.01.2020
3664 Clouds 19 1013 72 10000 5.7 190 05:53 27.01.2020
3665 Clouds 20 1012 60 10000 4.6 170 05:18 27.01.2020
3666 Clouds 23 1011 50 10000 8.7 180 03:36 27.01.2020
3667 Clouds 28 1007 33 10000 1 0 01:57 27.01.2020
3668 Clouds 29 1007 33 10000 1 0 01:28 27.01.2020
3669 Clouds 29 1007 33 10000 1 0 01:28 27.01.2020
3670 Clear 29 1007 27 10000 2.1 230 00:42 27.01.2020
3671 Clear 29 1007 27 10000 2.1 230 00:22 27.01.2020
3672 Clear 29 1007 27 10000 2.1 230 00:22 27.01.2020
3673 Clear 31 1006 22 10000 3.1 240 23:46 26.01.2020
3674 Clear 31 1006 22 10000 3.1 240 23:46 26.01.2020
3675 Clear 32 1006 22 10000 3.1 240 23:27 26.01.2020
3676 Clear 32 1006 21 10000 2.6 220 22:59 26.01.2020
3677 Clear 32 1006 21 10000 2.6 220 22:39 26.01.2020
3678 Clear 33 1006 21 10000 2.6 220 22:20 26.01.2020
3679 Clear 33 1007 26 10000 3.1 210 21:58 26.01.2020
3680 Clear 33 1007 26 10000 3.1 210 21:39 26.01.2020
3681 Clear 32 1007 26 10000 3.1 210 21:21 26.01.2020
3682 Clear 32 1007 27 10000 3.6 210 20:58 26.01.2020
3683 Clear 32 1007 27 10000 3.6 210 20:38 26.01.2020
3684 Clouds 32 1007 27 10000 3.6 210 20:19 26.01.2020
3685 Clouds 32 1007 29 10000 3.6 220 19:58 26.01.2020
3686 Clouds 32 1007 29 10000 3.6 220 19:38 26.01.2020
3687 Clouds 32 1007 29 10000 3.6 220 19:38 26.01.2020
3688 Clouds 32 1007 29 10000 3.6 220 19:19 26.01.2020
3689 Clouds 31 1007 27 10000 3.1 190 18:56 26.01.2020
3690 Clouds 31 1007 27 10000 3.1 190 18:38 26.01.2020
3691 Clouds 31 1007 27 10000 3.1 190 18:19 26.01.2020
3692 Clouds 31 1007 31 10000 3.6 190 17:55 26.01.2020
3693 Clouds 30 1007 31 10000 3.6 190 17:36 26.01.2020
3694 Clear 30 1007 31 10000 3.6 190 17:18 26.01.2020
3695 Clear 30 1007 35 10000 4.1 230 16:55 26.01.2020
3696 Clear 30 1007 35 10000 4.1 230 16:37 26.01.2020
3697 Clear 29 1007 35 10000 4.1 230 16:18 26.01.2020
3698 Clear 30 1008 37 0 4.57 206 15:42 26.01.2020
3699 Clear 29 1008 38 0 4.57 206 15:19 26.01.2020
3700 Clear 29 1008 39 0 4.57 206 14:55 26.01.2020
3701 Clear 28 1008 40 0 4.57 206 14:37 26.01.2020
3702 Clear 27 1023 52 0 1.34 239 14:18 26.01.2020
3703 Clear 27 1008 41 0 2.98 203 13:38 26.01.2020
3704 Clear 26 1008 41 0 1.84 142 13:18 26.01.2020
3705 Clear 25 1023 66 0 1.34 191 12:43 26.01.2020
3706 Clear 25 1023 66 0 1.34 191 12:43 26.01.2020
3707 Clear 25 1007 41 0 1.84 142 12:25 26.01.2020
3708 Clear 25 1007 41 0 1.84 142 11:59 26.01.2020
3709 Clear 24 1007 42 0 1.84 142 11:40 26.01.2020
3710 Clear 22 1005 73 10000 1 0 11:19 26.01.2020
3711 Clear 21 1005 73 10000 1 0 10:59 26.01.2020
3712 Clear 21 1005 73 10000 1 0 10:39 26.01.2020
3713 Clear 20 1006 88 10000 1.5 210 10:21 26.01.2020
3714 Clear 21 1005 82 10000 1.5 170 09:58 26.01.2020
3715 Clear 22 1005 73 10000 1 270 09:40 26.01.2020
3716 Clear 22 1005 73 10000 1 270 09:40 26.01.2020
3717 Clear 22 1005 73 10000 1 270 09:21 26.01.2020
3718 Clear 22 1005 78 10000 2.6 240 08:44 26.01.2020
3719 Clouds 23 1005 78 10000 2.6 240 08:23 26.01.2020
3720 Clouds 23 1005 69 10000 4.1 360 07:58 26.01.2020
3721 Clouds 23 1005 69 10000 4.1 360 07:39 26.01.2020
3722 Clouds 24 1005 69 10000 4.1 360 07:21 26.01.2020
3723 Clouds 25 1006 65 10000 3.6 20 06:31 26.01.2020
3724 Clouds 25 1006 65 10000 4.6 50 05:32 26.01.2020
3725 Clouds 25 1006 65 10000 4.6 50 05:32 26.01.2020
3726 Clear 26 1006 69 10000 5.1 70 04:45 26.01.2020
3727 Clear 26 1006 69 10000 5.7 90 02:54 26.01.2020
3728 Clouds 26 1005 83 10000 7.2 100 01:49 26.01.2020
3729 Clear 27 1005 83 10000 7.2 100 01:25 26.01.2020
3730 Clouds 27 1005 88 10000 6.7 100 00:53 26.01.2020
3731 Clouds 28 1005 88 10000 6.7 100 00:31 26.01.2020
3732 Clear 31 1005 44 0 4.01 73 23:41 25.01.2020
3733 Clear 32 1005 43 0 5.51 94 23:23 25.01.2020
3734 Clear 33 1005 42 0 5.51 94 22:59 25.01.2020
3735 Clear 34 1005 43 0 5.51 94 22:40 25.01.2020
3736 Clear 34 1005 37 0 5.51 94 22:19 25.01.2020
3737 Clear 35 1020 63 0 3.58 127 21:57 25.01.2020
3738 Clear 36 1020 31 0 1.34 217 21:38 25.01.2020
3739 Clear 36 1020 30 0 2.24 261 21:19 25.01.2020
3740 Clear 31 1003 45 0 5.51 94 20:44 25.01.2020
3741 Clear 35 1021 28 0 2.24 262 20:25 25.01.2020
3742 Clear 36 1021 31 0 1.34 263 19:55 25.01.2020
3743 Clear 35 1022 33 0 0.89 250 19:37 25.01.2020
3744 Clear 35 1021 30 0 0.45 242 19:18 25.01.2020
3745 Clear 35 1021 31 0 2.24 313 18:41 25.01.2020
3746 Clear 35 1021 31 0 0.45 258 18:21 25.01.2020
3747 Clear 35 1022 33 0 1.79 188 17:57 25.01.2020
3748 Clear 34 1022 31 0 1.79 186 17:37 25.01.2020
3749 Clear 34 1022 31 0 1.79 186 17:37 25.01.2020
3750 Clear 34 1022 34 0 1.79 215 17:18 25.01.2020
3751 Clear 33 1007 40 0 2.37 161 16:42 25.01.2020
3752 Clear 33 1007 41 0 2.37 161 16:23 25.01.2020
3753 Clear 32 1007 41 0 2.37 161 15:56 25.01.2020
3754 Clear 32 1007 42 0 2.37 161 15:38 25.01.2020
3755 Clear 31 1007 43 0 2.37 161 15:19 25.01.2020
3756 Clear 30 1007 44 0 2.37 161 14:41 25.01.2020
3757 Clear 29 1007 44 0 2.33 274 14:19 25.01.2020
3758 Clear 28 1022 68 0 1.34 295 13:44 25.01.2020
3759 Clear 27 1022 69 0 2.24 306 13:25 25.01.2020
3760 Clear 27 1007 43 0 2.08 265 12:50 25.01.2020
3761 Clouds 26 1006 69 10000 2.1 300 12:30 25.01.2020
3762 Clouds 25 1006 69 10000 2.1 300 11:54 25.01.2020
3763 Clouds 24 1006 69 10000 2.1 300 11:36 25.01.2020
3764 Clouds 24 1006 69 10000 2.1 300 11:18 25.01.2020
3765 Clouds 24 1006 69 10000 2.1 270 10:40 25.01.2020
3766 Clouds 24 1006 69 10000 2.1 270 10:21 25.01.2020
3767 Thunderstorm 24 1006 73 8000 1.5 260 09:57 25.01.2020
3768 Thunderstorm 24 1006 73 3000 2.1 200 09:37 25.01.2020
3769 Rain 24 1005 69 9000 2.6 300 09:18 25.01.2020
3770 Clouds 25 1006 57 10000 3.6 290 08:42 25.01.2020
3771 Clouds 25 1006 57 10000 3.6 300 07:51 25.01.2020
3772 Clouds 25 1007 57 10000 3.1 300 06:57 25.01.2020
3773 Clouds 25 1007 57 10000 3.1 300 06:29 25.01.2020
3774 Clouds 25 1007 54 10000 3.6 310 05:48 25.01.2020
3775 Clouds 26 1007 54 10000 3.6 310 05:28 25.01.2020
3776 Clouds 26 1008 61 10000 4.1 310 03:54 25.01.2020
3777 Clouds 26 1008 61 10000 4.1 310 03:22 25.01.2020
3778 Clouds 27 1007 69 10000 3.1 310 02:22 25.01.2020
3779 Clouds 28 1007 62 10000 4.1 333 01:52 25.01.2020
3780 Clouds 29 1007 58 10000 5.1 330 00:44 25.01.2020
3781 Clouds 29 1007 58 10000 5.1 330 00:26 25.01.2020
3782 Clouds 30 1007 55 10000 5.7 340 23:58 24.01.2020
3783 Clouds 31 1007 55 10000 5.7 340 23:40 24.01.2020
3784 Clouds 31 1007 55 10000 5.7 340 23:40 24.01.2020
3785 Clear 31 1007 55 10000 5.7 340 23:22 24.01.2020
3786 Clear 31 1007 52 10000 5.7 330 22:44 24.01.2020
3787 Clear 31 1007 52 10000 5.7 330 22:25 24.01.2020
3788 Clear 32 1008 48 10000 5.1 350 21:43 24.01.2020
3789 Clear 32 1008 48 10000 5.1 350 21:21 24.01.2020
3790 Clear 32 1008 48 10000 5.1 350 21:21 24.01.2020
3791 Clear 32 1008 49 10000 4.6 300 20:57 24.01.2020
3792 Clear 32 1008 55 10000 5.1 360 20:39 24.01.2020
3793 Clouds 32 1008 55 10000 5.1 360 20:20 24.01.2020
3794 Clouds 32 1009 51 10000 5.7 350 19:57 24.01.2020
3795 Clouds 32 1009 51 10000 5.7 350 19:38 24.01.2020
3796 Clouds 32 1009 51 10000 5.7 350 19:20 24.01.2020
3797 Clouds 32 1010 51 10000 5.1 350 18:43 24.01.2020
3798 Clouds 32 1010 51 10000 5.1 350 18:23 24.01.2020
3799 Clouds 31 1011 48 10000 4.6 333 17:46 24.01.2020
3800 Clouds 30 1012 61 10000 4.1 360 17:23 24.01.2020
3801 Clouds 30 1012 61 10000 4.1 360 16:58 24.01.2020
3802 Clouds 30 1012 61 10000 4.1 360 16:39 24.01.2020
3803 Clouds 30 1012 61 10000 4.1 360 16:19 24.01.2020
3804 Clouds 29 1012 65 10000 5.1 350 15:42 24.01.2020
3805 Clouds 29 1012 65 10000 5.1 350 15:22 24.01.2020
3806 Clouds 28 1012 69 10000 4.1 340 14:55 24.01.2020
3807 Clouds 27 1012 69 10000 4.1 340 14:37 24.01.2020
3808 Clouds 27 1012 69 10000 4.1 340 14:19 24.01.2020
3809 Clouds 26 1012 78 10000 5.7 340 13:41 24.01.2020
3810 Clouds 25 1012 78 10000 5.7 340 13:22 24.01.2020
3811 Clouds 25 1012 78 10000 5.7 340 13:22 24.01.2020
3812 Clouds 24 1012 73 10000 7.7 350 12:43 24.01.2020
3813 Clouds 24 1012 73 10000 7.7 350 12:21 24.01.2020
3814 Clouds 23 1012 78 10000 7.2 350 11:45 24.01.2020
3815 Clouds 22 1012 78 10000 7.2 350 11:19 24.01.2020
3816 Clouds 22 1012 78 10000 7.7 360 10:58 24.01.2020
3817 Clouds 22 1012 78 10000 7.7 360 10:40 24.01.2020
3818 Clouds 22 1012 69 10000 5.1 10 10:19 24.01.2020
3819 Clouds 22 1012 69 10000 5.1 10 09:41 24.01.2020
3820 Clouds 23 1012 69 10000 5.1 10 09:23 24.01.2020
3821 Clouds 23 1013 65 10000 3.6 320 08:41 24.01.2020
3822 Clear 23 1013 65 10000 3.6 320 08:21 24.01.2020
3823 Clear 23 1013 61 10000 4.6 330 07:59 24.01.2020
3824 Clear 23 1013 61 10000 4.6 330 07:39 24.01.2020
3825 Clear 23 1013 57 10000 5.7 350 06:54 24.01.2020
3826 Clear 24 1013 57 10000 5.7 350 06:33 24.01.2020
3827 Clear 24 1013 74 10000 5.1 350 05:59 24.01.2020
3828 Clear 24 1013 74 10000 5.1 350 05:18 24.01.2020
3829 Clear 25 1012 83 10000 5.1 100 02:54 24.01.2020
3830 Clear 26 1012 83 10000 5.1 100 02:27 24.01.2020
3831 Clear 26 1012 78 10000 4.6 100 01:53 24.01.2020
3832 Clear 26 1012 78 10000 4.6 100 01:33 24.01.2020
3833 Clear 28 1011 65 10000 4.1 100 00:31 24.01.2020
3834 Clear 28 1012 69 10000 4.6 100 23:56 23.01.2020
3835 Clear 29 1012 69 10000 4.6 100 23:37 23.01.2020
3836 Clear 29 1012 69 10000 4.6 100 23:18 23.01.2020
3837 Clear 30 1012 61 10000 3.6 80 22:39 23.01.2020
3838 Clear 30 1012 61 10000 3.6 80 22:19 23.01.2020
3839 Clear 31 1012 61 10000 3.6 60 21:58 23.01.2020
3840 Clear 31 1012 61 10000 3.6 60 21:39 23.01.2020
3841 Clear 31 1012 61 10000 3.6 60 21:20 23.01.2020
3842 Clear 31 1013 61 10000 3.1 30 20:59 23.01.2020
3843 Clear 31 1013 61 10000 3.1 30 20:38 23.01.2020
3844 Clear 31 1013 61 10000 3.1 30 20:19 23.01.2020
3845 Clear 31 1014 61 10000 3.6 50 20:19 23.01.2020
3846 Clouds 31 1013 51 10000 5.1 60 19:56 23.01.2020
3847 Clouds 31 1013 51 10000 5.1 60 19:38 23.01.2020
3848 Clouds 31 1013 51 10000 5.1 60 19:19 23.01.2020
3849 Clouds 31 1014 55 10000 5.1 60 18:42 23.01.2020
3850 Clouds 31 1014 55 10000 5.1 60 18:20 23.01.2020
3851 Clouds 31 1015 58 10000 3.6 340 17:58 23.01.2020
3852 Clouds 30 1015 58 10000 3.6 340 17:40 23.01.2020
3853 Clouds 30 1015 58 10000 3.6 340 17:19 23.01.2020
3854 Clouds 29 1015 65 10000 2.6 0 16:55 23.01.2020
3855 Clouds 29 1015 65 10000 2.6 0 16:36 23.01.2020
3856 Clouds 29 1015 65 10000 2.6 0 16:18 23.01.2020
3857 Clear 29 1016 74 10000 3.6 360 15:54 23.01.2020
3858 Clear 28 1016 78 10000 2.6 360 15:36 23.01.2020
3859 Clear 28 1016 74 10000 3.6 360 15:18 23.01.2020
3860 Clouds 28 1016 78 10000 4.1 360 14:54 23.01.2020
3861 Clouds 27 1016 78 10000 4.1 360 14:36 23.01.2020
3862 Clouds 27 1016 78 10000 4.1 360 14:18 23.01.2020
3863 Clouds 26 1016 78 10000 4.1 360 13:38 23.01.2020
3864 Clouds 25 1016 78 10000 4.1 360 13:19 23.01.2020
3865 Clouds 24 1016 78 10000 3.6 10 12:47 23.01.2020
3866 Clouds 24 1016 78 10000 3.6 10 12:25 23.01.2020
3867 Clouds 24 1016 78 10000 3.6 10 12:25 23.01.2020
3868 Clouds 24 1016 78 10000 3.6 10 12:25 23.01.2020
3869 Clear 23 1016 78 10000 4.6 10 11:58 23.01.2020
3870 Clear 23 1016 78 10000 4.6 10 11:38 23.01.2020
3871 Clear 23 1016 78 10000 4.6 10 11:19 23.01.2020
3872 Clear 22 1015 73 10000 3.6 20 10:44 23.01.2020
3873 Clear 22 1015 73 10000 3.6 20 10:22 23.01.2020
3874 Clear 22 1015 73 10000 4.6 10 09:59 23.01.2020
3875 Clear 22 1015 73 10000 4.6 10 09:37 23.01.2020
3876 Clear 23 1015 73 10000 4.6 10 09:19 23.01.2020
3877 Clear 23 1015 73 10000 4.1 20 08:41 23.01.2020
3878 Clear 23 1015 73 10000 4.1 20 08:22 23.01.2020
3879 Clear 23 1015 73 10000 4.6 40 07:45 23.01.2020
3880 Clear 23 1015 73 10000 4.6 40 07:26 23.01.2020
3881 Clear 23 1015 78 10000 2.1 50 06:53 23.01.2020
3882 Clear 23 1015 83 10000 4.1 50 06:23 23.01.2020
3883 Clear 23 1015 83 10000 4.1 90 05:57 23.01.2020
3884 Clear 24 1015 73 10000 7.2 110 04:24 23.01.2020
3885 Clear 25 1015 73 10000 7.7 120 02:34 23.01.2020
3886 Clear 25 1014 78 10000 8.7 120 01:33 23.01.2020
3887 Clear 26 1013 83 10000 8.2 110 00:27 23.01.2020
3888 Clear 27 1013 78 10000 7.2 120 23:48 22.01.2020
3889 Clear 28 1013 78 10000 7.2 120 23:30 22.01.2020
3890 Clouds 29 1013 78 10000 7.7 100 22:59 22.01.2020
3891 Clouds 29 1013 78 10000 7.7 100 22:40 22.01.2020
3892 Clouds 29 1013 78 10000 7.7 100 22:22 22.01.2020
3893 Clouds 30 1013 69 10000 6.7 100 21:40 22.01.2020
3894 Clouds 30 1013 69 10000 6.7 100 21:22 22.01.2020
3895 Clouds 30 1013 65 10000 6.7 100 20:57 22.01.2020
3896 Clouds 30 1013 65 10000 6.7 100 20:37 22.01.2020
3897 Clouds 30 1013 65 10000 6.7 100 20:19 22.01.2020
3898 Clouds 30 1014 65 10000 6.2 110 19:56 22.01.2020
3899 Clouds 30 1014 65 10000 6.2 110 19:37 22.01.2020
3900 Clouds 30 1014 65 10000 6.2 110 19:18 22.01.2020
3901 Clouds 29 1014 74 10000 5.7 100 18:56 22.01.2020
3902 Clouds 29 1014 74 10000 5.7 100 18:37 22.01.2020
3903 Clouds 29 1014 74 10000 5.7 100 18:19 22.01.2020
3904 Clouds 29 1015 74 10000 6.2 100 17:40 22.01.2020
3905 Clouds 28 1015 74 10000 6.2 100 17:21 22.01.2020
3906 Clouds 29 1015 74 10000 6.2 100 16:58 22.01.2020
3907 Clouds 28 1015 74 10000 6.2 100 16:39 22.01.2020
3908 Clouds 28 1015 74 10000 6.2 100 16:21 22.01.2020
3909 Clouds 27 1014 74 10000 6.7 100 15:56 22.01.2020
3910 Clouds 28 1014 74 10000 6.7 100 15:38 22.01.2020
3911 Clouds 27 1014 74 10000 6.7 100 15:18 22.01.2020
3912 Clouds 26 1014 78 10000 5.7 100 14:39 22.01.2020
3913 Clouds 26 1014 78 10000 5.7 100 14:20 22.01.2020
3914 Clouds 26 1014 74 10000 6.2 100 13:58 22.01.2020
3915 Clouds 26 1014 74 10000 6.2 100 13:37 22.01.2020
3916 Clouds 26 1014 74 10000 6.2 100 13:19 22.01.2020
3917 Clouds 25 1013 78 10000 7.2 100 12:57 22.01.2020
3918 Clouds 25 1013 78 10000 7.2 100 12:39 22.01.2020
3919 Clouds 25 1013 73 10000 6.2 100 12:19 22.01.2020
3920 Clouds 24 1013 73 10000 6.2 100 11:57 22.01.2020
3921 Clouds 23 1013 73 10000 6.2 100 11:39 22.01.2020
3922 Clouds 23 1013 73 10000 6.2 100 11:19 22.01.2020
3923 Clouds 22 1012 83 10000 5.1 70 10:45 22.01.2020
3924 Clouds 22 1012 83 10000 5.1 70 10:21 22.01.2020
3925 Clouds 22 1012 83 10000 5.1 70 10:21 22.01.2020
3926 Clouds 22 1012 88 10000 3.6 60 09:58 22.01.2020
3927 Clouds 22 1012 88 10000 3.6 60 09:40 22.01.2020
3928 Clouds 22 1012 88 10000 3.6 60 09:21 22.01.2020
3929 Clouds 23 1011 83 10000 3.1 150 08:55 22.01.2020
3930 Clouds 23 1011 83 10000 3.1 150 08:37 22.01.2020
3931 Clouds 22 1011 83 10000 3.1 150 08:19 22.01.2020
3932 Clouds 22 1011 83 10000 3.1 150 08:19 22.01.2020
3933 Clouds 22 1011 88 10000 3.6 140 07:44 22.01.2020
3934 Clouds 22 1011 88 10000 3.6 140 07:26 22.01.2020
3935 Clouds 22 1011 88 10000 3.6 150 06:34 22.01.2020
3936 Clouds 23 1011 83 10000 3.1 140 05:54 22.01.2020
3937 Clouds 23 1011 83 10000 4.1 140 04:25 22.01.2020
3938 Clouds 23 1011 83 10000 4.1 140 03:26 22.01.2020
3939 Clouds 24 1011 83 10000 3.6 150 02:42 22.01.2020
3940 Clouds 24 1010 83 10000 7.2 130 00:47 22.01.2020
3941 Clouds 25 1010 83 10000 7.2 130 00:27 22.01.2020
3942 Clouds 25 1009 78 10000 7.2 120 23:57 21.01.2020
3943 Clouds 26 1009 78 10000 7.2 120 23:37 21.01.2020
3944 Clouds 26 1009 78 10000 7.2 120 23:18 21.01.2020
3945 Rain 27 1009 88 9000 6.2 110 22:40 21.01.2020
3946 Rain 27 1009 88 9000 6.2 110 22:21 21.01.2020
3947 Rain 27 1010 88 9000 4.6 120 21:57 21.01.2020
3948 Rain 27 1010 88 9000 4.6 120 21:38 21.01.2020
3949 Rain 27 1010 88 9000 4.6 120 21:20 21.01.2020
3950 Clouds 28 1010 74 10000 3.6 100 20:56 21.01.2020
3951 Clouds 28 1010 74 10000 3.6 100 20:37 21.01.2020
3952 Clouds 28 1010 74 10000 3.6 100 20:19 21.01.2020
3953 Clouds 27 1011 69 10000 1.5 170 19:56 21.01.2020
3954 Clouds 27 1011 69 10000 1.5 170 19:37 21.01.2020
3955 Clouds 27 1011 69 10000 1.5 170 19:19 21.01.2020
3956 Rain 27 1011 74 8000 2.1 180 18:55 21.01.2020
3957 Rain 27 1011 69 9000 1 170 18:37 21.01.2020
3958 Rain 26 1011 69 9000 1 170 18:18 21.01.2020
3959 Clouds 26 1010 74 10000 3.6 160 17:44 21.01.2020
3960 Clouds 26 1010 74 10000 3.6 160 17:20 21.01.2020
3961 Rain 25 1010 83 9000 5.1 140 16:59 21.01.2020
3962 Rain 25 1010 83 9000 5.1 140 16:37 21.01.2020
3963 Rain 25 1010 83 9000 5.1 140 16:18 21.01.2020
3964 Clouds 24 1010 74 10000 3.6 110 15:42 21.01.2020
3965 Clouds 24 1010 74 10000 3.6 110 15:21 21.01.2020
3966 Rain 23 1010 78 9000 1.5 0 14:59 21.01.2020
3967 Rain 23 1010 78 9000 1.5 0 14:37 21.01.2020
3968 Rain 23 1010 94 5000 2.1 140 14:19 21.01.2020
3969 Rain 23 1010 94 9000 2.1 170 13:40 21.01.2020
3970 Rain 22 1010 94 9000 2.1 170 13:19 21.01.2020
3971 Thunderstorm 22 1011 94 4500 2.1 270 12:43 21.01.2020
3972 Thunderstorm 22 1011 94 4500 2.1 270 12:25 21.01.2020
3973 Thunderstorm 23 1012 88 800 5.1 20 11:57 21.01.2020
3974 Clouds 24 1009 83 10000 2.6 260 11:38 21.01.2020
3975 Clouds 24 1009 83 10000 2.6 260 11:20 21.01.2020
3976 Thunderstorm 24 1009 83 3000 7.7 340 10:44 21.01.2020
3977 Clouds 24 1008 78 10000 1.5 250 10:24 21.01.2020
3978 Clouds 24 1008 74 10000 2.6 250 09:59 21.01.2020
3979 Clouds 24 1008 74 10000 2.6 250 09:41 21.01.2020
3980 Clouds 24 1008 74 10000 2.6 250 09:22 21.01.2020
3981 Clouds 24 1008 74 10000 2.6 250 09:22 21.01.2020
3982 Rain 24 1008 83 10000 1.5 270 08:48 21.01.2020
3983 Clouds 24 1008 83 10000 1.5 270 08:28 21.01.2020
3984 Clouds 25 1007 83 10000 2.6 30 07:57 21.01.2020
3985 Clouds 25 1007 83 10000 2.6 30 07:38 21.01.2020
3986 Clouds 25 1007 83 10000 2.6 30 07:19 21.01.2020
3987 Clouds 25 1008 88 10000 4.6 110 06:45 21.01.2020
3988 Clouds 26 1007 94 10000 3.1 90 06:23 21.01.2020
3989 Clouds 26 1007 94 10000 3.1 90 06:23 21.01.2020
3990 Clouds 26 1009 69 10000 1 70 05:41 21.01.2020
3991 Clear 26 1008 74 10000 1 230 04:39 21.01.2020
3992 Clear 27 1009 78 10000 1.5 10 02:54 21.01.2020
3993 Clouds 27 1008 78 10000 3.6 340 01:47 21.01.2020
3994 Clear 28 1008 69 10000 2.6 340 00:52 21.01.2020
3995 Clear 28 1008 69 10000 2.6 340 00:29 21.01.2020
3996 Clouds 29 1007 74 10000 4.1 330 23:57 20.01.2020
3997 Clouds 29 1007 74 10000 4.1 330 23:36 20.01.2020
3998 Clouds 29 1007 74 10000 4.1 330 23:36 20.01.2020
3999 Clouds 30 1007 74 10000 4.1 330 23:18 20.01.2020
4000 Clouds 31 1007 62 10000 2.1 20 22:55 20.01.2020
4001 Clouds 31 1007 62 10000 2.1 20 22:36 20.01.2020
4002 Clouds 31 1007 62 10000 2.1 20 22:18 20.01.2020
4003 Thunderstorm 31 1004 83 5000 6.2 110 21:54 20.01.2020
4004 Thunderstorm 31 1004 83 5000 6.2 110 21:36 20.01.2020
4005 Thunderstorm 31 1004 83 5000 6.2 110 21:18 20.01.2020
4006 Clouds 32 1008 58 10000 5.7 110 20:42 20.01.2020
4007 Clouds 33 1008 58 10000 5.7 110 20:20 20.01.2020
4008 Clouds 33 1009 55 10000 5.1 100 19:59 20.01.2020
4009 Clouds 33 1009 55 10000 5.1 100 19:40 20.01.2020
4010 Clouds 34 1009 55 10000 5.1 100 19:19 20.01.2020
4011 Clouds 33 1009 70 10000 3.6 80 18:55 20.01.2020
4012 Clouds 33 1009 70 10000 3.6 80 18:37 20.01.2020
4013 Clouds 34 1009 66 10000 3.6 120 18:19 20.01.2020
4014 Clouds 33 1009 66 10000 3.6 120 17:38 20.01.2020
4015 Clouds 33 1010 62 10000 2.6 90 17:19 20.01.2020
4016 Clouds 33 1010 62 10000 2.6 90 16:46 20.01.2020
4017 Clouds 33 1010 62 10000 2.6 90 16:26 20.01.2020
4018 Clear 33 1011 62 10000 3.6 50 15:59 20.01.2020
4019 Clear 33 1011 62 10000 3.6 50 15:40 20.01.2020
4020 Clear 33 1011 62 10000 3.6 50 15:21 20.01.2020
4021 Clear 32 1010 66 10000 4.1 90 14:56 20.01.2020
4022 Clear 32 1010 58 10000 2.1 40 14:37 20.01.2020
4023 Clear 32 1010 66 10000 4.1 90 14:19 20.01.2020
4024 Clear 31 1010 74 10000 2.6 110 13:42 20.01.2020
4025 Clear 30 1010 74 10000 2.6 110 13:23 20.01.2020
4026 Clear 29 1010 74 10000 3.1 90 12:56 20.01.2020
4027 Clear 28 1010 74 10000 3.1 90 12:38 20.01.2020
4028 Clear 28 1010 74 10000 3.1 90 12:19 20.01.2020
4029 Clear 27 1009 83 10000 2.6 120 11:43 20.01.2020
4030 Clear 26 1009 83 10000 2.6 120 11:24 20.01.2020
4031 Clear 25 1009 88 10000 3.1 130 10:57 20.01.2020
4032 Clear 25 1009 88 10000 3.1 130 10:39 20.01.2020
4033 Clear 25 1009 88 10000 3.1 130 10:19 20.01.2020
4034 Clear 25 1009 88 10000 3.1 120 09:41 20.01.2020
4035 Clear 25 1009 88 10000 3.1 120 09:41 20.01.2020
4036 Clear 25 1009 88 10000 2.6 110 09:21 20.01.2020
4037 Clear 25 1009 88 10000 2.6 110 08:49 20.01.2020
4038 Clouds 25 1009 88 10000 2.6 110 08:30 20.01.2020
4039 Clouds 26 1010 83 10000 1.5 130 07:54 20.01.2020
4040 Clouds 26 1010 83 10000 1.5 130 07:30 20.01.2020
4041 Clouds 26 1010 83 10000 2.6 120 06:59 20.01.2020
4042 Clouds 26 1010 83 10000 2.6 120 06:30 20.01.2020
4043 Clouds 26 1010 83 10000 2.6 120 05:44 20.01.2020
4044 Clouds 26 1010 83 10000 2.6 120 05:25 20.01.2020
4045 Clouds 27 1010 83 10000 3.6 110 04:49 20.01.2020
4046 Clouds 27 1010 74 10000 4.1 120 02:59 20.01.2020
4047 Clouds 27 1010 74 10000 4.1 120 02:59 20.01.2020
4048 Clouds 28 1009 74 10000 4.1 110 01:57 20.01.2020
4049 Clouds 28 1009 74 10000 4.1 110 01:37 20.01.2020
4050 Clouds 29 1009 69 10000 4.1 110 00:45 20.01.2020
4051 Clouds 30 1009 69 10000 4.1 110 00:25 20.01.2020
4052 Clouds 31 1009 74 10000 3.6 110 23:40 19.01.2020
4053 Clouds 31 1009 74 10000 3.6 110 23:20 19.01.2020
4054 Clouds 32 1009 70 10000 5.1 110 22:57 19.01.2020
4055 Clouds 32 1009 70 10000 5.1 110 22:39 19.01.2020
4056 Clouds 32 1009 70 10000 5.1 110 22:39 19.01.2020
4057 Clouds 32 1009 70 10000 5.1 110 22:20 19.01.2020
4058 Clouds 32 1009 70 10000 5.1 110 22:20 19.01.2020
4059 Clouds 32 1009 66 10000 4.1 90 21:57 19.01.2020
4060 Clouds 33 1009 66 10000 4.1 90 21:38 19.01.2020
4061 Clouds 33 1009 66 10000 4.1 90 21:20 19.01.2020
4062 Clouds 33 1010 55 10000 2.6 70 20:57 19.01.2020
4063 Clouds 33 1010 55 10000 2.6 70 20:39 19.01.2020
4064 Clouds 33 1010 55 10000 2.6 70 20:20 19.01.2020
4065 Clouds 33 1010 55 10000 5.1 70 19:57 19.01.2020
4066 Clouds 33 1010 55 10000 5.1 70 19:39 19.01.2020
4067 Clouds 33 1010 55 10000 5.1 70 19:20 19.01.2020
4068 Clouds 32 1011 58 10000 4.6 70 18:56 19.01.2020
4069 Clouds 32 1011 58 10000 4.6 70 18:38 19.01.2020
4070 Clouds 32 1011 58 10000 4.6 70 18:38 19.01.2020
4071 Clouds 32 1011 62 10000 3.1 60 18:20 19.01.2020
4072 Clouds 32 1011 55 10000 3.1 20 17:58 19.01.2020
4073 Clouds 32 1011 55 10000 3.1 20 17:58 19.01.2020
4074 Clouds 32 1011 55 10000 3.1 20 17:39 19.01.2020
4075 Clouds 32 1011 55 10000 3.1 20 17:20 19.01.2020
4076 Clouds 31 1012 58 10000 3.1 360 16:58 19.01.2020
4077 Clouds 31 1012 58 10000 3.1 360 16:38 19.01.2020
4078 Clouds 31 1012 58 10000 3.1 360 16:20 19.01.2020
4079 Clouds 30 1013 58 10000 2.6 20 15:58 19.01.2020
4080 Clouds 30 1013 58 10000 2.6 20 15:37 19.01.2020
4081 Clouds 30 1013 58 10000 2.6 20 15:19 19.01.2020
4082 Clouds 29 1014 65 10000 2.6 30 14:57 19.01.2020
4083 Clouds 29 1014 65 10000 2.6 30 14:38 19.01.2020
4084 Clouds 28 1013 57 10000 3.1 360 14:18 19.01.2020
4085 Clouds 27 1014 61 10000 2.6 50 13:55 19.01.2020
4086 Clouds 27 1014 61 10000 2.6 50 13:37 19.01.2020
4087 Clouds 27 1014 61 10000 2.6 50 13:18 19.01.2020
4088 Clouds 26 1014 61 10000 2.6 50 12:42 19.01.2020
4089 Clouds 25 1014 61 10000 2.6 50 12:23 19.01.2020
4090 Clouds 24 1014 61 10000 3.6 40 11:58 19.01.2020
4091 Clouds 24 1014 61 10000 3.6 40 11:39 19.01.2020
4092 Clouds 23 1014 61 10000 3.6 40 11:20 19.01.2020
4093 Clouds 22 1013 61 10000 2.1 20 10:55 19.01.2020
4094 Clouds 22 1013 61 10000 2.1 20 10:37 19.01.2020
4095 Clouds 22 1013 61 10000 2.1 20 10:18 19.01.2020
4096 Clouds 22 1013 65 10000 2.6 40 09:41 19.01.2020
4097 Clouds 22 1013 65 10000 2.6 40 09:23 19.01.2020
4098 Clouds 22 1013 65 10000 2.6 30 08:57 19.01.2020
4099 Clouds 22 1013 65 10000 2.6 30 08:38 19.01.2020
4100 Clouds 23 1013 65 10000 2.6 30 08:20 19.01.2020
4101 Clouds 23 1013 65 10000 2.1 20 07:30 19.01.2020
4102 Clouds 23 1014 73 10000 2.1 80 06:56 19.01.2020
4103 Clouds 24 1014 73 10000 2.1 80 06:25 19.01.2020
4104 Clouds 25 1015 69 10000 4.6 110 04:39 19.01.2020
4105 Clouds 25 1014 69 10000 3.6 100 02:36 19.01.2020
4106 Clouds 25 1014 69 10000 5.1 110 01:58 19.01.2020
4107 Clouds 26 1014 69 10000 5.1 110 01:24 19.01.2020
4108 Clouds 27 1014 54 10000 4.1 100 00:45 19.01.2020
4109 Clouds 27 1013 45 10000 1 20 00:26 19.01.2020
4110 Clouds 28 1013 45 10000 1 20 23:55 18.01.2020
4111 Clouds 28 1013 45 10000 1 20 23:36 18.01.2020
4112 Clouds 29 1013 45 10000 1 20 23:18 18.01.2020
4113 Clouds 29 1014 45 10000 1.5 50 22:43 18.01.2020
4114 Clouds 29 1014 45 10000 1.5 50 22:24 18.01.2020
4115 Clouds 30 1014 45 10000 2.6 30 21:58 18.01.2020
4116 Clouds 29 1014 45 10000 2.6 30 21:39 18.01.2020
4117 Clouds 30 1014 45 10000 2.6 30 21:21 18.01.2020
4118 Clouds 30 1015 48 10000 3.6 40 20:59 18.01.2020
4119 Clouds 30 1015 48 10000 3.6 40 20:41 18.01.2020
4120 Clouds 29 1015 48 10000 3.6 40 20:19 18.01.2020
4121 Clouds 29 1015 45 10000 3.6 40 19:43 18.01.2020
4122 Clouds 29 1015 45 10000 3.6 40 19:25 18.01.2020
4123 Clouds 29 1016 47 10000 3.1 30 18:55 18.01.2020
4124 Clouds 29 1016 47 10000 3.1 30 18:36 18.01.2020
4125 Clouds 29 1017 50 10000 3.6 360 18:18 18.01.2020
4126 Clouds 28 1017 50 10000 3.6 360 17:41 18.01.2020
4127 Clouds 29 1016 39 10000 4.6 340 17:21 18.01.2020
4128 Clouds 28 1017 50 10000 4.1 350 16:57 18.01.2020
4129 Clouds 28 1017 50 10000 4.1 350 16:38 18.01.2020
4130 Clouds 27 1017 50 10000 4.1 350 16:19 18.01.2020
4131 Clouds 27 1017 50 10000 5.1 350 16:19 18.01.2020
4132 Clouds 27 1017 44 10000 6.2 360 15:47 18.01.2020
4133 Clouds 27 1017 44 10000 6.2 360 15:47 18.01.2020
4134 Clouds 27 1017 50 10000 5.1 350 15:26 18.01.2020
4135 Clouds 26 1017 57 10000 6.2 350 14:59 18.01.2020
4136 Clouds 26 1017 57 10000 6.2 350 14:40 18.01.2020
4137 Clouds 25 1017 57 10000 6.2 350 14:19 18.01.2020
4138 Clouds 25 1018 60 10000 5.1 360 13:56 18.01.2020
4139 Clouds 24 1018 60 10000 5.1 360 13:36 18.01.2020
4140 Clouds 24 1018 60 10000 5.1 360 13:18 18.01.2020
4141 Clouds 24 1018 60 10000 5.1 360 13:18 18.01.2020
4142 Clouds 23 1018 60 10000 4.6 360 12:41 18.01.2020
4143 Clouds 22 1018 60 10000 4.6 360 12:21 18.01.2020
4144 Clouds 22 1017 60 10000 4.1 360 11:56 18.01.2020
4145 Clouds 22 1017 60 10000 4.1 360 11:37 18.01.2020
4146 Clouds 21 1017 60 10000 4.1 360 11:19 18.01.2020
4147 Clouds 20 1017 64 10000 3.6 360 10:41 18.01.2020
4148 Clouds 20 1017 64 10000 3.6 360 10:20 18.01.2020
4149 Clouds 20 1017 64 10000 3.1 10 09:50 18.01.2020
4150 Clouds 20 1017 64 10000 3.1 10 09:32 18.01.2020
4151 Clouds 20 1017 60 10000 2.1 10 08:58 18.01.2020
4152 Clouds 20 1017 60 10000 2.1 10 08:39 18.01.2020
4153 Clear 20 1017 60 10000 2.1 10 08:19 18.01.2020
4154 Clear 21 1018 60 10000 4.6 50 07:52 18.01.2020
4155 Clear 21 1018 60 10000 4.6 50 07:32 18.01.2020
4156 Clear 21 1018 60 10000 5.1 50 06:48 18.01.2020
4157 Clear 21 1018 56 10000 5.7 60 05:59 18.01.2020
4158 Clear 21 1018 56 10000 5.7 60 05:24 18.01.2020
4159 Clear 22 1019 49 10000 5.7 70 02:56 18.01.2020
4160 Clear 23 1018 56 10000 4.1 80 01:56 18.01.2020
4161 Clear 23 1018 56 10000 4.1 80 01:35 18.01.2020
4162 Clear 24 1018 60 10000 4.1 90 00:37 18.01.2020
4163 Clear 24 1018 60 10000 4.1 90 00:18 18.01.2020
4164 Clear 24 1018 60 10000 4.1 90 00:18 18.01.2020
4165 Clear 24 1018 53 10000 4.6 80 00:18 18.01.2020
4166 Clear 25 1018 53 10000 4.6 80 23:41 17.01.2020
4167 Clear 25 1018 53 10000 4.6 80 23:20 17.01.2020
4168 Clouds 26 1018 53 10000 3.1 60 22:45 17.01.2020
4169 Clouds 27 1018 53 10000 3.1 60 22:22 17.01.2020
4170 Clouds 27 1019 50 10000 3.6 50 21:59 17.01.2020
4171 Clouds 26 1019 50 10000 3.6 50 21:41 17.01.2020
4172 Clouds 26 1019 50 10000 3.6 50 21:22 17.01.2020
4173 Clouds 27 1020 50 10000 3.1 40 20:57 17.01.2020
4174 Clouds 27 1019 51 10000 4.6 70 20:38 17.01.2020
4175 Clouds 27 1020 50 10000 3.1 40 20:20 17.01.2020
4176 Clouds 26 1020 53 10000 3.1 50 19:55 17.01.2020
4177 Clouds 26 1020 53 10000 3.1 50 19:37 17.01.2020
4178 Clouds 26 1020 53 10000 3.1 50 19:18 17.01.2020
4179 Clouds 26 1021 56 10000 3.1 40 18:45 17.01.2020
4180 Clouds 26 1021 56 10000 3.1 40 18:27 17.01.2020
4181 Clouds 26 1022 53 10000 3.1 20 17:56 17.01.2020
4182 Clouds 25 1022 53 10000 3.1 20 17:38 17.01.2020
4183 Clouds 25 1022 53 10000 3.1 20 17:20 17.01.2020
4184 Clouds 25 1022 57 10000 3.6 30 16:42 17.01.2020
4185 Clouds 25 1022 57 10000 3.6 30 16:42 17.01.2020
4186 Clouds 24 1022 53 10000 3.1 20 16:20 17.01.2020
4187 Clouds 25 1023 60 10000 4.1 30 15:48 17.01.2020
4188 Clouds 24 1023 60 10000 4.1 30 15:28 17.01.2020
4189 Clouds 24 1023 60 10000 3.6 30 14:56 17.01.2020
4190 Clouds 23 1023 60 10000 3.6 30 14:38 17.01.2020
4191 Clouds 23 1023 60 10000 3.6 30 14:20 17.01.2020
4192 Clouds 22 1023 64 10000 4.6 40 13:39 17.01.2020
4193 Clouds 21 1023 64 10000 4.6 40 13:21 17.01.2020
4194 Clouds 21 1023 64 10000 4.6 40 13:21 17.01.2020
4195 Clouds 20 1022 64 10000 4.6 60 12:45 17.01.2020
4196 Clouds 19 1022 64 10000 4.6 60 12:23 17.01.2020
4197 Clouds 18 1022 72 10000 5.1 60 11:41 17.01.2020
4198 Clouds 17 1022 72 10000 5.1 60 11:19 17.01.2020
4199 Clouds 16 1021 68 10000 3.1 130 10:54 17.01.2020
4200 Clouds 16 1021 68 10000 3.1 130 10:54 17.01.2020
4201 Clouds 16 1021 68 10000 3.1 130 10:54 17.01.2020
4202 Clouds 16 1021 68 10000 3.1 130 10:36 17.01.2020
4203 Clouds 15 1021 68 10000 3.1 130 10:18 17.01.2020
4204 Clear 15 1021 68 10000 3.1 140 09:41 17.01.2020
4205 Clear 16 1021 68 10000 3.1 140 09:20 17.01.2020
4206 Clear 16 1021 37 10000 6.7 140 08:55 17.01.2020
4207 Clear 16 1021 37 10000 6.7 140 08:36 17.01.2020
4208 Clear 16 1021 37 10000 6.7 140 08:18 17.01.2020
4209 Clear 16 1021 37 10000 6.7 140 07:42 17.01.2020
4210 Clear 16 1021 45 10000 3.1 130 07:24 17.01.2020
4211 Clear 17 1021 42 10000 3.6 120 06:43 17.01.2020
4212 Clear 17 1021 42 10000 3.6 120 06:20 17.01.2020
4213 Clear 18 1037 44 0 3.14 205 04:25 17.01.2020
4214 Clear 19 1036 45 0 3.14 205 02:55 17.01.2020
4215 Clear 20 1036 46 0 3.14 205 02:28 17.01.2020
4216 Clear 21 1036 44 0 0.45 186 01:32 17.01.2020
4217 Clear 21 1036 42 0 0.73 130 00:55 17.01.2020
4218 Clear 23 1019 29 10000 3.6 230 00:28 17.01.2020
4219 Clear 24 1019 29 10000 3.6 230 23:50 16.01.2020
4220 Clear 25 1019 29 10000 3.6 230 23:26 16.01.2020
4221 Clear 25 1019 26 10000 2.6 0 22:58 16.01.2020
4222 Clear 25 1019 26 10000 2.6 0 22:40 16.01.2020
4223 Clear 25 1019 26 10000 2.6 0 22:21 16.01.2020
4224 Clear 25 1019 24 10000 4.1 250 21:55 16.01.2020
4225 Clear 25 1019 24 10000 4.1 250 21:37 16.01.2020
4226 Clear 25 1019 25 10000 3.6 280 21:18 16.01.2020
4227 Clear 25 1019 24 10000 4.1 250 21:18 16.01.2020
4228 Clear 25 1019 25 10000 3.6 280 20:56 16.01.2020
4229 Clear 25 1019 27 10000 6.7 250 20:36 16.01.2020
4230 Clear 25 1019 27 10000 4.6 250 20:18 16.01.2020
4231 Clear 25 1019 27 10000 4.6 250 19:41 16.01.2020
4232 Clear 24 1019 35 10000 4.1 20 19:22 16.01.2020
4233 Clear 24 1020 35 10000 4.1 20 18:57 16.01.2020
4234 Clear 24 1020 35 10000 4.1 20 18:39 16.01.2020
4235 Clear 24 1020 35 10000 4.1 20 18:20 16.01.2020
4236 Clear 24 1020 33 10000 3.6 40 17:59 16.01.2020
4237 Clear 24 1020 33 10000 3.6 40 17:40 16.01.2020
4238 Clear 24 1020 33 10000 3.6 40 17:20 16.01.2020
4239 Clear 23 1020 30 10000 3.6 50 16:42 16.01.2020
4240 Clear 23 1020 30 10000 3.6 50 16:24 16.01.2020
4241 Clear 23 1020 32 10000 4.1 90 15:59 16.01.2020
4242 Clear 22 1020 32 10000 4.1 90 15:39 16.01.2020
4243 Clear 22 1020 32 10000 4.1 90 15:20 16.01.2020
4244 Clear 21 1019 23 10000 3.1 140 14:45 16.01.2020
4245 Clear 21 1019 23 10000 3.1 140 14:24 16.01.2020
4246 Clear 20 1020 25 10000 4.6 140 13:56 16.01.2020
4247 Clear 20 1020 25 10000 4.6 140 13:37 16.01.2020
4248 Clear 19 1020 23 10000 4.6 140 13:19 16.01.2020
4249 Clear 19 1019 23 10000 5.1 130 12:42 16.01.2020
4250 Clear 18 1019 23 10000 5.1 130 12:22 16.01.2020
4251 Clear 17 1018 31 10000 3.1 150 11:43 16.01.2020
4252 Clear 15 1018 31 10000 3.1 150 11:24 16.01.2020
4253 Clear 15 1017 51 10000 2.1 170 10:59 16.01.2020
4254 Clear 14 1017 51 10000 2.1 170 10:38 16.01.2020
4255 Clear 13 1017 51 10000 2.1 170 10:20 16.01.2020
4256 Clear 14 1016 48 10000 2.6 140 09:44 16.01.2020
4257 Clear 14 1016 48 10000 2.6 140 09:24 16.01.2020
4258 Clear 14 1016 41 10000 4.1 140 08:59 16.01.2020
4259 Clear 14 1016 41 10000 4.1 140 08:41 16.01.2020
4260 Clear 14 1016 41 10000 4.1 140 08:20 16.01.2020
4261 Clear 15 1016 39 10000 5.7 140 07:43 16.01.2020
4262 Clear 15 1016 39 10000 5.7 140 07:24 16.01.2020
4263 Clear 16 1016 42 10000 6.7 140 06:55 16.01.2020
4264 Clear 16 1016 42 10000 6.7 140 06:35 16.01.2020
4265 Clear 16 1015 45 10000 7.7 130 05:51 16.01.2020
4266 Clear 18 1014 40 10000 5.7 150 04:51 16.01.2020
4267 Clear 19 1014 40 10000 5.7 150 04:21 16.01.2020
4268 Clear 19 1012 43 10000 6.2 140 03:27 16.01.2020
4269 Clouds 21 1010 40 10000 3.6 160 02:23 16.01.2020
4270 Clouds 24 1007 47 10000 2.1 180 00:44 16.01.2020
4271 Clouds 24 1007 47 10000 2.1 180 00:23 16.01.2020
4272 Clouds 25 1006 44 10000 3.1 160 23:45 15.01.2020
4273 Clouds 26 1006 44 10000 3.1 160 23:22 15.01.2020
4274 Clouds 27 1006 45 10000 3.1 180 22:57 15.01.2020
4275 Clouds 27 1006 45 10000 3.1 180 22:38 15.01.2020
4276 Clouds 27 1006 45 10000 3.1 180 22:18 15.01.2020
4277 Clouds 27 1005 54 10000 3.1 170 21:56 15.01.2020
4278 Clouds 28 1005 54 10000 3.1 170 21:37 15.01.2020
4279 Clouds 28 1005 54 10000 3.1 170 21:37 15.01.2020
4280 Clouds 28 1005 54 10000 3.1 170 21:18 15.01.2020
4281 Clouds 27 1005 61 10000 3.6 190 20:55 15.01.2020
4282 Clouds 27 1005 61 10000 3.6 190 20:37 15.01.2020
4283 Clouds 27 1005 61 10000 3.6 190 20:18 15.01.2020
4284 Clouds 27 1005 65 10000 2.6 230 19:54 15.01.2020
4285 Clouds 27 1005 65 10000 2.6 230 19:36 15.01.2020
4286 Clouds 27 1005 65 10000 2.6 230 19:18 15.01.2020
4287 Clouds 27 1005 65 10000 2.6 230 19:18 15.01.2020
4288 Clouds 27 1004 74 10000 3.6 240 18:55 15.01.2020
4289 Clouds 27 1004 74 10000 3.6 240 18:37 15.01.2020
4290 Clouds 26 1004 74 10000 3.6 240 18:19 15.01.2020
4291 Clouds 25 1004 88 10000 2.1 240 17:41 15.01.2020
4292 Clouds 25 1004 88 10000 2.1 240 17:22 15.01.2020
4293 Clouds 24 1004 94 10000 2.1 250 16:57 15.01.2020
4294 Clouds 23 1004 94 10000 2.1 250 16:38 15.01.2020
4295 Clouds 23 1004 94 10000 2.1 250 16:20 15.01.2020
4296 Clouds 22 1004 94 10000 2.1 250 16:20 15.01.2020
4297 Clouds 22 1004 94 10000 2.1 250 16:20 15.01.2020
4298 Clouds 22 1003 94 10000 1.5 210 15:43 15.01.2020
4299 Clouds 22 1003 94 10000 1.5 210 15:21 15.01.2020
4300 Clouds 22 1003 94 10000 3.6 230 14:57 15.01.2020
4301 Rain 22 1001 88 9000 3.6 80 14:39 15.01.2020
4302 Thunderstorm 21 1003 94 9000 3.6 230 14:18 15.01.2020
4303 Thunderstorm 21 1003 94 5000 3.1 220 13:44 15.01.2020
4304 Thunderstorm 21 1002 94 5000 3.1 360 13:44 15.01.2020
4305 Thunderstorm 21 1002 94 5000 3.1 360 13:23 15.01.2020
4306 Thunderstorm 21 1002 94 5000 1.5 120 12:56 15.01.2020
4307 Thunderstorm 21 1003 94 3000 2.1 220 12:37 15.01.2020
4308 Thunderstorm 21 1003 94 3000 2.1 220 12:19 15.01.2020
4309 Thunderstorm 21 1003 94 5000 2.1 260 11:54 15.01.2020
4310 Thunderstorm 21 1002 88 3800 1.5 250 11:36 15.01.2020
4311 Thunderstorm 21 1002 88 3800 1.5 250 11:18 15.01.2020
4312 Thunderstorm 21 1002 88 2000 2.6 200 10:41 15.01.2020
4313 Thunderstorm 21 1002 88 2000 2.6 200 10:21 15.01.2020
4314 Thunderstorm 21 999 94 1500 6.7 210 09:41 15.01.2020
4315 Thunderstorm 23 999 94 3000 3.1 340 09:22 15.01.2020
4316 Clouds 25 1001 88 10000 2.1 350 08:45 15.01.2020
4317 Clouds 25 1001 88 10000 2.1 350 08:27 15.01.2020
4318 Thunderstorm 26 1003 88 10000 1.5 340 07:56 15.01.2020
4319 Rain 26 1002 94 10000 3.28 338 07:35 15.01.2020
4320 Rain 26 1003 88 10000 1.5 60 06:57 15.01.2020
4321 Rain 26 1003 88 10000 1.5 60 06:57 15.01.2020
4322 Rain 26 1003 88 10000 1.5 60 06:38 15.01.2020
4323 Rain 26 1004 88 10000 1.5 80 05:43 15.01.2020
4324 Rain 26 1004 88 10000 1 220 03:35 15.01.2020
4325 Rain 27 1003 78 10000 1.62 228 01:49 15.01.2020
4326 Rain 27 1003 78 10000 1.62 228 01:22 15.01.2020
4327 Clouds 28 1003 83 10000 2.1 60 00:37 15.01.2020
4328 Clouds 28 1003 83 10000 2.1 60 00:19 15.01.2020
4329 Clouds 29 1004 74 10000 2.1 20 23:47 14.01.2020
4330 Clouds 30 1004 74 10000 2.1 20 23:28 14.01.2020
4331 Clouds 30 1004 66 10000 4.6 360 22:57 14.01.2020
4332 Clouds 30 1004 74 10000 2.6 10 22:39 14.01.2020
4333 Clouds 30 1004 74 10000 2.6 10 22:18 14.01.2020
4334 Clouds 30 1005 74 10000 3.1 340 21:57 14.01.2020
4335 Clouds 31 1004 66 10000 3.6 360 21:38 14.01.2020
4336 Clouds 30 1005 74 10000 3.1 340 21:19 14.01.2020
4337 Clouds 29 1005 74 10000 4.1 10 20:43 14.01.2020
4338 Clouds 28 1005 78 10000 3.6 40 20:23 14.01.2020
4339 Clouds 28 1005 78 10000 3.6 40 19:57 14.01.2020
4340 Clouds 28 1005 78 10000 3.6 40 19:39 14.01.2020
4341 Clouds 27 1005 78 10000 3.6 40 19:20 14.01.2020
4342 Clouds 25 1006 88 10000 7.2 60 18:59 14.01.2020
4343 Rain 22 1004 94 8000 9.3 60 18:40 14.01.2020
4344 Rain 22 1004 94 8000 9.3 60 18:19 14.01.2020
4345 Rain 22 1010 88 9000 3.1 50 17:39 14.01.2020
4346 Rain 22 1010 88 9000 3.1 50 17:20 14.01.2020
4347 Thunderstorm 22 1010 94 6000 2.6 20 16:59 14.01.2020
4348 Rain 22 1011 88 9000 1 0 16:41 14.01.2020
4349 Rain 22 1011 88 9000 1 0 16:21 14.01.2020
4350 Rain 23 1011 88 9000 1 220 15:55 14.01.2020
4351 Thunderstorm 22 1011 94 4000 1.5 170 15:37 14.01.2020
4352 Thunderstorm 22 1011 94 4000 1.5 170 15:18 14.01.2020
4353 Thunderstorm 23 1011 88 5000 3.1 190 14:43 14.01.2020
4354 Thunderstorm 23 1011 88 5000 3.1 190 14:20 14.01.2020
4355 Clouds 24 1009 73 10000 4.6 40 13:43 14.01.2020
4356 Clouds 24 1009 73 10000 4.6 40 13:20 14.01.2020
4357 Clouds 24 1009 73 10000 4.1 30 12:59 14.01.2020
4358 Clouds 24 1009 73 10000 4.1 30 12:40 14.01.2020
4359 Clouds 24 1009 73 10000 4.1 30 12:20 14.01.2020
4360 Clouds 24 1009 73 10000 4.1 30 12:20 14.01.2020
4361 Clouds 23 1009 73 10000 5.1 10 11:43 14.01.2020
4362 Clouds 23 1009 73 10000 5.1 10 11:23 14.01.2020
4363 Clouds 23 1009 73 10000 5.1 10 11:23 14.01.2020
4364 Rain 23 1009 73 10000 4.1 20 10:58 14.01.2020
4365 Rain 23 1009 73 10000 4.1 20 10:39 14.01.2020
4366 Rain 23 1009 73 10000 4.1 20 10:19 14.01.2020
4367 Rain 23 1009 73 10000 4.1 20 10:19 14.01.2020
4368 Clouds 23 1009 69 10000 4.6 30 09:56 14.01.2020
4369 Clouds 23 1009 69 10000 4.6 30 09:38 14.01.2020
4370 Clouds 23 1009 69 10000 4.6 30 09:20 14.01.2020
4371 Clouds 23 1009 73 10000 4.1 40 08:42 14.01.2020
4372 Clear 24 1009 73 10000 4.1 40 08:23 14.01.2020
4373 Clear 24 1010 65 10000 5.7 40 07:53 14.01.2020
4374 Clear 24 1010 65 10000 5.7 40 07:31 14.01.2020
4375 Clear 25 1010 65 10000 6.7 40 06:50 14.01.2020
4376 Clear 25 1010 65 10000 6.7 40 06:23 14.01.2020
4377 Clear 25 1011 69 10000 5.1 70 04:58 14.01.2020
4378 Clear 25 1012 78 10000 7.7 100 03:48 14.01.2020
4379 Clear 24 1012 83 10000 8.2 130 02:41 14.01.2020
4380 Clouds 25 1011 83 10000 8.2 110 01:34 14.01.2020
4381 Clouds 25 1011 73 10000 9.3 130 00:49 14.01.2020
4382 Clouds 26 1011 73 10000 9.3 130 00:26 14.01.2020
4383 Clouds 26 1011 73 10000 10.3 130 23:47 13.01.2020
4384 Clouds 27 1011 73 10000 10.3 130 23:19 13.01.2020
4385 Clouds 28 1011 65 10000 8.7 120 22:58 13.01.2020
4386 Clouds 28 1011 65 10000 8.7 120 22:39 13.01.2020
4387 Clouds 29 1011 65 10000 8.7 120 22:20 13.01.2020
4388 Clouds 29 1012 65 10000 8.7 120 21:56 13.01.2020
4389 Clouds 29 1012 65 10000 8.7 120 21:37 13.01.2020
4390 Clouds 30 1012 65 10000 8.7 120 21:18 13.01.2020
4391 Clouds 29 1013 54 10000 8.7 110 20:56 13.01.2020
4392 Clouds 29 1013 54 10000 8.7 110 20:38 13.01.2020
4393 Clouds 30 1013 54 10000 8.7 110 20:19 13.01.2020
4394 Clouds 30 1013 51 10000 9.3 110 19:41 13.01.2020
4395 Clouds 30 1013 51 10000 9.3 110 19:21 13.01.2020
4396 Clouds 29 1014 47 10000 8.2 100 18:59 13.01.2020
4397 Clouds 30 1014 47 10000 8.2 100 18:40 13.01.2020
4398 Clouds 30 1014 47 10000 8.2 100 18:20 13.01.2020
4399 Clouds 29 1015 44 10000 6.7 110 18:20 13.01.2020
4400 Clouds 29 1015 44 10000 6.7 110 18:20 13.01.2020
4401 Clouds 30 1014 47 10000 8.2 100 18:20 13.01.2020
4402 Clouds 29 1015 44 10000 6.7 110 17:58 13.01.2020
4403 Clouds 29 1015 44 10000 6.7 110 17:39 13.01.2020
4404 Clear 28 1015 44 10000 6.7 110 17:20 13.01.2020
4405 Clear 29 1016 28 0 5.03 93 16:43 13.01.2020
4406 Clear 28 1016 28 0 5.03 93 16:24 13.01.2020
4407 Clear 28 1016 26 0 5.03 93 15:59 13.01.2020
4408 Clear 27 1017 26 0 5.03 93 15:41 13.01.2020
4409 Clear 27 1017 26 0 5.03 93 15:21 13.01.2020
4410 Clear 27 1017 25 0 5.03 93 14:44 13.01.2020
4411 Clear 26 1017 26 0 6.42 75 14:26 13.01.2020
4412 Clear 26 1017 26 0 6.42 75 13:59 13.01.2020
4413 Clear 25 1017 26 0 6.42 75 13:40 13.01.2020
4414 Clear 25 1018 25 0 6.51 77 13:22 13.01.2020
4415 Clear 25 1018 25 0 6.51 77 12:57 13.01.2020
4416 Clear 24 1018 26 0 6.51 77 12:39 13.01.2020
4417 Clear 23 1017 43 10000 7.7 80 12:21 13.01.2020
4418 Clear 22 1017 68 10000 6.7 60 11:40 13.01.2020
4419 Clear 21 1017 68 10000 6.7 60 11:20 13.01.2020
4420 Clear 21 1017 60 10000 7.2 70 10:57 13.01.2020
4421 Clear 20 1017 60 10000 7.2 70 10:39 13.01.2020
4422 Clear 20 1017 60 10000 7.2 70 10:39 13.01.2020
4423 Clear 20 1017 60 10000 7.2 70 10:20 13.01.2020
4424 Clear 20 1017 68 10000 7.2 70 09:56 13.01.2020
4425 Clear 20 1017 68 10000 7.2 70 09:38 13.01.2020
4426 Clear 20 1017 68 10000 7.2 70 09:19 13.01.2020
4427 Clear 20 1017 68 10000 6.7 70 08:39 13.01.2020
4428 Clear 20 1017 68 10000 6.7 70 08:20 13.01.2020
4429 Clear 20 1017 60 10000 7.2 90 07:46 13.01.2020
4430 Clear 20 1017 60 10000 7.2 90 07:27 13.01.2020
4431 Clear 21 1017 64 10000 7.7 80 06:42 13.01.2020
4432 Clear 21 1017 64 10000 7.7 80 06:19 13.01.2020
4433 Clear 21 1017 60 10000 9.8 100 05:22 13.01.2020
4434 Clear 22 1017 53 10000 10.3 110 03:52 13.01.2020
4435 Clear 22 1016 53 10000 11.8 110 03:22 13.01.2020
4436 Clear 22 1016 53 10000 11.8 110 02:39 13.01.2020
4437 Clouds 23 1016 53 10000 11.8 110 02:18 13.01.2020
4438 Clouds 24 1016 53 10000 10.8 120 01:18 13.01.2020
4439 Clouds 24 1015 65 10000 8.2 100 00:40 13.01.2020
4440 Clouds 25 1015 65 10000 8.2 100 00:21 13.01.2020
4441 Clouds 25 1015 47 10000 11.3 120 23:41 12.01.2020
4442 Clouds 26 1015 47 10000 11.3 120 23:23 12.01.2020
4443 Clouds 27 1015 57 10000 11.8 110 22:57 12.01.2020
4444 Clouds 27 1015 57 10000 11.8 110 22:39 12.01.2020
4445 Clouds 28 1015 57 10000 11.8 110 22:21 12.01.2020
4446 Clouds 28 1015 44 10000 9.3 100 21:55 12.01.2020
4447 Clouds 29 1015 44 10000 9.3 100 21:37 12.01.2020
4448 Clouds 29 1015 44 10000 9.3 100 21:19 12.01.2020
4449 Clouds 30 1015 39 10000 8.2 100 20:55 12.01.2020
4450 Clouds 29 1015 39 10000 8.2 100 20:37 12.01.2020
4451 Clouds 30 1015 39 10000 8.2 100 20:19 12.01.2020
4452 Clouds 30 1016 54 10000 6.7 100 19:54 12.01.2020
4453 Clouds 30 1016 54 10000 6.7 100 19:54 12.01.2020
4454 Clouds 30 1016 54 10000 6.7 100 19:36 12.01.2020
4455 Clouds 31 1016 54 10000 6.7 100 19:18 12.01.2020
4456 Clouds 31 1016 61 10000 6.2 100 18:54 12.01.2020
4457 Clouds 30 1016 61 10000 6.2 100 18:36 12.01.2020
4458 Clouds 31 1016 61 10000 6.2 100 18:18 12.01.2020
4459 Clouds 30 1016 61 10000 7.2 110 17:42 12.01.2020
4460 Clouds 29 1016 61 10000 7.2 110 17:20 12.01.2020
4461 Clouds 29 1017 65 10000 7.2 100 16:57 12.01.2020
4462 Clouds 29 1017 65 10000 7.2 100 16:37 12.01.2020
4463 Clouds 29 1017 65 10000 7.2 100 16:19 12.01.2020
4464 Clouds 29 1017 69 10000 7.2 100 15:43 12.01.2020
4465 Clouds 28 1017 69 10000 7.2 100 15:25 12.01.2020
4466 Clouds 28 1017 65 10000 6.7 110 14:57 12.01.2020
4467 Clouds 28 1017 65 10000 6.7 110 14:38 12.01.2020
4468 Clouds 26 1016 69 10000 6.7 130 14:20 12.01.2020
4469 Clouds 26 1016 69 10000 6.7 130 13:54 12.01.2020
4470 Clouds 26 1016 69 10000 6.7 130 13:36 12.01.2020
4471 Clear 25 1016 69 10000 6.7 130 13:18 12.01.2020
4472 Clear 25 1016 69 10000 6.7 130 13:18 12.01.2020
4473 Clear 24 1016 69 10000 5.1 130 12:43 12.01.2020
4474 Clear 24 1016 69 10000 5.1 130 12:20 12.01.2020
4475 Clear 22 1015 73 10000 4.6 130 11:59 12.01.2020
4476 Clear 22 1015 73 10000 4.6 130 11:59 12.01.2020
4477 Clear 22 1015 73 10000 4.6 130 11:39 12.01.2020
4478 Clear 21 1015 73 10000 4.6 130 11:20 12.01.2020
4479 Clear 19 1015 73 10000 7.2 140 10:42 12.01.2020
4480 Clear 20 1015 73 10000 7.2 140 10:22 12.01.2020
4481 Clouds 20 1014 68 10000 5.1 140 09:57 12.01.2020
4482 Clouds 20 1014 68 10000 5.1 140 09:39 12.01.2020
4483 Clouds 20 1014 68 10000 5.1 140 09:20 12.01.2020
4484 Clouds 21 1013 56 10000 3.1 150 08:45 12.01.2020
4485 Clouds 21 1013 56 10000 3.1 150 08:21 12.01.2020
4486 Clear 22 1013 69 10000 2.6 360 07:42 12.01.2020
4487 Clear 22 1013 69 10000 2.6 360 07:24 12.01.2020
4488 Clear 23 1012 65 10000 1 160 06:48 12.01.2020
4489 Clear 24 1012 65 10000 1 160 06:30 12.01.2020
4490 Rain 25 1012 74 9000 2.1 10 05:32 12.01.2020
4491 Clear 25 1013 65 10000 1 20 04:30 12.01.2020
4492 Clear 26 1012 51 10000 2.98 134 03:25 12.01.2020
4493 Clear 27 1012 45 10000 2.1 150 02:34 12.01.2020
4494 Clear 27 1010 57 10000 2.1 80 01:51 12.01.2020
4495 Clear 27 1010 57 10000 2.1 80 01:29 12.01.2020
4496 Clouds 28 1010 54 10000 1.5 50 00:41 12.01.2020
4497 Clouds 29 1010 54 10000 1.5 50 00:20 12.01.2020
4498 Clouds 29 1010 54 10000 1.5 50 00:20 12.01.2020
4499 Clouds 30 1009 48 10000 3.6 80 23:42 11.01.2020
4500 Clouds 30 1009 48 10000 3.6 80 23:20 11.01.2020
4501 Clouds 31 1009 51 10000 4.1 80 22:58 11.01.2020
4502 Clouds 32 1009 51 10000 4.1 80 22:40 11.01.2020
4503 Clouds 32 1009 51 10000 4.1 80 22:20 11.01.2020
4504 Clouds 32 1009 48 10000 4.6 60 21:58 11.01.2020
4505 Clouds 32 1009 48 10000 4.6 60 21:39 11.01.2020
4506 Clouds 32 1009 48 10000 4.6 60 21:39 11.01.2020
4507 Clouds 32 1009 48 10000 4.6 60 21:18 11.01.2020
4508 Clouds 32 1010 51 10000 3.6 60 20:40 11.01.2020
4509 Clouds 32 1010 51 10000 3.6 60 20:22 11.01.2020
4510 Clouds 32 1011 55 10000 3.6 60 19:58 11.01.2020
4511 Clouds 32 1011 55 10000 3.6 60 19:39 11.01.2020
4512 Clouds 32 1011 54 10000 3.1 20 19:21 11.01.2020
4513 Clouds 32 1011 55 10000 3.6 0 18:58 11.01.2020
4514 Clouds 31 1012 61 10000 3.6 30 18:38 11.01.2020
4515 Clouds 31 1012 65 10000 3.1 30 18:19 11.01.2020
4516 Clouds 31 1012 62 10000 3.6 40 17:57 11.01.2020
4517 Clouds 31 1012 62 10000 3.6 40 17:39 11.01.2020
4518 Clouds 31 1012 62 10000 3.6 40 17:19 11.01.2020
4519 Clouds 30 1013 62 10000 4.1 50 16:44 11.01.2020
4520 Clouds 30 1013 62 10000 4.1 50 16:26 11.01.2020
4521 Clouds 29 1013 61 10000 2.6 70 15:58 11.01.2020
4522 Clouds 29 1013 36 10000 2.6 20 15:40 11.01.2020
4523 Clouds 29 1013 36 10000 2.6 20 15:20 11.01.2020
4524 Clouds 29 1013 65 10000 2.6 60 14:56 11.01.2020
4525 Clouds 28 1013 65 10000 2.6 60 14:38 11.01.2020
4526 Clouds 28 1013 65 10000 2.6 60 14:19 11.01.2020
4527 Clouds 27 1013 73 10000 3.6 100 13:39 11.01.2020
4528 Clouds 25 1013 73 10000 3.6 100 13:20 11.01.2020
4529 Clear 25 1013 73 10000 3.1 130 12:56 11.01.2020
4530 Clear 24 1013 73 10000 3.1 130 12:38 11.01.2020
4531 Clear 24 1013 73 10000 3.1 130 12:20 11.01.2020
4532 Clear 22 1012 73 10000 2.1 140 11:45 11.01.2020
4533 Clear 21 1012 73 10000 2.1 140 11:24 11.01.2020
4534 Clear 18 1012 77 10000 3.1 130 10:50 11.01.2020
4535 Clear 17 1012 77 10000 3.1 130 10:30 11.01.2020
4536 Clear 18 1012 82 10000 3.1 120 09:55 11.01.2020
4537 Clear 18 1012 82 10000 3.1 120 09:37 11.01.2020
4538 Clear 18 1012 82 10000 3.1 120 09:18 11.01.2020
4539 Clear 18 1011 77 10000 3.6 120 08:41 11.01.2020
4540 Clear 19 1011 77 10000 3.6 120 08:20 11.01.2020
4541 Clear 20 1011 57 10000 1.5 160 07:43 11.01.2020
4542 Clear 20 1011 57 10000 1.5 160 07:24 11.01.2020
4543 Clear 20 1011 64 10000 6.2 110 06:45 11.01.2020
4544 Clear 21 1011 60 10000 6.2 110 05:31 11.01.2020
4545 Clear 23 1011 53 10000 1.5 80 04:43 11.01.2020
4546 Clear 22 1011 57 10000 2.6 120 04:25 11.01.2020
4547 Clear 25 1011 57 10000 2.6 110 02:48 11.01.2020
4548 Clouds 25 1010 69 10000 2.6 110 01:48 11.01.2020
4549 Clouds 26 1010 69 10000 2.6 110 01:28 11.01.2020
4550 Clouds 26 1009 69 10000 3.1 70 00:54 11.01.2020
4551 Clouds 27 1009 69 10000 3.1 70 00:29 11.01.2020
4552 Clouds 28 1009 65 10000 2.6 40 23:59 10.01.2020
4553 Clouds 28 1009 65 10000 2.6 40 23:39 10.01.2020
4554 Clouds 28 1009 65 10000 2.6 40 23:39 10.01.2020
4555 Clouds 29 1009 65 10000 2.6 40 23:20 10.01.2020
4556 Clouds 30 1008 42 10000 3.6 150 22:41 10.01.2020
4557 Clouds 31 1008 42 10000 3.6 150 22:22 10.01.2020
4558 Clouds 30 1009 61 10000 3.1 50 21:59 10.01.2020
4559 Clouds 30 1009 61 10000 3.1 50 21:41 10.01.2020
4560 Clouds 30 1009 61 10000 3.1 50 21:20 10.01.2020
4561 Clouds 31 1009 40 10000 2.6 0 20:57 10.01.2020
4562 Clouds 31 1009 40 10000 2.6 0 20:38 10.01.2020
4563 Clouds 31 1009 40 10000 2.6 0 20:19 10.01.2020
4564 Clear 31 1010 43 10000 3.6 50 19:40 10.01.2020
4565 Clear 30 1010 43 10000 3.6 50 19:21 10.01.2020
4566 Clear 30 1010 61 10000 4.1 50 18:55 10.01.2020
4567 Clear 30 1010 61 10000 4.1 50 18:37 10.01.2020
4568 Clear 30 1010 61 10000 4.1 50 18:18 10.01.2020
4569 Clear 30 1010 65 10000 3.6 70 17:56 10.01.2020
4570 Clear 30 1010 65 10000 3.6 70 17:37 10.01.2020
4571 Clouds 30 1010 65 10000 3.6 70 17:19 10.01.2020
4572 Clouds 30 1010 65 10000 4.6 90 16:41 10.01.2020
4573 Clouds 29 1010 65 10000 4.6 90 16:21 10.01.2020
4574 Clouds 28 1010 65 10000 4.6 110 15:56 10.01.2020
4575 Clouds 28 1010 65 10000 4.6 110 15:37 10.01.2020
4576 Clouds 27 1010 65 10000 4.6 110 15:19 10.01.2020
4577 Clouds 27 1010 65 10000 4.6 110 15:19 10.01.2020
4578 Clouds 27 1010 65 10000 4.6 110 15:19 10.01.2020
4579 Clouds 27 1010 69 10000 4.6 110 14:57 10.01.2020
4580 Clouds 26 1010 69 10000 4.6 110 14:38 10.01.2020
4581 Clouds 26 1010 69 10000 4.6 110 14:19 10.01.2020
4582 Clouds 25 1010 65 10000 5.1 110 13:45 10.01.2020
4583 Clouds 25 1010 65 10000 5.1 110 13:27 10.01.2020
4584 Clouds 24 1010 73 10000 6.2 110 12:59 10.01.2020
4585 Clouds 24 1010 73 10000 6.2 110 12:40 10.01.2020
4586 Clouds 24 1010 73 10000 6.2 110 12:21 10.01.2020
4587 Clouds 23 1010 78 10000 6.2 110 11:57 10.01.2020
4588 Clouds 23 1010 78 10000 6.2 110 11:39 10.01.2020
4589 Clouds 22 1010 78 10000 6.2 110 11:19 10.01.2020
4590 Clouds 21 1010 83 10000 4.1 110 10:58 10.01.2020
4591 Clouds 21 1010 83 10000 4.1 110 10:58 10.01.2020
4592 Clouds 21 1010 83 10000 4.1 110 10:58 10.01.2020
4593 Clouds 20 1010 83 10000 4.1 110 10:37 10.01.2020
4594 Clouds 20 1010 83 10000 4.1 110 10:18 10.01.2020
4595 Clouds 20 1010 83 10000 4.1 110 10:18 10.01.2020
4596 Clouds 20 1010 78 10000 3.6 140 09:45 10.01.2020
4597 Clouds 20 1010 78 10000 3.6 140 09:25 10.01.2020
4598 Clouds 20 1010 83 10000 4.6 110 08:44 10.01.2020
4599 Clouds 20 1010 83 10000 4.6 110 08:24 10.01.2020
4600 Clear 21 1009 69 10000 5.7 100 07:58 10.01.2020
4601 Clear 21 1009 69 10000 5.7 100 07:58 10.01.2020
4602 Clear 21 1009 69 10000 5.7 100 07:39 10.01.2020
4603 Clear 21 1009 69 10000 5.7 100 07:19 10.01.2020
4604 Clear 22 1009 64 10000 6.2 110 06:27 10.01.2020
4605 Clear 22 1010 69 10000 6.7 110 05:59 10.01.2020
4606 Clouds 23 1010 69 10000 6.7 100 03:50 10.01.2020
4607 Clouds 24 1010 69 10000 6.7 100 03:31 10.01.2020
4608 Clouds 24 1010 78 10000 5.7 110 02:52 10.01.2020
4609 Clouds 25 1008 78 10000 5.7 110 01:53 10.01.2020
4610 Clouds 25 1008 78 10000 5.7 110 01:29 10.01.2020
4611 Rain 26 1008 69 10000 4.6 110 00:48 10.01.2020
4612 Rain 26 1008 69 10000 4.6 110 00:30 10.01.2020
4613 Rain 28 1007 61 10000 4.1 90 23:40 09.01.2020
4614 Clouds 29 1007 61 10000 4.1 90 23:21 09.01.2020
4615 Clouds 29 1007 61 10000 4.1 90 23:21 09.01.2020
4616 Clouds 29 1007 61 10000 5.1 100 22:58 09.01.2020
4617 Clouds 29 1007 61 10000 5.1 100 22:58 09.01.2020
4618 Clouds 29 1007 61 10000 5.1 100 22:39 09.01.2020
4619 Clouds 29 1007 61 10000 5.1 100 22:19 09.01.2020
4620 Clouds 29 1007 58 10000 4.6 80 21:58 09.01.2020
4621 Clouds 30 1007 58 10000 4.6 80 21:39 09.01.2020
4622 Clouds 30 1007 58 10000 4.6 80 21:20 09.01.2020
4623 Clouds 30 1008 48 10000 5.7 90 20:58 09.01.2020
4624 Clouds 30 1008 48 10000 5.7 90 20:39 09.01.2020
4625 Clouds 30 1008 48 10000 5.7 90 20:20 09.01.2020
4626 Rain 30 1008 48 10000 5.7 90 20:20 09.01.2020
4627 Rain 30 1008 54 10000 5.1 90 19:58 09.01.2020
4628 Rain 30 1008 54 10000 5.1 90 19:39 09.01.2020
4629 Rain 30 1008 54 10000 5.1 90 19:20 09.01.2020
4630 Rain 29 1008 48 10000 2.6 0 18:56 09.01.2020
4631 Rain 29 1008 48 10000 2.6 0 18:56 09.01.2020
4632 Rain 29 1008 48 10000 2.6 0 18:37 09.01.2020
4633 Rain 29 1008 48 10000 2.6 0 18:19 09.01.2020
4634 Rain 28 1009 54 10000 3.1 180 17:41 09.01.2020
4635 Clouds 28 1009 54 10000 3.1 180 17:19 09.01.2020
4636 Clouds 27 1009 54 10000 2.6 0 16:56 09.01.2020
4637 Clouds 27 1009 54 10000 2.6 0 16:36 09.01.2020
4638 Clouds 27 1009 54 10000 2.6 0 16:18 09.01.2020
4639 Clouds 26 1009 65 10000 3.1 110 15:41 09.01.2020
4640 Clouds 26 1009 65 10000 3.1 110 15:41 09.01.2020
4641 Clouds 26 1009 65 10000 3.1 110 15:20 09.01.2020
4642 Clouds 25 1008 73 10000 3.1 120 14:55 09.01.2020
4643 Clouds 25 1008 73 10000 3.1 120 14:36 09.01.2020
4644 Clouds 25 1008 73 10000 3.1 120 14:36 09.01.2020
4645 Rain 25 1008 73 10000 3.1 120 14:18 09.01.2020
4646 Rain 25 1007 73 10000 4.6 70 13:54 09.01.2020
4647 Rain 25 1007 73 10000 4.6 70 13:36 09.01.2020
4648 Clouds 24 1007 73 10000 4.6 70 13:18 09.01.2020
4649 Clouds 24 1007 69 10000 8.2 100 12:40 09.01.2020
4650 Clouds 24 1007 69 10000 8.2 100 12:22 09.01.2020
4651 Clouds 23 1007 60 10000 5.7 120 11:57 09.01.2020
4652 Clouds 23 1007 60 10000 5.7 120 11:38 09.01.2020
4653 Clouds 23 1007 60 10000 5.7 120 11:20 09.01.2020
4654 Clouds 23 1006 47 10000 5.7 140 10:44 09.01.2020
4655 Clouds 23 1006 47 10000 5.7 140 10:22 09.01.2020
4656 Clouds 23 1006 53 10000 6.7 160 09:58 09.01.2020
4657 Clouds 23 1006 53 10000 6.7 160 09:38 09.01.2020
4658 Clouds 24 1006 53 10000 6.7 160 09:19 09.01.2020
4659 Clouds 25 1005 51 10000 4.6 230 08:55 09.01.2020
4660 Clouds 25 1005 51 10000 4.6 230 08:37 09.01.2020
4661 Clear 26 1005 51 10000 4.6 230 08:19 09.01.2020
4662 Clear 26 1002 57 10000 7.2 360 07:42 09.01.2020
4663 Clear 26 1002 57 10000 7.2 360 07:23 09.01.2020
4664 Clear 26 1003 61 10000 5.7 330 06:38 09.01.2020
4665 Clear 26 1003 61 10000 5.7 330 06:19 09.01.2020
4666 Clear 27 1003 61 10000 5.7 350 05:44 09.01.2020
4667 Clear 27 1003 69 10000 2.6 330 04:42 09.01.2020
4668 Clear 27 1004 65 10000 2.6 340 03:31 09.01.2020
4669 Clear 27 1004 61 10000 2.6 320 02:52 09.01.2020
4670 Clear 28 1004 61 10000 2.6 320 02:23 09.01.2020
4671 Clear 28 1003 58 10000 2.6 330 01:35 09.01.2020
4672 Clear 29 1003 51 10000 2.6 330 00:42 09.01.2020
4673 Clear 30 1003 51 10000 2.6 330 00:20 09.01.2020
4674 Clear 30 1002 48 10000 4.6 330 23:41 08.01.2020
4675 Clear 31 1002 48 10000 4.6 330 23:23 08.01.2020
4676 Clear 31 1002 26 10000 7.7 360 22:58 08.01.2020
4677 Clear 32 1003 42 10000 5.7 330 22:38 08.01.2020
4678 Clear 32 1003 42 10000 5.7 330 22:20 08.01.2020
4679 Clear 32 1004 48 10000 4.1 350 21:56 08.01.2020
4680 Clear 32 1004 48 10000 4.1 350 21:56 08.01.2020
4681 Clear 32 1004 48 10000 4.1 350 21:37 08.01.2020
4682 Clear 32 1003 33 10000 6.2 360 21:18 08.01.2020
4683 Clear 32 1004 33 10000 7.2 360 20:56 08.01.2020
4684 Clear 32 1004 33 10000 7.2 360 20:37 08.01.2020
4685 Clear 32 1004 33 10000 7.2 360 20:19 08.01.2020
4686 Clear 32 1005 33 10000 6.7 340 19:39 08.01.2020
4687 Clear 32 1005 33 10000 6.7 340 19:20 08.01.2020
4688 Clear 32 1006 35 10000 7.7 360 18:59 08.01.2020
4689 Clear 32 1006 35 10000 7.7 360 18:40 08.01.2020
4690 Clear 32 1006 35 10000 7.7 360 18:19 08.01.2020
4691 Clear 32 1006 35 10000 7.7 360 18:19 08.01.2020
4692 Clear 32 1006 35 10000 7.7 360 18:19 08.01.2020
4693 Clear 31 1007 35 10000 2.1 360 17:58 08.01.2020
4694 Clear 31 1007 48 10000 5.1 360 17:39 08.01.2020
4695 Clear 30 1007 35 10000 2.1 360 17:20 08.01.2020
4696 Clear 30 1008 42 10000 7.2 360 16:57 08.01.2020
4697 Clear 30 1008 42 10000 7.2 360 16:57 08.01.2020
4698 Clear 30 1008 42 10000 7.2 360 16:38 08.01.2020
4699 Clear 29 1008 42 10000 7.2 360 16:19 08.01.2020
4700 Clear 29 1009 51 10000 5.1 360 15:45 08.01.2020
4701 Clear 29 1009 51 10000 5.1 360 15:22 08.01.2020
4702 Clear 28 1009 57 10000 4.6 340 14:59 08.01.2020
4703 Clear 27 1009 57 10000 4.6 340 14:40 08.01.2020
4704 Clear 27 1009 57 10000 4.6 340 14:21 08.01.2020
4705 Clear 26 1009 50 10000 4.1 340 13:42 08.01.2020
4706 Clear 26 1009 60 10000 4.1 330 13:22 08.01.2020
4707 Clear 24 1009 53 10000 4.1 340 12:55 08.01.2020
4708 Clear 24 1009 53 10000 4.1 340 12:37 08.01.2020
4709 Clear 23 1009 53 10000 4.1 340 12:18 08.01.2020
4710 Clear 21 1009 49 10000 4.6 330 11:48 08.01.2020
4711 Clear 20 1009 49 10000 4.6 330 11:19 08.01.2020
4712 Clear 20 1008 52 10000 4.6 320 10:59 08.01.2020
4713 Clear 19 1008 52 10000 4.6 320 10:59 08.01.2020
4714 Clear 20 1008 52 10000 4.6 320 10:40 08.01.2020
4715 Clear 20 1008 52 10000 4.6 320 10:20 08.01.2020
4716 Clear 20 1008 49 10000 4.6 320 09:43 08.01.2020
4717 Clear 20 1008 49 10000 4.6 320 09:20 08.01.2020
4718 Clear 20 1007 49 10000 5.1 320 08:58 08.01.2020
4719 Clear 20 1007 49 10000 5.1 320 08:39 08.01.2020
4720 Clear 21 1007 49 10000 5.1 320 08:20 08.01.2020
4721 Clear 21 1007 56 10000 3.6 320 07:51 08.01.2020
4722 Clear 21 1007 56 10000 3.6 320 07:33 08.01.2020
4723 Clear 21 1008 53 10000 3.6 310 06:50 08.01.2020
4724 Clear 21 1008 53 10000 3.6 310 06:32 08.01.2020
4725 Clear 21 1008 49 10000 4.1 320 05:54 08.01.2020
4726 Clear 21 1008 49 10000 4.1 320 05:18 08.01.2020
4727 Clear 22 1008 47 10000 4.6 320 04:27 08.01.2020
4728 Clear 23 1007 50 10000 4.6 310 02:45 08.01.2020
4729 Clear 24 1007 50 10000 4.6 310 02:27 08.01.2020
4730 Clear 25 1007 50 10000 5.7 320 01:50 08.01.2020
4731 Clear 25 1007 50 10000 5.7 320 01:25 08.01.2020
4732 Clear 26 1006 47 10000 4.6 320 00:40 08.01.2020
4733 Clear 26 1006 47 10000 4.6 320 00:20 08.01.2020
4734 Clear 28 1006 42 10000 5.7 330 23:44 07.01.2020
4735 Clear 28 1006 42 10000 5.7 330 23:20 07.01.2020
4736 Clear 29 1006 39 10000 6.2 330 22:40 07.01.2020
4737 Clear 29 1006 39 10000 6.2 330 22:20 07.01.2020
4738 Clear 30 1006 37 10000 6.7 340 21:57 07.01.2020
4739 Clear 30 1006 37 10000 6.7 340 21:39 07.01.2020
4740 Clear 30 1006 37 10000 6.7 340 21:21 07.01.2020
4741 Clear 30 1007 30 10000 5.1 290 20:56 07.01.2020
4742 Clear 30 1007 30 10000 5.1 290 20:38 07.01.2020
4743 Clear 30 1007 30 10000 5.1 290 20:19 07.01.2020
4744 Clear 30 1007 25 10000 6.2 290 19:38 07.01.2020
4745 Clear 30 1007 25 10000 6.2 290 19:20 07.01.2020
4746 Clear 29 1008 23 10000 3.6 320 18:58 07.01.2020
4747 Clear 29 1008 23 10000 3.6 320 18:40 07.01.2020
4748 Clear 29 1008 23 10000 3.6 320 18:19 07.01.2020
4749 Clear 28 1008 26 10000 5.7 330 18:00 07.01.2020
4750 Clear 28 1008 26 10000 5.7 330 17:39 07.01.2020
4751 Clear 28 1008 26 10000 5.7 330 17:21 07.01.2020
4752 Clear 28 1009 26 10000 5.1 290 16:57 07.01.2020
4753 Clear 27 1009 26 10000 5.1 290 16:38 07.01.2020
4754 Clear 27 1009 26 10000 5.1 290 16:19 07.01.2020
4755 Clear 26 1010 29 10000 4.6 290 15:58 07.01.2020
4756 Clear 26 1010 29 10000 4.6 290 15:39 07.01.2020
4757 Clear 26 1010 29 10000 4.6 290 15:21 07.01.2020
4758 Clear 25 1010 33 10000 3.6 250 14:42 07.01.2020
4759 Clear 25 1010 33 10000 3.6 250 14:24 07.01.2020
4760 Clear 23 1010 38 10000 3.6 260 13:57 07.01.2020
4761 Clear 23 1010 38 10000 3.6 260 13:39 07.01.2020
4762 Clear 22 1010 38 10000 3.6 260 13:18 07.01.2020
4763 Clear 20 1010 43 10000 2.6 260 12:41 07.01.2020
4764 Clear 20 1010 43 10000 2.6 260 12:19 07.01.2020
4765 Clear 18 1009 45 10000 2.6 260 11:45 07.01.2020
4766 Clear 17 1009 45 10000 2.6 260 11:23 07.01.2020
4767 Clear 16 1009 48 10000 2.1 270 10:59 07.01.2020
4768 Clear 16 1009 48 10000 2.1 270 10:40 07.01.2020
4769 Clear 16 1009 48 10000 2.1 270 10:22 07.01.2020
4770 Clear 16 1009 52 10000 1.5 250 09:56 07.01.2020
4771 Clear 15 1009 52 10000 1.5 250 09:37 07.01.2020
4772 Clear 15 1009 52 10000 1.5 250 09:19 07.01.2020
4773 Clear 16 1008 55 10000 1.5 260 08:42 07.01.2020
4774 Clear 16 1008 55 10000 1.5 260 08:21 07.01.2020
4775 Clear 16 1008 56 10000 1.5 230 07:51 07.01.2020
4776 Clear 17 1008 52 10000 1 0 07:26 07.01.2020
4777 Clear 17 1008 52 10000 1 0 06:53 07.01.2020
4778 Clear 17 1008 52 10000 1 0 06:32 07.01.2020
4779 Clear 17 1008 46 10000 1.5 240 05:46 07.01.2020
4780 Clear 18 1008 43 10000 2.1 240 04:31 07.01.2020
4781 Clear 19 1007 43 10000 2.6 230 03:25 07.01.2020
4782 Clear 20 1006 40 10000 3.6 230 02:21 07.01.2020
4783 Clear 20 1005 40 10000 3.1 0 01:45 07.01.2020
4784 Clear 21 1005 40 10000 3.1 0 01:18 07.01.2020
4785 Clear 22 1004 38 10000 3.1 0 00:21 07.01.2020
4786 Clear 23 1003 33 10000 4.1 260 23:58 06.01.2020
4787 Clear 24 1003 33 10000 4.1 260 23:38 06.01.2020
4788 Clear 24 1003 33 10000 4.1 260 23:20 06.01.2020
4789 Clouds 25 1003 30 10000 5.1 250 22:44 06.01.2020
4790 Clouds 25 1003 30 10000 5.1 250 22:44 06.01.2020
4791 Clouds 26 1003 30 10000 5.1 250 22:26 06.01.2020
4792 Clear 26 1003 29 10000 8.2 240 21:59 06.01.2020
4793 Clear 26 1003 29 10000 8.2 240 21:40 06.01.2020
4794 Clouds 27 1003 28 10000 5.1 250 21:21 06.01.2020
4795 Clouds 27 1003 28 10000 5.1 250 20:58 06.01.2020
4796 Clouds 27 1003 28 10000 5.1 250 20:40 06.01.2020
4797 Clouds 27 1003 28 10000 5.1 250 20:20 06.01.2020
4798 Clouds 27 1003 28 10000 3.6 290 19:57 06.01.2020
4799 Clouds 27 1003 28 10000 3.6 290 19:39 06.01.2020
4800 Clouds 27 1003 28 10000 3.6 290 19:20 06.01.2020
4801 Clouds 27 1004 31 10000 7.7 250 18:48 06.01.2020
4802 Clouds 26 1003 28 10000 5.7 260 18:25 06.01.2020
4803 Clouds 26 1004 39 10000 6.7 270 17:59 06.01.2020
4804 Clouds 26 1004 39 10000 6.7 270 17:39 06.01.2020
4805 Clouds 26 1004 39 10000 6.7 270 17:19 06.01.2020
4806 Clouds 25 1004 50 10000 4.6 320 16:47 06.01.2020
4807 Clouds 25 1004 50 10000 4.6 320 16:27 06.01.2020
4808 Clouds 24 1004 53 10000 4.6 290 15:59 06.01.2020
4809 Clouds 24 1004 53 10000 4.6 290 15:41 06.01.2020
4810 Clouds 24 1004 53 10000 4.6 290 15:20 06.01.2020
4811 Clouds 23 1004 56 10000 5.7 290 14:58 06.01.2020
4812 Clouds 23 1004 56 10000 5.7 290 14:40 06.01.2020
4813 Clouds 22 1004 56 10000 5.7 290 14:20 06.01.2020
4814 Clouds 21 1003 56 10000 5.1 250 13:55 06.01.2020
4815 Clouds 21 1003 56 10000 5.1 250 13:55 06.01.2020
4816 Clouds 21 1003 56 10000 5.1 250 13:37 06.01.2020
4817 Clouds 20 1003 56 10000 5.1 250 13:19 06.01.2020
4818 Clouds 20 1003 56 10000 4.1 290 12:42 06.01.2020
4819 Clouds 20 1003 56 10000 4.1 290 12:20 06.01.2020
4820 Clouds 19 1002 68 10000 3.6 320 11:57 06.01.2020
4821 Clouds 19 1002 68 10000 3.6 320 11:38 06.01.2020
4822 Rain 19 1002 68 10000 3.6 320 11:20 06.01.2020
4823 Clouds 18 1001 60 10000 2.1 360 10:45 06.01.2020
4824 Clouds 18 1001 60 10000 2.1 360 10:27 06.01.2020
4825 Rain 17 1002 64 8000 1.5 230 09:57 06.01.2020
4826 Rain 17 1002 64 8000 1.5 230 09:37 06.01.2020
4827 Rain 17 1002 88 7000 2.1 200 09:19 06.01.2020
4828 Rain 17 1002 82 10000 3.6 210 08:42 06.01.2020
4829 Rain 18 1002 64 10000 3.6 230 08:23 06.01.2020
4830 Rain 18 1003 72 10000 6.2 220 07:48 06.01.2020
4831 Rain 18 1003 72 10000 6.2 220 07:21 06.01.2020
4832 Rain 18 1003 72 10000 6.2 220 07:21 06.01.2020
4833 Rain 17 1003 100 10000 4.6 230 06:41 06.01.2020
4834 Clouds 18 1003 68 10000 5.1 220 05:51 06.01.2020
4835 Clouds 18 1003 68 10000 5.1 220 05:29 06.01.2020
4836 Rain 20 1003 83 7000 5.7 250 04:25 06.01.2020
4837 Clouds 20 1004 60 7000 12.9 230 03:52 06.01.2020
4838 Clear 25 1000 69 10000 5.7 110 02:32 06.01.2020
4839 Clouds 26 1000 69 10000 7.2 110 01:55 06.01.2020
4840 Clouds 26 1000 69 10000 7.2 110 01:32 06.01.2020
4841 Clouds 26 1000 57 10000 6.7 110 00:48 06.01.2020
4842 Clouds 27 1000 57 10000 6.7 110 00:29 06.01.2020
4843 Clouds 27 1000 54 10000 5.7 110 23:59 05.01.2020
4844 Clouds 28 1000 54 10000 5.7 110 23:40 05.01.2020
4845 Clouds 29 1000 54 10000 5.7 110 23:21 05.01.2020
4846 Clouds 29 1000 48 10000 3.1 70 22:40 05.01.2020
4847 Clouds 29 1000 48 10000 3.1 70 22:21 05.01.2020
4848 Clouds 29 1001 45 10000 2.6 20 21:58 05.01.2020
4849 Clouds 29 1001 45 10000 2.6 20 21:40 05.01.2020
4850 Clouds 30 1001 45 10000 2.6 20 21:20 05.01.2020
4851 Clouds 30 1002 45 10000 2.6 40 20:58 05.01.2020
4852 Clouds 30 1002 45 10000 2.6 40 20:39 05.01.2020
4853 Clouds 30 1002 45 10000 2.6 40 20:19 05.01.2020
4854 Clouds 29 1003 45 10000 2.1 10 19:58 05.01.2020
4855 Clouds 29 1003 45 10000 2.1 10 19:39 05.01.2020
4856 Clouds 30 1003 45 10000 2.1 10 19:20 05.01.2020
4857 Clouds 29 1004 47 10000 4.1 50 18:56 05.01.2020
4858 Clouds 29 1004 47 10000 4.1 50 18:37 05.01.2020
4859 Clouds 29 1004 47 10000 4.1 50 18:19 05.01.2020
4860 Clouds 29 1005 47 10000 3.6 30 17:58 05.01.2020
4861 Clouds 29 1005 47 10000 3.6 30 17:38 05.01.2020
4862 Clouds 29 1005 47 10000 3.6 30 17:19 05.01.2020
4863 Clouds 29 1006 45 10000 1 100 16:56 05.01.2020
4864 Clouds 29 1006 57 10000 3.1 30 16:38 05.01.2020
4865 Clouds 29 1006 57 10000 3.1 30 16:19 05.01.2020
4866 Clouds 28 1007 61 10000 2.1 20 15:38 05.01.2020
4867 Clouds 28 1007 61 10000 2.1 20 15:38 05.01.2020
4868 Clouds 28 1007 61 10000 2.1 20 15:20 05.01.2020
4869 Clouds 28 1007 61 10000 3.1 350 14:56 05.01.2020
4870 Clear 28 1007 54 10000 1 0 14:37 05.01.2020
4871 Clear 28 1007 54 10000 1 0 14:19 05.01.2020
4872 Clear 27 1007 69 10000 2.6 20 13:56 05.01.2020
4873 Clear 26 1007 69 10000 2.6 20 13:37 05.01.2020
4874 Clear 26 1007 69 10000 2.6 20 13:18 05.01.2020
4875 Clear 26 1007 69 10000 2.6 20 13:18 05.01.2020
4876 Clear 25 1007 65 10000 1.5 10 12:55 05.01.2020
4877 Clear 25 1007 65 10000 1.5 10 12:37 05.01.2020
4878 Clear 25 1007 65 10000 1.5 10 12:18 05.01.2020
4879 Clear 23 1007 69 10000 1.5 40 11:43 05.01.2020
4880 Clear 23 1007 69 10000 1.5 40 11:43 05.01.2020
4881 Clear 23 1007 69 10000 1.5 40 11:43 05.01.2020
4882 Clear 23 1007 69 10000 1.5 40 11:43 05.01.2020
4883 Clear 23 1007 69 10000 1.5 40 11:43 05.01.2020
4884 Clear 22 1007 69 10000 1.5 40 11:19 05.01.2020
4885 Clear 21 1006 78 10000 2.6 90 10:58 05.01.2020
4886 Clear 21 1006 78 10000 2.6 90 10:39 05.01.2020
4887 Clear 21 1006 78 10000 2.6 90 10:39 05.01.2020
4888 Clear 21 1006 78 10000 2.6 90 10:39 05.01.2020
4889 Clear 21 1006 78 10000 2.6 90 10:39 05.01.2020
4890 Clear 21 1006 78 10000 2.6 90 10:39 05.01.2020
4891 Clear 20 1006 78 10000 2.6 90 10:19 05.01.2020
4892 Clear 20 1007 69 10000 2.1 70 09:42 05.01.2020
4893 Clear 20 1007 69 10000 2.1 70 09:22 05.01.2020
4894 Clear 20 1007 73 10000 2.6 100 08:49 05.01.2020
4895 Clear 20 1007 73 10000 2.6 100 08:30 05.01.2020
4896 Clear 21 1007 73 10000 2.1 120 07:56 05.01.2020
4897 Clear 21 1007 73 10000 2.1 120 07:37 05.01.2020
4898 Clear 21 1007 73 10000 2.1 120 07:18 05.01.2020
4899 Clear 22 1008 69 10000 3.6 100 05:59 05.01.2020
4900 Clear 22 1008 69 10000 3.6 100 05:30 05.01.2020
4901 Clear 23 1009 69 10000 4.1 110 04:43 05.01.2020
4902 Clear 23 1009 73 10000 5.7 100 03:52 05.01.2020
4903 Clear 24 1009 65 10000 5.7 100 02:46 05.01.2020
4904 Clear 24 1009 65 10000 5.7 100 02:22 05.01.2020
4905 Clear 25 1009 50 10000 3.6 110 01:46 05.01.2020
4906 Clear 25 1009 50 10000 3.6 110 01:18 05.01.2020
4907 Clear 25 1009 50 10000 4.1 100 00:41 05.01.2020
4908 Clear 26 1009 50 10000 4.1 100 00:22 05.01.2020
4909 Clear 27 1009 44 10000 4.6 110 23:59 04.01.2020
4910 Clear 27 1009 44 10000 4.6 110 23:39 04.01.2020
4911 Clear 28 1009 44 10000 4.6 110 23:19 04.01.2020
4912 Clear 28 1010 44 10000 5.1 100 22:39 04.01.2020
4913 Clear 28 1010 44 10000 5.1 100 22:21 04.01.2020
4914 Clear 28 1011 44 10000 4.6 100 21:57 04.01.2020
4915 Clear 28 1011 44 10000 4.6 100 21:38 04.01.2020
4916 Clear 29 1011 44 10000 4.6 100 21:19 04.01.2020
4917 Clear 28 1012 47 10000 4.1 70 20:57 04.01.2020
4918 Clear 28 1012 47 10000 4.1 70 20:38 04.01.2020
4919 Clear 28 1012 47 10000 4.1 70 20:19 04.01.2020
4920 Clear 28 1013 57 10000 4.1 60 19:42 04.01.2020
4921 Clouds 28 1013 45 10000 5.1 70 19:24 04.01.2020
4922 Clear 29 1014 57 10000 2.6 50 18:58 04.01.2020
4923 Clear 29 1014 57 10000 2.6 50 18:39 04.01.2020
4924 Clear 29 1014 57 10000 2.6 50 18:21 04.01.2020
4925 Clouds 28 1014 61 10000 3.1 30 17:58 04.01.2020
4926 Clouds 28 1014 61 10000 3.1 30 17:40 04.01.2020
4927 Clouds 28 1014 61 10000 3.1 30 17:22 04.01.2020
4928 Clouds 27 1015 57 10000 3.6 30 16:42 04.01.2020
4929 Clouds 27 1015 57 10000 3.6 30 16:24 04.01.2020
4930 Clear 27 1016 61 10000 3.1 30 15:59 04.01.2020
4931 Clear 27 1016 61 10000 3.1 30 15:59 04.01.2020
4932 Clear 27 1016 61 10000 3.1 30 15:41 04.01.2020
4933 Clear 27 1016 61 10000 3.1 30 15:19 04.01.2020
4934 Clear 26 1016 64 10000 4.1 20 14:58 04.01.2020
4935 Clear 26 1016 64 10000 4.1 20 14:58 04.01.2020
4936 Clear 26 1016 64 10000 4.1 20 14:40 04.01.2020
4937 Clear 25 1016 64 10000 4.1 20 14:19 04.01.2020
4938 Clear 25 1016 69 10000 4.1 360 13:56 04.01.2020
4939 Clear 24 1016 69 10000 4.1 360 13:37 04.01.2020
4940 Clear 23 1016 69 10000 4.1 360 13:18 04.01.2020
4941 Clear 22 1017 73 10000 4.6 360 12:42 04.01.2020
4942 Clear 22 1017 73 10000 4.6 360 12:20 04.01.2020
4943 Clear 22 1017 73 10000 4.6 360 12:20 04.01.2020
4944 Clear 22 1016 73 10000 4.1 10 11:59 04.01.2020
4945 Clear 22 1016 73 10000 4.1 10 11:40 04.01.2020
4946 Clear 21 1016 73 10000 4.1 10 11:19 04.01.2020
4947 Clear 21 1016 68 10000 3.1 10 10:55 04.01.2020
4948 Clear 21 1016 68 10000 3.1 10 10:55 04.01.2020
4949 Clear 20 1016 68 10000 3.1 10 10:36 04.01.2020
4950 Clear 20 1016 68 10000 3.1 10 10:18 04.01.2020
4951 Clear 20 1016 68 10000 5.1 360 09:41 04.01.2020
4952 Clear 20 1016 68 10000 5.1 360 09:22 04.01.2020
4953 Clear 21 1016 73 10000 5.7 10 08:42 04.01.2020
4954 Clear 21 1016 73 10000 5.7 10 08:21 04.01.2020
4955 Clear 21 1016 69 10000 5.7 20 07:44 04.01.2020
4956 Clear 22 1016 69 10000 5.7 20 07:20 04.01.2020
4957 Clear 21 1016 69 10000 6.2 40 06:33 04.01.2020
4958 Clouds 22 1016 78 10000 3.6 50 05:22 04.01.2020
4959 Clouds 22 1016 78 10000 5.7 110 04:42 04.01.2020
4960 Clouds 22 1016 78 10000 5.7 110 04:24 04.01.2020
4961 Clear 23 1017 73 10000 6.7 120 03:18 04.01.2020
4962 Clear 23 1017 78 10000 6.2 120 02:22 04.01.2020
4963 Clear 23 1017 73 10000 7.7 120 01:55 04.01.2020
4964 Clear 23 1017 73 10000 7.7 120 01:32 04.01.2020
4965 Clear 24 1017 69 10000 8.2 130 00:46 04.01.2020
4966 Clear 24 1017 69 10000 8.2 130 00:26 04.01.2020
4967 Clear 25 1017 69 10000 7.2 120 23:48 03.01.2020
4968 Clear 26 1017 69 10000 7.2 120 23:25 03.01.2020
4969 Clear 27 1017 73 10000 7.7 110 22:54 03.01.2020
4970 Clear 27 1017 73 10000 7.7 110 22:36 03.01.2020
4971 Clear 27 1017 73 10000 7.7 110 22:18 03.01.2020
4972 Clouds 28 1018 65 10000 6.7 100 21:54 03.01.2020
4973 Clouds 27 1018 65 10000 6.7 100 21:36 03.01.2020
4974 Clouds 28 1018 65 10000 6.7 100 21:18 03.01.2020
4975 Clouds 28 1018 57 10000 6.2 100 20:41 03.01.2020
4976 Clouds 28 1018 57 10000 6.2 100 20:41 03.01.2020
4977 Clouds 28 1018 57 10000 6.2 100 20:19 03.01.2020
4978 Clouds 28 1019 61 10000 6.7 100 19:57 03.01.2020
4979 Clouds 28 1019 61 10000 6.7 100 19:38 03.01.2020
4980 Clouds 28 1019 61 10000 6.7 100 19:20 03.01.2020
4981 Clouds 28 1020 61 10000 6.2 100 18:44 03.01.2020
4982 Clouds 27 1020 61 10000 6.2 100 18:25 03.01.2020
4983 Clouds 27 1020 69 10000 6.2 100 17:56 03.01.2020
4984 Clouds 27 1020 69 10000 6.2 100 17:37 03.01.2020
4985 Clouds 27 1020 69 10000 6.2 100 17:37 03.01.2020
4986 Clouds 27 1020 69 10000 6.2 100 17:19 03.01.2020
4987 Clouds 26 1021 73 10000 5.1 110 16:42 03.01.2020
4988 Clouds 26 1021 73 10000 5.1 110 16:23 03.01.2020
4989 Clouds 26 1022 69 10000 4.6 80 15:57 03.01.2020
4990 Clouds 26 1022 69 10000 4.6 80 15:38 03.01.2020
4991 Clouds 26 1022 69 10000 4.6 80 15:18 03.01.2020
4992 Clouds 25 1022 69 10000 5.1 70 14:38 03.01.2020
4993 Clouds 25 1022 69 10000 5.1 70 14:19 03.01.2020
4994 Clouds 24 1022 73 10000 5.7 70 13:44 03.01.2020
4995 Clouds 24 1022 73 10000 5.7 70 13:24 03.01.2020
4996 Clouds 23 1022 78 10000 5.7 80 12:59 03.01.2020
4997 Clouds 23 1022 78 10000 5.7 80 12:39 03.01.2020
4998 Clouds 23 1022 78 10000 5.7 80 12:21 03.01.2020
4999 Clouds 22 1021 78 10000 5.7 80 11:44 03.01.2020
5000 Clouds 21 1021 78 10000 5.7 80 11:21 03.01.2020
5001 Clouds 21 1021 83 10000 5.7 80 10:44 03.01.2020
5002 Clouds 20 1021 83 10000 5.7 80 10:26 03.01.2020
5003 Clouds 20 1020 77 10000 5.7 80 09:58 03.01.2020
5004 Clouds 20 1020 77 10000 5.7 80 09:39 03.01.2020
5005 Clouds 20 1020 77 10000 5.7 80 09:21 03.01.2020
5006 Clouds 20 1020 77 10000 6.7 70 08:56 03.01.2020
5007 Clouds 20 1020 77 10000 6.7 70 08:37 03.01.2020
5008 Clouds 20 1020 77 10000 6.7 70 08:19 03.01.2020
5009 Clouds 20 1020 73 10000 5.7 70 07:39 03.01.2020
5010 Clouds 20 1020 73 10000 5.7 70 07:18 03.01.2020
5011 Clouds 21 1020 78 10000 6.2 90 06:47 03.01.2020
5012 Clouds 21 1020 78 10000 6.2 90 06:29 03.01.2020
5013 Clouds 21 1020 78 10000 8.7 100 05:30 03.01.2020
5014 Clouds 21 1019 78 10000 8.7 110 04:18 03.01.2020
5015 Clouds 21 1019 83 10000 8.7 120 02:56 03.01.2020
5016 Clouds 22 1019 83 10000 8.7 120 02:26 03.01.2020
5017 Clouds 22 1018 78 10000 8.7 120 01:38 03.01.2020
5018 Clouds 23 1018 78 10000 8.7 130 00:49 03.01.2020
5019 Clouds 23 1018 78 10000 8.7 130 00:29 03.01.2020
5020 Clouds 23 1018 73 10000 9.3 120 23:55 02.01.2020
5021 Clouds 24 1018 73 10000 9.3 120 23:37 02.01.2020
5022 Clouds 25 1018 73 10000 9.3 120 23:18 02.01.2020
5023 Clear 25 1018 69 10000 8.7 110 22:44 02.01.2020
5024 Clear 26 1018 69 10000 8.7 110 22:20 02.01.2020
5025 Clear 26 1018 64 10000 8.7 110 21:57 02.01.2020
5026 Clear 26 1018 64 10000 8.7 110 21:57 02.01.2020
5027 Clear 26 1018 64 10000 8.7 110 21:57 02.01.2020
5028 Clear 26 1018 64 10000 8.7 110 21:38 02.01.2020
5029 Clear 26 1018 64 10000 8.7 110 21:20 02.01.2020
5030 Clouds 26 1018 61 10000 8.7 110 20:56 02.01.2020
5031 Clouds 26 1018 61 10000 8.7 110 20:38 02.01.2020
5032 Clouds 26 1018 61 10000 8.7 110 20:20 02.01.2020
5033 Clouds 27 1018 65 10000 8.7 110 19:54 02.01.2020
5034 Clouds 26 1018 65 10000 8.7 110 19:36 02.01.2020
5035 Clouds 27 1018 65 10000 8.7 110 19:18 02.01.2020
5036 Clouds 27 1018 65 10000 8.7 110 19:18 02.01.2020
5037 Clouds 26 1018 65 10000 8.2 110 18:43 02.01.2020
5038 Clouds 26 1018 65 10000 8.2 110 18:25 02.01.2020
5039 Clouds 26 1019 65 10000 7.7 110 17:59 02.01.2020
5040 Clouds 26 1019 65 10000 7.7 110 17:39 02.01.2020
5041 Clouds 26 1019 65 10000 7.7 110 17:21 02.01.2020
5042 Clouds 26 1019 69 10000 7.7 110 16:59 02.01.2020
5043 Clouds 25 1019 69 10000 7.7 110 16:41 02.01.2020
5044 Clouds 25 1019 69 10000 7.7 110 16:20 02.01.2020
5045 Clouds 25 1019 65 10000 7.7 110 15:58 02.01.2020
5046 Clouds 25 1019 65 10000 7.7 110 15:40 02.01.2020
5047 Clouds 25 1019 65 10000 7.7 110 15:22 02.01.2020
5048 Clouds 24 1018 69 10000 7.7 110 14:57 02.01.2020
5049 Clouds 23 1018 69 10000 7.7 110 14:36 02.01.2020
5050 Clouds 24 1018 69 10000 7.7 110 14:36 02.01.2020
5051 Clouds 22 1018 83 10000 3.1 70 14:18 02.01.2020
5052 Clouds 22 1018 83 10000 3.1 70 13:49 02.01.2020
5053 Rain 22 1018 83 10000 3.1 70 13:31 02.01.2020
5054 Rain 22 1018 88 3000 4.6 110 12:46 02.01.2020
5055 Drizzle 21 1018 88 2000 2.1 160 12:26 02.01.2020
5056 Drizzle 20 1018 88 2000 2.1 160 11:59 02.01.2020
5057 Rain 20 1017 82 3000 2.6 150 11:40 02.01.2020
5058 Rain 20 1017 82 3000 2.6 150 11:20 02.01.2020
5059 Clouds 19 1017 88 10000 3.1 170 10:44 02.01.2020
5060 Clouds 19 1017 88 10000 3.1 170 10:44 02.01.2020
5061 Clouds 19 1017 88 10000 3.1 170 10:25 02.01.2020
5062 Clouds 19 1016 88 10000 2.6 190 09:48 02.01.2020
5063 Clouds 19 1016 88 10000 2.6 190 09:29 02.01.2020
5064 Clouds 18 1016 93 10000 3.6 150 08:47 02.01.2020
5065 Clouds 19 1016 88 10000 2.6 170 08:27 02.01.2020
5066 Clouds 18 1016 88 10000 2.6 160 07:53 02.01.2020
5067 Clouds 18 1016 88 10000 2.6 160 07:30 02.01.2020
5068 Clouds 18 1016 82 10000 3.1 160 06:45 02.01.2020
5069 Clouds 19 1016 82 10000 3.1 160 06:27 02.01.2020
5070 Clouds 19 1016 77 10000 3.1 150 05:21 02.01.2020
5071 Clouds 20 1016 73 10000 4.6 140 04:31 02.01.2020
5072 Clouds 21 1016 73 10000 6.2 140 02:37 02.01.2020
5073 Clouds 22 1015 68 10000 5.1 140 01:59 02.01.2020
5074 Clouds 22 1015 68 10000 5.1 140 01:33 02.01.2020
5075 Clouds 23 1015 64 10000 8.7 130 00:57 02.01.2020
5076 Clouds 23 1015 64 10000 8.7 130 00:33 02.01.2020
5077 Clouds 24 1014 73 10000 8.2 110 23:49 01.01.2020
5078 Clouds 24 1014 73 10000 8.2 110 23:27 01.01.2020
5079 Clouds 25 1013 69 10000 7.7 110 22:56 01.01.2020
5080 Clouds 25 1013 69 10000 7.7 110 22:38 01.01.2020
5081 Clouds 25 1013 69 10000 7.7 110 22:19 01.01.2020
5082 Clouds 25 1013 73 10000 6.7 110 21:55 01.01.2020
5083 Clouds 25 1013 73 10000 6.7 110 21:37 01.01.2020
5084 Clouds 26 1013 73 10000 6.7 110 21:18 01.01.2020
5085 Clouds 26 1013 69 10000 7.2 100 20:42 01.01.2020
5086 Clouds 26 1013 69 10000 7.2 100 20:22 01.01.2020
5087 Clouds 26 1014 73 10000 6.7 110 19:58 01.01.2020
5088 Clouds 26 1014 73 10000 6.7 110 19:39 01.01.2020
5089 Clouds 26 1014 73 10000 6.7 110 19:21 01.01.2020
5090 Clouds 26 1014 73 10000 7.2 110 18:59 01.01.2020
5091 Clouds 26 1014 73 10000 7.2 110 18:39 01.01.2020
5092 Clouds 26 1014 73 10000 7.2 110 18:20 01.01.2020
5093 Clouds 26 1014 61 10000 5.1 140 17:59 01.01.2020
5094 Clouds 26 1014 61 10000 5.1 140 17:40 01.01.2020
5095 Clouds 25 1014 61 10000 5.1 140 17:20 01.01.2020
5096 Clouds 25 1014 61 10000 4.1 160 16:59 01.01.2020
5097 Clouds 25 1014 61 10000 4.1 160 16:38 01.01.2020
5098 Clouds 25 1014 61 10000 4.1 160 16:20 01.01.2020
5099 Clouds 25 1014 60 10000 5.7 140 15:57 01.01.2020
5100 Clouds 25 1014 60 10000 5.7 140 15:57 01.01.2020
5101 Clouds 25 1014 60 10000 5.7 140 15:38 01.01.2020
5102 Clouds 24 1014 60 10000 5.7 140 15:20 01.01.2020
5103 Clouds 24 1014 69 10000 6.2 160 14:56 01.01.2020
5104 Clouds 24 1014 69 10000 6.2 160 14:37 01.01.2020
5105 Clouds 23 1014 69 10000 6.2 160 14:19 01.01.2020
5106 Clouds 23 1013 73 10000 5.1 160 13:55 01.01.2020
5107 Clouds 22 1013 73 10000 5.1 160 13:36 01.01.2020
5108 Clouds 22 1013 73 10000 5.1 160 13:18 01.01.2020
5109 Clouds 22 1013 77 10000 4.6 170 12:40 01.01.2020
5110 Clouds 21 1013 77 10000 4.6 170 12:19 01.01.2020
5111 Clouds 20 1012 88 10000 4.6 160 11:57 01.01.2020
5112 Clouds 20 1012 88 10000 4.6 160 11:38 01.01.2020
5113 Clouds 20 1012 88 10000 4.6 160 11:19 01.01.2020
5114 Clouds 20 1011 83 10000 3.6 160 10:55 01.01.2020
5115 Clouds 20 1011 83 10000 3.6 160 10:36 01.01.2020
5116 Clouds 20 1011 83 10000 3.6 160 10:18 01.01.2020
5117 Clouds 20 1011 83 10000 4.6 160 09:40 01.01.2020
5118 Clouds 20 1011 83 10000 4.6 160 09:20 01.01.2020
5119 Clouds 20 1011 100 10000 3.1 160 08:57 01.01.2020
5120 Clouds 20 1011 100 10000 3.1 160 08:57 01.01.2020
5121 Clouds 20 1011 88 10000 3.6 170 08:38 01.01.2020
5122 Clouds 20 1011 88 10000 3.6 170 08:19 01.01.2020
5123 Clouds 20 1011 78 10000 2.6 160 07:57 01.01.2020
5124 Clouds 20 1011 78 10000 2.6 160 07:38 01.01.2020
5125 Clouds 20 1011 78 10000 4.6 150 06:50 01.01.2020
5126 Clouds 20 1011 78 10000 4.6 150 06:32 01.01.2020
5127 Clouds 21 1011 78 10000 4.6 140 05:46 01.01.2020
5128 Clear 22 1010 78 10000 4.1 110 03:48 01.01.2020
5129 Clear 22 1010 78 10000 4.1 110 03:28 01.01.2020
5130 Clouds 23 1009 78 10000 5.7 120 02:59 01.01.2020
5131 Clouds 23 1009 78 10000 5.7 120 02:41 01.01.2020
5132 Clouds 24 1009 78 10000 5.7 120 02:21 01.01.2020
5133 Clouds 24 1008 73 10000 4.1 140 01:40 01.01.2020
5134 Clouds 25 1008 73 10000 4.1 140 01:21 01.01.2020
5135 Clouds 25 1007 69 10000 4.1 140 00:44 01.01.2020
5136 Clouds 26 1007 69 10000 4.1 140 00:26 01.01.2020
5137 Clouds 26 1007 61 10000 4.1 170 23:43 31.12.2019
5138 Clouds 28 1007 61 10000 4.1 170 23:24 31.12.2019
5139 Clouds 28 1007 61 10000 4.1 170 22:59 31.12.2019
5140 Clouds 28 1007 61 10000 4.1 170 22:39 31.12.2019
5141 Clouds 28 1007 61 10000 4.1 170 22:20 31.12.2019
5142 Clouds 28 1007 61 10000 3.6 190 21:59 31.12.2019
5143 Clouds 28 1007 61 10000 3.6 190 21:41 31.12.2019
5144 Clouds 28 1007 61 10000 3.6 190 21:23 31.12.2019
5145 Clouds 28 1007 65 10000 3.6 190 20:57 31.12.2019
5146 Clouds 28 1007 65 10000 3.6 190 20:37 31.12.2019
5147 Clouds 28 1007 65 10000 3.6 190 20:19 31.12.2019
5148 Clouds 27 1007 69 10000 3.6 200 19:55 31.12.2019
5149 Clouds 27 1007 69 10000 3.6 200 19:37 31.12.2019
5150 Clouds 27 1007 69 10000 3.6 200 19:18 31.12.2019
5151 Clouds 27 1007 69 10000 3.6 200 18:54 31.12.2019
5152 Clouds 27 1007 69 10000 3.6 200 18:54 31.12.2019
5153 Clouds 27 1007 69 10000 3.6 200 18:36 31.12.2019
5154 Clouds 27 1007 69 10000 3.6 200 18:18 31.12.2019
5155 Clouds 26 1008 73 10000 4.6 210 17:55 31.12.2019
5156 Clouds 26 1008 73 10000 4.6 210 17:36 31.12.2019
5157 Clouds 26 1008 73 10000 4.6 210 17:36 31.12.2019
5158 Clouds 25 1008 73 10000 4.6 210 17:18 31.12.2019
5159 Clouds 25 1007 73 10000 3.6 210 16:55 31.12.2019
5160 Clouds 25 1007 73 10000 3.6 210 16:36 31.12.2019
5161 Clouds 25 1007 73 10000 3.6 210 16:18 31.12.2019
5162 Clouds 25 1007 78 10000 3.6 220 15:55 31.12.2019
5163 Clouds 25 1007 78 10000 3.6 220 15:37 31.12.2019
5164 Clouds 24 1007 78 10000 3.6 220 15:18 31.12.2019
5165 Clouds 24 1007 78 10000 3.6 220 15:18 31.12.2019
5166 Clouds 24 1007 83 10000 3.6 210 14:55 31.12.2019
5167 Clouds 24 1007 83 10000 3.6 210 14:36 31.12.2019
5168 Clouds 24 1007 83 10000 3.6 210 14:18 31.12.2019
5169 Clouds 23 1007 88 10000 3.6 200 13:54 31.12.2019
5170 Clouds 23 1007 88 10000 3.6 200 13:36 31.12.2019
5171 Clouds 22 1007 88 10000 3.6 200 13:18 31.12.2019
5172 Clouds 22 1007 88 10000 5.1 190 12:40 31.12.2019
5173 Clouds 22 1007 88 10000 5.1 190 12:21 31.12.2019
5174 Clouds 22 1007 88 10000 5.1 190 12:21 31.12.2019
5175 Clouds 22 1006 94 10000 2.1 180 11:57 31.12.2019
5176 Clouds 21 1006 94 10000 2.1 180 11:39 31.12.2019
5177 Clouds 21 1006 94 10000 2.1 180 11:20 31.12.2019
5178 Clouds 22 1005 94 10000 1 180 10:58 31.12.2019
5179 Drizzle 21 1005 94 1000 2.1 190 10:38 31.12.2019
5180 Drizzle 21 1005 94 1000 2.1 190 10:20 31.12.2019
5181 Drizzle 21 1005 94 3000 1.5 220 09:59 31.12.2019
5182 Drizzle 21 1005 94 3000 1.5 220 09:39 31.12.2019
5183 Drizzle 21 1005 94 3000 1.5 220 09:39 31.12.2019
5184 Drizzle 21 1005 94 3000 1.5 220 09:39 31.12.2019
5185 Drizzle 22 1005 94 5000 1.5 260 09:21 31.12.2019
5186 Rain 22 1005 100 10000 2.1 230 08:57 31.12.2019
5187 Drizzle 22 1005 94 5000 1.5 270 08:39 31.12.2019
5188 Clouds 22 1005 94 10000 1.5 280 08:19 31.12.2019
5189 Drizzle 22 1005 100 5000 1.5 0 07:43 31.12.2019
5190 Clouds 22 1006 94 10000 1.5 300 07:21 31.12.2019
5191 Clouds 22 1006 94 10000 3.1 310 06:50 31.12.2019
5192 Drizzle 23 1006 88 4500 4.1 350 05:57 31.12.2019
5193 Clouds 23 1007 94 10000 3.1 40 04:29 31.12.2019
5194 Rain 23 1007 94 10000 2.6 50 03:38 31.12.2019
5195 Rain 23 1007 88 10000 5.7 70 02:55 31.12.2019
5196 Drizzle 23 1007 88 9000 3.6 50 02:18 31.12.2019
5197 Clouds 23 1005 94 10000 8.7 100 01:42 31.12.2019
5198 Clouds 23 1005 94 10000 8.7 100 01:23 31.12.2019
5199 Rain 23 1005 94 7000 5.7 80 00:46 31.12.2019
5200 Rain 23 1006 88 8000 10.3 100 00:22 31.12.2019
5201 Rain 23 1007 94 1000 5.1 70 23:56 30.12.2019
5202 Rain 23 1007 94 1000 5.1 70 23:38 30.12.2019
5203 Rain 23 1007 94 5000 10.8 100 23:20 30.12.2019
5204 Rain 23 1007 94 2500 7.7 110 22:57 30.12.2019
5205 Rain 23 1007 94 2500 7.7 110 22:38 30.12.2019
5206 Rain 23 1007 94 3000 7.2 110 22:19 30.12.2019
5207 Rain 23 1007 94 2500 6.7 130 21:56 30.12.2019
5208 Rain 23 1007 88 3000 5.1 140 21:38 30.12.2019
5209 Rain 23 1007 88 3000 5.1 140 21:18 30.12.2019
5210 Rain 23 1007 88 3500 5.7 130 20:56 30.12.2019
5211 Rain 23 1007 88 3500 5.7 130 20:56 30.12.2019
5212 Rain 23 1007 88 3500 5.7 130 20:38 30.12.2019
5213 Rain 23 1008 94 6000 6.7 120 20:19 30.12.2019
5214 Rain 23 1008 100 5000 3.6 120 19:56 30.12.2019
5215 Rain 23 1010 88 6000 1.5 160 19:37 30.12.2019
5216 Rain 23 1010 88 6000 1.5 160 19:18 30.12.2019
5217 Rain 23 1009 88 5000 2.6 160 18:56 30.12.2019
5218 Rain 23 1009 94 9000 2.6 190 18:36 30.12.2019
5219 Rain 23 1009 88 5000 2.6 160 18:36 30.12.2019
5220 Rain 23 1009 94 9000 2.6 190 18:18 30.12.2019
5221 Rain 23 1010 100 5000 2.6 180 17:54 30.12.2019
5222 Rain 23 1010 94 7000 2.1 200 17:36 30.12.2019
5223 Rain 23 1010 94 7000 2.1 200 17:36 30.12.2019
5224 Rain 22 1010 94 7000 2.1 200 17:18 30.12.2019
5225 Thunderstorm 22 1011 94 7000 2.6 0 16:41 30.12.2019
5226 Thunderstorm 22 1011 100 400 2.6 280 16:20 30.12.2019
5227 Thunderstorm 22 1012 94 400 4.1 270 15:57 30.12.2019
5228 Thunderstorm 22 1012 94 400 4.1 270 15:39 30.12.2019
5229 Clouds 22 1010 83 10000 3.1 190 15:19 30.12.2019
5230 Clouds 22 1010 83 10000 3.1 190 15:19 30.12.2019
5231 Thunderstorm 23 1010 88 10000 5.1 180 14:55 30.12.2019
5232 Rain 23 1011 83 10000 2.6 130 14:37 30.12.2019
5233 Thunderstorm 23 1010 88 10000 5.1 180 14:37 30.12.2019
5234 Rain 23 1011 83 10000 2.6 130 14:18 30.12.2019
5235 Clouds 24 1010 83 10000 7.2 180 13:42 30.12.2019
5236 Rain 24 1010 88 10000 7.2 110 13:24 30.12.2019
5237 Rain 25 1010 83 10000 6.7 110 12:58 30.12.2019
5238 Rain 25 1010 83 10000 6.7 110 12:40 30.12.2019
5239 Rain 25 1010 83 10000 6.7 110 12:19 30.12.2019
5240 Rain 24 1010 83 10000 5.7 130 11:56 30.12.2019
5241 Rain 24 1010 83 10000 5.7 130 11:37 30.12.2019
5242 Rain 24 1010 83 10000 5.7 130 11:18 30.12.2019
5243 Rain 24 1010 83 10000 5.7 130 10:42 30.12.2019
5244 Rain 24 1010 83 10000 5.7 130 10:42 30.12.2019
5245 Rain 24 1010 83 10000 5.7 130 10:20 30.12.2019
5246 Rain 24 1010 73 10000 3.1 130 09:44 30.12.2019
5247 Rain 24 1010 73 10000 3.1 130 09:21 30.12.2019
5248 Rain 24 1010 65 10000 2.1 160 08:57 30.12.2019
5249 Rain 24 1010 65 10000 2.1 160 08:39 30.12.2019
5250 Rain 24 1010 65 10000 2.1 160 08:20 30.12.2019
5251 Rain 24 1010 65 10000 3.1 150 07:48 30.12.2019
5252 Rain 24 1010 65 10000 3.1 150 07:23 30.12.2019
5253 Clouds 24 1011 74 10000 2.1 0 06:32 30.12.2019
5254 Rain 25 1011 78 10000 5.7 100 04:31 30.12.2019
5255 Rain 25 1012 74 10000 1.5 60 03:47 30.12.2019
5256 Rain 24 1012 74 10000 2.1 220 02:45 30.12.2019
5257 Rain 24 1012 74 10000 2.1 220 02:25 30.12.2019
5258 Rain 24 1012 78 10000 3.6 220 01:27 30.12.2019
5259 Thunderstorm 24 1013 94 9000 5.7 230 00:56 30.12.2019
5260 Thunderstorm 24 1013 94 9000 5.7 230 00:36 30.12.2019
5261 Thunderstorm 26 1012 69 9000 6.2 280 23:42 29.12.2019
5262 Rain 27 1011 78 10000 4.6 110 23:24 29.12.2019
5263 Clouds 29 1010 74 10000 6.7 110 22:58 29.12.2019
5264 Clouds 30 1010 74 10000 6.7 110 22:38 29.12.2019
5265 Clouds 30 1010 74 10000 6.7 110 22:38 29.12.2019
5266 Clouds 30 1010 74 10000 6.7 110 22:20 29.12.2019
5267 Clouds 32 1010 66 10000 6.2 100 21:55 29.12.2019
5268 Clouds 32 1010 66 10000 6.2 100 21:55 29.12.2019
5269 Clouds 32 1010 66 10000 6.2 100 21:37 29.12.2019
5270 Clouds 33 1010 66 10000 6.2 100 21:18 29.12.2019
5271 Clouds 34 1010 58 10000 5.1 100 20:55 29.12.2019
5272 Clouds 34 1010 58 10000 5.1 100 20:55 29.12.2019
5273 Clouds 34 1010 58 10000 5.1 100 20:37 29.12.2019
5274 Clouds 34 1010 58 10000 5.1 100 20:37 29.12.2019
5275 Clouds 34 1010 58 10000 5.1 100 20:18 29.12.2019
5276 Clouds 34 1011 55 10000 5.7 100 19:55 29.12.2019
5277 Clouds 34 1011 55 10000 5.7 100 19:37 29.12.2019
5278 Clouds 34 1011 55 10000 5.7 100 19:18 29.12.2019
5279 Clouds 34 1012 56 10000 3.1 90 18:41 29.12.2019
5280 Clouds 34 1012 56 10000 3.1 90 18:21 29.12.2019
5281 Rain 34 1012 55 10000 4.1 70 17:59 29.12.2019
5282 Rain 34 1012 55 10000 4.1 70 17:40 29.12.2019
5283 Rain 34 1012 55 10000 4.1 70 17:20 29.12.2019
5284 Rain 33 1013 59 10000 4.1 70 16:58 29.12.2019
5285 Rain 33 1013 59 10000 4.1 70 16:40 29.12.2019
5286 Rain 33 1013 59 10000 4.1 70 16:40 29.12.2019
5287 Rain 33 1013 59 10000 4.1 70 16:21 29.12.2019
5288 Rain 32 1013 66 10000 4.1 70 15:59 29.12.2019
5289 Rain 32 1013 69 10000 4.1 100 15:40 29.12.2019
5290 Rain 31 1013 69 10000 4.1 100 15:20 29.12.2019
5291 Rain 31 1013 69 10000 4.6 100 14:58 29.12.2019
5292 Rain 31 1013 69 10000 4.6 100 14:39 29.12.2019
5293 Rain 30 1013 69 10000 4.6 100 14:18 29.12.2019
5294 Haze 29 1013 74 5000 2.1 90 13:58 29.12.2019
5295 Haze 29 1013 74 5000 2.1 90 13:39 29.12.2019
5296 Haze 28 1013 74 5000 2.1 90 13:21 29.12.2019
5297 Rain 27 1013 74 8000 1.5 140 12:56 29.12.2019
5298 Rain 27 1013 74 8000 1.5 140 12:38 29.12.2019
5299 Rain 26 1013 74 8000 1.5 140 12:19 29.12.2019
5300 Rain 25 1012 74 9000 1 0 11:40 29.12.2019
5301 Rain 24 1012 74 9000 1 0 11:20 29.12.2019
5302 Rain 23 1011 78 10000 1 0 10:55 29.12.2019
5303 Rain 23 1011 78 10000 1 0 10:37 29.12.2019
5304 Rain 22 1011 78 10000 1 0 10:18 29.12.2019
5305 Rain 22 1011 83 10000 1.5 230 09:43 29.12.2019
5306 Rain 22 1011 83 10000 1.5 230 09:25 29.12.2019
5307 Rain 22 1011 83 10000 1 220 08:50 29.12.2019
5308 Rain 23 1011 83 10000 1 220 08:29 29.12.2019
5309 Rain 23 1011 88 10000 2.34 30 07:59 29.12.2019
5310 Rain 23 1011 88 10000 2.34 30 07:32 29.12.2019
5311 Rain 23 1011 88 10000 2.34 30 06:57 29.12.2019
5312 Rain 23 1011 88 10000 2.34 30 06:27 29.12.2019
5313 Rain 24 1012 83 10000 1 230 05:54 29.12.2019
5314 Rain 24 1012 83 10000 1 140 04:42 29.12.2019
5315 Rain 24 1012 83 10000 1 140 04:21 29.12.2019
5316 Rain 25 1013 83 10000 2.1 130 03:21 29.12.2019
5317 Clouds 26 1012 88 10000 4.1 100 02:22 29.12.2019
5318 Clouds 26 1012 88 10000 4.1 100 02:22 29.12.2019
5319 Clouds 26 1011 78 10000 3.6 110 01:42 29.12.2019
5320 Rain 26 1011 78 10000 3.6 110 01:22 29.12.2019
5321 Rain 28 1011 83 10000 2.6 80 00:42 29.12.2019
5322 Rain 28 1011 83 10000 2.6 80 00:24 29.12.2019
5323 Rain 30 1010 69 10000 1.5 60 23:45 28.12.2019
5324 Clouds 30 1010 69 10000 1.5 60 23:18 28.12.2019
5325 Clouds 31 1009 69 10000 1.5 30 22:40 28.12.2019
5326 Clouds 31 1009 69 10000 1.5 30 22:21 28.12.2019
5327 Clouds 30 1010 62 10000 1.5 190 21:58 28.12.2019
5328 Clouds 31 1010 62 10000 1.5 190 21:40 28.12.2019
5329 Clouds 30 1010 62 10000 1.5 190 21:21 28.12.2019
5330 Clouds 30 1010 74 10000 2.6 80 20:58 28.12.2019
5331 Clouds 30 1010 74 10000 2.6 80 20:38 28.12.2019
5332 Clouds 29 1010 74 10000 2.6 80 20:20 28.12.2019
5333 Clouds 29 1009 70 10000 3.6 360 19:58 28.12.2019
5334 Clouds 29 1010 74 10000 2.6 50 19:39 28.12.2019
5335 Clouds 29 1010 74 10000 2.6 50 19:20 28.12.2019
5336 Clouds 29 1010 74 10000 5.1 20 18:57 28.12.2019
5337 Clouds 28 1011 78 10000 3.6 20 18:39 28.12.2019
5338 Clouds 28 1011 78 10000 3.6 20 18:18 28.12.2019
5339 Clouds 27 1012 78 10000 3.6 50 17:54 28.12.2019
5340 Clouds 28 1012 78 10000 3.6 50 17:36 28.12.2019
5341 Clouds 28 1012 78 10000 3.6 50 17:18 28.12.2019
5342 Clouds 28 1013 78 10000 3.6 70 16:45 28.12.2019
5343 Clouds 28 1013 78 10000 3.6 70 16:24 28.12.2019
5344 Clouds 28 1013 74 10000 3.6 150 15:44 28.12.2019
5345 Clouds 27 1013 74 10000 3.6 150 15:24 28.12.2019
5346 Rain 26 1013 78 10000 2.6 170 14:57 28.12.2019
5347 Rain 25 1013 78 10000 2.6 170 14:38 28.12.2019
5348 Rain 24 1013 83 5000 4.6 200 14:20 28.12.2019
5349 Rain 24 1013 83 10000 4.1 210 13:43 28.12.2019
5350 Thunderstorm 23 1013 83 5000 5.1 220 13:21 28.12.2019
5351 Rain 25 1012 74 10000 7.7 230 12:59 28.12.2019
5352 Clouds 25 1012 74 10000 7.7 230 12:40 28.12.2019
5353 Rain 26 1010 74 10000 4.1 310 12:21 28.12.2019
5354 Rain 27 1008 78 10000 3.1 320 11:40 28.12.2019
5355 Rain 27 1008 78 10000 3.1 320 11:22 28.12.2019
5356 Rain 27 1007 83 10000 3.1 350 10:59 28.12.2019
5357 Rain 27 1007 83 10000 3.1 350 10:41 28.12.2019
5358 Rain 27 1007 83 10000 3.1 350 10:20 28.12.2019
5359 Rain 27 1008 88 10000 1.5 70 09:55 28.12.2019
5360 Rain 26 1008 88 10000 1.5 70 09:36 28.12.2019
5361 Rain 26 1008 88 10000 1.5 70 09:36 28.12.2019
5362 Rain 26 1008 88 10000 1.5 70 09:18 28.12.2019
5363 Rain 26 1008 83 10000 2.1 70 08:42 28.12.2019
5364 Rain 26 1008 83 10000 2.1 70 08:23 28.12.2019
5365 Rain 26 1008 83 10000 1.5 80 07:47 28.12.2019
5366 Rain 26 1008 83 10000 1.5 80 07:22 28.12.2019
5367 Rain 26 1010 83 10000 2.1 80 05:46 28.12.2019
5368 Clouds 26 1011 78 10000 4.6 100 03:48 28.12.2019
5369 Clouds 26 1011 83 10000 5.1 110 02:51 28.12.2019
5370 Rain 26 1011 83 10000 5.1 110 02:20 28.12.2019
5371 Rain 26 1010 83 10000 7.2 110 01:55 28.12.2019
5372 Rain 27 1010 83 10000 7.2 110 01:23 28.12.2019
5373 Rain 27 1010 83 10000 6.2 120 00:45 28.12.2019
5374 Rain 28 1010 83 10000 6.2 120 00:27 28.12.2019
5375 Rain 28 1010 78 10000 6.2 110 23:57 27.12.2019
5376 Rain 29 1010 78 10000 6.2 110 23:37 27.12.2019
5377 Rain 30 1010 78 10000 6.2 110 23:18 27.12.2019
5378 Rain 31 1010 83 10000 5.7 100 22:55 27.12.2019
5379 Rain 31 1010 83 10000 5.7 100 22:37 27.12.2019
5380 Rain 31 1010 83 10000 5.7 100 22:19 27.12.2019
5381 Clouds 33 1010 66 10000 5.7 70 21:41 27.12.2019
5382 Clouds 34 1010 66 10000 5.7 70 21:23 27.12.2019
5383 Clouds 34 1010 59 10000 3.6 70 20:44 27.12.2019
5384 Clouds 33 1011 70 10000 4.6 80 20:26 27.12.2019
5385 Clouds 33 1011 66 10000 2.1 70 19:58 27.12.2019
5386 Clouds 33 1011 66 10000 2.1 70 19:58 27.12.2019
5387 Clouds 33 1011 66 10000 2.1 70 19:40 27.12.2019
5388 Clouds 33 1011 66 10000 2.1 70 19:19 27.12.2019
5389 Clouds 33 1012 74 10000 2.1 60 18:55 27.12.2019
5390 Clouds 32 1012 74 10000 2.1 60 18:36 27.12.2019
5391 Clouds 32 1012 74 10000 2.1 60 18:18 27.12.2019
5392 Clouds 31 1013 74 10000 2.6 80 17:55 27.12.2019
5393 Clouds 31 1013 74 10000 2.6 80 17:36 27.12.2019
5394 Clouds 31 1013 74 10000 2.6 80 17:18 27.12.2019
5395 Clouds 30 1013 78 10000 2.6 70 16:41 27.12.2019
5396 Clouds 30 1013 78 10000 2.6 70 16:22 27.12.2019
5397 Clouds 29 1013 74 10000 3.1 50 15:57 27.12.2019
5398 Clouds 29 1013 74 10000 3.1 50 15:37 27.12.2019
5399 Clouds 29 1013 74 10000 3.1 50 15:37 27.12.2019
5400 Clouds 29 1013 74 10000 3.1 50 15:18 27.12.2019
5401 Rain 27 1014 74 10000 3.6 100 14:55 27.12.2019
5402 Rain 27 1014 74 10000 3.6 100 14:37 27.12.2019
5403 Rain 26 1014 74 10000 3.6 100 14:19 27.12.2019
5404 Clouds 25 1014 78 10000 3.1 90 13:44 27.12.2019
5405 Clouds 25 1014 78 10000 3.1 90 13:22 27.12.2019
5406 Clouds 24 1014 83 10000 3.1 90 12:48 27.12.2019
5407 Clouds 23 1014 83 10000 3.1 90 12:29 27.12.2019
5408 Clouds 23 1013 83 10000 1.5 50 11:56 27.12.2019
5409 Clouds 23 1013 83 10000 1.5 50 11:38 27.12.2019
5410 Rain 22 1013 94 10000 1 20 11:19 27.12.2019
5411 Clouds 22 1013 88 10000 1.5 20 10:45 27.12.2019
5412 Clouds 22 1012 100 10000 2.1 50 10:23 27.12.2019
5413 Clouds 22 1013 100 10000 1.5 30 09:49 27.12.2019
5414 Clouds 22 1013 100 10000 1.5 30 09:22 27.12.2019
5415 Thunderstorm 22 1012 100 8000 1.5 0 08:59 27.12.2019
5416 Thunderstorm 22 1012 100 8000 1.5 0 08:40 27.12.2019
5417 Thunderstorm 22 1012 100 3000 2.1 30 08:18 27.12.2019
5418 Thunderstorm 22 1013 100 5000 2.1 210 07:38 27.12.2019
5419 Thunderstorm 22 1013 94 2500 1 0 06:43 27.12.2019
5420 Thunderstorm 22 1013 88 7000 2.1 120 06:22 27.12.2019
5421 Rain 22 1013 94 9000 5.7 70 04:32 27.12.2019
5422 Rain 21 1012 88 10000 4.6 90 02:27 27.12.2019
5423 Thunderstorm 21 1012 94 10000 4.1 150 01:42 27.12.2019
5424 Thunderstorm 21 1012 94 9000 8.7 130 01:20 27.12.2019
5425 Thunderstorm 21 1012 94 10000 5.7 120 00:46 27.12.2019
5426 Thunderstorm 21 1013 88 2000 5.1 150 00:25 27.12.2019
5427 Thunderstorm 21 1013 88 2000 5.1 150 00:25 27.12.2019
5428 Thunderstorm 21 1011 100 1500 5.1 80 23:44 26.12.2019
5429 Thunderstorm 22 1011 88 5000 9.8 110 23:24 26.12.2019
5430 Thunderstorm 22 1011 88 10000 10.3 120 22:58 26.12.2019
5431 Clouds 23 1012 83 10000 8.2 110 22:38 26.12.2019
5432 Clouds 24 1012 83 10000 8.2 110 22:18 26.12.2019
5433 Rain 25 1012 78 10000 7.7 110 21:39 26.12.2019
5434 Rain 25 1012 78 10000 7.7 110 21:21 26.12.2019
5435 Clouds 26 1013 73 10000 6.7 120 20:47 26.12.2019
5436 Clouds 26 1013 73 10000 6.7 120 20:24 26.12.2019
5437 Clouds 27 1013 69 10000 6.2 110 19:59 26.12.2019
5438 Clouds 27 1013 69 10000 6.2 110 19:40 26.12.2019
5439 Clouds 26 1013 69 10000 6.2 110 19:22 26.12.2019
5440 Clouds 26 1014 69 10000 5.7 110 18:59 26.12.2019
5441 Clouds 26 1014 69 10000 5.7 110 18:40 26.12.2019
5442 Clouds 26 1014 69 10000 5.7 110 18:20 26.12.2019
5443 Clouds 26 1014 64 10000 6.2 110 17:58 26.12.2019
5444 Clouds 26 1014 64 10000 6.2 110 17:40 26.12.2019
5445 Clouds 26 1014 64 10000 6.2 110 17:19 26.12.2019
5446 Clouds 26 1015 60 10000 6.2 100 16:46 26.12.2019
5447 Clouds 26 1015 60 10000 6.2 100 16:26 26.12.2019
5448 Clouds 25 1015 60 10000 6.2 110 15:56 26.12.2019
5449 Clouds 25 1015 60 10000 6.2 110 15:56 26.12.2019
5450 Clouds 25 1015 60 10000 6.2 110 15:38 26.12.2019
5451 Clouds 25 1015 60 10000 6.2 110 15:18 26.12.2019
5452 Clouds 24 1015 64 10000 6.7 110 14:41 26.12.2019
5453 Clouds 23 1015 64 10000 6.7 110 14:22 26.12.2019
5454 Clouds 22 1016 64 10000 6.7 100 13:45 26.12.2019
5455 Clouds 22 1016 64 10000 6.7 100 13:23 26.12.2019
5456 Clouds 21 1015 64 10000 7.7 110 12:58 26.12.2019
5457 Clouds 20 1015 64 10000 7.7 110 12:39 26.12.2019
5458 Clouds 20 1015 64 10000 7.7 110 12:21 26.12.2019
5459 Clouds 19 1015 64 10000 6.7 100 11:58 26.12.2019
5460 Clouds 19 1015 64 10000 6.7 100 11:39 26.12.2019
5461 Clouds 18 1015 64 10000 6.7 100 11:20 26.12.2019
5462 Clouds 16 1015 72 10000 6.2 100 10:49 26.12.2019
5463 Clouds 15 1015 72 10000 6.2 100 10:19 26.12.2019
5464 Clouds 14 1016 82 10000 3.1 70 09:53 26.12.2019
5465 Clouds 14 1016 82 10000 3.1 70 09:32 26.12.2019
5466 Clouds 14 1016 82 10000 4.1 90 08:55 26.12.2019
5467 Clouds 14 1016 82 10000 4.1 90 08:37 26.12.2019
5468 Clouds 15 1016 82 10000 4.1 90 08:18 26.12.2019
5469 Clouds 15 1016 82 10000 4.6 50 07:30 26.12.2019
5470 Clouds 15 1016 82 10000 4.6 50 07:30 26.12.2019
5471 Clouds 15 1016 77 10000 4.1 130 06:54 26.12.2019
5472 Clouds 15 1016 77 10000 4.1 130 06:54 26.12.2019
5473 Clouds 15 1016 82 10000 4.6 90 06:32 26.12.2019
5474 Clouds 15 1017 87 10000 2.1 140 05:46 26.12.2019
5475 Clouds 15 1017 77 10000 5.1 140 04:59 26.12.2019
5476 Rain 15 1017 87 10000 3.1 110 04:30 26.12.2019
5477 Rain 15 1016 77 10000 5.1 150 02:58 26.12.2019
5478 Clouds 15 1017 93 10000 2.6 140 02:34 26.12.2019
5479 Clouds 15 1016 82 10000 4.6 150 01:51 26.12.2019
5480 Clouds 15 1016 82 10000 4.6 150 01:33 26.12.2019
5481 Rain 15 1016 100 9000 3.1 150 00:50 26.12.2019
5482 Clouds 15 1016 87 10000 4.1 150 00:27 26.12.2019
5483 Clouds 15 1016 87 10000 4.1 150 00:27 26.12.2019
5484 Rain 15 1015 93 6000 2.6 180 23:59 25.12.2019
5485 Rain 15 1015 93 6000 2.6 180 23:40 25.12.2019
5486 Thunderstorm 15 1015 93 2500 2.6 120 23:21 25.12.2019
5487 Thunderstorm 15 1014 87 1500 4.1 160 22:59 25.12.2019
5488 Thunderstorm 15 1014 87 1500 4.1 160 22:39 25.12.2019
5489 Rain 16 1015 72 6000 4.1 160 22:21 25.12.2019
5490 Rain 17 1015 56 5000 5.1 170 21:58 25.12.2019
5491 Rain 17 1015 56 5000 5.1 170 21:39 25.12.2019
5492 Clouds 18 1014 43 10000 4.6 160 21:20 25.12.2019
5493 Clouds 19 1014 49 10000 3.6 110 20:56 25.12.2019
5494 Clouds 20 1014 49 10000 3.6 110 20:38 25.12.2019
5495 Clouds 21 1014 49 10000 3.6 110 20:18 25.12.2019
5496 Clouds 21 1014 49 10000 3.6 110 20:18 25.12.2019
5497 Clouds 21 1014 49 10000 3.6 110 20:18 25.12.2019
5498 Clouds 22 1014 43 10000 4.1 110 19:43 25.12.2019
5499 Clouds 22 1014 43 10000 4.1 110 19:24 25.12.2019
5500 Clouds 22 1015 46 10000 3.1 110 18:58 25.12.2019
5501 Clouds 22 1015 46 10000 3.1 110 18:36 25.12.2019
5502 Clouds 22 1015 46 10000 3.1 110 18:18 25.12.2019
5503 Clouds 21 1016 40 10000 3.6 110 17:41 25.12.2019
5504 Clouds 21 1016 40 10000 3.6 110 17:19 25.12.2019
5505 Clouds 21 1016 40 10000 3.6 130 16:57 25.12.2019
5506 Clouds 21 1016 40 10000 3.6 130 16:37 25.12.2019
5507 Clouds 21 1016 40 10000 3.6 130 16:18 25.12.2019
5508 Clouds 21 1016 40 10000 3.6 130 16:18 25.12.2019
5509 Clouds 21 1016 43 10000 4.6 110 15:56 25.12.2019
5510 Clouds 20 1016 43 10000 4.6 110 15:38 25.12.2019
5511 Clouds 21 1016 43 10000 4.6 110 15:19 25.12.2019
5512 Clouds 21 1016 43 10000 4.6 110 15:19 25.12.2019
5513 Clouds 20 1016 46 10000 4.6 110 14:56 25.12.2019
5514 Clouds 20 1016 46 10000 4.6 110 14:37 25.12.2019
5515 Clouds 20 1016 46 10000 4.6 110 14:18 25.12.2019
5516 Clouds 20 1015 43 10000 6.7 110 13:42 25.12.2019
5517 Clouds 20 1015 43 10000 6.7 110 13:21 25.12.2019
5518 Clouds 20 1015 45 10000 6.2 160 12:44 25.12.2019
5519 Clouds 19 1015 45 10000 6.2 160 12:23 25.12.2019
5520 Clouds 19 1014 43 10000 6.2 160 11:58 25.12.2019
5521 Clouds 19 1014 43 10000 6.2 160 11:40 25.12.2019
5522 Clouds 20 1014 43 10000 6.2 160 11:21 25.12.2019
5523 Clouds 20 1014 43 10000 5.7 160 10:41 25.12.2019
5524 Clouds 20 1014 43 10000 5.7 160 10:21 25.12.2019
5525 Clouds 20 1013 43 10000 9.3 160 09:59 25.12.2019
5526 Clouds 20 1013 43 10000 9.3 160 09:40 25.12.2019
5527 Clouds 20 1013 43 10000 9.3 160 09:22 25.12.2019
5528 Clouds 21 1011 46 10000 7.2 160 08:43 25.12.2019
5529 Clouds 21 1011 46 10000 7.2 160 08:24 25.12.2019
5530 Clear 22 1011 46 10000 6.7 160 07:43 25.12.2019
5531 Clear 22 1011 46 10000 6.7 160 07:22 25.12.2019
5532 Clear 22 1008 49 10000 5.1 160 06:24 25.12.2019
5533 Clear 23 1007 44 10000 5.1 200 05:50 25.12.2019
5534 Clear 25 1006 47 10000 5.7 190 04:44 25.12.2019
5535 Clear 25 1005 61 10000 5.1 320 04:24 25.12.2019
5536 Clear 26 1005 69 10000 3.6 340 03:43 25.12.2019
5537 Clear 27 1005 65 10000 2.6 340 02:58 25.12.2019
5538 Clear 28 1005 65 10000 2.6 340 02:29 25.12.2019
5539 Clear 28 1004 69 10000 2.6 320 01:43 25.12.2019
5540 Clear 28 1004 69 10000 2.6 320 01:18 25.12.2019
5541 Clear 29 1003 69 10000 2.6 360 00:41 25.12.2019
5542 Clear 30 1003 48 10000 3.6 20 00:23 25.12.2019
5543 Clear 31 1002 35 10000 4.6 340 23:39 24.12.2019
5544 Clear 32 1002 35 10000 4.6 340 23:20 24.12.2019
5545 Clear 33 1002 35 10000 5.7 330 22:42 24.12.2019
5546 Clear 33 1002 35 10000 5.7 330 22:24 24.12.2019
5547 Clear 33 1002 33 10000 6.7 320 21:59 24.12.2019
5548 Clear 33 1002 33 10000 6.7 320 21:40 24.12.2019
5549 Clear 33 1002 33 10000 6.7 320 21:19 24.12.2019
5550 Clear 33 1002 33 10000 6.7 320 21:19 24.12.2019
5551 Clear 33 1003 40 10000 6.2 340 20:41 24.12.2019
5552 Clear 33 1003 40 10000 6.2 340 20:20 24.12.2019
5553 Clear 33 1003 33 10000 7.2 320 19:47 24.12.2019
5554 Clear 33 1003 33 10000 7.2 320 19:22 24.12.2019
5555 Clear 33 1004 33 10000 7.2 310 18:59 24.12.2019
5556 Clear 32 1004 40 10000 7.2 340 18:40 24.12.2019
5557 Clear 32 1004 40 10000 7.2 340 18:18 24.12.2019
5558 Clear 32 1005 33 10000 7.7 330 17:43 24.12.2019
5559 Clear 31 1005 33 10000 7.7 330 17:22 24.12.2019
5560 Clear 30 1005 37 10000 8.2 340 16:58 24.12.2019
5561 Clear 31 1005 37 10000 8.2 340 16:39 24.12.2019
5562 Clear 30 1005 37 10000 8.2 340 16:20 24.12.2019
5563 Clear 30 1006 39 10000 8.7 340 15:57 24.12.2019
5564 Clear 29 1006 39 10000 8.7 340 15:36 24.12.2019
5565 Clear 29 1006 39 10000 8.7 340 15:18 24.12.2019
5566 Clear 28 1006 44 10000 7.2 340 14:57 24.12.2019
5567 Clear 28 1006 44 10000 7.2 340 14:57 24.12.2019
5568 Clear 28 1006 44 10000 7.2 340 14:57 24.12.2019
5569 Clear 28 1006 44 10000 7.2 340 14:38 24.12.2019
5570 Clear 27 1006 44 10000 7.2 340 14:20 24.12.2019
5571 Clear 26 1007 50 10000 5.7 340 13:55 24.12.2019
5572 Clear 26 1007 50 10000 5.7 340 13:37 24.12.2019
5573 Clear 25 1007 50 10000 5.7 340 13:19 24.12.2019
5574 Clear 24 1007 60 10000 5.7 330 12:55 24.12.2019
5575 Clear 23 1007 60 10000 5.7 330 12:36 24.12.2019
5576 Clear 22 1007 60 10000 5.7 330 12:18 24.12.2019
5577 Clear 22 1007 60 10000 5.7 330 12:18 24.12.2019
5578 Clear 21 1007 60 10000 5.7 330 11:55 24.12.2019
5579 Clear 21 1007 60 10000 5.7 330 11:36 24.12.2019
5580 Clear 21 1007 60 10000 5.7 330 11:18 24.12.2019
5581 Clear 20 1007 68 10000 6.7 330 10:55 24.12.2019
5582 Clear 20 1007 68 10000 6.7 330 10:55 24.12.2019
5583 Clear 19 1007 68 10000 6.7 330 10:37 24.12.2019
5584 Clear 19 1007 68 10000 6.7 330 10:19 24.12.2019
5585 Clear 20 1007 64 10000 4.1 320 09:54 24.12.2019
5586 Clear 20 1007 64 10000 4.1 320 09:36 24.12.2019
5587 Clear 20 1007 64 10000 4.1 320 09:18 24.12.2019
5588 Clear 20 1007 60 10000 6.2 320 08:43 24.12.2019
5589 Clouds 20 1007 60 10000 6.2 320 08:20 24.12.2019
5590 Clouds 20 1008 64 10000 5.1 330 07:45 24.12.2019
5591 Clouds 21 1008 49 10000 4.1 330 07:24 24.12.2019
5592 Clouds 21 1008 64 10000 5.1 320 06:44 24.12.2019
5593 Clouds 21 1008 64 10000 5.1 320 06:22 24.12.2019
5594 Clouds 22 1009 53 10000 5.7 330 05:57 24.12.2019
5595 Clear 22 1009 53 10000 5.7 330 05:20 24.12.2019
5596 Clear 22 1009 53 10000 5.1 330 04:33 24.12.2019
5597 Clear 23 1009 50 10000 4.6 340 03:50 24.12.2019
5598 Clear 23 1009 47 10000 4.1 330 02:59 24.12.2019
5599 Clear 24 1009 47 10000 4.1 330 02:18 24.12.2019
5600 Clear 25 1009 47 10000 4.1 330 01:42 24.12.2019
5601 Clear 25 1009 47 10000 4.1 330 01:19 24.12.2019
5602 Clear 25 1009 47 10000 3.6 340 00:41 24.12.2019
5603 Clear 26 1009 47 10000 3.6 340 00:22 24.12.2019
5604 Clear 28 1009 47 10000 4.6 350 23:43 23.12.2019
5605 Clear 28 1009 47 10000 4.6 350 23:24 23.12.2019
5606 Clear 29 1010 39 10000 4.6 350 22:58 23.12.2019
5607 Clear 29 1010 39 10000 4.6 350 22:58 23.12.2019
5608 Clear 30 1010 39 10000 4.6 350 22:38 23.12.2019
5609 Clear 30 1010 39 10000 4.6 350 22:20 23.12.2019
5610 Clear 30 1010 37 10000 5.1 350 21:57 23.12.2019
5611 Clear 30 1010 37 10000 5.1 350 21:37 23.12.2019
5612 Clear 30 1010 37 10000 5.1 350 21:19 23.12.2019
5613 Clear 30 1011 44 10000 4.1 20 20:59 23.12.2019
5614 Clear 30 1011 44 10000 4.1 20 20:41 23.12.2019
5615 Clear 30 1011 44 10000 4.1 20 20:19 23.12.2019
5616 Clear 30 1011 44 10000 4.1 20 20:19 23.12.2019
5617 Clear 31 1012 39 10000 5.1 360 19:59 23.12.2019
5618 Clear 31 1012 39 10000 5.1 360 19:40 23.12.2019
5619 Clear 31 1012 39 10000 5.1 360 19:40 23.12.2019
5620 Clear 30 1012 39 10000 5.1 360 19:21 23.12.2019
5621 Clear 30 1012 42 10000 4.6 350 18:58 23.12.2019
5622 Clear 30 1012 42 10000 4.6 350 18:58 23.12.2019
5623 Clear 30 1012 42 10000 4.6 350 18:39 23.12.2019
5624 Clear 30 1012 42 10000 4.6 350 18:20 23.12.2019
5625 Clear 29 1013 36 10000 5.7 350 17:59 23.12.2019
5626 Clear 29 1013 36 10000 5.7 350 17:40 23.12.2019
5627 Clear 29 1013 36 10000 5.7 350 17:19 23.12.2019
5628 Clear 28 1013 34 10000 4.6 340 16:57 23.12.2019
5629 Clear 28 1013 34 10000 4.6 340 16:39 23.12.2019
5630 Clear 27 1014 41 10000 5.1 340 16:18 23.12.2019
5631 Clear 27 1014 41 10000 5.1 340 15:56 23.12.2019
5632 Clear 27 1014 41 10000 5.1 340 15:36 23.12.2019
5633 Clear 26 1014 41 10000 5.1 340 15:18 23.12.2019
5634 Clear 26 1013 33 10000 3.6 330 14:55 23.12.2019
5635 Clear 26 1013 33 10000 3.6 330 14:36 23.12.2019
5636 Clear 25 1013 33 10000 3.6 330 14:18 23.12.2019
5637 Clear 24 1014 35 10000 2.6 260 13:41 23.12.2019
5638 Clear 23 1014 35 10000 2.6 260 13:23 23.12.2019
5639 Clear 22 1014 40 10000 3.1 270 12:59 23.12.2019
5640 Clear 21 1014 40 10000 3.1 270 12:40 23.12.2019
5641 Clear 20 1014 40 10000 3.1 270 12:21 23.12.2019
5642 Clear 18 1014 52 10000 2.1 300 11:55 23.12.2019
5643 Clear 18 1014 52 10000 2.1 300 11:37 23.12.2019
5644 Clear 16 1014 52 10000 2.1 300 11:18 23.12.2019
5645 Clear 15 1013 67 10000 2.6 310 10:54 23.12.2019
5646 Clear 16 1013 67 10000 2.6 310 10:36 23.12.2019
5647 Clear 15 1013 67 10000 2.6 310 10:18 23.12.2019
5648 Clear 14 1013 77 10000 2.6 300 09:40 23.12.2019
5649 Clear 14 1013 77 10000 2.6 300 09:22 23.12.2019
5650 Clear 14 1013 72 10000 3.6 340 08:59 23.12.2019
5651 Clear 14 1013 72 10000 3.6 340 08:40 23.12.2019
5652 Clear 15 1013 72 10000 3.6 340 08:22 23.12.2019
5653 Clear 15 1014 68 10000 3.1 20 07:48 23.12.2019
5654 Clear 16 1014 68 10000 3.1 20 07:21 23.12.2019
5655 Clear 16 1014 68 10000 3.6 50 06:57 23.12.2019
5656 Clear 16 1014 68 10000 3.6 50 06:27 23.12.2019
5657 Clear 16 1015 68 10000 4.6 70 05:56 23.12.2019
5658 Clear 17 1015 68 10000 4.6 70 05:29 23.12.2019
5659 Clear 18 1015 56 10000 3.6 110 04:39 23.12.2019
5660 Clear 18 1015 35 10000 5.03 65 03:28 23.12.2019
5661 Clear 20 1015 28 10000 5.03 65 02:43 23.12.2019
5662 Clear 20 1015 28 10000 3.33 92 02:19 23.12.2019
5663 Clear 21 1014 25 10000 1.5 0 01:43 23.12.2019
5664 Clear 21 1014 25 10000 1.5 0 01:25 23.12.2019
5665 Clear 23 1014 25 10000 1.5 0 00:43 23.12.2019
5666 Clear 23 1014 25 10000 1.5 0 00:23 23.12.2019
5667 Clear 25 1014 24 10000 3.6 200 23:40 22.12.2019
5668 Clear 26 1014 24 10000 3.6 200 23:21 22.12.2019
5669 Clear 26 1014 24 10000 3.6 200 22:58 22.12.2019
5670 Clear 26 1014 24 10000 3.6 200 22:58 22.12.2019
5671 Clear 26 1014 24 10000 3.6 200 22:58 22.12.2019
5672 Clear 26 1014 24 10000 3.6 200 22:40 22.12.2019
5673 Clear 26 1014 26 10000 4.6 180 22:21 22.12.2019
5674 Clear 26 1015 26 10000 4.6 180 21:58 22.12.2019
5675 Clear 26 1015 26 10000 4.6 180 21:40 22.12.2019
5676 Clear 26 1015 26 10000 4.6 180 21:21 22.12.2019
5677 Clear 26 1015 24 10000 2.6 180 20:58 22.12.2019
5678 Clear 26 1015 24 10000 2.6 180 20:38 22.12.2019
5679 Clear 26 1015 24 10000 2.6 180 20:18 22.12.2019
5680 Clear 26 1016 22 10000 4.6 210 19:56 22.12.2019
5681 Clear 26 1016 22 10000 4.6 210 19:37 22.12.2019
5682 Clear 26 1016 22 10000 4.6 210 19:19 22.12.2019
5683 Clear 25 1016 23 10000 5.1 150 18:40 22.12.2019
5684 Clear 25 1016 23 10000 5.1 150 18:40 22.12.2019
5685 Clear 25 1016 27 10000 3.6 200 18:22 22.12.2019
5686 Clear 24 1017 31 10000 3.1 170 17:55 22.12.2019
5687 Clear 24 1017 31 10000 3.1 170 17:37 22.12.2019
5688 Clear 24 1017 31 10000 3.1 170 17:18 22.12.2019
5689 Clear 23 1017 35 10000 3.1 180 16:56 22.12.2019
5690 Clear 23 1017 35 10000 3.1 180 16:56 22.12.2019
5691 Clear 22 1017 35 10000 3.1 180 16:38 22.12.2019
5692 Clear 22 1017 35 10000 3.1 180 16:19 22.12.2019
5693 Clear 21 1017 42 10000 3.1 200 15:56 22.12.2019
5694 Clear 20 1017 42 10000 3.1 200 15:36 22.12.2019
5695 Clear 21 1017 42 10000 3.1 200 15:36 22.12.2019
5696 Clear 20 1017 42 10000 3.1 200 15:18 22.12.2019
5697 Clear 19 1017 48 10000 2.1 230 14:54 22.12.2019
5698 Clear 19 1017 48 10000 2.1 230 14:36 22.12.2019
5699 Clear 18 1017 48 10000 2.1 230 14:18 22.12.2019
5700 Clear 18 1017 48 10000 2.1 230 14:18 22.12.2019
5701 Clear 17 1017 59 10000 2.6 180 13:54 22.12.2019
5702 Clear 17 1017 59 10000 2.6 180 13:36 22.12.2019
5703 Clear 16 1017 59 10000 2.6 180 13:18 22.12.2019
5704 Clear 15 1017 67 10000 4.1 160 12:54 22.12.2019
5705 Clear 15 1017 67 10000 4.1 160 12:36 22.12.2019
5706 Clear 14 1017 67 10000 4.1 160 12:18 22.12.2019
5707 Clear 13 1017 71 10000 3.1 180 11:39 22.12.2019
5708 Clear 12 1017 71 10000 3.1 180 11:20 22.12.2019
5709 Clear 11 1016 71 10000 3.6 180 10:58 22.12.2019
5710 Clear 11 1016 71 10000 3.6 180 10:40 22.12.2019
5711 Clear 10 1016 71 10000 3.6 180 10:20 22.12.2019
5712 Clear 10 1015 71 10000 4.1 200 09:58 22.12.2019
5713 Clear 10 1015 71 10000 4.1 200 09:40 22.12.2019
5714 Clear 10 1015 71 10000 4.1 200 09:21 22.12.2019
5715 Clear 10 1014 71 10000 3.6 200 08:45 22.12.2019
5716 Clear 11 1014 71 10000 3.6 200 08:23 22.12.2019
5717 Clear 11 1014 62 10000 4.1 200 07:52 22.12.2019
5718 Clear 12 1014 62 10000 4.1 200 07:22 22.12.2019
5719 Clear 12 1014 58 10000 3.1 180 06:57 22.12.2019
5720 Clear 12 1014 58 10000 3.1 180 06:30 22.12.2019
5721 Clear 13 1014 59 10000 4.1 180 05:43 22.12.2019
5722 Clear 14 1014 59 10000 4.1 180 05:21 22.12.2019
5723 Clear 15 1014 59 10000 5.1 160 04:27 22.12.2019
5724 Clear 16 1014 59 10000 5.1 160 03:24 22.12.2019
5725 Clear 17 1013 59 10000 5.1 160 02:34 22.12.2019
5726 Clear 19 1012 52 10000 6.2 160 01:33 22.12.2019
5727 Clear 20 1011 35 10000 5.1 180 00:58 22.12.2019
5728 Clear 20 1011 35 10000 5.1 180 00:39 22.12.2019
5729 Clear 21 1011 35 10000 5.1 180 00:20 22.12.2019
5730 Clear 22 1011 33 10000 5.1 200 23:42 21.12.2019
5731 Clear 23 1011 33 10000 5.1 200 23:24 21.12.2019
5732 Clear 24 1010 31 10000 3.6 230 22:57 21.12.2019
5733 Clear 24 1010 31 10000 3.6 230 22:39 21.12.2019
5734 Clear 24 1010 31 10000 3.6 230 22:18 21.12.2019
5735 Clear 24 1011 33 10000 4.6 220 21:56 21.12.2019
5736 Clear 24 1011 33 10000 4.6 220 21:37 21.12.2019
5737 Clear 24 1011 33 10000 4.6 220 21:18 21.12.2019
5738 Clear 24 1011 36 10000 6.7 190 20:57 21.12.2019
5739 Clear 24 1011 36 10000 6.7 190 20:57 21.12.2019
5740 Clear 24 1011 35 10000 4.1 220 20:37 21.12.2019
5741 Clear 23 1011 35 10000 4.1 220 20:19 21.12.2019
5742 Clear 24 1011 41 10000 4.1 220 19:55 21.12.2019
5743 Clear 23 1011 41 10000 4.1 220 19:36 21.12.2019
5744 Clear 23 1011 41 10000 4.1 220 19:36 21.12.2019
5745 Clear 23 1011 41 10000 4.1 220 19:18 21.12.2019
5746 Clouds 23 1011 49 10000 4.1 190 18:41 21.12.2019
5747 Clouds 23 1011 49 10000 4.1 190 18:23 21.12.2019
5748 Clouds 22 1011 52 10000 3.6 220 17:56 21.12.2019
5749 Clouds 21 1011 52 10000 3.6 220 17:38 21.12.2019
5750 Clouds 21 1011 52 10000 3.6 220 17:20 21.12.2019
5751 Clouds 20 1012 63 10000 3.1 220 16:57 21.12.2019
5752 Clouds 20 1012 63 10000 3.1 220 16:38 21.12.2019
5753 Clouds 20 1012 63 10000 3.1 220 16:18 21.12.2019
5754 Clouds 19 1012 63 10000 2.6 190 15:55 21.12.2019
5755 Clouds 19 1012 63 10000 2.6 190 15:37 21.12.2019
5756 Clouds 19 1012 63 10000 2.6 190 15:18 21.12.2019
5757 Clouds 19 1012 63 10000 2.6 190 15:18 21.12.2019
5758 Clouds 18 1011 67 10000 4.1 190 14:41 21.12.2019
5759 Clouds 18 1011 67 10000 4.1 190 14:23 21.12.2019
5760 Clouds 17 1010 72 10000 3.6 180 13:58 21.12.2019
5761 Clouds 17 1010 72 10000 3.6 180 13:39 21.12.2019
5762 Clouds 17 1010 72 10000 3.6 180 13:19 21.12.2019
5763 Clouds 17 1010 72 10000 3.6 180 13:19 21.12.2019
5764 Clouds 16 1010 72 10000 4.1 190 12:56 21.12.2019
5765 Clouds 16 1010 72 10000 4.1 190 12:38 21.12.2019
5766 Clouds 15 1010 72 10000 4.1 190 12:20 21.12.2019
5767 Clouds 14 1010 77 10000 3.1 200 11:46 21.12.2019
5768 Clouds 15 1010 77 10000 3.1 200 11:27 21.12.2019
5769 Clouds 14 1010 82 10000 4.1 190 10:59 21.12.2019
5770 Clouds 14 1010 82 10000 4.1 190 10:40 21.12.2019
5771 Clouds 14 1010 82 10000 4.1 190 10:21 21.12.2019
5772 Clouds 14 1009 82 10000 4.6 190 09:57 21.12.2019
5773 Clouds 14 1009 82 10000 4.6 190 09:39 21.12.2019
5774 Clouds 14 1009 82 10000 4.6 190 09:19 21.12.2019
5775 Clouds 14 1009 82 10000 3.6 210 08:46 21.12.2019
5776 Clouds 13 1009 82 10000 3.6 210 08:26 21.12.2019
5777 Clouds 14 1008 82 10000 3.1 200 07:47 21.12.2019
5778 Clouds 14 1008 82 10000 3.1 200 07:23 21.12.2019
5779 Clouds 14 1009 77 10000 4.1 200 06:47 21.12.2019
5780 Clouds 13 1009 77 10000 4.1 200 06:28 21.12.2019
5781 Clouds 14 1008 87 10000 5.1 190 05:58 21.12.2019
5782 Clouds 16 1009 82 10000 3.6 170 04:59 21.12.2019
5783 Clouds 17 1009 82 10000 3.6 170 04:19 21.12.2019
5784 Clouds 17 1009 82 10000 3.1 190 03:56 21.12.2019
5785 Clouds 18 1008 82 10000 3.6 190 02:19 21.12.2019
5786 Clouds 18 1008 82 10000 3.6 190 01:41 21.12.2019
5787 Clouds 18 1008 82 10000 3.6 190 01:22 21.12.2019
5788 Clouds 18 1008 82 10000 4.1 190 00:37 21.12.2019
5789 Clouds 18 1008 82 10000 4.1 190 00:18 21.12.2019
5790 Clouds 19 1007 82 10000 3.6 170 23:38 20.12.2019
5791 Clouds 19 1007 82 10000 3.6 170 23:19 20.12.2019
5792 Rain 20 1008 94 9000 5.1 180 22:43 20.12.2019
5793 Clouds 20 1007 77 10000 3.6 220 22:22 20.12.2019
5794 Rain 20 1008 100 2000 3.1 190 21:59 20.12.2019
5795 Rain 20 1008 100 2000 3.1 190 21:40 20.12.2019
5796 Clouds 20 1008 78 10000 1.5 200 21:20 20.12.2019
5797 Clouds 20 1008 78 10000 1.5 200 21:20 20.12.2019
5798 Rain 20 1009 100 5000 2.6 220 20:55 20.12.2019
5799 Clouds 20 1009 83 10000 2.6 150 20:36 20.12.2019
5800 Rain 20 1009 88 9000 3.1 190 20:18 20.12.2019
5801 Rain 20 1009 88 9000 3.1 190 19:41 20.12.2019
5802 Rain 20 1009 88 9000 3.1 190 19:20 20.12.2019
5803 Rain 20 1008 88 8000 5.7 140 18:58 20.12.2019
5804 Rain 20 1008 88 8000 5.7 140 18:38 20.12.2019
5805 Rain 20 1009 88 4500 3.1 130 18:20 20.12.2019
5806 Rain 19 1009 82 7000 4.1 190 17:54 20.12.2019
5807 Rain 19 1009 82 7000 4.1 190 17:36 20.12.2019
5808 Rain 19 1009 82 7000 4.1 190 17:18 20.12.2019
5809 Rain 19 1010 88 6000 4.1 210 16:40 20.12.2019
5810 Rain 19 1010 88 6000 4.1 210 16:20 20.12.2019
5811 Rain 19 1009 88 7000 4.1 200 15:57 20.12.2019
5812 Rain 19 1010 93 6000 8.2 200 15:39 20.12.2019
5813 Rain 19 1010 93 6000 8.2 200 15:19 20.12.2019
5814 Rain 20 1009 83 8000 4.6 220 14:57 20.12.2019
5815 Rain 20 1009 83 8000 4.6 220 14:57 20.12.2019
5816 Rain 20 1008 73 10000 4.1 200 14:39 20.12.2019
5817 Clouds 22 1008 73 10000 4.1 200 14:20 20.12.2019
5818 Clouds 23 1008 74 10000 2.6 230 13:41 20.12.2019
5819 Clouds 24 1008 74 10000 2.6 230 13:21 20.12.2019
5820 Clouds 24 1009 78 10000 2.1 70 12:59 20.12.2019
5821 Clouds 24 1009 78 10000 2.1 70 12:40 20.12.2019
5822 Clouds 24 1008 88 10000 6.2 240 12:19 20.12.2019
5823 Clouds 24 1008 88 10000 6.2 240 11:59 20.12.2019
5824 Clouds 24 1008 88 10000 6.2 240 11:59 20.12.2019
5825 Clouds 24 1008 73 10000 4.1 110 11:39 20.12.2019
5826 Clouds 24 1008 73 10000 4.1 110 11:19 20.12.2019
5827 Clouds 23 1008 65 10000 1.5 150 10:58 20.12.2019
5828 Clouds 23 1008 65 10000 1.5 150 10:40 20.12.2019
5829 Clouds 23 1008 65 10000 1.5 150 10:20 20.12.2019
5830 Clouds 23 1008 65 10000 3.1 140 09:54 20.12.2019
5831 Clouds 23 1008 65 10000 3.1 140 09:36 20.12.2019
5832 Clouds 23 1008 65 10000 3.1 140 09:18 20.12.2019
5833 Clouds 23 1007 60 10000 4.1 90 08:42 20.12.2019
5834 Clouds 23 1007 60 10000 4.1 90 08:22 20.12.2019
5835 Clouds 23 1007 73 10000 6.2 110 07:58 20.12.2019
5836 Clouds 23 1007 73 10000 6.2 110 07:39 20.12.2019
5837 Clouds 23 1007 73 10000 6.2 110 07:18 20.12.2019
5838 Clouds 24 1007 69 10000 7.2 110 06:49 20.12.2019
5839 Clouds 24 1007 69 10000 7.2 110 06:30 20.12.2019
5840 Clouds 24 1009 69 10000 7.2 110 05:49 20.12.2019
5841 Clouds 24 1009 69 10000 7.2 110 05:25 20.12.2019
5842 Clouds 25 1010 65 10000 7.7 110 03:50 20.12.2019
5843 Clouds 25 1010 65 10000 7.7 110 03:29 20.12.2019
5844 Clouds 25 1009 57 10000 6.2 140 02:33 20.12.2019
5845 Clear 27 1009 65 10000 6.2 110 01:36 20.12.2019
5846 Clear 26 1009 65 10000 6.2 110 01:36 20.12.2019
5847 Clear 27 1009 51 10000 5.1 110 00:58 20.12.2019
5848 Clear 27 1009 51 10000 5.1 110 00:39 20.12.2019
5849 Clear 29 1008 48 10000 6.2 110 23:59 19.12.2019
5850 Clear 29 1008 48 10000 6.2 110 23:40 19.12.2019
5851 Clear 30 1008 48 10000 6.2 110 23:21 19.12.2019
5852 Clear 31 1009 45 10000 6.2 110 22:40 19.12.2019
5853 Clear 32 1009 45 10000 6.2 110 22:22 19.12.2019
5854 Clear 33 1009 37 10000 4.6 110 21:59 19.12.2019
5855 Clear 32 1009 37 10000 4.6 110 21:41 19.12.2019
5856 Clear 32 1009 37 10000 4.6 110 21:19 19.12.2019
5857 Clear 33 1009 23 10000 2.6 50 20:57 19.12.2019
5858 Clouds 33 1009 23 10000 2.6 50 20:38 19.12.2019
5859 Clouds 34 1009 23 10000 2.6 50 20:20 19.12.2019
5860 Clouds 34 1009 23 10000 2.6 50 20:20 19.12.2019
5861 Clouds 33 1010 37 10000 2.6 40 19:58 19.12.2019
5862 Clouds 33 1010 37 10000 2.6 40 19:40 19.12.2019
5863 Clouds 33 1010 37 10000 2.6 40 19:40 19.12.2019
5864 Clouds 33 1010 37 10000 2.6 40 19:19 19.12.2019
5865 Clouds 33 1010 37 10000 2.6 40 19:19 19.12.2019
5866 Clouds 33 1010 37 10000 2.6 40 19:19 19.12.2019
5867 Clouds 33 1011 51 10000 2.6 40 18:58 19.12.2019
5868 Clouds 33 1011 51 10000 2.6 40 18:40 19.12.2019
5869 Clouds 32 1011 51 10000 2.6 40 18:19 19.12.2019
5870 Clouds 32 1012 54 10000 2.6 40 17:56 19.12.2019
5871 Clouds 32 1012 54 10000 2.6 40 17:37 19.12.2019
5872 Clear 32 1012 54 10000 2.6 40 17:18 19.12.2019
5873 Clear 31 1012 57 10000 2.6 40 16:56 19.12.2019
5874 Clear 31 1012 57 10000 2.6 40 16:37 19.12.2019
5875 Clear 30 1013 61 10000 2.6 20 16:19 19.12.2019
5876 Clear 31 1012 48 10000 3.6 20 15:56 19.12.2019
5877 Clear 30 1012 48 10000 3.6 20 15:37 19.12.2019
5878 Clear 30 1012 48 10000 3.6 20 15:18 19.12.2019
5879 Clear 28 1013 51 10000 4.6 360 14:42 19.12.2019
5880 Clear 27 1013 61 10000 3.1 360 14:20 19.12.2019
5881 Clear 27 1013 64 10000 4.6 340 13:58 19.12.2019
5882 Clear 27 1013 64 10000 4.6 340 13:58 19.12.2019
5883 Clear 26 1013 64 10000 4.6 340 13:38 19.12.2019
5884 Clouds 26 1013 64 10000 4.6 340 13:19 19.12.2019
5885 Clouds 25 1013 69 10000 5.1 350 12:57 19.12.2019
5886 Clouds 25 1013 69 10000 5.1 350 12:39 19.12.2019
5887 Clouds 25 1013 69 10000 5.1 350 12:39 19.12.2019
5888 Clouds 24 1013 69 10000 5.1 350 12:19 19.12.2019
5889 Clouds 24 1012 64 10000 6.7 350 11:58 19.12.2019
5890 Clouds 23 1012 64 10000 6.7 350 11:40 19.12.2019
5891 Clouds 22 1012 64 10000 6.7 350 11:18 19.12.2019
5892 Clouds 22 1012 64 10000 7.7 360 10:56 19.12.2019
5893 Clouds 22 1012 64 10000 7.7 360 10:37 19.12.2019
5894 Clouds 22 1012 64 10000 7.7 360 10:19 19.12.2019
5895 Clouds 22 1011 60 10000 6.7 10 09:40 19.12.2019
5896 Clouds 22 1011 60 10000 6.7 10 09:21 19.12.2019
5897 Clouds 22 1010 60 10000 6.2 10 08:58 19.12.2019
5898 Clouds 22 1010 60 10000 6.2 10 08:40 19.12.2019
5899 Clouds 23 1010 60 10000 6.2 10 08:19 19.12.2019
5900 Clouds 23 1010 61 10000 5.7 360 07:57 19.12.2019
5901 Clouds 23 1010 61 10000 5.7 360 07:38 19.12.2019
5902 Clouds 23 1010 61 10000 5.7 360 07:19 19.12.2019
5903 Clouds 24 1010 57 10000 5.1 360 06:49 19.12.2019
5904 Clouds 24 1010 57 10000 5.1 360 06:29 19.12.2019
5905 Clouds 24 1011 57 10000 4.6 10 05:55 19.12.2019
5906 Clouds 25 1011 57 10000 4.6 10 05:33 19.12.2019
5907 Clouds 25 1011 61 10000 3.6 340 04:51 19.12.2019
5908 Clouds 26 1011 54 10000 3.6 320 02:54 19.12.2019
5909 Clouds 27 1010 54 10000 3.6 340 01:51 19.12.2019
5910 Clouds 27 1010 54 10000 3.6 340 01:22 19.12.2019
5911 Clouds 28 1009 42 10000 3.6 20 00:40 19.12.2019
5912 Clouds 29 1010 45 10000 4.6 330 00:21 19.12.2019
5913 Clouds 29 1010 45 10000 4.6 330 23:55 18.12.2019
5914 Clouds 30 1010 45 10000 4.6 330 23:36 18.12.2019
5915 Clouds 30 1010 45 10000 4.6 330 23:18 18.12.2019
5916 Clouds 31 1010 48 10000 4.1 330 22:55 18.12.2019
5917 Clouds 31 1010 38 10000 4.1 360 22:36 18.12.2019
5918 Clouds 31 1010 38 10000 4.1 360 22:18 18.12.2019
5919 Clouds 31 1010 48 10000 4.1 350 21:41 18.12.2019
5920 Clouds 31 1010 48 10000 4.1 350 21:21 18.12.2019
5921 Clouds 32 1011 51 10000 4.6 350 20:58 18.12.2019
5922 Clouds 32 1011 51 10000 4.6 350 20:39 18.12.2019
5923 Clouds 32 1011 35 10000 7.7 360 20:20 18.12.2019
5924 Clouds 32 1010 35 10000 6.2 320 20:20 18.12.2019
5925 Clouds 32 1011 35 10000 7.7 360 19:57 18.12.2019
5926 Clouds 32 1011 35 10000 7.7 360 19:39 18.12.2019
5927 Clouds 32 1011 45 10000 4.1 10 19:39 18.12.2019
5928 Clouds 32 1011 45 10000 4.1 10 19:19 18.12.2019
5929 Clouds 32 1011 35 10000 7.7 360 18:59 18.12.2019
5930 Clouds 32 1011 35 10000 7.7 360 18:41 18.12.2019
5931 Clouds 32 1011 35 10000 7.7 360 18:22 18.12.2019
5932 Clouds 32 1012 40 10000 7.7 340 17:55 18.12.2019
5933 Clouds 32 1012 40 10000 7.7 340 17:55 18.12.2019
5934 Clouds 32 1012 40 10000 7.7 340 17:55 18.12.2019
5935 Clouds 32 1012 40 10000 7.7 340 17:37 18.12.2019
5936 Clouds 31 1013 65 10000 3.6 10 17:19 18.12.2019
5937 Clouds 31 1014 58 10000 5.1 350 16:42 18.12.2019
5938 Clouds 30 1014 58 10000 5.1 350 16:24 18.12.2019
5939 Clear 30 1014 57 10000 3.6 350 15:59 18.12.2019
5940 Clear 30 1014 51 10000 6.2 340 15:39 18.12.2019
5941 Clear 29 1014 51 10000 6.2 340 15:21 18.12.2019
5942 Clear 28 1014 57 10000 5.7 350 14:57 18.12.2019
5943 Clear 28 1014 57 10000 5.7 350 14:39 18.12.2019
5944 Clear 27 1014 57 10000 5.7 350 14:19 18.12.2019
5945 Clear 27 1014 57 10000 7.2 360 13:55 18.12.2019
5946 Clear 27 1014 57 10000 7.2 360 13:37 18.12.2019
5947 Clear 26 1014 57 10000 7.2 360 13:19 18.12.2019
5948 Clear 25 1014 69 10000 7.7 350 12:41 18.12.2019
5949 Clear 24 1014 69 10000 7.7 350 12:22 18.12.2019
5950 Clear 23 1014 69 10000 6.7 360 11:57 18.12.2019
5951 Clear 23 1014 69 10000 6.7 360 11:39 18.12.2019
5952 Clear 22 1014 69 10000 6.7 360 11:20 18.12.2019
5953 Clear 21 1013 69 10000 5.7 10 10:58 18.12.2019
5954 Clear 21 1013 69 10000 5.7 10 10:39 18.12.2019
5955 Clear 21 1013 69 10000 5.7 10 10:20 18.12.2019
5956 Clear 21 1013 69 10000 7.2 360 09:59 18.12.2019
5957 Clear 20 1013 69 10000 7.2 360 09:59 18.12.2019
5958 Clear 21 1013 69 10000 7.2 360 09:20 18.12.2019
5959 Clear 20 1012 69 10000 6.7 10 08:44 18.12.2019
5960 Clear 20 1012 69 10000 6.7 10 08:25 18.12.2019
5961 Clouds 20 1012 69 10000 6.7 10 08:25 18.12.2019
5962 Clouds 21 1012 73 10000 4.6 10 07:57 18.12.2019
5963 Clouds 21 1012 73 10000 4.6 10 07:57 18.12.2019
5964 Clouds 21 1012 73 10000 4.6 10 07:39 18.12.2019
5965 Clouds 21 1012 73 10000 4.6 10 07:20 18.12.2019
5966 Clouds 21 1013 69 10000 2.6 40 06:52 18.12.2019
5967 Clouds 21 1013 69 10000 2.6 40 06:25 18.12.2019
5968 Clouds 21 1014 69 10000 3.6 50 05:36 18.12.2019
5969 Clouds 21 1014 64 10000 5.7 90 04:31 18.12.2019
5970 Clouds 21 1014 73 10000 8.7 100 02:47 18.12.2019
5971 Clouds 22 1014 73 10000 8.7 100 02:28 18.12.2019
5972 Clouds 21 1013 73 10000 8.7 110 01:44 18.12.2019
5973 Clouds 22 1013 73 10000 8.7 110 01:25 18.12.2019
5974 Clouds 22 1013 73 10000 8.2 110 00:42 18.12.2019
5975 Clouds 22 1013 73 10000 8.2 110 00:24 18.12.2019
5976 Clouds 23 1013 69 10000 9.3 110 23:59 17.12.2019
5977 Clouds 24 1013 69 10000 9.3 110 23:40 17.12.2019
5978 Clear 24 1013 69 10000 9.3 110 23:21 17.12.2019
5979 Clear 25 1013 69 10000 8.7 100 22:57 17.12.2019
5980 Clear 25 1013 69 10000 8.7 100 22:39 17.12.2019
5981 Clear 26 1013 69 10000 8.7 100 22:19 17.12.2019
5982 Clouds 26 1013 69 10000 7.7 110 21:57 17.12.2019
5983 Clouds 26 1013 69 10000 7.7 110 21:38 17.12.2019
5984 Clouds 27 1013 69 10000 7.7 110 21:38 17.12.2019
5985 Clouds 27 1013 69 10000 7.7 110 21:20 17.12.2019
5986 Clouds 27 1013 61 10000 6.2 90 20:58 17.12.2019
5987 Clouds 27 1013 61 10000 6.2 90 20:39 17.12.2019
5988 Clouds 28 1013 61 10000 6.2 90 20:18 17.12.2019
5989 Clouds 29 1013 50 10000 6.2 70 19:56 17.12.2019
5990 Clouds 29 1013 50 10000 6.2 70 19:38 17.12.2019
5991 Clouds 29 1013 47 10000 5.1 70 19:19 17.12.2019
5992 Clouds 29 1013 47 10000 5.1 70 18:55 17.12.2019
5993 Clouds 29 1013 47 10000 5.1 70 18:37 17.12.2019
5994 Clouds 29 1013 47 10000 5.1 70 18:19 17.12.2019
5995 Clouds 28 1014 47 10000 4.6 60 17:42 17.12.2019
5996 Clouds 28 1014 47 10000 4.6 60 17:42 17.12.2019
5997 Clouds 28 1014 47 10000 4.6 60 17:42 17.12.2019
5998 Clouds 28 1014 47 10000 4.6 60 17:21 17.12.2019
5999 Clear 28 1014 57 10000 4.1 50 16:57 17.12.2019
6000 Clear 28 1014 57 10000 4.1 50 16:38 17.12.2019
6001 Clear 27 1014 57 10000 4.1 50 16:19 17.12.2019
6002 Clouds 27 1014 60 10000 3.6 60 15:58 17.12.2019
6003 Clouds 27 1014 60 10000 3.6 60 15:37 17.12.2019
6004 Clouds 26 1014 60 10000 3.6 60 15:19 17.12.2019
6005 Clear 26 1014 60 10000 3.6 60 14:55 17.12.2019
6006 Clear 25 1014 60 10000 3.6 60 14:37 17.12.2019
6007 Clear 25 1014 60 10000 3.6 60 14:18 17.12.2019
6008 Clear 24 1014 60 10000 2.1 170 13:55 17.12.2019
6009 Clear 24 1014 60 10000 2.1 170 13:37 17.12.2019
6010 Clear 23 1014 60 10000 2.1 170 13:18 17.12.2019
6011 Clear 22 1014 64 10000 1.5 200 12:41 17.12.2019
6012 Clear 21 1014 64 10000 1.5 200 12:19 17.12.2019
6013 Clear 20 1013 73 10000 1 0 11:59 17.12.2019
6014 Clear 20 1013 73 10000 1 0 11:38 17.12.2019
6015 Clear 18 1013 88 10000 1.29 252 11:19 17.12.2019
6016 Clear 18 1013 88 10000 1.29 252 11:19 17.12.2019
6017 Clear 17 1012 77 10000 1 230 10:59 17.12.2019
6018 Clear 17 1012 77 10000 1 230 10:59 17.12.2019
6019 Clear 17 1012 77 10000 1 230 10:41 17.12.2019
6020 Clear 16 1012 77 10000 1 230 10:23 17.12.2019
6021 Clear 16 1012 82 10000 1.29 252 09:59 17.12.2019
6022 Clear 16 1012 82 10000 1.29 252 09:41 17.12.2019
6023 Clear 16 1012 82 10000 1.29 252 09:21 17.12.2019
6024 Clear 16 1011 82 10000 1.29 252 08:56 17.12.2019
6025 Clear 16 1011 82 10000 1.7 294 08:38 17.12.2019
6026 Clear 16 1011 82 10000 1.29 252 08:38 17.12.2019
6027 Clear 16 1011 82 10000 1.29 252 08:38 17.12.2019
6028 Clear 16 1011 82 10000 3.5 331 08:20 17.12.2019
6029 Clear 17 1011 73 10000 2.1 100 07:54 17.12.2019
6030 Clear 17 1011 73 10000 2.1 100 07:36 17.12.2019
6031 Clear 17 1011 73 10000 2.1 100 07:18 17.12.2019
6032 Clear 18 1011 73 10000 5.7 90 06:35 17.12.2019
6033 Clear 18 1012 73 10000 3.6 90 05:54 17.12.2019
6034 Clear 18 1012 73 10000 3.6 90 05:36 17.12.2019
6035 Clouds 19 1011 56 10000 4.1 120 04:31 17.12.2019
6036 Clouds 21 1011 53 10000 6.2 270 02:34 17.12.2019
6037 Thunderstorm 22 1011 60 10000 7.2 280 01:55 17.12.2019
6038 Clouds 24 1009 64 10000 1.5 350 00:59 17.12.2019
6039 Rain 25 1009 57 10000 3.6 320 00:38 17.12.2019
6040 Rain 25 1009 57 10000 3.6 320 00:19 17.12.2019
6041 Clouds 25 1008 61 10000 3.1 20 23:41 16.12.2019
6042 Clouds 26 1008 61 10000 3.1 20 23:19 16.12.2019
6043 Rain 26 1008 50 10000 3.1 30 22:56 16.12.2019
6044 Rain 26 1008 50 10000 3.1 30 22:37 16.12.2019
6045 Rain 26 1008 50 10000 3.1 30 22:19 16.12.2019
6046 Thunderstorm 26 1008 47 10000 3.6 30 21:55 16.12.2019
6047 Clouds 26 1008 53 10000 3.6 40 21:37 16.12.2019
6048 Clouds 26 1008 53 10000 3.6 40 21:19 16.12.2019
6049 Clouds 26 1009 51 10000 5.1 20 20:57 16.12.2019
6050 Clouds 26 1009 51 10000 5.1 20 20:57 16.12.2019
6051 Clouds 26 1009 61 10000 4.1 50 20:37 16.12.2019
6052 Clouds 27 1009 61 10000 4.1 50 20:19 16.12.2019
6053 Clouds 28 1009 57 10000 4.6 50 19:55 16.12.2019
6054 Clouds 28 1009 57 10000 4.6 50 19:36 16.12.2019
6055 Clouds 29 1009 57 10000 4.6 50 19:18 16.12.2019
6056 Clouds 28 1009 57 10000 4.6 50 19:18 16.12.2019
6057 Clouds 28 1010 65 10000 4.1 30 18:55 16.12.2019
6058 Clouds 28 1010 65 10000 4.1 30 18:37 16.12.2019
6059 Clouds 28 1010 65 10000 4.1 30 18:37 16.12.2019
6060 Clouds 28 1010 65 10000 4.1 30 18:19 16.12.2019
6061 Clouds 28 1010 65 10000 4.1 30 18:19 16.12.2019
6062 Clouds 28 1010 69 10000 4.6 40 17:57 16.12.2019
6063 Clouds 27 1010 69 10000 4.6 40 17:37 16.12.2019
6064 Clouds 28 1010 69 10000 4.6 40 17:19 16.12.2019
6065 Clouds 27 1010 64 10000 3.1 40 16:55 16.12.2019
6066 Clouds 27 1010 64 10000 3.1 40 16:37 16.12.2019
6067 Clouds 27 1010 64 10000 3.1 40 16:37 16.12.2019
6068 Clouds 27 1010 64 10000 3.1 40 16:18 16.12.2019
6069 Clouds 26 1011 69 10000 3.1 360 15:55 16.12.2019
6070 Clouds 26 1011 69 10000 3.1 360 15:37 16.12.2019
6071 Clouds 26 1011 69 10000 3.1 360 15:19 16.12.2019
6072 Clouds 25 1011 68 10000 2.6 30 14:54 16.12.2019
6073 Clouds 25 1011 68 10000 2.6 30 14:36 16.12.2019
6074 Clouds 24 1011 68 10000 2.6 50 14:18 16.12.2019
6075 Clouds 23 1011 68 10000 2.6 50 13:38 16.12.2019
6076 Clouds 23 1011 68 10000 2.6 50 13:20 16.12.2019
6077 Clouds 22 1010 64 10000 1 0 12:59 16.12.2019
6078 Clouds 22 1010 64 10000 1 0 12:59 16.12.2019
6079 Clouds 22 1010 64 10000 1 0 12:41 16.12.2019
6080 Clouds 21 1010 64 10000 1 0 12:20 16.12.2019
6081 Clouds 20 1010 72 10000 1 0 11:59 16.12.2019
6082 Clouds 20 1010 72 10000 1 0 11:59 16.12.2019
6083 Clouds 20 1010 72 10000 1 0 11:41 16.12.2019
6084 Clouds 18 1010 72 10000 1 0 11:22 16.12.2019
6085 Clouds 16 1010 77 10000 1.5 230 10:59 16.12.2019
6086 Clouds 16 1010 77 10000 1.5 230 10:40 16.12.2019
6087 Clouds 16 1010 77 10000 1.5 230 10:40 16.12.2019
6088 Clouds 15 1010 77 10000 1.5 230 10:20 16.12.2019
6089 Mist 14 1009 100 3000 1.5 230 09:46 16.12.2019
6090 Clouds 15 1009 82 10000 0.5 250 09:28 16.12.2019
6091 Clouds 15 1009 82 10000 1 240 08:58 16.12.2019
6092 Clouds 15 1009 82 10000 1 240 08:38 16.12.2019
6093 Clouds 15 1009 82 10000 1 240 08:18 16.12.2019
6094 Clouds 15 1009 72 10000 1 180 07:47 16.12.2019
6095 Clouds 16 1008 100 10000 0.5 0 07:29 16.12.2019
6096 Clouds 16 1008 68 10000 1.5 150 06:46 16.12.2019
6097 Clouds 16 1008 68 10000 1.5 150 06:26 16.12.2019
6098 Clouds 16 1008 68 10000 2.1 160 05:54 16.12.2019
6099 Clouds 16 1008 68 10000 2.1 160 05:35 16.12.2019
6100 Clouds 17 1009 72 10000 2.6 150 04:27 16.12.2019
6101 Clouds 19 1008 68 10000 1.5 0 02:36 16.12.2019
6102 Clear 20 1007 64 10000 2.1 150 01:45 16.12.2019
6103 Clouds 21 1007 64 10000 2.1 150 00:43 16.12.2019
6104 Clouds 21 1007 64 10000 2.1 150 00:25 16.12.2019
6105 Clouds 22 1006 60 10000 4.1 110 23:59 15.12.2019
6106 Clouds 22 1006 60 10000 4.1 110 23:59 15.12.2019
6107 Clouds 22 1006 60 10000 4.1 110 23:39 15.12.2019
6108 Rain 22 1006 60 10000 4.1 110 23:20 15.12.2019
6109 Rain 23 1006 68 10000 4.1 150 22:56 15.12.2019
6110 Rain 23 1006 68 10000 4.1 150 22:56 15.12.2019
6111 Rain 23 1006 68 10000 4.1 150 22:56 15.12.2019
6112 Rain 23 1006 68 10000 4.1 150 22:37 15.12.2019
6113 Rain 23 1006 68 10000 4.1 150 22:37 15.12.2019
6114 Rain 23 1006 68 10000 4.1 150 22:18 15.12.2019
6115 Clouds 24 1005 69 10000 5.1 150 21:56 15.12.2019
6116 Clouds 24 1005 69 10000 5.1 150 21:56 15.12.2019
6117 Clouds 24 1005 69 10000 5.1 150 21:37 15.12.2019
6118 Clouds 24 1005 69 10000 5.1 150 21:37 15.12.2019
6119 Clouds 24 1005 69 10000 5.1 150 21:19 15.12.2019
6120 Rain 24 1005 69 10000 3.6 160 20:56 15.12.2019
6121 Rain 24 1005 69 10000 3.6 160 20:37 15.12.2019
6122 Clouds 24 1005 69 10000 3.6 160 20:18 15.12.2019
6123 Clouds 25 1005 60 10000 5.7 140 19:56 15.12.2019
6124 Clouds 24 1006 73 10000 2.1 0 19:38 15.12.2019
6125 Clouds 24 1006 73 10000 2.1 0 19:18 15.12.2019
6126 Rain 24 1006 69 9000 2.1 210 18:55 15.12.2019
6127 Rain 25 1006 69 9000 2.1 210 18:37 15.12.2019
6128 Rain 24 1006 69 9000 2.1 210 18:18 15.12.2019
6129 Rain 24 1006 69 9000 2.1 210 18:18 15.12.2019
6130 Clouds 23 1006 78 10000 1 0 17:55 15.12.2019
6131 Clouds 23 1006 78 10000 1 0 17:36 15.12.2019
6132 Rain 23 1006 78 10000 1 0 17:18 15.12.2019
6133 Clouds 23 1006 78 10000 1 0 17:18 15.12.2019
6134 Clouds 23 1007 82 10000 2.1 170 16:43 15.12.2019
6135 Clouds 22 1007 82 10000 2.1 170 16:23 15.12.2019
6136 Rain 22 1007 88 9000 3.1 170 15:57 15.12.2019
6137 Rain 23 1007 88 9000 3.1 170 15:39 15.12.2019
6138 Rain 23 1007 77 10000 4.1 140 15:19 15.12.2019
6139 Rain 22 1008 88 4000 3.6 160 14:56 15.12.2019
6140 Rain 23 1008 88 4000 3.6 160 14:38 15.12.2019
6141 Rain 22 1008 88 4000 3.6 160 14:19 15.12.2019
6142 Drizzle 21 1008 88 1400 2.6 140 13:58 15.12.2019
6143 Drizzle 21 1008 88 1400 2.6 140 13:39 15.12.2019
6144 Drizzle 21 1008 88 3000 2.6 140 13:20 15.12.2019
6145 Clouds 20 1009 82 10000 3.1 150 12:57 15.12.2019
6146 Clouds 20 1009 82 10000 3.1 150 12:39 15.12.2019
6147 Clouds 19 1009 82 10000 3.1 150 12:21 15.12.2019
6148 Rain 19 1008 100 8000 2.6 110 11:58 15.12.2019
6149 Rain 19 1009 100 4000 2.6 110 11:37 15.12.2019
6150 Rain 19 1009 100 4000 2.6 110 11:19 15.12.2019
6151 Rain 19 1009 100 4000 2.6 110 11:19 15.12.2019
6152 Rain 19 1008 93 6000 1.5 150 10:55 15.12.2019
6153 Rain 19 1008 93 6000 1.5 150 10:37 15.12.2019
6154 Rain 18 1008 93 6000 1.5 150 10:19 15.12.2019
6155 Rain 19 1008 93 1200 2.1 160 09:41 15.12.2019
6156 Rain 19 1008 94 700 3.1 120 09:20 15.12.2019
6157 Rain 19 1008 88 2800 1.5 90 08:59 15.12.2019
6158 Clouds 20 1008 83 10000 1.5 110 08:41 15.12.2019
6159 Clouds 20 1008 83 10000 1.5 110 08:22 15.12.2019
6160 Clouds 20 1009 78 10000 1.5 50 07:56 15.12.2019
6161 Clouds 20 1009 78 10000 1.5 50 07:35 15.12.2019
6162 Clouds 20 1008 88 10000 2.1 50 06:52 15.12.2019
6163 Clouds 20 1008 88 10000 2.1 50 06:20 15.12.2019
6164 Rain 21 1010 83 10000 3.1 360 05:26 15.12.2019
6165 Rain 21 1010 78 10000 4.1 340 04:47 15.12.2019
6166 Rain 22 1011 73 10000 4.1 340 03:31 15.12.2019
6167 Rain 23 1011 64 10000 5.1 330 02:34 15.12.2019
6168 Clouds 23 1010 64 10000 4.6 340 01:47 15.12.2019
6169 Clouds 24 1010 64 10000 4.6 340 01:28 15.12.2019
6170 Clouds 25 1009 61 10000 5.1 110 00:58 15.12.2019
6171 Clouds 25 1009 61 10000 5.1 110 00:40 15.12.2019
6172 Clouds 25 1009 61 10000 5.1 110 00:21 15.12.2019
6173 Clouds 26 1010 65 10000 3.6 100 23:40 14.12.2019
6174 Clouds 26 1010 65 10000 3.6 100 23:21 14.12.2019
6175 Clouds 27 1010 50 10000 4.1 110 22:58 14.12.2019
6176 Clouds 27 1010 50 10000 4.1 110 22:40 14.12.2019
6177 Clouds 27 1010 50 10000 4.1 110 22:20 14.12.2019
6178 Clouds 28 1010 65 10000 5.1 100 21:56 14.12.2019
6179 Clouds 28 1010 65 10000 5.1 100 21:37 14.12.2019
6180 Clouds 28 1010 65 10000 5.1 100 21:18 14.12.2019
6181 Clouds 29 1011 54 10000 3.6 60 20:55 14.12.2019
6182 Clouds 29 1011 54 10000 3.6 60 20:37 14.12.2019
6183 Clear 30 1011 54 10000 3.6 60 20:18 14.12.2019
6184 Clear 30 1011 54 10000 3.6 60 20:18 14.12.2019
6185 Clear 30 1011 39 10000 1.5 10 19:40 14.12.2019
6186 Clear 30 1011 39 10000 1.5 10 19:21 14.12.2019
6187 Clear 31 1012 37 10000 3.1 60 18:57 14.12.2019
6188 Clear 31 1012 37 10000 3.1 60 18:39 14.12.2019
6189 Clear 31 1012 37 10000 3.1 60 18:21 14.12.2019
6190 Clear 31 1012 37 10000 3.1 0 17:58 14.12.2019
6191 Clear 31 1012 37 10000 3.1 0 17:40 14.12.2019
6192 Clear 30 1013 47 10000 2.6 30 17:21 14.12.2019
6193 Clear 29 1013 53 10000 2.6 30 16:41 14.12.2019
6194 Clear 29 1013 53 10000 2.6 30 16:19 14.12.2019
6195 Clear 29 1014 42 10000 3.6 350 15:55 14.12.2019
6196 Clear 29 1014 42 10000 3.6 350 15:37 14.12.2019
6197 Clear 28 1014 42 10000 3.6 350 15:19 14.12.2019
6198 Clear 27 1014 47 10000 4.1 340 14:54 14.12.2019
6199 Clear 27 1014 47 10000 4.1 340 14:36 14.12.2019
6200 Clouds 27 1014 47 10000 4.1 340 14:18 14.12.2019
6201 Clouds 26 1015 49 10000 5.1 10 13:42 14.12.2019
6202 Clouds 25 1015 60 10000 4.6 350 13:19 14.12.2019
6203 Clouds 25 1015 60 10000 4.6 350 13:19 14.12.2019
6204 Clouds 24 1014 53 10000 4.1 360 12:57 14.12.2019
6205 Clouds 23 1014 53 10000 4.1 360 12:38 14.12.2019
6206 Clouds 23 1014 53 10000 4.1 360 12:20 14.12.2019
6207 Clouds 23 1014 53 10000 4.1 360 12:20 14.12.2019
6208 Clouds 21 1014 52 10000 4.6 360 11:56 14.12.2019
6209 Clouds 21 1014 52 10000 4.6 360 11:38 14.12.2019
6210 Clouds 20 1014 52 10000 4.6 360 11:19 14.12.2019
6211 Clouds 19 1013 52 10000 3.6 10 10:56 14.12.2019
6212 Clouds 18 1013 52 10000 3.6 10 10:38 14.12.2019
6213 Clouds 18 1013 52 10000 3.6 10 10:19 14.12.2019
6214 Clouds 18 1013 53 10000 3.1 10 09:43 14.12.2019
6215 Clouds 17 1013 53 10000 3.1 10 09:23 14.12.2019
6216 Clouds 17 1013 49 10000 3.6 350 08:57 14.12.2019
6217 Clouds 17 1013 56 10000 1 70 08:38 14.12.2019
6218 Clouds 18 1013 56 10000 1 70 08:19 14.12.2019
6219 Clouds 18 1013 46 10000 3.6 360 07:40 14.12.2019
6220 Clouds 18 1013 46 10000 3.6 360 07:21 14.12.2019
6221 Clouds 19 1013 43 10000 4.1 10 06:45 14.12.2019
6222 Clouds 19 1013 43 10000 4.1 10 06:22 14.12.2019
6223 Clouds 19 1013 49 10000 3.1 30 05:35 14.12.2019
6224 Clouds 20 1013 49 10000 4.6 50 03:34 14.12.2019
6225 Clouds 21 1013 53 10000 4.6 80 02:23 14.12.2019
6226 Clouds 21 1013 43 10000 5.1 90 01:44 14.12.2019
6227 Clouds 22 1013 40 10000 3.6 80 00:59 14.12.2019
6228 Clouds 22 1013 40 10000 3.6 80 00:40 14.12.2019
6229 Clouds 22 1013 40 10000 3.6 80 00:20 14.12.2019
6230 Clouds 23 1012 46 10000 4.1 50 23:41 13.12.2019
6231 Clouds 23 1012 46 10000 4.1 50 23:41 13.12.2019
6232 Clear 23 1012 46 10000 4.1 50 23:19 13.12.2019
6233 Clear 24 1013 33 10000 3.6 80 22:56 13.12.2019
6234 Clear 24 1013 33 10000 3.6 80 22:37 13.12.2019
6235 Clear 24 1013 33 10000 3.6 80 22:18 13.12.2019
6236 Clear 25 1013 28 10000 3.6 80 21:42 13.12.2019
6237 Clear 25 1013 28 10000 3.6 80 21:21 13.12.2019
6238 Clear 26 1014 36 10000 3.6 70 20:58 13.12.2019
6239 Clear 26 1008 10 0 4.96 72 20:39 13.12.2019
6240 Clouds 25 1015 23 10000 4.1 60 20:19 13.12.2019
6241 Clear 25 1015 23 10000 4.1 60 19:56 13.12.2019
6242 Clear 25 1015 23 10000 4.1 60 19:38 13.12.2019
6243 Clear 26 1015 23 10000 4.1 60 19:18 13.12.2019
6244 Clear 25 1015 33 10000 3.1 30 18:42 13.12.2019
6245 Clear 25 1015 36 10000 2.6 20 18:42 13.12.2019
6246 Clear 25 1015 33 10000 3.1 30 18:20 13.12.2019
6247 Clear 25 1016 35 10000 3.6 20 17:59 13.12.2019
6248 Clear 24 1016 35 10000 3.6 20 17:39 13.12.2019
6249 Clear 24 1016 35 10000 3.6 20 17:18 13.12.2019
6250 Clear 23 1017 37 10000 3.6 20 16:56 13.12.2019
6251 Clear 24 1017 37 10000 3.6 20 16:38 13.12.2019
6252 Clear 23 1017 37 10000 3.6 20 16:19 13.12.2019
6253 Clear 23 1017 42 10000 4.1 40 15:42 13.12.2019
6254 Clear 23 1017 42 10000 4.1 40 15:21 13.12.2019
6255 Clear 21 1017 34 10000 3.6 50 14:57 13.12.2019
6256 Clear 21 1017 34 10000 3.6 50 14:37 13.12.2019
6257 Clouds 21 1017 34 10000 3.6 50 14:18 13.12.2019
6258 Clouds 20 1017 42 10000 3.6 90 13:43 13.12.2019
6259 Clear 19 1017 42 10000 3.6 90 13:24 13.12.2019
6260 Clear 18 1016 48 10000 5.7 110 12:55 13.12.2019
6261 Clear 18 1016 48 10000 5.7 110 12:37 13.12.2019
6262 Clear 17 1016 48 10000 5.7 110 12:18 13.12.2019
6263 Clear 17 1016 48 10000 5.7 110 12:18 13.12.2019
6264 Clear 15 1017 51 10000 4.1 130 11:42 13.12.2019
6265 Clear 14 1017 51 10000 4.1 130 11:24 13.12.2019
6266 Clear 12 1017 44 10000 2.6 150 10:56 13.12.2019
6267 Clear 11 1017 44 10000 2.6 150 10:38 13.12.2019
6268 Clear 11 1017 44 10000 2.6 150 10:19 13.12.2019
6269 Clear 11 1016 41 10000 3.1 140 09:41 13.12.2019
6270 Clear 11 1016 41 10000 3.1 140 09:20 13.12.2019
6271 Clear 11 1016 41 10000 3.6 140 08:44 13.12.2019
6272 Clear 12 1016 41 10000 3.6 140 08:26 13.12.2019
6273 Clouds 12 1016 47 10000 4.6 130 07:48 13.12.2019
6274 Clouds 12 1016 47 10000 4.6 130 07:24 13.12.2019
6275 Clouds 13 1016 38 10000 4.6 150 06:55 13.12.2019
6276 Clouds 13 1016 38 10000 4.6 150 06:29 13.12.2019
6277 Clouds 14 1017 42 10000 4.6 160 05:51 13.12.2019
6278 Clouds 14 1017 42 10000 4.6 160 05:30 13.12.2019
6279 Clear 15 1016 39 10000 5.1 160 04:46 13.12.2019
6280 Clear 17 1016 37 10000 6.2 170 03:48 13.12.2019
6281 Clear 18 1015 28 10000 4.6 160 02:34 13.12.2019
6282 Clouds 19 1013 24 10000 2.6 180 01:48 13.12.2019
6283 Clouds 20 1012 24 10000 2.6 190 00:57 13.12.2019
6284 Clouds 20 1012 24 10000 2.6 190 00:37 13.12.2019
6285 Clouds 22 1012 25 10000 3.1 200 23:59 12.12.2019
6286 Clouds 23 1012 25 10000 3.1 200 23:40 12.12.2019
6287 Clouds 23 1012 25 10000 3.1 200 23:22 12.12.2019
6288 Clouds 24 1011 36 10000 8.2 210 22:56 12.12.2019
6289 Clouds 24 1011 36 10000 8.2 210 22:37 12.12.2019
6290 Clouds 24 1011 22 10000 4.6 200 22:19 12.12.2019
6291 Clouds 24 1011 25 10000 4.1 200 21:55 12.12.2019
6292 Clouds 25 1011 25 10000 4.1 200 21:36 12.12.2019
6293 Clouds 25 1011 25 10000 4.1 200 21:36 12.12.2019
6294 Clouds 25 1011 25 10000 4.1 200 21:18 12.12.2019
6295 Clouds 25 1011 25 10000 4.6 200 20:55 12.12.2019
6296 Clouds 25 1011 25 10000 4.6 200 20:37 12.12.2019
6297 Clouds 25 1010 29 10000 4.6 180 20:19 12.12.2019
6298 Clouds 25 1010 29 10000 4.6 180 19:42 12.12.2019
6299 Clouds 25 1010 29 10000 4.6 180 19:23 12.12.2019
6300 Clouds 25 1010 27 10000 5.7 250 18:58 12.12.2019
6301 Clouds 25 1010 27 10000 5.7 250 18:40 12.12.2019
6302 Clouds 25 1010 27 10000 5.7 250 18:20 12.12.2019
6303 Clouds 25 1010 29 10000 5.7 250 17:58 12.12.2019
6304 Clouds 25 1010 29 10000 5.7 250 17:58 12.12.2019
6305 Clouds 25 1010 29 10000 5.7 200 17:39 12.12.2019
6306 Clouds 24 1010 29 10000 5.7 200 17:21 12.12.2019
6307 Clouds 25 1009 36 10000 4.1 200 16:58 12.12.2019
6308 Clouds 25 1009 36 10000 4.1 200 16:39 12.12.2019
6309 Clouds 24 1009 36 10000 4.1 200 16:20 12.12.2019
6310 Clear 24 1009 33 10000 5.1 230 15:56 12.12.2019
6311 Clear 24 1009 33 10000 5.1 230 15:56 12.12.2019
6312 Clear 24 1009 33 10000 5.1 230 15:38 12.12.2019
6313 Clear 24 1009 33 10000 5.1 230 15:18 12.12.2019
6314 Clear 24 1008 33 10000 3.6 250 14:38 12.12.2019
6315 Clear 24 1008 33 10000 3.6 250 14:38 12.12.2019
6316 Clear 23 1008 33 10000 3.6 250 14:20 12.12.2019
6317 Clear 23 1009 40 10000 7.7 200 13:58 12.12.2019
6318 Clear 22 1007 31 10000 4.6 230 13:40 12.12.2019
6319 Clear 22 1007 31 10000 4.6 230 13:21 12.12.2019
6320 Clear 22 1006 28 10000 6.7 250 12:58 12.12.2019
6321 Clear 21 1006 28 10000 6.7 250 12:40 12.12.2019
6322 Clear 21 1006 28 10000 6.7 250 12:21 12.12.2019
6323 Clear 21 1005 40 10000 5.1 250 11:56 12.12.2019
6324 Clear 20 1005 40 10000 5.1 250 11:38 12.12.2019
6325 Clear 20 1005 40 10000 5.1 250 11:19 12.12.2019
6326 Clear 20 1004 53 10000 5.1 250 10:55 12.12.2019
6327 Clear 20 1004 53 10000 5.1 250 10:55 12.12.2019
6328 Clear 19 1004 53 10000 5.1 250 10:37 12.12.2019
6329 Clear 19 1003 68 10000 4.6 260 10:19 12.12.2019
6330 Clear 19 1003 68 10000 4.6 260 09:42 12.12.2019
6331 Clear 19 1003 68 10000 4.6 260 09:24 12.12.2019
6332 Clear 19 1002 73 10000 3.6 260 08:58 12.12.2019
6333 Clear 20 1002 73 10000 3.6 260 08:38 12.12.2019
6334 Clear 20 1002 73 10000 3.6 260 08:38 12.12.2019
6335 Clouds 19 1002 73 10000 3.6 260 08:20 12.12.2019
6336 Clouds 19 1002 77 10000 2.6 290 07:46 12.12.2019
6337 Clouds 19 1002 77 10000 2.6 290 07:25 12.12.2019
6338 Clouds 20 1002 69 10000 4.6 330 06:54 12.12.2019
6339 Clouds 19 1003 77 10000 1.5 270 06:33 12.12.2019
6340 Clouds 20 1004 83 10000 8.7 350 05:39 12.12.2019
6341 Clouds 21 1004 73 10000 7.2 340 04:52 12.12.2019
6342 Clouds 21 1004 73 10000 7.2 340 04:52 12.12.2019
6343 Thunderstorm 22 1007 83 4600 2.1 270 03:31 12.12.2019
6344 Clouds 22 1003 57 10000 3.6 150 02:38 12.12.2019
6345 Clouds 22 1003 57 10000 3.6 150 02:20 12.12.2019
6346 Clouds 22 1002 47 10000 5.1 150 01:37 12.12.2019
6347 Clouds 22 1002 47 10000 5.1 150 01:19 12.12.2019
6348 Rain 24 1002 50 10000 6.7 160 00:46 12.12.2019
6349 Rain 24 1002 50 10000 6.7 160 00:19 12.12.2019
6350 Rain 26 1001 38 10000 3.6 160 23:44 11.12.2019
6351 Clouds 27 1001 38 10000 3.6 160 23:21 11.12.2019
6352 Clouds 28 1000 29 10000 5.1 170 22:57 11.12.2019
6353 Clouds 27 1000 43 10000 4.1 340 22:38 11.12.2019
6354 Clouds 29 1000 43 10000 4.1 340 22:20 11.12.2019
6355 Clouds 32 1001 48 10000 5.1 190 21:57 11.12.2019
6356 Clouds 34 1001 32 10000 6.2 330 21:38 11.12.2019
6357 Clouds 34 1001 32 10000 6.2 330 21:19 11.12.2019
6358 Clouds 35 1001 32 10000 5.7 340 20:56 11.12.2019
6359 Clouds 35 1001 32 10000 5.7 340 20:56 11.12.2019
6360 Clouds 36 1001 32 10000 5.7 340 20:37 11.12.2019
6361 Clouds 36 1001 32 10000 5.7 340 20:37 11.12.2019
6362 Clouds 36 1001 32 10000 5.7 340 20:37 11.12.2019
6363 Clouds 36 1001 32 10000 5.7 340 20:19 11.12.2019
6364 Clouds 36 1002 23 10000 6.2 340 19:57 11.12.2019
6365 Clouds 36 1002 23 10000 6.2 340 19:38 11.12.2019
6366 Clouds 36 1002 23 10000 6.2 340 19:18 11.12.2019
6367 Clouds 36 1003 26 10000 6.7 290 18:40 11.12.2019
6368 Clouds 36 1003 26 10000 6.7 290 18:21 11.12.2019
6369 Clouds 36 1004 32 10000 6.2 320 17:57 11.12.2019
6370 Clouds 35 1004 32 10000 6.2 320 17:38 11.12.2019
6371 Clouds 36 1004 32 10000 6.2 320 17:18 11.12.2019
6372 Clouds 35 1005 34 10000 4.6 340 16:57 11.12.2019
6373 Clouds 36 1005 34 10000 4.6 340 16:38 11.12.2019
6374 Clouds 35 1005 34 10000 4.6 340 16:19 11.12.2019
6375 Clouds 34 1005 38 10000 3.6 360 15:58 11.12.2019
6376 Clouds 34 1005 38 10000 3.6 360 15:38 11.12.2019
6377 Clouds 33 1005 38 10000 3.6 360 15:20 11.12.2019
6378 Clouds 32 1006 69 6000 3.6 60 14:55 11.12.2019
6379 Clouds 32 1006 69 6000 3.6 60 14:37 11.12.2019
6380 Clouds 30 1007 61 10000 3.1 80 14:19 11.12.2019
6381 Clouds 30 1007 61 10000 3.1 80 13:44 11.12.2019
6382 Clouds 29 1007 61 10000 3.1 80 13:24 11.12.2019
6383 Clouds 28 1007 37 10000 1 0 12:59 11.12.2019
6384 Clouds 28 1007 37 10000 1 0 12:59 11.12.2019
6385 Clouds 28 1007 37 10000 1 0 12:40 11.12.2019
6386 Clouds 27 1007 37 10000 1 0 12:22 11.12.2019
6387 Clouds 25 1007 47 10000 0.5 280 11:58 11.12.2019
6388 Clouds 24 1007 47 10000 0.5 280 11:39 11.12.2019
6389 Clouds 24 1007 47 10000 0.5 280 11:39 11.12.2019
6390 Clouds 24 1007 47 10000 0.5 280 11:19 11.12.2019
6391 Clouds 23 1006 50 10000 2.1 240 10:59 11.12.2019
6392 Clouds 24 1006 50 10000 2.1 240 10:40 11.12.2019
6393 Clouds 23 1006 50 10000 2.1 240 10:21 11.12.2019
6394 Clouds 23 1006 47 10000 0.5 290 09:57 11.12.2019
6395 Clouds 23 1006 47 10000 0.5 290 09:38 11.12.2019
6396 Clouds 23 1006 47 10000 0.5 290 09:19 11.12.2019
6397 Clouds 23 1006 47 10000 0.5 290 09:19 11.12.2019
6398 Clouds 24 1006 44 10000 1.5 290 08:55 11.12.2019
6399 Clouds 25 1006 44 10000 1.5 290 08:36 11.12.2019
6400 Clear 24 1006 44 10000 1.5 290 08:18 11.12.2019
6401 Clear 25 1006 44 10000 2.6 310 07:42 11.12.2019
6402 Clear 25 1006 44 10000 2.6 310 07:23 11.12.2019
6403 Clear 25 1006 61 10000 1 320 06:46 11.12.2019
6404 Clear 26 1006 61 10000 1 320 06:24 11.12.2019
6405 Clear 26 1007 57 10000 2.6 340 05:54 11.12.2019
6406 Clear 26 1007 57 10000 2.6 340 05:34 11.12.2019
6407 Clear 27 1007 37 10000 2.1 310 04:49 11.12.2019
6408 Clear 28 1007 54 10000 2.1 330 03:19 11.12.2019
6409 Clear 28 1007 45 10000 2.6 310 02:31 11.12.2019
6410 Clouds 30 1007 35 10000 2.6 310 01:21 11.12.2019
6411 Rain 30 1006 45 10000 3.1 320 00:37 11.12.2019
6412 Clouds 32 1006 45 10000 3.1 320 00:18 11.12.2019
6413 Clouds 33 1006 40 10000 4.6 330 23:43 10.12.2019
6414 Clear 34 1006 40 10000 4.6 330 23:22 10.12.2019
6415 Clear 36 1006 23 10000 5.1 330 22:42 10.12.2019
6416 Clear 36 1006 23 10000 5.1 330 22:24 10.12.2019
6417 Clear 36 1006 25 10000 6.7 330 21:58 10.12.2019
6418 Clear 37 1006 25 10000 6.7 330 21:39 10.12.2019
6419 Clear 37 1006 25 10000 6.7 330 21:21 10.12.2019
6420 Clear 37 1006 32 10000 5.7 340 20:59 10.12.2019
6421 Clear 37 1006 32 10000 5.7 340 20:38 10.12.2019
6422 Clear 37 1006 32 10000 5.7 340 20:38 10.12.2019
6423 Clear 37 1006 32 10000 5.7 340 20:19 10.12.2019
6424 Clear 37 1006 32 10000 5.7 340 20:19 10.12.2019
6425 Clear 37 1006 32 10000 5.7 340 20:19 10.12.2019
6426 Clear 37 1006 32 10000 5.7 340 20:19 10.12.2019
6427 Clear 37 1007 22 10000 5.1 320 19:56 10.12.2019
6428 Clear 37 1007 22 10000 5.1 320 19:38 10.12.2019
6429 Clear 37 1007 22 10000 5.1 320 19:20 10.12.2019
6430 Clear 36 1008 26 10000 7.7 270 18:55 10.12.2019
6431 Clear 36 1008 26 10000 7.7 270 18:36 10.12.2019
6432 Clear 36 1008 26 10000 7.7 270 18:36 10.12.2019
6433 Clear 36 1008 26 10000 7.7 270 18:18 10.12.2019
6434 Clear 36 1009 23 10000 4.6 290 17:41 10.12.2019
6435 Clear 36 1009 23 10000 4.6 290 17:22 10.12.2019
6436 Clear 35 1009 26 10000 5.7 300 16:57 10.12.2019
6437 Clear 35 1009 26 10000 5.7 300 16:39 10.12.2019
6438 Clear 34 1009 38 10000 7.7 290 16:19 10.12.2019
6439 Clear 33 1009 30 10000 4.6 290 15:39 10.12.2019
6440 Clear 33 1009 30 10000 4.6 290 15:18 10.12.2019
6441 Clear 32 1010 31 10000 6.2 290 14:56 10.12.2019
6442 Clear 32 1010 33 10000 6.2 300 14:38 10.12.2019
6443 Clear 32 1010 33 10000 6.2 300 14:20 10.12.2019
6444 Clear 32 1010 33 10000 6.2 300 14:20 10.12.2019
6445 Clear 31 1010 38 10000 3.6 290 13:57 10.12.2019
6446 Clear 30 1010 38 10000 3.6 290 13:39 10.12.2019
6447 Clear 30 1010 38 10000 3.6 290 13:20 10.12.2019
6448 Clear 28 1009 42 10000 3.6 290 12:48 10.12.2019
6449 Clear 26 1009 42 10000 3.6 290 12:28 10.12.2019
6450 Clear 25 1009 47 10000 5.1 300 11:55 10.12.2019
6451 Clear 25 1009 47 10000 5.1 300 11:37 10.12.2019
6452 Clear 24 1009 47 10000 5.1 300 11:18 10.12.2019
6453 Clear 23 1009 53 10000 5.1 300 10:42 10.12.2019
6454 Clear 23 1009 53 10000 5.1 300 10:24 10.12.2019
6455 Clear 23 1008 47 10000 4.6 310 09:57 10.12.2019
6456 Clear 23 1008 47 10000 4.6 310 09:57 10.12.2019
6457 Clear 23 1008 47 10000 4.6 310 09:39 10.12.2019
6458 Clear 23 1008 47 10000 4.6 310 09:20 10.12.2019
6459 Clear 22 1007 60 10000 4.1 310 08:58 10.12.2019
6460 Clear 23 1007 60 10000 4.1 310 08:39 10.12.2019
6461 Clear 23 1007 60 10000 4.1 310 08:39 10.12.2019
6462 Clear 23 1007 60 10000 4.1 310 08:19 10.12.2019
6463 Clear 24 1007 57 10000 4.1 320 07:44 10.12.2019
6464 Clear 24 1007 57 10000 4.1 320 07:26 10.12.2019
6465 Clear 24 1008 47 10000 4.1 310 06:50 10.12.2019
6466 Clear 24 1008 42 10000 3.6 310 06:24 10.12.2019
6467 Clear 24 1008 42 10000 3.6 310 05:55 10.12.2019
6468 Rain 25 1008 42 10000 3.6 310 05:19 10.12.2019
6469 Clear 26 1008 61 10000 3.1 330 03:54 10.12.2019
6470 Clear 27 1008 57 10000 2.6 330 02:48 10.12.2019
6471 Clear 27 1008 57 10000 2.6 330 02:48 10.12.2019
6472 Clear 28 1008 51 10000 4.1 310 01:51 10.12.2019
6473 Clear 28 1008 51 10000 4.1 310 01:26 10.12.2019
6474 Clear 28 1008 51 10000 4.1 310 01:26 10.12.2019
6475 Clear 29 1007 48 10000 4.1 320 00:49 10.12.2019
6476 Clear 30 1007 48 10000 4.1 320 00:24 10.12.2019
6477 Clear 31 1007 51 10000 4.6 330 23:43 09.12.2019
6478 Clear 32 1007 51 10000 4.6 330 23:24 09.12.2019
6479 Clouds 33 1007 48 10000 5.1 330 22:58 09.12.2019
6480 Clouds 33 1007 48 10000 5.1 330 22:40 09.12.2019
6481 Clear 34 1008 32 10000 6.2 330 22:20 09.12.2019
6482 Clear 34 1008 32 10000 6.2 330 21:57 09.12.2019
6483 Clear 35 1008 32 10000 6.2 330 21:39 09.12.2019
6484 Clear 35 1008 32 10000 6.2 330 21:19 09.12.2019
6485 Clear 35 1008 34 10000 5.7 320 20:57 09.12.2019
6486 Clear 35 1008 34 10000 5.7 320 20:39 09.12.2019
6487 Clear 35 1008 34 10000 5.7 320 20:20 09.12.2019
6488 Clear 35 1009 30 10000 6.2 310 19:56 09.12.2019
6489 Clear 35 1009 30 10000 6.2 310 19:38 09.12.2019
6490 Clouds 35 1009 28 10000 7.2 290 19:19 09.12.2019
6491 Clouds 35 1009 28 10000 7.2 290 18:56 09.12.2019
6492 Clouds 35 1009 28 10000 7.2 290 18:38 09.12.2019
6493 Clouds 35 1009 28 10000 7.2 290 18:19 09.12.2019
6494 Clear 34 1010 33 10000 5.7 290 17:57 09.12.2019
6495 Clear 34 1010 33 10000 5.7 290 17:39 09.12.2019
6496 Clear 34 1010 33 10000 5.7 290 17:20 09.12.2019
6497 Clear 33 1011 33 10000 5.1 280 16:56 09.12.2019
6498 Clear 33 1011 33 10000 5.1 280 16:37 09.12.2019
6499 Clear 32 1011 33 10000 5.1 280 16:19 09.12.2019
6500 Clear 32 1011 40 10000 5.1 270 15:55 09.12.2019
6501 Clear 32 1011 40 10000 5.1 270 15:55 09.12.2019
6502 Clear 32 1011 40 10000 5.1 270 15:37 09.12.2019
6503 Clear 32 1011 40 10000 5.1 270 15:37 09.12.2019
6504 Clear 31 1011 40 10000 5.1 270 15:19 09.12.2019
6505 Clear 29 1011 51 10000 2.6 290 14:42 09.12.2019
6506 Clear 28 1011 65 10000 3.1 350 14:19 09.12.2019
6507 Clear 27 1012 64 10000 2.1 360 13:58 09.12.2019
6508 Clear 27 1012 64 10000 2.1 360 13:38 09.12.2019
6509 Clear 26 1012 64 10000 2.1 360 13:19 09.12.2019
6510 Clear 25 1012 53 10000 1.5 240 12:57 09.12.2019
6511 Clear 25 1012 53 10000 1.5 240 12:38 09.12.2019
6512 Clear 24 1012 53 10000 1.5 240 12:19 09.12.2019
6513 Clear 23 1012 57 10000 1.5 280 11:57 09.12.2019
6514 Clear 22 1012 57 10000 1.5 280 11:37 09.12.2019
6515 Clear 22 1012 57 10000 1.5 280 11:18 09.12.2019
6516 Clear 21 1011 60 10000 1 0 10:41 09.12.2019
6517 Clear 19 1011 60 10000 1 0 10:20 09.12.2019
6518 Clear 19 1010 64 10000 4.1 350 09:59 09.12.2019
6519 Clear 19 1010 64 10000 4.1 350 09:41 09.12.2019
6520 Clear 20 1010 64 10000 4.1 350 09:21 09.12.2019
6521 Clear 20 1010 64 10000 4.1 310 08:44 09.12.2019
6522 Clear 21 1010 64 10000 4.1 310 08:26 09.12.2019
6523 Thunderstorm 21 1011 64 10000 1.5 330 07:57 09.12.2019
6524 Thunderstorm 21 1011 64 10000 1.5 330 07:38 09.12.2019
6525 Thunderstorm 21 1011 64 10000 1.5 330 07:20 09.12.2019
6526 Clear 22 1011 69 10000 3.6 330 06:43 09.12.2019
6527 Clear 22 1011 69 10000 3.6 330 06:24 09.12.2019
6528 Clear 22 1011 69 10000 3.1 20 05:26 09.12.2019
6529 Clear 23 1011 57 10000 4.1 80 04:33 09.12.2019
6530 Clear 23 1011 60 10000 6.2 100 03:19 09.12.2019
6531 Clouds 24 1011 60 10000 5.1 120 02:19 09.12.2019
6532 Thunderstorm 25 1011 41 8000 7.7 140 01:41 09.12.2019
6533 Thunderstorm 26 1010 39 5000 5.1 150 00:45 09.12.2019
6534 Thunderstorm 27 1009 61 10000 3.1 350 00:25 09.12.2019
6535 Clouds 29 1008 54 10000 4.6 330 23:40 08.12.2019
6536 Clouds 30 1008 54 10000 4.6 330 23:22 08.12.2019
6537 Rain 31 1007 58 10000 6.2 340 22:57 08.12.2019
6538 Rain 31 1007 58 10000 6.2 340 22:38 08.12.2019
6539 Rain 31 1007 58 10000 6.2 340 22:19 08.12.2019
6540 Clouds 31 1007 61 10000 3.1 10 21:57 08.12.2019
6541 Clouds 32 1007 61 10000 3.1 10 21:39 08.12.2019
6542 Clouds 32 1007 61 10000 3.1 10 21:39 08.12.2019
6543 Clouds 32 1007 61 10000 3.1 10 21:19 08.12.2019
6544 Rain 32 1008 54 10000 4.6 360 20:57 08.12.2019
6545 Rain 32 1008 54 10000 4.6 360 20:38 08.12.2019
6546 Clouds 33 1008 40 10000 4.6 320 20:19 08.12.2019
6547 Clouds 32 1009 35 10000 5.1 290 19:57 08.12.2019
6548 Clouds 32 1009 35 10000 5.1 290 19:57 08.12.2019
6549 Clouds 32 1009 35 10000 5.1 290 19:39 08.12.2019
6550 Clouds 32 1009 35 10000 5.1 290 19:21 08.12.2019
6551 Clouds 32 1010 38 10000 4.6 290 18:55 08.12.2019
6552 Clouds 32 1010 38 10000 4.6 290 18:36 08.12.2019
6553 Clouds 31 1010 38 10000 4.6 290 18:18 08.12.2019
6554 Clear 31 1010 42 10000 6.2 340 17:56 08.12.2019
6555 Clear 31 1010 42 10000 6.2 340 17:37 08.12.2019
6556 Clear 31 1010 42 10000 6.2 340 17:37 08.12.2019
6557 Clear 31 1010 42 10000 6.2 340 17:19 08.12.2019
6558 Clear 30 1011 35 10000 7.2 320 16:55 08.12.2019
6559 Clear 30 1011 35 10000 7.2 320 16:37 08.12.2019
6560 Clear 29 1011 39 10000 5.1 330 16:18 08.12.2019
6561 Clear 29 1011 39 10000 5.1 330 15:38 08.12.2019
6562 Clear 28 1011 39 10000 5.1 330 15:19 08.12.2019
6563 Clear 27 1011 53 10000 3.6 350 14:58 08.12.2019
6564 Clear 27 1011 53 10000 3.6 350 14:39 08.12.2019
6565 Clear 27 1011 53 10000 3.6 350 14:39 08.12.2019
6566 Clear 27 1011 53 10000 3.6 350 14:21 08.12.2019
6567 Clear 25 1012 53 10000 3.6 320 13:54 08.12.2019
6568 Clear 25 1012 53 10000 3.6 320 13:36 08.12.2019
6569 Clear 24 1011 49 10000 3.1 330 13:18 08.12.2019
6570 Clear 23 1012 52 10000 4.1 330 12:42 08.12.2019
6571 Clear 22 1012 52 10000 4.1 330 12:23 08.12.2019
6572 Clear 20 1012 49 10000 4.1 230 12:00 08.12.2019
6573 Clear 20 1012 49 10000 4.1 230 11:38 08.12.2019
6574 Clear 19 1012 49 10000 4.1 230 11:19 08.12.2019
6575 Clear 18 1011 52 10000 3.6 320 10:58 08.12.2019
6576 Clear 17 1011 52 10000 3.6 320 10:38 08.12.2019
6577 Clear 17 1011 52 10000 3.6 320 10:19 08.12.2019
6578 Clear 17 1011 52 10000 3.6 340 09:56 08.12.2019
6579 Clear 17 1011 52 10000 3.6 340 09:37 08.12.2019
6580 Clear 17 1011 52 10000 3.6 340 09:37 08.12.2019
6581 Clear 17 1011 52 10000 3.6 340 09:19 08.12.2019
6582 Clear 18 1011 56 10000 3.6 340 08:57 08.12.2019
6583 Clear 17 1011 56 10000 3.6 340 08:36 08.12.2019
6584 Clouds 18 1011 56 10000 3.6 340 08:18 08.12.2019
6585 Clouds 18 1011 49 10000 4.1 20 07:41 08.12.2019
6586 Clouds 19 1011 49 10000 4.1 20 07:19 08.12.2019
6587 Clouds 18 1011 53 10000 3.6 20 06:43 08.12.2019
6588 Clouds 19 1011 53 10000 3.6 20 06:21 08.12.2019
6589 Clouds 19 1012 46 10000 2.6 50 05:30 08.12.2019
6590 Clouds 20 1013 40 10000 4.6 70 04:57 08.12.2019
6591 Clouds 21 1013 37 10000 5.1 70 03:41 08.12.2019
6592 Clouds 21 1013 37 10000 5.1 70 03:20 08.12.2019
6593 Clouds 21 1013 43 10000 5.1 70 02:28 08.12.2019
6594 Clouds 22 1012 49 10000 4.6 70 01:48 08.12.2019
6595 Clouds 22 1012 40 10000 4.1 70 00:59 08.12.2019
6596 Clouds 22 1012 40 10000 4.1 70 00:38 08.12.2019
6597 Clouds 23 1012 40 10000 4.1 70 00:19 08.12.2019
6598 Clouds 24 1012 41 10000 3.6 70 23:40 07.12.2019
6599 Clouds 24 1012 41 10000 3.6 70 23:20 07.12.2019
6600 Clouds 25 1013 41 10000 2.6 70 22:56 07.12.2019
6601 Clouds 25 1013 41 10000 2.6 70 22:37 07.12.2019
6602 Clouds 25 1013 41 10000 2.6 70 22:19 07.12.2019
6603 Clouds 25 1013 36 10000 4.6 60 21:56 07.12.2019
6604 Clouds 26 1013 40 10000 2.1 30 21:37 07.12.2019
6605 Clouds 26 1013 40 10000 2.1 30 21:19 07.12.2019
6606 Clouds 26 1013 40 10000 2.1 30 21:19 07.12.2019
6607 Clouds 26 1014 38 10000 2.6 20 20:40 07.12.2019
6608 Clear 26 1014 38 10000 2.6 20 20:20 07.12.2019
6609 Clear 26 1014 35 10000 2.1 30 19:58 07.12.2019
6610 Clear 26 1014 35 10000 2.1 30 19:39 07.12.2019
6611 Clear 26 1014 35 10000 2.1 30 19:21 07.12.2019
6612 Clear 26 1015 37 10000 2.1 20 18:59 07.12.2019
6613 Clear 26 1015 37 10000 2.1 20 18:40 07.12.2019
6614 Clear 26 1015 37 10000 2.1 20 18:18 07.12.2019
6615 Clear 25 1016 35 10000 3.1 10 17:56 07.12.2019
6616 Clear 25 1016 35 10000 3.1 10 17:37 07.12.2019
6617 Clear 25 1016 35 10000 3.1 10 17:19 07.12.2019
6618 Clear 25 1016 33 10000 2.6 50 16:56 07.12.2019
6619 Clear 25 1016 33 10000 2.6 50 16:36 07.12.2019
6620 Clear 25 1016 33 10000 2.6 50 16:36 07.12.2019
6621 Clear 25 1016 33 10000 2.6 50 16:18 07.12.2019
6622 Clear 25 1016 33 10000 2.6 50 16:18 07.12.2019
6623 Clear 24 1017 32 10000 3.1 40 15:41 07.12.2019
6624 Clear 24 1017 32 10000 3.1 40 15:23 07.12.2019
6625 Clear 24 1017 32 10000 3.1 40 15:23 07.12.2019
6626 Clear 23 1016 30 10000 3.6 60 14:56 07.12.2019
6627 Clear 23 1016 30 10000 3.6 60 14:38 07.12.2019
6628 Clear 23 1016 30 10000 3.6 60 14:18 07.12.2019
6629 Clear 22 1016 30 10000 3.1 80 13:40 07.12.2019
6630 Clear 20 1016 28 10000 2.1 150 13:20 07.12.2019
6631 Clear 20 1016 28 10000 2.1 150 12:55 07.12.2019
6632 Clear 20 1016 28 10000 2.1 150 12:37 07.12.2019
6633 Clear 19 1016 45 10000 1.79 55 12:18 07.12.2019
6634 Clear 18 1016 45 10000 1.79 55 11:41 07.12.2019
6635 Clear 16 1016 45 10000 2.33 137 11:23 07.12.2019
6636 Clear 15 1016 52 10000 1 0 10:56 07.12.2019
6637 Clear 14 1016 59 10000 1 210 10:36 07.12.2019
6638 Clear 13 1015 59 10000 1.5 180 10:18 07.12.2019
6639 Clear 13 1015 59 10000 1.5 180 09:39 07.12.2019
6640 Clear 13 1015 59 10000 1.5 180 09:21 07.12.2019
6641 Clear 14 1015 55 10000 3.1 140 08:46 07.12.2019
6642 Clear 14 1015 55 10000 3.1 140 08:46 07.12.2019
6643 Clear 14 1015 55 10000 3.1 140 08:25 07.12.2019
6644 Clear 14 1015 55 10000 3.1 140 08:25 07.12.2019
6645 Clear 14 1015 55 10000 3.1 140 08:25 07.12.2019
6646 Clear 15 1015 48 10000 2.1 150 07:53 07.12.2019
6647 Clear 15 1015 48 10000 2.1 150 07:53 07.12.2019
6648 Clear 16 1015 48 10000 2.1 150 07:29 07.12.2019
6649 Clear 16 1015 48 10000 4.1 130 06:53 07.12.2019
6650 Clear 17 1015 48 10000 4.1 130 06:27 07.12.2019
6651 Clear 18 1015 59 10000 4.1 130 05:49 07.12.2019
6652 Clear 19 1015 68 10000 4.6 140 04:44 07.12.2019
6653 Clear 20 1014 77 10000 7.2 120 03:50 07.12.2019
6654 Clear 21 1013 68 10000 6.7 130 02:23 07.12.2019
6655 Clear 21 1013 68 10000 6.7 130 02:23 07.12.2019
6656 Clear 23 1012 56 10000 5.7 120 01:42 07.12.2019
6657 Clear 23 1012 56 10000 5.7 120 01:24 07.12.2019
6658 Clear 25 1011 24 10000 3.1 170 00:22 07.12.2019
6659 Clear 25 1011 24 10000 3.1 170 00:22 07.12.2019
6660 Clear 26 1011 41 10000 2.1 80 23:59 06.12.2019
6661 Clear 26 1011 41 10000 2.1 80 23:40 06.12.2019
6662 Clear 27 1011 41 10000 2.1 80 23:20 06.12.2019
6663 Clear 28 1010 34 10000 3.1 30 22:39 06.12.2019
6664 Clear 28 1010 34 10000 3.1 30 22:39 06.12.2019
6665 Clear 28 1010 34 10000 3.1 30 22:21 06.12.2019
6666 Clear 29 1010 39 10000 3.6 40 21:59 06.12.2019
6667 Clear 29 1010 39 10000 3.6 40 21:41 06.12.2019
6668 Clear 29 1010 39 10000 3.6 40 21:21 06.12.2019
6669 Clear 29 1010 44 10000 2.6 20 20:56 06.12.2019
6670 Clear 29 1010 44 10000 2.6 20 20:38 06.12.2019
6671 Clear 29 1010 44 10000 2.6 20 20:38 06.12.2019
6672 Clouds 29 1010 44 10000 4.1 20 20:19 06.12.2019
6673 Clouds 29 1010 44 10000 4.1 20 19:42 06.12.2019
6674 Clouds 29 1010 44 10000 4.1 20 19:42 06.12.2019
6675 Clouds 29 1010 44 10000 4.1 20 19:24 06.12.2019
6676 Clouds 29